<?xml version="1.0" encoding="UTF-8"?>
<gpx version="1.1" creator="https://www.youtrack.es" xsi:schemaLocation="http://www.topografix.com/GPX/1/1 http://www.topografix.com/GPX/1/1/gpx.xsd http://www.garmin.com/xmlschemas/GpxExtensions/v3 http://www.garmin.com/xmlschemas/GpxExtensionsv3.xsd http://www.garmin.com/xmlschemas/TrackPointExtension/v1 http://www.garmin.com/xmlschemas/TrackPointExtensionv1.xsd" xmlns:gpxtpx="http://www.garmin.com/xmlschemas/TrackPointExtension/v1" xmlns:gpxx="http://www.garmin.com/xmlschemas/GpxExtensions/v3" xmlns:xsi="http://www.w3.org/2001/XMLSchema-instance">
  <metadata>
    <link href="https://www.youtrack.es">
      <text>YouTrack.es</text>
    </link>
    <time>2026-05-08T05:04:24Z</time>
  </metadata>
  <trk>
    <src>https://www.youtrack.es</src>
    <link href="https://www.youtrack.es/ruta/2367-leitzulia">
      <text>YouTrack.es</text>
    </link>
    <trkseg>
      <trkpt lat="43.078536666666665" lon="-1.91452">
        <ele>537.4</ele>
        <time>2018-09-29T07:04:01Z</time>
      </trkpt>
      <trkpt lat="43.078555" lon="-1.9145766666666666">
        <ele>537.2</ele>
        <time>2018-09-29T07:04:17Z</time>
      </trkpt>
      <trkpt lat="43.07857" lon="-1.9146616666666667">
        <ele>537.0</ele>
        <time>2018-09-29T07:04:24Z</time>
      </trkpt>
      <trkpt lat="43.07857666666666" lon="-1.914795">
        <ele>537.0</ele>
        <time>2018-09-29T07:04:28Z</time>
      </trkpt>
      <trkpt lat="43.0786" lon="-1.914895">
        <ele>537.0</ele>
        <time>2018-09-29T07:04:30Z</time>
      </trkpt>
      <trkpt lat="43.07864333333333" lon="-1.914985">
        <ele>536.9</ele>
        <time>2018-09-29T07:04:33Z</time>
      </trkpt>
      <trkpt lat="43.078655" lon="-1.9150983333333333">
        <ele>536.9</ele>
        <time>2018-09-29T07:04:36Z</time>
      </trkpt>
      <trkpt lat="43.07866" lon="-1.9152200000000001">
        <ele>536.8</ele>
        <time>2018-09-29T07:04:39Z</time>
      </trkpt>
      <trkpt lat="43.078646666666664" lon="-1.91532">
        <ele>536.8</ele>
        <time>2018-09-29T07:04:42Z</time>
      </trkpt>
      <trkpt lat="43.078535" lon="-1.915335">
        <ele>536.5</ele>
        <time>2018-09-29T07:04:45Z</time>
      </trkpt>
      <trkpt lat="43.07843666666667" lon="-1.9153449999999999">
        <ele>536.4</ele>
        <time>2018-09-29T07:04:47Z</time>
      </trkpt>
      <trkpt lat="43.07835" lon="-1.91535">
        <ele>536.3</ele>
        <time>2018-09-29T07:04:49Z</time>
      </trkpt>
      <trkpt lat="43.07826" lon="-1.915335">
        <ele>536.2</ele>
        <time>2018-09-29T07:04:51Z</time>
      </trkpt>
      <trkpt lat="43.078178333333334" lon="-1.91532">
        <ele>536.2</ele>
        <time>2018-09-29T07:04:53Z</time>
      </trkpt>
      <trkpt lat="43.078086666666664" lon="-1.9153">
        <ele>536.2</ele>
        <time>2018-09-29T07:04:56Z</time>
      </trkpt>
      <trkpt lat="43.078035" lon="-1.91523">
        <ele>536.2</ele>
        <time>2018-09-29T07:04:59Z</time>
      </trkpt>
      <trkpt lat="43.07797" lon="-1.91516">
        <ele>536.2</ele>
        <time>2018-09-29T07:05:02Z</time>
      </trkpt>
      <trkpt lat="43.07792" lon="-1.9150916666666666">
        <ele>536.2</ele>
        <time>2018-09-29T07:05:05Z</time>
      </trkpt>
      <trkpt lat="43.07784" lon="-1.9150066666666667">
        <ele>536.2</ele>
        <time>2018-09-29T07:05:09Z</time>
      </trkpt>
      <trkpt lat="43.077785" lon="-1.9149433333333334">
        <ele>536.2</ele>
        <time>2018-09-29T07:05:12Z</time>
      </trkpt>
      <trkpt lat="43.07772" lon="-1.91486">
        <ele>536.2</ele>
        <time>2018-09-29T07:05:15Z</time>
      </trkpt>
      <trkpt lat="43.07765833333333" lon="-1.914785">
        <ele>536.2</ele>
        <time>2018-09-29T07:05:18Z</time>
      </trkpt>
      <trkpt lat="43.07761" lon="-1.914705">
        <ele>536.1</ele>
        <time>2018-09-29T07:05:21Z</time>
      </trkpt>
      <trkpt lat="43.077601666666666" lon="-1.91459">
        <ele>536.1</ele>
        <time>2018-09-29T07:05:25Z</time>
      </trkpt>
      <trkpt lat="43.077655" lon="-1.91452">
        <ele>536.1</ele>
        <time>2018-09-29T07:05:27Z</time>
      </trkpt>
      <trkpt lat="43.07772" lon="-1.914435">
        <ele>536.1</ele>
        <time>2018-09-29T07:05:30Z</time>
      </trkpt>
      <trkpt lat="43.07776" lon="-1.91433">
        <ele>536.1</ele>
        <time>2018-09-29T07:05:33Z</time>
      </trkpt>
      <trkpt lat="43.077695" lon="-1.9142166666666667">
        <ele>536.1</ele>
        <time>2018-09-29T07:05:36Z</time>
      </trkpt>
      <trkpt lat="43.077643333333334" lon="-1.914105">
        <ele>536.1</ele>
        <time>2018-09-29T07:05:39Z</time>
      </trkpt>
      <trkpt lat="43.077605" lon="-1.91399">
        <ele>536.1</ele>
        <time>2018-09-29T07:05:42Z</time>
      </trkpt>
      <trkpt lat="43.077565" lon="-1.913885">
        <ele>536.1</ele>
        <time>2018-09-29T07:05:45Z</time>
      </trkpt>
      <trkpt lat="43.07753" lon="-1.913795">
        <ele>536.1</ele>
        <time>2018-09-29T07:05:48Z</time>
      </trkpt>
      <trkpt lat="43.077495" lon="-1.9136883333333334">
        <ele>536.1</ele>
        <time>2018-09-29T07:05:52Z</time>
      </trkpt>
      <trkpt lat="43.077515" lon="-1.9135816666666667">
        <ele>536.1</ele>
        <time>2018-09-29T07:05:56Z</time>
      </trkpt>
      <trkpt lat="43.07755" lon="-1.9134799999999998">
        <ele>536.1</ele>
        <time>2018-09-29T07:06:00Z</time>
      </trkpt>
      <trkpt lat="43.07757333333333" lon="-1.913375">
        <ele>536.1</ele>
        <time>2018-09-29T07:06:05Z</time>
      </trkpt>
      <trkpt lat="43.077615" lon="-1.913275">
        <ele>536.1</ele>
        <time>2018-09-29T07:06:09Z</time>
      </trkpt>
      <trkpt lat="43.077711666666666" lon="-1.9132666666666667">
        <ele>536.1</ele>
        <time>2018-09-29T07:06:14Z</time>
      </trkpt>
      <trkpt lat="43.07779" lon="-1.9133383333333334">
        <ele>536.1</ele>
        <time>2018-09-29T07:06:16Z</time>
      </trkpt>
      <trkpt lat="43.07788" lon="-1.9134416666666667">
        <ele>536.2</ele>
        <time>2018-09-29T07:06:18Z</time>
      </trkpt>
      <trkpt lat="43.077975" lon="-1.913545">
        <ele>536.2</ele>
        <time>2018-09-29T07:06:20Z</time>
      </trkpt>
      <trkpt lat="43.078046666666665" lon="-1.913635">
        <ele>536.2</ele>
        <time>2018-09-29T07:06:22Z</time>
      </trkpt>
      <trkpt lat="43.078115" lon="-1.9137533333333334">
        <ele>536.2</ele>
        <time>2018-09-29T07:06:24Z</time>
      </trkpt>
      <trkpt lat="43.078205" lon="-1.91383">
        <ele>536.2</ele>
        <time>2018-09-29T07:06:26Z</time>
      </trkpt>
      <trkpt lat="43.07831" lon="-1.9139">
        <ele>536.2</ele>
        <time>2018-09-29T07:06:28Z</time>
      </trkpt>
      <trkpt lat="43.07839" lon="-1.91397">
        <ele>536.2</ele>
        <time>2018-09-29T07:06:30Z</time>
      </trkpt>
      <trkpt lat="43.07847" lon="-1.914015">
        <ele>536.2</ele>
        <time>2018-09-29T07:06:33Z</time>
      </trkpt>
      <trkpt lat="43.078556666666664" lon="-1.9140333333333333">
        <ele>536.2</ele>
        <time>2018-09-29T07:06:38Z</time>
      </trkpt>
      <trkpt lat="43.078628333333334" lon="-1.9140350000000002">
        <ele>536.2</ele>
        <time>2018-09-29T07:06:43Z</time>
      </trkpt>
      <trkpt lat="43.07872166666667" lon="-1.914105">
        <ele>536.2</ele>
        <time>2018-09-29T07:06:46Z</time>
      </trkpt>
      <trkpt lat="43.078825" lon="-1.9141316666666666">
        <ele>536.2</ele>
        <time>2018-09-29T07:06:48Z</time>
      </trkpt>
      <trkpt lat="43.078915" lon="-1.914175">
        <ele>536.1</ele>
        <time>2018-09-29T07:06:50Z</time>
      </trkpt>
      <trkpt lat="43.07897166666667" lon="-1.91426">
        <ele>536.1</ele>
        <time>2018-09-29T07:06:51Z</time>
      </trkpt>
      <trkpt lat="43.079035" lon="-1.9143366666666668">
        <ele>536.1</ele>
        <time>2018-09-29T07:06:52Z</time>
      </trkpt>
      <trkpt lat="43.079096666666665" lon="-1.91444">
        <ele>536.1</ele>
        <time>2018-09-29T07:06:53Z</time>
      </trkpt>
      <trkpt lat="43.079155" lon="-1.91453">
        <ele>536.1</ele>
        <time>2018-09-29T07:06:54Z</time>
      </trkpt>
      <trkpt lat="43.079215" lon="-1.9146100000000001">
        <ele>536.0</ele>
        <time>2018-09-29T07:06:55Z</time>
      </trkpt>
      <trkpt lat="43.07929166666667" lon="-1.9146566666666667">
        <ele>536.0</ele>
        <time>2018-09-29T07:06:56Z</time>
      </trkpt>
      <trkpt lat="43.07937" lon="-1.91471">
        <ele>535.9</ele>
        <time>2018-09-29T07:06:57Z</time>
      </trkpt>
      <trkpt lat="43.07944166666667" lon="-1.9147583333333333">
        <ele>535.9</ele>
        <time>2018-09-29T07:06:58Z</time>
      </trkpt>
      <trkpt lat="43.079525" lon="-1.9148016666666667">
        <ele>535.8</ele>
        <time>2018-09-29T07:06:59Z</time>
      </trkpt>
      <trkpt lat="43.07961" lon="-1.9148383333333334">
        <ele>535.8</ele>
        <time>2018-09-29T07:07:00Z</time>
      </trkpt>
      <trkpt lat="43.07969166666667" lon="-1.91489">
        <ele>535.7</ele>
        <time>2018-09-29T07:07:01Z</time>
      </trkpt>
      <trkpt lat="43.079775" lon="-1.9149433333333334">
        <ele>535.7</ele>
        <time>2018-09-29T07:07:02Z</time>
      </trkpt>
      <trkpt lat="43.07986" lon="-1.914995">
        <ele>535.6</ele>
        <time>2018-09-29T07:07:03Z</time>
      </trkpt>
      <trkpt lat="43.079945" lon="-1.91503">
        <ele>535.6</ele>
        <time>2018-09-29T07:07:04Z</time>
      </trkpt>
      <trkpt lat="43.08002" lon="-1.915065">
        <ele>535.5</ele>
        <time>2018-09-29T07:07:05Z</time>
      </trkpt>
      <trkpt lat="43.0801" lon="-1.9150966666666667">
        <ele>535.5</ele>
        <time>2018-09-29T07:07:06Z</time>
      </trkpt>
      <trkpt lat="43.08018" lon="-1.9151166666666666">
        <ele>535.4</ele>
        <time>2018-09-29T07:07:07Z</time>
      </trkpt>
      <trkpt lat="43.080255" lon="-1.91513">
        <ele>535.4</ele>
        <time>2018-09-29T07:07:08Z</time>
      </trkpt>
      <trkpt lat="43.080325" lon="-1.91517">
        <ele>535.3</ele>
        <time>2018-09-29T07:07:09Z</time>
      </trkpt>
      <trkpt lat="43.080415" lon="-1.9153016666666667">
        <ele>535.3</ele>
        <time>2018-09-29T07:07:11Z</time>
      </trkpt>
      <trkpt lat="43.080505" lon="-1.915435">
        <ele>535.2</ele>
        <time>2018-09-29T07:07:13Z</time>
      </trkpt>
      <trkpt lat="43.08062" lon="-1.915425">
        <ele>535.1</ele>
        <time>2018-09-29T07:07:15Z</time>
      </trkpt>
      <trkpt lat="43.08074666666667" lon="-1.915425">
        <ele>535.0</ele>
        <time>2018-09-29T07:07:17Z</time>
      </trkpt>
      <trkpt lat="43.080821666666665" lon="-1.9154300000000002">
        <ele>535.0</ele>
        <time>2018-09-29T07:07:18Z</time>
      </trkpt>
      <trkpt lat="43.0809" lon="-1.91544">
        <ele>534.9</ele>
        <time>2018-09-29T07:07:19Z</time>
      </trkpt>
      <trkpt lat="43.080976666666665" lon="-1.9154499999999999">
        <ele>534.8</ele>
        <time>2018-09-29T07:07:20Z</time>
      </trkpt>
      <trkpt lat="43.08105666666667" lon="-1.9154616666666668">
        <ele>534.7</ele>
        <time>2018-09-29T07:07:21Z</time>
      </trkpt>
      <trkpt lat="43.08114166666667" lon="-1.9154550000000001">
        <ele>534.7</ele>
        <time>2018-09-29T07:07:22Z</time>
      </trkpt>
      <trkpt lat="43.08123" lon="-1.9154550000000001">
        <ele>534.6</ele>
        <time>2018-09-29T07:07:23Z</time>
      </trkpt>
      <trkpt lat="43.081325" lon="-1.9154583333333335">
        <ele>534.5</ele>
        <time>2018-09-29T07:07:24Z</time>
      </trkpt>
      <trkpt lat="43.08141666666667" lon="-1.9154550000000001">
        <ele>534.4</ele>
        <time>2018-09-29T07:07:25Z</time>
      </trkpt>
      <trkpt lat="43.081505" lon="-1.9154550000000001">
        <ele>534.3</ele>
        <time>2018-09-29T07:07:26Z</time>
      </trkpt>
      <trkpt lat="43.08159" lon="-1.9154583333333335">
        <ele>534.2</ele>
        <time>2018-09-29T07:07:27Z</time>
      </trkpt>
      <trkpt lat="43.08168" lon="-1.9154816666666665">
        <ele>534.1</ele>
        <time>2018-09-29T07:07:28Z</time>
      </trkpt>
      <trkpt lat="43.081765" lon="-1.915515">
        <ele>533.9</ele>
        <time>2018-09-29T07:07:29Z</time>
      </trkpt>
      <trkpt lat="43.081845" lon="-1.9155466666666667">
        <ele>533.7</ele>
        <time>2018-09-29T07:07:30Z</time>
      </trkpt>
      <trkpt lat="43.081925" lon="-1.915595">
        <ele>533.4</ele>
        <time>2018-09-29T07:07:31Z</time>
      </trkpt>
      <trkpt lat="43.081995" lon="-1.9156466666666667">
        <ele>533.2</ele>
        <time>2018-09-29T07:07:32Z</time>
      </trkpt>
      <trkpt lat="43.082065" lon="-1.915695">
        <ele>533.0</ele>
        <time>2018-09-29T07:07:33Z</time>
      </trkpt>
      <trkpt lat="43.082135" lon="-1.9157316666666666">
        <ele>532.7</ele>
        <time>2018-09-29T07:07:34Z</time>
      </trkpt>
      <trkpt lat="43.0822" lon="-1.9157899999999999">
        <ele>532.5</ele>
        <time>2018-09-29T07:07:35Z</time>
      </trkpt>
      <trkpt lat="43.082256666666666" lon="-1.91586">
        <ele>532.3</ele>
        <time>2018-09-29T07:07:36Z</time>
      </trkpt>
      <trkpt lat="43.08231" lon="-1.91594">
        <ele>532.1</ele>
        <time>2018-09-29T07:07:37Z</time>
      </trkpt>
      <trkpt lat="43.082365" lon="-1.9160116666666667">
        <ele>531.9</ele>
        <time>2018-09-29T07:07:38Z</time>
      </trkpt>
      <trkpt lat="43.082413333333335" lon="-1.916085">
        <ele>531.6</ele>
        <time>2018-09-29T07:07:39Z</time>
      </trkpt>
      <trkpt lat="43.08246" lon="-1.91617">
        <ele>531.4</ele>
        <time>2018-09-29T07:07:40Z</time>
      </trkpt>
      <trkpt lat="43.08251666666666" lon="-1.91634">
        <ele>531.5</ele>
        <time>2018-09-29T07:07:42Z</time>
      </trkpt>
      <trkpt lat="43.08258" lon="-1.9165">
        <ele>531.7</ele>
        <time>2018-09-29T07:07:44Z</time>
      </trkpt>
      <trkpt lat="43.08266" lon="-1.9166216666666667">
        <ele>531.5</ele>
        <time>2018-09-29T07:07:46Z</time>
      </trkpt>
      <trkpt lat="43.08277" lon="-1.9167116666666666">
        <ele>531.1</ele>
        <time>2018-09-29T07:07:48Z</time>
      </trkpt>
      <trkpt lat="43.08289" lon="-1.91676">
        <ele>530.5</ele>
        <time>2018-09-29T07:07:50Z</time>
      </trkpt>
      <trkpt lat="43.083016666666666" lon="-1.91676">
        <ele>530.0</ele>
        <time>2018-09-29T07:07:52Z</time>
      </trkpt>
      <trkpt lat="43.083145" lon="-1.9167366666666665">
        <ele>529.1</ele>
        <time>2018-09-29T07:07:54Z</time>
      </trkpt>
      <trkpt lat="43.08325" lon="-1.9167233333333333">
        <ele>528.7</ele>
        <time>2018-09-29T07:07:56Z</time>
      </trkpt>
      <trkpt lat="43.083345" lon="-1.9167116666666666">
        <ele>528.4</ele>
        <time>2018-09-29T07:07:58Z</time>
      </trkpt>
      <trkpt lat="43.08343" lon="-1.9167133333333335">
        <ele>528.1</ele>
        <time>2018-09-29T07:08:00Z</time>
      </trkpt>
      <trkpt lat="43.08351666666667" lon="-1.9167283333333334">
        <ele>528.0</ele>
        <time>2018-09-29T07:08:02Z</time>
      </trkpt>
      <trkpt lat="43.083605" lon="-1.91675">
        <ele>527.9</ele>
        <time>2018-09-29T07:08:04Z</time>
      </trkpt>
      <trkpt lat="43.08369" lon="-1.916775">
        <ele>527.8</ele>
        <time>2018-09-29T07:08:06Z</time>
      </trkpt>
      <trkpt lat="43.083771666666664" lon="-1.9168">
        <ele>527.7</ele>
        <time>2018-09-29T07:08:08Z</time>
      </trkpt>
      <trkpt lat="43.083855" lon="-1.916825">
        <ele>527.8</ele>
        <time>2018-09-29T07:08:10Z</time>
      </trkpt>
      <trkpt lat="43.083965" lon="-1.916865">
        <ele>527.9</ele>
        <time>2018-09-29T07:08:13Z</time>
      </trkpt>
      <trkpt lat="43.084045" lon="-1.9168933333333333">
        <ele>527.9</ele>
        <time>2018-09-29T07:08:15Z</time>
      </trkpt>
      <trkpt lat="43.08412" lon="-1.916925">
        <ele>528.0</ele>
        <time>2018-09-29T07:08:17Z</time>
      </trkpt>
      <trkpt lat="43.084195" lon="-1.91696">
        <ele>528.1</ele>
        <time>2018-09-29T07:08:19Z</time>
      </trkpt>
      <trkpt lat="43.0843" lon="-1.917005">
        <ele>528.3</ele>
        <time>2018-09-29T07:08:22Z</time>
      </trkpt>
      <trkpt lat="43.08438" lon="-1.9170250000000002">
        <ele>528.5</ele>
        <time>2018-09-29T07:08:24Z</time>
      </trkpt>
      <trkpt lat="43.08446" lon="-1.91706">
        <ele>528.8</ele>
        <time>2018-09-29T07:08:26Z</time>
      </trkpt>
      <trkpt lat="43.08453" lon="-1.917095">
        <ele>528.8</ele>
        <time>2018-09-29T07:08:28Z</time>
      </trkpt>
      <trkpt lat="43.08462333333333" lon="-1.91713">
        <ele>528.9</ele>
        <time>2018-09-29T07:08:31Z</time>
      </trkpt>
      <trkpt lat="43.084695" lon="-1.9171616666666667">
        <ele>529.1</ele>
        <time>2018-09-29T07:08:33Z</time>
      </trkpt>
      <trkpt lat="43.084775" lon="-1.917195">
        <ele>529.3</ele>
        <time>2018-09-29T07:08:35Z</time>
      </trkpt>
      <trkpt lat="43.084845" lon="-1.91723">
        <ele>529.3</ele>
        <time>2018-09-29T07:08:37Z</time>
      </trkpt>
      <trkpt lat="43.08495" lon="-1.9172600000000002">
        <ele>529.4</ele>
        <time>2018-09-29T07:08:40Z</time>
      </trkpt>
      <trkpt lat="43.08502" lon="-1.9173">
        <ele>529.6</ele>
        <time>2018-09-29T07:08:42Z</time>
      </trkpt>
      <trkpt lat="43.085095" lon="-1.91733">
        <ele>529.7</ele>
        <time>2018-09-29T07:08:44Z</time>
      </trkpt>
      <trkpt lat="43.0852" lon="-1.917365">
        <ele>529.7</ele>
        <time>2018-09-29T07:08:47Z</time>
      </trkpt>
      <trkpt lat="43.085296666666665" lon="-1.91739">
        <ele>529.8</ele>
        <time>2018-09-29T07:08:50Z</time>
      </trkpt>
      <trkpt lat="43.085375" lon="-1.917415">
        <ele>529.9</ele>
        <time>2018-09-29T07:08:52Z</time>
      </trkpt>
      <trkpt lat="43.08544666666667" lon="-1.9174366666666667">
        <ele>530.0</ele>
        <time>2018-09-29T07:08:54Z</time>
      </trkpt>
      <trkpt lat="43.085545" lon="-1.917465">
        <ele>530.1</ele>
        <time>2018-09-29T07:08:57Z</time>
      </trkpt>
      <trkpt lat="43.08564666666667" lon="-1.91749">
        <ele>530.2</ele>
        <time>2018-09-29T07:09:00Z</time>
      </trkpt>
      <trkpt lat="43.085725" lon="-1.9175">
        <ele>530.3</ele>
        <time>2018-09-29T07:09:02Z</time>
      </trkpt>
      <trkpt lat="43.0858" lon="-1.9175216666666666">
        <ele>530.4</ele>
        <time>2018-09-29T07:09:04Z</time>
      </trkpt>
      <trkpt lat="43.08587" lon="-1.9175483333333334">
        <ele>530.4</ele>
        <time>2018-09-29T07:09:06Z</time>
      </trkpt>
      <trkpt lat="43.085966666666664" lon="-1.9175900000000001">
        <ele>530.6</ele>
        <time>2018-09-29T07:09:09Z</time>
      </trkpt>
      <trkpt lat="43.086065" lon="-1.9176366666666667">
        <ele>530.7</ele>
        <time>2018-09-29T07:09:12Z</time>
      </trkpt>
      <trkpt lat="43.086165" lon="-1.91768">
        <ele>530.8</ele>
        <time>2018-09-29T07:09:15Z</time>
      </trkpt>
      <trkpt lat="43.08626666666667" lon="-1.9177116666666667">
        <ele>531.5</ele>
        <time>2018-09-29T07:09:18Z</time>
      </trkpt>
      <trkpt lat="43.08634" lon="-1.9177300000000002">
        <ele>531.5</ele>
        <time>2018-09-29T07:09:20Z</time>
      </trkpt>
      <trkpt lat="43.086435" lon="-1.917755">
        <ele>531.7</ele>
        <time>2018-09-29T07:09:23Z</time>
      </trkpt>
      <trkpt lat="43.08654" lon="-1.91777">
        <ele>531.8</ele>
        <time>2018-09-29T07:09:26Z</time>
      </trkpt>
      <trkpt lat="43.086615" lon="-1.91776">
        <ele>531.9</ele>
        <time>2018-09-29T07:09:28Z</time>
      </trkpt>
      <trkpt lat="43.086711666666666" lon="-1.9177016666666666">
        <ele>532.1</ele>
        <time>2018-09-29T07:09:31Z</time>
      </trkpt>
      <trkpt lat="43.08678666666667" lon="-1.91761">
        <ele>532.3</ele>
        <time>2018-09-29T07:09:34Z</time>
      </trkpt>
      <trkpt lat="43.086846666666666" lon="-1.91754">
        <ele>532.9</ele>
        <time>2018-09-29T07:09:36Z</time>
      </trkpt>
      <trkpt lat="43.08691" lon="-1.91749">
        <ele>533.0</ele>
        <time>2018-09-29T07:09:38Z</time>
      </trkpt>
      <trkpt lat="43.08698" lon="-1.91747">
        <ele>533.5</ele>
        <time>2018-09-29T07:09:40Z</time>
      </trkpt>
      <trkpt lat="43.08707" lon="-1.91747">
        <ele>533.9</ele>
        <time>2018-09-29T07:09:42Z</time>
      </trkpt>
      <trkpt lat="43.08714666666667" lon="-1.9175366666666667">
        <ele>534.5</ele>
        <time>2018-09-29T07:09:44Z</time>
      </trkpt>
      <trkpt lat="43.08721" lon="-1.91764">
        <ele>534.9</ele>
        <time>2018-09-29T07:09:46Z</time>
      </trkpt>
      <trkpt lat="43.08726" lon="-1.91776">
        <ele>535.2</ele>
        <time>2018-09-29T07:09:48Z</time>
      </trkpt>
      <trkpt lat="43.08731" lon="-1.9178866666666665">
        <ele>535.5</ele>
        <time>2018-09-29T07:09:50Z</time>
      </trkpt>
      <trkpt lat="43.087365" lon="-1.918005">
        <ele>535.7</ele>
        <time>2018-09-29T07:09:52Z</time>
      </trkpt>
      <trkpt lat="43.087406666666666" lon="-1.918135">
        <ele>535.9</ele>
        <time>2018-09-29T07:09:54Z</time>
      </trkpt>
      <trkpt lat="43.087455" lon="-1.9182633333333334">
        <ele>536.2</ele>
        <time>2018-09-29T07:09:56Z</time>
      </trkpt>
      <trkpt lat="43.08749666666667" lon="-1.91838">
        <ele>536.3</ele>
        <time>2018-09-29T07:09:58Z</time>
      </trkpt>
      <trkpt lat="43.08753166666666" lon="-1.9184800000000002">
        <ele>536.3</ele>
        <time>2018-09-29T07:10:01Z</time>
      </trkpt>
      <trkpt lat="43.08758" lon="-1.9185933333333334">
        <ele>536.4</ele>
        <time>2018-09-29T07:10:04Z</time>
      </trkpt>
      <trkpt lat="43.087625" lon="-1.918725">
        <ele>536.4</ele>
        <time>2018-09-29T07:10:07Z</time>
      </trkpt>
      <trkpt lat="43.087648333333334" lon="-1.918825">
        <ele>536.5</ele>
        <time>2018-09-29T07:10:10Z</time>
      </trkpt>
      <trkpt lat="43.087695" lon="-1.9189516666666666">
        <ele>536.5</ele>
        <time>2018-09-29T07:10:13Z</time>
      </trkpt>
      <trkpt lat="43.08775" lon="-1.9190683333333334">
        <ele>536.6</ele>
        <time>2018-09-29T07:10:16Z</time>
      </trkpt>
      <trkpt lat="43.087785" lon="-1.9191616666666667">
        <ele>536.8</ele>
        <time>2018-09-29T07:10:18Z</time>
      </trkpt>
      <trkpt lat="43.08783" lon="-1.9192733333333334">
        <ele>537.1</ele>
        <time>2018-09-29T07:10:20Z</time>
      </trkpt>
      <trkpt lat="43.08787" lon="-1.9194033333333334">
        <ele>537.3</ele>
        <time>2018-09-29T07:10:22Z</time>
      </trkpt>
      <trkpt lat="43.087915" lon="-1.91955">
        <ele>537.5</ele>
        <time>2018-09-29T07:10:24Z</time>
      </trkpt>
      <trkpt lat="43.087975" lon="-1.9196883333333332">
        <ele>537.6</ele>
        <time>2018-09-29T07:10:26Z</time>
      </trkpt>
      <trkpt lat="43.08803" lon="-1.91983">
        <ele>537.7</ele>
        <time>2018-09-29T07:10:28Z</time>
      </trkpt>
      <trkpt lat="43.08808" lon="-1.9199533333333334">
        <ele>537.8</ele>
        <time>2018-09-29T07:10:30Z</time>
      </trkpt>
      <trkpt lat="43.088125" lon="-1.9200566666666667">
        <ele>537.8</ele>
        <time>2018-09-29T07:10:32Z</time>
      </trkpt>
      <trkpt lat="43.088165" lon="-1.92016">
        <ele>537.9</ele>
        <time>2018-09-29T07:10:34Z</time>
      </trkpt>
      <trkpt lat="43.08821666666667" lon="-1.9202616666666668">
        <ele>537.9</ele>
        <time>2018-09-29T07:10:36Z</time>
      </trkpt>
      <trkpt lat="43.088265" lon="-1.9204050000000001">
        <ele>538.0</ele>
        <time>2018-09-29T07:10:38Z</time>
      </trkpt>
      <trkpt lat="43.088315" lon="-1.920535">
        <ele>538.1</ele>
        <time>2018-09-29T07:10:40Z</time>
      </trkpt>
      <trkpt lat="43.088365" lon="-1.9206733333333332">
        <ele>538.1</ele>
        <time>2018-09-29T07:10:42Z</time>
      </trkpt>
      <trkpt lat="43.088415" lon="-1.920785">
        <ele>538.1</ele>
        <time>2018-09-29T07:10:44Z</time>
      </trkpt>
      <trkpt lat="43.089165" lon="-1.9227466666666668">
        <ele>538.2</ele>
        <time>2018-09-29T07:11:09Z</time>
      </trkpt>
      <trkpt lat="43.089185" lon="-1.922895">
        <ele>538.2</ele>
        <time>2018-09-29T07:11:11Z</time>
      </trkpt>
      <trkpt lat="43.089235" lon="-1.9230116666666666">
        <ele>538.2</ele>
        <time>2018-09-29T07:11:13Z</time>
      </trkpt>
      <trkpt lat="43.08929166666667" lon="-1.92313">
        <ele>538.2</ele>
        <time>2018-09-29T07:11:16Z</time>
      </trkpt>
      <trkpt lat="43.089355" lon="-1.9232683333333331">
        <ele>538.2</ele>
        <time>2018-09-29T07:11:18Z</time>
      </trkpt>
      <trkpt lat="43.08942" lon="-1.9234149999999999">
        <ele>538.2</ele>
        <time>2018-09-29T07:11:20Z</time>
      </trkpt>
      <trkpt lat="43.0895" lon="-1.923565">
        <ele>538.4</ele>
        <time>2018-09-29T07:11:22Z</time>
      </trkpt>
      <trkpt lat="43.089565" lon="-1.923645">
        <ele>538.4</ele>
        <time>2018-09-29T07:11:24Z</time>
      </trkpt>
      <trkpt lat="43.08961166666667" lon="-1.9237433333333334">
        <ele>538.4</ele>
        <time>2018-09-29T07:11:26Z</time>
      </trkpt>
      <trkpt lat="43.089706666666665" lon="-1.92374">
        <ele>538.5</ele>
        <time>2018-09-29T07:11:28Z</time>
      </trkpt>
      <trkpt lat="43.089801666666666" lon="-1.92378">
        <ele>538.7</ele>
        <time>2018-09-29T07:11:30Z</time>
      </trkpt>
      <trkpt lat="43.08988166666666" lon="-1.92378">
        <ele>538.8</ele>
        <time>2018-09-29T07:11:31Z</time>
      </trkpt>
      <trkpt lat="43.08990166666667" lon="-1.923885">
        <ele>538.7</ele>
        <time>2018-09-29T07:11:34Z</time>
      </trkpt>
      <trkpt lat="43.0901" lon="-1.9244400000000002">
        <ele>538.5</ele>
        <time>2018-09-29T07:11:38Z</time>
      </trkpt>
      <trkpt lat="43.090176666666665" lon="-1.9246750000000001">
        <ele>538.4</ele>
        <time>2018-09-29T07:11:39Z</time>
      </trkpt>
      <trkpt lat="43.09025166666667" lon="-1.9248750000000001">
        <ele>538.4</ele>
        <time>2018-09-29T07:11:41Z</time>
      </trkpt>
      <trkpt lat="43.090305" lon="-1.924965">
        <ele>538.3</ele>
        <time>2018-09-29T07:11:42Z</time>
      </trkpt>
      <trkpt lat="43.090355" lon="-1.925055">
        <ele>538.0</ele>
        <time>2018-09-29T07:11:43Z</time>
      </trkpt>
      <trkpt lat="43.090405" lon="-1.9251566666666666">
        <ele>537.9</ele>
        <time>2018-09-29T07:11:44Z</time>
      </trkpt>
      <trkpt lat="43.090446666666665" lon="-1.9252416666666665">
        <ele>537.6</ele>
        <time>2018-09-29T07:11:45Z</time>
      </trkpt>
      <trkpt lat="43.09049666666667" lon="-1.92532">
        <ele>537.4</ele>
        <time>2018-09-29T07:11:46Z</time>
      </trkpt>
      <trkpt lat="43.090595" lon="-1.92545">
        <ele>537.0</ele>
        <time>2018-09-29T07:11:48Z</time>
      </trkpt>
      <trkpt lat="43.090685" lon="-1.92558">
        <ele>536.8</ele>
        <time>2018-09-29T07:11:50Z</time>
      </trkpt>
      <trkpt lat="43.09077" lon="-1.9257133333333334">
        <ele>536.6</ele>
        <time>2018-09-29T07:11:52Z</time>
      </trkpt>
      <trkpt lat="43.09085" lon="-1.9258666666666666">
        <ele>536.8</ele>
        <time>2018-09-29T07:11:54Z</time>
      </trkpt>
      <trkpt lat="43.09093" lon="-1.9260199999999998">
        <ele>536.7</ele>
        <time>2018-09-29T07:11:56Z</time>
      </trkpt>
      <trkpt lat="43.091005" lon="-1.9261816666666667">
        <ele>536.7</ele>
        <time>2018-09-29T07:11:58Z</time>
      </trkpt>
      <trkpt lat="43.09106166666667" lon="-1.926355">
        <ele>536.8</ele>
        <time>2018-09-29T07:12:00Z</time>
      </trkpt>
      <trkpt lat="43.091105" lon="-1.926515">
        <ele>536.8</ele>
        <time>2018-09-29T07:12:02Z</time>
      </trkpt>
      <trkpt lat="43.09114" lon="-1.9266766666666668">
        <ele>536.6</ele>
        <time>2018-09-29T07:12:04Z</time>
      </trkpt>
      <trkpt lat="43.09118" lon="-1.9268633333333334">
        <ele>536.3</ele>
        <time>2018-09-29T07:12:06Z</time>
      </trkpt>
      <trkpt lat="43.091206666666665" lon="-1.9270483333333335">
        <ele>536.0</ele>
        <time>2018-09-29T07:12:08Z</time>
      </trkpt>
      <trkpt lat="43.091225" lon="-1.9272233333333335">
        <ele>536.0</ele>
        <time>2018-09-29T07:12:10Z</time>
      </trkpt>
      <trkpt lat="43.09123" lon="-1.9273933333333333">
        <ele>535.9</ele>
        <time>2018-09-29T07:12:12Z</time>
      </trkpt>
      <trkpt lat="43.09125" lon="-1.927555">
        <ele>536.0</ele>
        <time>2018-09-29T07:12:14Z</time>
      </trkpt>
      <trkpt lat="43.09124666666666" lon="-1.92773">
        <ele>536.3</ele>
        <time>2018-09-29T07:12:16Z</time>
      </trkpt>
      <trkpt lat="43.09126" lon="-1.92788">
        <ele>536.4</ele>
        <time>2018-09-29T07:12:18Z</time>
      </trkpt>
      <trkpt lat="43.091255" lon="-1.92798">
        <ele>536.5</ele>
        <time>2018-09-29T07:12:19Z</time>
      </trkpt>
      <trkpt lat="43.09125" lon="-1.928175">
        <ele>536.6</ele>
        <time>2018-09-29T07:12:21Z</time>
      </trkpt>
      <trkpt lat="43.09124" lon="-1.928275">
        <ele>536.6</ele>
        <time>2018-09-29T07:12:22Z</time>
      </trkpt>
      <trkpt lat="43.09123" lon="-1.9283816666666667">
        <ele>536.6</ele>
        <time>2018-09-29T07:12:23Z</time>
      </trkpt>
      <trkpt lat="43.09122166666667" lon="-1.92849">
        <ele>536.4</ele>
        <time>2018-09-29T07:12:24Z</time>
      </trkpt>
      <trkpt lat="43.09122" lon="-1.928595">
        <ele>536.2</ele>
        <time>2018-09-29T07:12:25Z</time>
      </trkpt>
      <trkpt lat="43.091206666666665" lon="-1.9287">
        <ele>535.9</ele>
        <time>2018-09-29T07:12:26Z</time>
      </trkpt>
      <trkpt lat="43.091195" lon="-1.92881">
        <ele>535.6</ele>
        <time>2018-09-29T07:12:27Z</time>
      </trkpt>
      <trkpt lat="43.09117666666667" lon="-1.9289133333333335">
        <ele>535.4</ele>
        <time>2018-09-29T07:12:28Z</time>
      </trkpt>
      <trkpt lat="43.09114" lon="-1.9290966666666667">
        <ele>534.9</ele>
        <time>2018-09-29T07:12:30Z</time>
      </trkpt>
      <trkpt lat="43.091121666666666" lon="-1.9291916666666666">
        <ele>534.7</ele>
        <time>2018-09-29T07:12:31Z</time>
      </trkpt>
      <trkpt lat="43.09109" lon="-1.9293716666666667">
        <ele>534.5</ele>
        <time>2018-09-29T07:12:33Z</time>
      </trkpt>
      <trkpt lat="43.091046666666664" lon="-1.9295566666666666">
        <ele>534.3</ele>
        <time>2018-09-29T07:12:35Z</time>
      </trkpt>
      <trkpt lat="43.091025" lon="-1.9296600000000002">
        <ele>534.2</ele>
        <time>2018-09-29T07:12:36Z</time>
      </trkpt>
      <trkpt lat="43.091" lon="-1.92976">
        <ele>534.2</ele>
        <time>2018-09-29T07:12:37Z</time>
      </trkpt>
      <trkpt lat="43.09096" lon="-1.929945">
        <ele>534.4</ele>
        <time>2018-09-29T07:12:39Z</time>
      </trkpt>
      <trkpt lat="43.090935" lon="-1.930045">
        <ele>534.5</ele>
        <time>2018-09-29T07:12:40Z</time>
      </trkpt>
      <trkpt lat="43.09091" lon="-1.93014">
        <ele>534.6</ele>
        <time>2018-09-29T07:12:41Z</time>
      </trkpt>
      <trkpt lat="43.090885" lon="-1.93024">
        <ele>534.7</ele>
        <time>2018-09-29T07:12:42Z</time>
      </trkpt>
      <trkpt lat="43.090865" lon="-1.930335">
        <ele>534.9</ele>
        <time>2018-09-29T07:12:43Z</time>
      </trkpt>
      <trkpt lat="43.09081166666667" lon="-1.93051">
        <ele>535.1</ele>
        <time>2018-09-29T07:12:45Z</time>
      </trkpt>
      <trkpt lat="43.09079" lon="-1.9306616666666667">
        <ele>535.3</ele>
        <time>2018-09-29T07:12:47Z</time>
      </trkpt>
      <trkpt lat="43.090785" lon="-1.930765">
        <ele>535.5</ele>
        <time>2018-09-29T07:12:49Z</time>
      </trkpt>
      <trkpt lat="43.09079" lon="-1.9308966666666667">
        <ele>535.6</ele>
        <time>2018-09-29T07:12:52Z</time>
      </trkpt>
      <trkpt lat="43.0908" lon="-1.9310266666666667">
        <ele>535.6</ele>
        <time>2018-09-29T07:12:55Z</time>
      </trkpt>
      <trkpt lat="43.0908" lon="-1.9311566666666666">
        <ele>535.6</ele>
        <time>2018-09-29T07:12:58Z</time>
      </trkpt>
      <trkpt lat="43.0908" lon="-1.9312749999999999">
        <ele>535.5</ele>
        <time>2018-09-29T07:13:03Z</time>
      </trkpt>
      <trkpt lat="43.0908" lon="-1.931375">
        <ele>535.3</ele>
        <time>2018-09-29T07:13:06Z</time>
      </trkpt>
      <trkpt lat="43.090795" lon="-1.93148">
        <ele>535.2</ele>
        <time>2018-09-29T07:13:10Z</time>
      </trkpt>
      <trkpt lat="43.090785" lon="-1.9316016666666667">
        <ele>535.1</ele>
        <time>2018-09-29T07:13:14Z</time>
      </trkpt>
      <trkpt lat="43.090775" lon="-1.9317016666666667">
        <ele>535.1</ele>
        <time>2018-09-29T07:13:17Z</time>
      </trkpt>
      <trkpt lat="43.09075833333333" lon="-1.931815">
        <ele>535.0</ele>
        <time>2018-09-29T07:13:21Z</time>
      </trkpt>
      <trkpt lat="43.090756666666664" lon="-1.9319250000000001">
        <ele>535.0</ele>
        <time>2018-09-29T07:13:25Z</time>
      </trkpt>
      <trkpt lat="43.09075" lon="-1.9320616666666666">
        <ele>535.0</ele>
        <time>2018-09-29T07:13:27Z</time>
      </trkpt>
      <trkpt lat="43.090741666666666" lon="-1.93221">
        <ele>534.8</ele>
        <time>2018-09-29T07:13:29Z</time>
      </trkpt>
      <trkpt lat="43.09073166666667" lon="-1.932385">
        <ele>534.7</ele>
        <time>2018-09-29T07:13:31Z</time>
      </trkpt>
      <trkpt lat="43.090735" lon="-1.9325716666666666">
        <ele>534.4</ele>
        <time>2018-09-29T07:13:33Z</time>
      </trkpt>
      <trkpt lat="43.090725" lon="-1.93276">
        <ele>534.1</ele>
        <time>2018-09-29T07:13:35Z</time>
      </trkpt>
      <trkpt lat="43.090716666666665" lon="-1.9329100000000001">
        <ele>533.9</ele>
        <time>2018-09-29T07:13:37Z</time>
      </trkpt>
      <trkpt lat="43.09071" lon="-1.93303">
        <ele>533.8</ele>
        <time>2018-09-29T07:13:40Z</time>
      </trkpt>
      <trkpt lat="43.0907" lon="-1.9331416666666668">
        <ele>533.4</ele>
        <time>2018-09-29T07:13:42Z</time>
      </trkpt>
      <trkpt lat="43.090695" lon="-1.93329">
        <ele>533.0</ele>
        <time>2018-09-29T07:13:44Z</time>
      </trkpt>
      <trkpt lat="43.09068" lon="-1.933465">
        <ele>532.6</ele>
        <time>2018-09-29T07:13:46Z</time>
      </trkpt>
      <trkpt lat="43.09068" lon="-1.93363">
        <ele>532.2</ele>
        <time>2018-09-29T07:13:48Z</time>
      </trkpt>
      <trkpt lat="43.09068833333333" lon="-1.9337900000000001">
        <ele>531.9</ele>
        <time>2018-09-29T07:13:50Z</time>
      </trkpt>
      <trkpt lat="43.090685" lon="-1.9339">
        <ele>531.8</ele>
        <time>2018-09-29T07:13:52Z</time>
      </trkpt>
      <trkpt lat="43.090666666666664" lon="-1.93402">
        <ele>531.7</ele>
        <time>2018-09-29T07:13:54Z</time>
      </trkpt>
      <trkpt lat="43.090666666666664" lon="-1.93419">
        <ele>531.4</ele>
        <time>2018-09-29T07:13:56Z</time>
      </trkpt>
      <trkpt lat="43.09067" lon="-1.9343650000000001">
        <ele>531.2</ele>
        <time>2018-09-29T07:13:58Z</time>
      </trkpt>
      <trkpt lat="43.090665" lon="-1.9344816666666667">
        <ele>531.1</ele>
        <time>2018-09-29T07:13:59Z</time>
      </trkpt>
      <trkpt lat="43.090665" lon="-1.934605">
        <ele>531.0</ele>
        <time>2018-09-29T07:14:00Z</time>
      </trkpt>
      <trkpt lat="43.090665" lon="-1.93471">
        <ele>530.9</ele>
        <time>2018-09-29T07:14:01Z</time>
      </trkpt>
      <trkpt lat="43.09066166666667" lon="-1.93489">
        <ele>530.7</ele>
        <time>2018-09-29T07:14:03Z</time>
      </trkpt>
      <trkpt lat="43.09066" lon="-1.93499">
        <ele>530.6</ele>
        <time>2018-09-29T07:14:04Z</time>
      </trkpt>
      <trkpt lat="43.090671666666665" lon="-1.93518">
        <ele>530.3</ele>
        <time>2018-09-29T07:14:06Z</time>
      </trkpt>
      <trkpt lat="43.090673333333335" lon="-1.93536">
        <ele>530.0</ele>
        <time>2018-09-29T07:14:08Z</time>
      </trkpt>
      <trkpt lat="43.09068666666667" lon="-1.93546">
        <ele>529.7</ele>
        <time>2018-09-29T07:14:09Z</time>
      </trkpt>
      <trkpt lat="43.0907" lon="-1.9355666666666667">
        <ele>529.2</ele>
        <time>2018-09-29T07:14:10Z</time>
      </trkpt>
      <trkpt lat="43.090715" lon="-1.935675">
        <ele>528.7</ele>
        <time>2018-09-29T07:14:11Z</time>
      </trkpt>
      <trkpt lat="43.09073" lon="-1.93579">
        <ele>528.3</ele>
        <time>2018-09-29T07:14:12Z</time>
      </trkpt>
      <trkpt lat="43.09074666666667" lon="-1.935895">
        <ele>527.9</ele>
        <time>2018-09-29T07:14:13Z</time>
      </trkpt>
      <trkpt lat="43.09077" lon="-1.9360016666666666">
        <ele>527.5</ele>
        <time>2018-09-29T07:14:14Z</time>
      </trkpt>
      <trkpt lat="43.0908" lon="-1.9360966666666666">
        <ele>527.1</ele>
        <time>2018-09-29T07:14:15Z</time>
      </trkpt>
      <trkpt lat="43.090831666666666" lon="-1.936195">
        <ele>526.7</ele>
        <time>2018-09-29T07:14:16Z</time>
      </trkpt>
      <trkpt lat="43.09086" lon="-1.9362916666666667">
        <ele>526.3</ele>
        <time>2018-09-29T07:14:17Z</time>
      </trkpt>
      <trkpt lat="43.09089" lon="-1.9363883333333334">
        <ele>525.9</ele>
        <time>2018-09-29T07:14:18Z</time>
      </trkpt>
      <trkpt lat="43.090915" lon="-1.9364916666666667">
        <ele>525.6</ele>
        <time>2018-09-29T07:14:19Z</time>
      </trkpt>
      <trkpt lat="43.090941666666666" lon="-1.93659">
        <ele>525.3</ele>
        <time>2018-09-29T07:14:20Z</time>
      </trkpt>
      <trkpt lat="43.09097" lon="-1.93669">
        <ele>525.1</ele>
        <time>2018-09-29T07:14:21Z</time>
      </trkpt>
      <trkpt lat="43.091005" lon="-1.936785">
        <ele>524.8</ele>
        <time>2018-09-29T07:14:22Z</time>
      </trkpt>
      <trkpt lat="43.09103" lon="-1.936885">
        <ele>524.5</ele>
        <time>2018-09-29T07:14:23Z</time>
      </trkpt>
      <trkpt lat="43.09106" lon="-1.9369816666666666">
        <ele>524.2</ele>
        <time>2018-09-29T07:14:24Z</time>
      </trkpt>
      <trkpt lat="43.09109" lon="-1.9370766666666666">
        <ele>523.9</ele>
        <time>2018-09-29T07:14:25Z</time>
      </trkpt>
      <trkpt lat="43.091123333333336" lon="-1.9371683333333334">
        <ele>523.5</ele>
        <time>2018-09-29T07:14:26Z</time>
      </trkpt>
      <trkpt lat="43.09115666666667" lon="-1.9372633333333333">
        <ele>523.2</ele>
        <time>2018-09-29T07:14:27Z</time>
      </trkpt>
      <trkpt lat="43.09119" lon="-1.9373583333333335">
        <ele>522.8</ele>
        <time>2018-09-29T07:14:28Z</time>
      </trkpt>
      <trkpt lat="43.091225" lon="-1.9374516666666666">
        <ele>522.5</ele>
        <time>2018-09-29T07:14:29Z</time>
      </trkpt>
      <trkpt lat="43.09126166666667" lon="-1.9375433333333334">
        <ele>522.2</ele>
        <time>2018-09-29T07:14:30Z</time>
      </trkpt>
      <trkpt lat="43.0913" lon="-1.937635">
        <ele>521.9</ele>
        <time>2018-09-29T07:14:31Z</time>
      </trkpt>
      <trkpt lat="43.09134" lon="-1.9377233333333332">
        <ele>521.5</ele>
        <time>2018-09-29T07:14:32Z</time>
      </trkpt>
      <trkpt lat="43.091375" lon="-1.9378216666666668">
        <ele>521.1</ele>
        <time>2018-09-29T07:14:33Z</time>
      </trkpt>
      <trkpt lat="43.09141" lon="-1.937925">
        <ele>520.8</ele>
        <time>2018-09-29T07:14:34Z</time>
      </trkpt>
      <trkpt lat="43.09144" lon="-1.938025">
        <ele>520.5</ele>
        <time>2018-09-29T07:14:35Z</time>
      </trkpt>
      <trkpt lat="43.091475" lon="-1.93813">
        <ele>520.1</ele>
        <time>2018-09-29T07:14:36Z</time>
      </trkpt>
      <trkpt lat="43.091515" lon="-1.938225">
        <ele>519.7</ele>
        <time>2018-09-29T07:14:37Z</time>
      </trkpt>
      <trkpt lat="43.09155" lon="-1.9383216666666667">
        <ele>519.4</ele>
        <time>2018-09-29T07:14:38Z</time>
      </trkpt>
      <trkpt lat="43.091595" lon="-1.9385">
        <ele>518.9</ele>
        <time>2018-09-29T07:14:40Z</time>
      </trkpt>
      <trkpt lat="43.09164666666667" lon="-1.93868">
        <ele>518.8</ele>
        <time>2018-09-29T07:14:42Z</time>
      </trkpt>
      <trkpt lat="43.09170666666667" lon="-1.9388450000000002">
        <ele>518.7</ele>
        <time>2018-09-29T07:14:44Z</time>
      </trkpt>
      <trkpt lat="43.09176" lon="-1.9390066666666668">
        <ele>518.7</ele>
        <time>2018-09-29T07:14:46Z</time>
      </trkpt>
      <trkpt lat="43.09181" lon="-1.939165">
        <ele>519.0</ele>
        <time>2018-09-29T07:14:48Z</time>
      </trkpt>
      <trkpt lat="43.09184" lon="-1.939255">
        <ele>519.1</ele>
        <time>2018-09-29T07:14:49Z</time>
      </trkpt>
      <trkpt lat="43.09189" lon="-1.9394366666666667">
        <ele>519.0</ele>
        <time>2018-09-29T07:14:51Z</time>
      </trkpt>
      <trkpt lat="43.09196" lon="-1.939605">
        <ele>519.0</ele>
        <time>2018-09-29T07:14:53Z</time>
      </trkpt>
      <trkpt lat="43.09200666666667" lon="-1.9396816666666665">
        <ele>518.9</ele>
        <time>2018-09-29T07:14:54Z</time>
      </trkpt>
      <trkpt lat="43.092055" lon="-1.9397616666666666">
        <ele>518.7</ele>
        <time>2018-09-29T07:14:55Z</time>
      </trkpt>
      <trkpt lat="43.092106666666666" lon="-1.939835">
        <ele>518.8</ele>
        <time>2018-09-29T07:14:56Z</time>
      </trkpt>
      <trkpt lat="43.0922" lon="-1.9399666666666668">
        <ele>518.9</ele>
        <time>2018-09-29T07:14:58Z</time>
      </trkpt>
      <trkpt lat="43.092255" lon="-1.9400416666666667">
        <ele>518.9</ele>
        <time>2018-09-29T07:14:59Z</time>
      </trkpt>
      <trkpt lat="43.09233" lon="-1.94009">
        <ele>518.9</ele>
        <time>2018-09-29T07:15:00Z</time>
      </trkpt>
      <trkpt lat="43.09239" lon="-1.9401466666666667">
        <ele>519.0</ele>
        <time>2018-09-29T07:15:01Z</time>
      </trkpt>
      <trkpt lat="43.092531666666666" lon="-1.9402216666666665">
        <ele>518.9</ele>
        <time>2018-09-29T07:15:03Z</time>
      </trkpt>
      <trkpt lat="43.092605" lon="-1.940255">
        <ele>519.0</ele>
        <time>2018-09-29T07:15:04Z</time>
      </trkpt>
      <trkpt lat="43.09274" lon="-1.94028">
        <ele>519.1</ele>
        <time>2018-09-29T07:15:06Z</time>
      </trkpt>
      <trkpt lat="43.093621666666664" lon="-1.940385">
        <ele>519.1</ele>
        <time>2018-09-29T07:15:18Z</time>
      </trkpt>
      <trkpt lat="43.093705" lon="-1.940415">
        <ele>518.9</ele>
        <time>2018-09-29T07:15:19Z</time>
      </trkpt>
      <trkpt lat="43.09384" lon="-1.94039">
        <ele>518.9</ele>
        <time>2018-09-29T07:15:21Z</time>
      </trkpt>
      <trkpt lat="43.09392" lon="-1.9403966666666665">
        <ele>518.7</ele>
        <time>2018-09-29T07:15:22Z</time>
      </trkpt>
      <trkpt lat="43.093995" lon="-1.940385">
        <ele>518.4</ele>
        <time>2018-09-29T07:15:23Z</time>
      </trkpt>
      <trkpt lat="43.094076666666666" lon="-1.940365">
        <ele>518.0</ele>
        <time>2018-09-29T07:15:24Z</time>
      </trkpt>
      <trkpt lat="43.094155" lon="-1.9403516666666667">
        <ele>517.3</ele>
        <time>2018-09-29T07:15:25Z</time>
      </trkpt>
      <trkpt lat="43.094225" lon="-1.940345">
        <ele>516.9</ele>
        <time>2018-09-29T07:15:26Z</time>
      </trkpt>
      <trkpt lat="43.094345" lon="-1.9403516666666667">
        <ele>516.7</ele>
        <time>2018-09-29T07:15:28Z</time>
      </trkpt>
      <trkpt lat="43.094471666666664" lon="-1.94035">
        <ele>516.3</ele>
        <time>2018-09-29T07:15:30Z</time>
      </trkpt>
      <trkpt lat="43.094591666666666" lon="-1.94039">
        <ele>515.8</ele>
        <time>2018-09-29T07:15:32Z</time>
      </trkpt>
      <trkpt lat="43.094695" lon="-1.94045">
        <ele>515.5</ele>
        <time>2018-09-29T07:15:34Z</time>
      </trkpt>
      <trkpt lat="43.09481" lon="-1.9405016666666666">
        <ele>515.2</ele>
        <time>2018-09-29T07:15:36Z</time>
      </trkpt>
      <trkpt lat="43.09491666666667" lon="-1.940555">
        <ele>514.7</ele>
        <time>2018-09-29T07:15:38Z</time>
      </trkpt>
      <trkpt lat="43.09501" lon="-1.940615">
        <ele>514.5</ele>
        <time>2018-09-29T07:15:40Z</time>
      </trkpt>
      <trkpt lat="43.095105" lon="-1.940655">
        <ele>515.7</ele>
        <time>2018-09-29T07:15:42Z</time>
      </trkpt>
      <trkpt lat="43.095175" lon="-1.9406916666666665">
        <ele>516.0</ele>
        <time>2018-09-29T07:15:43Z</time>
      </trkpt>
      <trkpt lat="43.09524" lon="-1.94074">
        <ele>516.2</ele>
        <time>2018-09-29T07:15:44Z</time>
      </trkpt>
      <trkpt lat="43.09533666666667" lon="-1.9408583333333334">
        <ele>515.8</ele>
        <time>2018-09-29T07:15:46Z</time>
      </trkpt>
      <trkpt lat="43.095436666666664" lon="-1.94097">
        <ele>515.2</ele>
        <time>2018-09-29T07:15:48Z</time>
      </trkpt>
      <trkpt lat="43.095528333333334" lon="-1.9411100000000001">
        <ele>514.2</ele>
        <time>2018-09-29T07:15:50Z</time>
      </trkpt>
      <trkpt lat="43.09561" lon="-1.94123">
        <ele>513.1</ele>
        <time>2018-09-29T07:15:52Z</time>
      </trkpt>
      <trkpt lat="43.095675" lon="-1.941375">
        <ele>512.2</ele>
        <time>2018-09-29T07:15:54Z</time>
      </trkpt>
      <trkpt lat="43.09573" lon="-1.941545">
        <ele>511.6</ele>
        <time>2018-09-29T07:15:56Z</time>
      </trkpt>
      <trkpt lat="43.09574666666666" lon="-1.9416416666666667">
        <ele>511.4</ele>
        <time>2018-09-29T07:15:57Z</time>
      </trkpt>
      <trkpt lat="43.09578" lon="-1.9417366666666667">
        <ele>511.1</ele>
        <time>2018-09-29T07:15:58Z</time>
      </trkpt>
      <trkpt lat="43.095823333333335" lon="-1.9419216666666668">
        <ele>510.3</ele>
        <time>2018-09-29T07:16:00Z</time>
      </trkpt>
      <trkpt lat="43.095845" lon="-1.9420183333333334">
        <ele>509.9</ele>
        <time>2018-09-29T07:16:01Z</time>
      </trkpt>
      <trkpt lat="43.09586" lon="-1.942125">
        <ele>509.4</ele>
        <time>2018-09-29T07:16:02Z</time>
      </trkpt>
      <trkpt lat="43.095875" lon="-1.942225">
        <ele>508.9</ele>
        <time>2018-09-29T07:16:03Z</time>
      </trkpt>
      <trkpt lat="43.095885" lon="-1.94232">
        <ele>508.4</ele>
        <time>2018-09-29T07:16:04Z</time>
      </trkpt>
      <trkpt lat="43.095905" lon="-1.9425050000000001">
        <ele>507.5</ele>
        <time>2018-09-29T07:16:06Z</time>
      </trkpt>
      <trkpt lat="43.095935" lon="-1.94266">
        <ele>506.9</ele>
        <time>2018-09-29T07:16:08Z</time>
      </trkpt>
      <trkpt lat="43.09595" lon="-1.9428450000000002">
        <ele>506.5</ele>
        <time>2018-09-29T07:16:10Z</time>
      </trkpt>
      <trkpt lat="43.09597" lon="-1.94295">
        <ele>506.3</ele>
        <time>2018-09-29T07:16:11Z</time>
      </trkpt>
      <trkpt lat="43.095976666666665" lon="-1.94305">
        <ele>506.3</ele>
        <time>2018-09-29T07:16:12Z</time>
      </trkpt>
      <trkpt lat="43.096005" lon="-1.94315">
        <ele>506.4</ele>
        <time>2018-09-29T07:16:13Z</time>
      </trkpt>
      <trkpt lat="43.09603" lon="-1.9432616666666667">
        <ele>506.5</ele>
        <time>2018-09-29T07:16:14Z</time>
      </trkpt>
      <trkpt lat="43.096055" lon="-1.943385">
        <ele>506.6</ele>
        <time>2018-09-29T07:16:15Z</time>
      </trkpt>
      <trkpt lat="43.096075" lon="-1.9434900000000002">
        <ele>506.5</ele>
        <time>2018-09-29T07:16:16Z</time>
      </trkpt>
      <trkpt lat="43.0961" lon="-1.943595">
        <ele>506.2</ele>
        <time>2018-09-29T07:16:17Z</time>
      </trkpt>
      <trkpt lat="43.096125" lon="-1.9437">
        <ele>506.2</ele>
        <time>2018-09-29T07:16:18Z</time>
      </trkpt>
      <trkpt lat="43.096151666666664" lon="-1.9438016666666669">
        <ele>506.2</ele>
        <time>2018-09-29T07:16:19Z</time>
      </trkpt>
      <trkpt lat="43.09618" lon="-1.9439066666666667">
        <ele>506.3</ele>
        <time>2018-09-29T07:16:20Z</time>
      </trkpt>
      <trkpt lat="43.096215" lon="-1.9439916666666668">
        <ele>506.3</ele>
        <time>2018-09-29T07:16:21Z</time>
      </trkpt>
      <trkpt lat="43.09625" lon="-1.9440783333333334">
        <ele>506.3</ele>
        <time>2018-09-29T07:16:22Z</time>
      </trkpt>
      <trkpt lat="43.09634" lon="-1.944235">
        <ele>506.3</ele>
        <time>2018-09-29T07:16:24Z</time>
      </trkpt>
      <trkpt lat="43.09639" lon="-1.9443066666666666">
        <ele>506.1</ele>
        <time>2018-09-29T07:16:25Z</time>
      </trkpt>
      <trkpt lat="43.09644" lon="-1.94438">
        <ele>505.7</ele>
        <time>2018-09-29T07:16:26Z</time>
      </trkpt>
      <trkpt lat="43.096475" lon="-1.94447">
        <ele>505.4</ele>
        <time>2018-09-29T07:16:27Z</time>
      </trkpt>
      <trkpt lat="43.09652" lon="-1.94455">
        <ele>504.9</ele>
        <time>2018-09-29T07:16:28Z</time>
      </trkpt>
      <trkpt lat="43.09657" lon="-1.9446316666666665">
        <ele>504.5</ele>
        <time>2018-09-29T07:16:29Z</time>
      </trkpt>
      <trkpt lat="43.096625" lon="-1.9447016666666666">
        <ele>504.1</ele>
        <time>2018-09-29T07:16:30Z</time>
      </trkpt>
      <trkpt lat="43.09668" lon="-1.944775">
        <ele>503.8</ele>
        <time>2018-09-29T07:16:31Z</time>
      </trkpt>
      <trkpt lat="43.096735" lon="-1.9448500000000002">
        <ele>503.4</ele>
        <time>2018-09-29T07:16:32Z</time>
      </trkpt>
      <trkpt lat="43.096795" lon="-1.94492">
        <ele>503.2</ele>
        <time>2018-09-29T07:16:33Z</time>
      </trkpt>
      <trkpt lat="43.09686" lon="-1.9449833333333333">
        <ele>503.0</ele>
        <time>2018-09-29T07:16:34Z</time>
      </trkpt>
      <trkpt lat="43.096925" lon="-1.9450500000000002">
        <ele>502.8</ele>
        <time>2018-09-29T07:16:35Z</time>
      </trkpt>
      <trkpt lat="43.096985" lon="-1.945125">
        <ele>502.6</ele>
        <time>2018-09-29T07:16:36Z</time>
      </trkpt>
      <trkpt lat="43.09705666666667" lon="-1.94519">
        <ele>502.3</ele>
        <time>2018-09-29T07:16:37Z</time>
      </trkpt>
      <trkpt lat="43.09713166666667" lon="-1.9452466666666666">
        <ele>502.2</ele>
        <time>2018-09-29T07:16:38Z</time>
      </trkpt>
      <trkpt lat="43.09721" lon="-1.9453">
        <ele>502.0</ele>
        <time>2018-09-29T07:16:39Z</time>
      </trkpt>
      <trkpt lat="43.09729166666666" lon="-1.9453383333333334">
        <ele>501.7</ele>
        <time>2018-09-29T07:16:40Z</time>
      </trkpt>
      <trkpt lat="43.09737666666667" lon="-1.94538">
        <ele>501.4</ele>
        <time>2018-09-29T07:16:41Z</time>
      </trkpt>
      <trkpt lat="43.09746" lon="-1.9454216666666666">
        <ele>501.1</ele>
        <time>2018-09-29T07:16:42Z</time>
      </trkpt>
      <trkpt lat="43.097545" lon="-1.945455">
        <ele>500.8</ele>
        <time>2018-09-29T07:16:43Z</time>
      </trkpt>
      <trkpt lat="43.09763" lon="-1.9454799999999999">
        <ele>500.5</ele>
        <time>2018-09-29T07:16:44Z</time>
      </trkpt>
      <trkpt lat="43.09771166666667" lon="-1.9455133333333334">
        <ele>500.2</ele>
        <time>2018-09-29T07:16:45Z</time>
      </trkpt>
      <trkpt lat="43.097791666666666" lon="-1.94555">
        <ele>499.9</ele>
        <time>2018-09-29T07:16:46Z</time>
      </trkpt>
      <trkpt lat="43.097875" lon="-1.945585">
        <ele>499.6</ele>
        <time>2018-09-29T07:16:47Z</time>
      </trkpt>
      <trkpt lat="43.09796" lon="-1.9455983333333333">
        <ele>499.5</ele>
        <time>2018-09-29T07:16:48Z</time>
      </trkpt>
      <trkpt lat="43.09804" lon="-1.9455983333333333">
        <ele>499.4</ele>
        <time>2018-09-29T07:16:49Z</time>
      </trkpt>
      <trkpt lat="43.098125" lon="-1.9455966666666666">
        <ele>499.3</ele>
        <time>2018-09-29T07:16:50Z</time>
      </trkpt>
      <trkpt lat="43.09820666666667" lon="-1.945595">
        <ele>499.2</ele>
        <time>2018-09-29T07:16:51Z</time>
      </trkpt>
      <trkpt lat="43.098295" lon="-1.94559">
        <ele>499.2</ele>
        <time>2018-09-29T07:16:52Z</time>
      </trkpt>
      <trkpt lat="43.098375" lon="-1.9455716666666665">
        <ele>499.2</ele>
        <time>2018-09-29T07:16:53Z</time>
      </trkpt>
      <trkpt lat="43.09846" lon="-1.9455616666666666">
        <ele>499.1</ele>
        <time>2018-09-29T07:16:54Z</time>
      </trkpt>
      <trkpt lat="43.09854" lon="-1.9455516666666668">
        <ele>499.1</ele>
        <time>2018-09-29T07:16:55Z</time>
      </trkpt>
      <trkpt lat="43.09862" lon="-1.94553">
        <ele>499.1</ele>
        <time>2018-09-29T07:16:56Z</time>
      </trkpt>
      <trkpt lat="43.0987" lon="-1.945495">
        <ele>499.2</ele>
        <time>2018-09-29T07:16:57Z</time>
      </trkpt>
      <trkpt lat="43.098776666666666" lon="-1.9454850000000001">
        <ele>499.3</ele>
        <time>2018-09-29T07:16:58Z</time>
      </trkpt>
      <trkpt lat="43.09886" lon="-1.94547">
        <ele>499.3</ele>
        <time>2018-09-29T07:16:59Z</time>
      </trkpt>
      <trkpt lat="43.09894666666667" lon="-1.94545">
        <ele>499.2</ele>
        <time>2018-09-29T07:17:00Z</time>
      </trkpt>
      <trkpt lat="43.099035" lon="-1.9454366666666667">
        <ele>499.1</ele>
        <time>2018-09-29T07:17:01Z</time>
      </trkpt>
      <trkpt lat="43.099125" lon="-1.9454166666666666">
        <ele>498.9</ele>
        <time>2018-09-29T07:17:02Z</time>
      </trkpt>
      <trkpt lat="43.09921" lon="-1.9453999999999998">
        <ele>498.4</ele>
        <time>2018-09-29T07:17:03Z</time>
      </trkpt>
      <trkpt lat="43.099295" lon="-1.9453766666666668">
        <ele>497.9</ele>
        <time>2018-09-29T07:17:04Z</time>
      </trkpt>
      <trkpt lat="43.09938" lon="-1.9453483333333335">
        <ele>497.4</ele>
        <time>2018-09-29T07:17:05Z</time>
      </trkpt>
      <trkpt lat="43.09946166666667" lon="-1.945325">
        <ele>497.0</ele>
        <time>2018-09-29T07:17:06Z</time>
      </trkpt>
      <trkpt lat="43.099545" lon="-1.9453">
        <ele>496.5</ele>
        <time>2018-09-29T07:17:07Z</time>
      </trkpt>
      <trkpt lat="43.09963" lon="-1.94529">
        <ele>496.2</ele>
        <time>2018-09-29T07:17:08Z</time>
      </trkpt>
      <trkpt lat="43.099715" lon="-1.9452683333333334">
        <ele>495.9</ele>
        <time>2018-09-29T07:17:09Z</time>
      </trkpt>
      <trkpt lat="43.099795" lon="-1.9452533333333335">
        <ele>495.6</ele>
        <time>2018-09-29T07:17:10Z</time>
      </trkpt>
      <trkpt lat="43.09988" lon="-1.9452383333333334">
        <ele>495.4</ele>
        <time>2018-09-29T07:17:12Z</time>
      </trkpt>
      <trkpt lat="43.099955" lon="-1.9452316666666667">
        <ele>495.1</ele>
        <time>2018-09-29T07:17:13Z</time>
      </trkpt>
      <trkpt lat="43.10003" lon="-1.9452250000000002">
        <ele>494.8</ele>
        <time>2018-09-29T07:17:14Z</time>
      </trkpt>
      <trkpt lat="43.100105" lon="-1.945215">
        <ele>494.5</ele>
        <time>2018-09-29T07:17:15Z</time>
      </trkpt>
      <trkpt lat="43.10019" lon="-1.945185">
        <ele>494.2</ele>
        <time>2018-09-29T07:17:16Z</time>
      </trkpt>
      <trkpt lat="43.100276666666666" lon="-1.9451633333333334">
        <ele>494.1</ele>
        <time>2018-09-29T07:17:17Z</time>
      </trkpt>
      <trkpt lat="43.100366666666666" lon="-1.9451466666666666">
        <ele>493.9</ele>
        <time>2018-09-29T07:17:18Z</time>
      </trkpt>
      <trkpt lat="43.100451666666665" lon="-1.945125">
        <ele>493.8</ele>
        <time>2018-09-29T07:17:19Z</time>
      </trkpt>
      <trkpt lat="43.10053666666666" lon="-1.9451">
        <ele>493.7</ele>
        <time>2018-09-29T07:17:20Z</time>
      </trkpt>
      <trkpt lat="43.100625" lon="-1.9450850000000002">
        <ele>493.5</ele>
        <time>2018-09-29T07:17:21Z</time>
      </trkpt>
      <trkpt lat="43.100705" lon="-1.9450616666666667">
        <ele>493.3</ele>
        <time>2018-09-29T07:17:22Z</time>
      </trkpt>
      <trkpt lat="43.10079" lon="-1.945035">
        <ele>493.2</ele>
        <time>2018-09-29T07:17:23Z</time>
      </trkpt>
      <trkpt lat="43.100875" lon="-1.94501">
        <ele>493.0</ele>
        <time>2018-09-29T07:17:24Z</time>
      </trkpt>
      <trkpt lat="43.10095666666667" lon="-1.9449783333333333">
        <ele>492.9</ele>
        <time>2018-09-29T07:17:25Z</time>
      </trkpt>
      <trkpt lat="43.101035" lon="-1.9449450000000001">
        <ele>492.7</ele>
        <time>2018-09-29T07:17:26Z</time>
      </trkpt>
      <trkpt lat="43.10111" lon="-1.9449100000000001">
        <ele>492.6</ele>
        <time>2018-09-29T07:17:27Z</time>
      </trkpt>
      <trkpt lat="43.10118" lon="-1.944865">
        <ele>492.5</ele>
        <time>2018-09-29T07:17:28Z</time>
      </trkpt>
      <trkpt lat="43.10125" lon="-1.9448050000000001">
        <ele>492.4</ele>
        <time>2018-09-29T07:17:29Z</time>
      </trkpt>
      <trkpt lat="43.101321666666664" lon="-1.94476">
        <ele>492.4</ele>
        <time>2018-09-29T07:17:30Z</time>
      </trkpt>
      <trkpt lat="43.10138" lon="-1.9447016666666666">
        <ele>492.3</ele>
        <time>2018-09-29T07:17:31Z</time>
      </trkpt>
      <trkpt lat="43.101441666666666" lon="-1.94465">
        <ele>492.3</ele>
        <time>2018-09-29T07:17:32Z</time>
      </trkpt>
      <trkpt lat="43.10157" lon="-1.9445333333333332">
        <ele>492.0</ele>
        <time>2018-09-29T07:17:34Z</time>
      </trkpt>
      <trkpt lat="43.10164" lon="-1.9444316666666666">
        <ele>491.7</ele>
        <time>2018-09-29T07:17:35Z</time>
      </trkpt>
      <trkpt lat="43.10169666666667" lon="-1.9443199999999998">
        <ele>491.4</ele>
        <time>2018-09-29T07:17:36Z</time>
      </trkpt>
      <trkpt lat="43.101755" lon="-1.9442166666666667">
        <ele>491.1</ele>
        <time>2018-09-29T07:17:37Z</time>
      </trkpt>
      <trkpt lat="43.10181333333333" lon="-1.944115">
        <ele>490.8</ele>
        <time>2018-09-29T07:17:38Z</time>
      </trkpt>
      <trkpt lat="43.10188" lon="-1.94402">
        <ele>490.5</ele>
        <time>2018-09-29T07:17:39Z</time>
      </trkpt>
      <trkpt lat="43.10193" lon="-1.9439033333333333">
        <ele>490.3</ele>
        <time>2018-09-29T07:17:40Z</time>
      </trkpt>
      <trkpt lat="43.10198166666667" lon="-1.9438">
        <ele>489.9</ele>
        <time>2018-09-29T07:17:41Z</time>
      </trkpt>
      <trkpt lat="43.102035" lon="-1.943695">
        <ele>489.5</ele>
        <time>2018-09-29T07:17:42Z</time>
      </trkpt>
      <trkpt lat="43.10209" lon="-1.943595">
        <ele>489.2</ele>
        <time>2018-09-29T07:17:43Z</time>
      </trkpt>
      <trkpt lat="43.10215" lon="-1.943495">
        <ele>488.8</ele>
        <time>2018-09-29T07:17:44Z</time>
      </trkpt>
      <trkpt lat="43.102205" lon="-1.9433950000000002">
        <ele>488.4</ele>
        <time>2018-09-29T07:17:45Z</time>
      </trkpt>
      <trkpt lat="43.102255" lon="-1.943295">
        <ele>488.1</ele>
        <time>2018-09-29T07:17:46Z</time>
      </trkpt>
      <trkpt lat="43.102306666666664" lon="-1.9431966666666667">
        <ele>487.8</ele>
        <time>2018-09-29T07:17:47Z</time>
      </trkpt>
      <trkpt lat="43.102355" lon="-1.9430966666666667">
        <ele>487.4</ele>
        <time>2018-09-29T07:17:48Z</time>
      </trkpt>
      <trkpt lat="43.10240666666667" lon="-1.9429933333333334">
        <ele>487.2</ele>
        <time>2018-09-29T07:17:49Z</time>
      </trkpt>
      <trkpt lat="43.10246" lon="-1.942895">
        <ele>486.9</ele>
        <time>2018-09-29T07:17:50Z</time>
      </trkpt>
      <trkpt lat="43.10250833333333" lon="-1.94279">
        <ele>486.7</ele>
        <time>2018-09-29T07:17:51Z</time>
      </trkpt>
      <trkpt lat="43.102556666666665" lon="-1.942685">
        <ele>486.3</ele>
        <time>2018-09-29T07:17:52Z</time>
      </trkpt>
      <trkpt lat="43.102605" lon="-1.94258">
        <ele>485.9</ele>
        <time>2018-09-29T07:17:53Z</time>
      </trkpt>
      <trkpt lat="43.102646666666665" lon="-1.94248">
        <ele>485.7</ele>
        <time>2018-09-29T07:17:54Z</time>
      </trkpt>
      <trkpt lat="43.102695" lon="-1.9423733333333333">
        <ele>485.4</ele>
        <time>2018-09-29T07:17:55Z</time>
      </trkpt>
      <trkpt lat="43.10274166666667" lon="-1.942275">
        <ele>485.1</ele>
        <time>2018-09-29T07:17:56Z</time>
      </trkpt>
      <trkpt lat="43.102785" lon="-1.9421750000000002">
        <ele>484.8</ele>
        <time>2018-09-29T07:17:57Z</time>
      </trkpt>
      <trkpt lat="43.10283166666667" lon="-1.942075">
        <ele>484.5</ele>
        <time>2018-09-29T07:17:58Z</time>
      </trkpt>
      <trkpt lat="43.10288" lon="-1.9419766666666667">
        <ele>484.3</ele>
        <time>2018-09-29T07:17:59Z</time>
      </trkpt>
      <trkpt lat="43.10293" lon="-1.9418766666666667">
        <ele>484.0</ele>
        <time>2018-09-29T07:18:00Z</time>
      </trkpt>
      <trkpt lat="43.102961666666666" lon="-1.941775">
        <ele>483.7</ele>
        <time>2018-09-29T07:18:01Z</time>
      </trkpt>
      <trkpt lat="43.10299" lon="-1.9416766666666665">
        <ele>483.4</ele>
        <time>2018-09-29T07:18:02Z</time>
      </trkpt>
      <trkpt lat="43.103025" lon="-1.94158">
        <ele>483.0</ele>
        <time>2018-09-29T07:18:03Z</time>
      </trkpt>
      <trkpt lat="43.103065" lon="-1.9414866666666666">
        <ele>482.7</ele>
        <time>2018-09-29T07:18:04Z</time>
      </trkpt>
      <trkpt lat="43.103096666666666" lon="-1.9413900000000002">
        <ele>482.4</ele>
        <time>2018-09-29T07:18:05Z</time>
      </trkpt>
      <trkpt lat="43.10313" lon="-1.9412966666666667">
        <ele>482.0</ele>
        <time>2018-09-29T07:18:06Z</time>
      </trkpt>
      <trkpt lat="43.10317" lon="-1.9412116666666668">
        <ele>481.7</ele>
        <time>2018-09-29T07:18:07Z</time>
      </trkpt>
      <trkpt lat="43.103215" lon="-1.9411266666666667">
        <ele>481.4</ele>
        <time>2018-09-29T07:18:08Z</time>
      </trkpt>
      <trkpt lat="43.10323" lon="-1.9410233333333333">
        <ele>481.1</ele>
        <time>2018-09-29T07:18:09Z</time>
      </trkpt>
      <trkpt lat="43.103265" lon="-1.940925">
        <ele>480.8</ele>
        <time>2018-09-29T07:18:10Z</time>
      </trkpt>
      <trkpt lat="43.103316666666665" lon="-1.9408400000000001">
        <ele>480.6</ele>
        <time>2018-09-29T07:18:11Z</time>
      </trkpt>
      <trkpt lat="43.103366666666666" lon="-1.94074">
        <ele>480.4</ele>
        <time>2018-09-29T07:18:12Z</time>
      </trkpt>
      <trkpt lat="43.103415" lon="-1.9406400000000001">
        <ele>480.1</ele>
        <time>2018-09-29T07:18:13Z</time>
      </trkpt>
      <trkpt lat="43.10345" lon="-1.9405350000000001">
        <ele>479.9</ele>
        <time>2018-09-29T07:18:14Z</time>
      </trkpt>
      <trkpt lat="43.103485" lon="-1.94043">
        <ele>479.9</ele>
        <time>2018-09-29T07:18:15Z</time>
      </trkpt>
      <trkpt lat="43.103535" lon="-1.94034">
        <ele>479.9</ele>
        <time>2018-09-29T07:18:16Z</time>
      </trkpt>
      <trkpt lat="43.1036" lon="-1.940255">
        <ele>480.0</ele>
        <time>2018-09-29T07:18:17Z</time>
      </trkpt>
      <trkpt lat="43.10365" lon="-1.94016">
        <ele>480.0</ele>
        <time>2018-09-29T07:18:18Z</time>
      </trkpt>
      <trkpt lat="43.10369" lon="-1.940055">
        <ele>480.5</ele>
        <time>2018-09-29T07:18:19Z</time>
      </trkpt>
      <trkpt lat="43.10373" lon="-1.9399566666666668">
        <ele>481.0</ele>
        <time>2018-09-29T07:18:20Z</time>
      </trkpt>
      <trkpt lat="43.103775" lon="-1.9398683333333333">
        <ele>481.3</ele>
        <time>2018-09-29T07:18:21Z</time>
      </trkpt>
      <trkpt lat="43.10382" lon="-1.9397716666666667">
        <ele>481.2</ele>
        <time>2018-09-29T07:18:22Z</time>
      </trkpt>
      <trkpt lat="43.103885" lon="-1.939685">
        <ele>481.2</ele>
        <time>2018-09-29T07:18:23Z</time>
      </trkpt>
      <trkpt lat="43.10395" lon="-1.9395966666666666">
        <ele>481.0</ele>
        <time>2018-09-29T07:18:24Z</time>
      </trkpt>
      <trkpt lat="43.10402833333333" lon="-1.9395116666666667">
        <ele>480.8</ele>
        <time>2018-09-29T07:18:25Z</time>
      </trkpt>
      <trkpt lat="43.104105" lon="-1.93943">
        <ele>480.6</ele>
        <time>2018-09-29T07:18:26Z</time>
      </trkpt>
      <trkpt lat="43.104166666666664" lon="-1.9393433333333334">
        <ele>480.6</ele>
        <time>2018-09-29T07:18:27Z</time>
      </trkpt>
      <trkpt lat="43.10422666666667" lon="-1.9392566666666666">
        <ele>480.4</ele>
        <time>2018-09-29T07:18:28Z</time>
      </trkpt>
      <trkpt lat="43.10429" lon="-1.9391683333333334">
        <ele>480.3</ele>
        <time>2018-09-29T07:18:29Z</time>
      </trkpt>
      <trkpt lat="43.104355" lon="-1.93909">
        <ele>480.2</ele>
        <time>2018-09-29T07:18:30Z</time>
      </trkpt>
      <trkpt lat="43.104416666666665" lon="-1.9390033333333334">
        <ele>480.1</ele>
        <time>2018-09-29T07:18:31Z</time>
      </trkpt>
      <trkpt lat="43.104475" lon="-1.93891">
        <ele>480.1</ele>
        <time>2018-09-29T07:18:32Z</time>
      </trkpt>
      <trkpt lat="43.10453166666667" lon="-1.938825">
        <ele>479.8</ele>
        <time>2018-09-29T07:18:33Z</time>
      </trkpt>
      <trkpt lat="43.104595" lon="-1.93874">
        <ele>479.4</ele>
        <time>2018-09-29T07:18:34Z</time>
      </trkpt>
      <trkpt lat="43.10465" lon="-1.938645">
        <ele>479.3</ele>
        <time>2018-09-29T07:18:35Z</time>
      </trkpt>
      <trkpt lat="43.104715" lon="-1.93857">
        <ele>479.0</ele>
        <time>2018-09-29T07:18:36Z</time>
      </trkpt>
      <trkpt lat="43.104776666666666" lon="-1.938495">
        <ele>478.7</ele>
        <time>2018-09-29T07:18:37Z</time>
      </trkpt>
      <trkpt lat="43.104836666666664" lon="-1.938405">
        <ele>478.3</ele>
        <time>2018-09-29T07:18:38Z</time>
      </trkpt>
      <trkpt lat="43.1049" lon="-1.93831">
        <ele>478.0</ele>
        <time>2018-09-29T07:18:39Z</time>
      </trkpt>
      <trkpt lat="43.10496166666667" lon="-1.9382166666666667">
        <ele>477.7</ele>
        <time>2018-09-29T07:18:40Z</time>
      </trkpt>
      <trkpt lat="43.10503" lon="-1.93813">
        <ele>477.4</ele>
        <time>2018-09-29T07:18:41Z</time>
      </trkpt>
      <trkpt lat="43.10509" lon="-1.93804">
        <ele>477.3</ele>
        <time>2018-09-29T07:18:42Z</time>
      </trkpt>
      <trkpt lat="43.10514" lon="-1.93795">
        <ele>477.2</ele>
        <time>2018-09-29T07:18:43Z</time>
      </trkpt>
      <trkpt lat="43.10519" lon="-1.937865">
        <ele>477.1</ele>
        <time>2018-09-29T07:18:44Z</time>
      </trkpt>
      <trkpt lat="43.105245" lon="-1.93778">
        <ele>476.8</ele>
        <time>2018-09-29T07:18:45Z</time>
      </trkpt>
      <trkpt lat="43.105311666666665" lon="-1.937695">
        <ele>476.4</ele>
        <time>2018-09-29T07:18:46Z</time>
      </trkpt>
      <trkpt lat="43.105385" lon="-1.9376083333333334">
        <ele>475.9</ele>
        <time>2018-09-29T07:18:47Z</time>
      </trkpt>
      <trkpt lat="43.105465" lon="-1.93754">
        <ele>475.6</ele>
        <time>2018-09-29T07:18:48Z</time>
      </trkpt>
      <trkpt lat="43.105555" lon="-1.937495">
        <ele>475.1</ele>
        <time>2018-09-29T07:18:49Z</time>
      </trkpt>
      <trkpt lat="43.105645" lon="-1.9374433333333334">
        <ele>474.8</ele>
        <time>2018-09-29T07:18:50Z</time>
      </trkpt>
      <trkpt lat="43.105745" lon="-1.9374066666666665">
        <ele>474.4</ele>
        <time>2018-09-29T07:18:51Z</time>
      </trkpt>
      <trkpt lat="43.105845" lon="-1.937385">
        <ele>474.2</ele>
        <time>2018-09-29T07:18:52Z</time>
      </trkpt>
      <trkpt lat="43.10595" lon="-1.937385">
        <ele>474.0</ele>
        <time>2018-09-29T07:18:53Z</time>
      </trkpt>
      <trkpt lat="43.106051666666666" lon="-1.9373900000000002">
        <ele>474.2</ele>
        <time>2018-09-29T07:18:54Z</time>
      </trkpt>
      <trkpt lat="43.106155" lon="-1.937405">
        <ele>474.3</ele>
        <time>2018-09-29T07:18:55Z</time>
      </trkpt>
      <trkpt lat="43.106255" lon="-1.937425">
        <ele>474.4</ele>
        <time>2018-09-29T07:18:56Z</time>
      </trkpt>
      <trkpt lat="43.106345" lon="-1.9374416666666665">
        <ele>474.3</ele>
        <time>2018-09-29T07:18:57Z</time>
      </trkpt>
      <trkpt lat="43.106428333333334" lon="-1.93746">
        <ele>474.2</ele>
        <time>2018-09-29T07:18:58Z</time>
      </trkpt>
      <trkpt lat="43.10651" lon="-1.93749">
        <ele>474.0</ele>
        <time>2018-09-29T07:18:59Z</time>
      </trkpt>
      <trkpt lat="43.1066" lon="-1.93752">
        <ele>473.8</ele>
        <time>2018-09-29T07:19:00Z</time>
      </trkpt>
      <trkpt lat="43.106685" lon="-1.93758">
        <ele>473.6</ele>
        <time>2018-09-29T07:19:01Z</time>
      </trkpt>
      <trkpt lat="43.106775" lon="-1.93764">
        <ele>473.3</ele>
        <time>2018-09-29T07:19:02Z</time>
      </trkpt>
      <trkpt lat="43.10684666666667" lon="-1.9377233333333332">
        <ele>472.9</ele>
        <time>2018-09-29T07:19:03Z</time>
      </trkpt>
      <trkpt lat="43.1069" lon="-1.9378250000000001">
        <ele>472.5</ele>
        <time>2018-09-29T07:19:04Z</time>
      </trkpt>
      <trkpt lat="43.106966666666665" lon="-1.937925">
        <ele>472.3</ele>
        <time>2018-09-29T07:19:05Z</time>
      </trkpt>
      <trkpt lat="43.10706" lon="-1.938005">
        <ele>472.3</ele>
        <time>2018-09-29T07:19:06Z</time>
      </trkpt>
      <trkpt lat="43.10715" lon="-1.9380616666666666">
        <ele>472.5</ele>
        <time>2018-09-29T07:19:07Z</time>
      </trkpt>
      <trkpt lat="43.107236666666665" lon="-1.93812">
        <ele>472.6</ele>
        <time>2018-09-29T07:19:08Z</time>
      </trkpt>
      <trkpt lat="43.107325" lon="-1.9381683333333335">
        <ele>472.8</ele>
        <time>2018-09-29T07:19:09Z</time>
      </trkpt>
      <trkpt lat="43.107405" lon="-1.9382199999999998">
        <ele>472.9</ele>
        <time>2018-09-29T07:19:10Z</time>
      </trkpt>
      <trkpt lat="43.107485" lon="-1.93827">
        <ele>473.1</ele>
        <time>2018-09-29T07:19:10Z</time>
      </trkpt>
      <trkpt lat="43.10756" lon="-1.9383216666666667">
        <ele>473.1</ele>
        <time>2018-09-29T07:19:11Z</time>
      </trkpt>
      <trkpt lat="43.107635" lon="-1.9383750000000002">
        <ele>473.1</ele>
        <time>2018-09-29T07:19:12Z</time>
      </trkpt>
      <trkpt lat="43.10771" lon="-1.93842">
        <ele>473.0</ele>
        <time>2018-09-29T07:19:13Z</time>
      </trkpt>
      <trkpt lat="43.10779" lon="-1.9384700000000001">
        <ele>472.9</ele>
        <time>2018-09-29T07:19:14Z</time>
      </trkpt>
      <trkpt lat="43.107865" lon="-1.9385283333333334">
        <ele>472.8</ele>
        <time>2018-09-29T07:19:15Z</time>
      </trkpt>
      <trkpt lat="43.10794166666667" lon="-1.9385949999999998">
        <ele>472.6</ele>
        <time>2018-09-29T07:19:16Z</time>
      </trkpt>
      <trkpt lat="43.10801" lon="-1.93868">
        <ele>472.4</ele>
        <time>2018-09-29T07:19:17Z</time>
      </trkpt>
      <trkpt lat="43.108075" lon="-1.938765">
        <ele>472.3</ele>
        <time>2018-09-29T07:19:18Z</time>
      </trkpt>
      <trkpt lat="43.108135" lon="-1.9388450000000002">
        <ele>472.1</ele>
        <time>2018-09-29T07:19:19Z</time>
      </trkpt>
      <trkpt lat="43.1082" lon="-1.9388816666666666">
        <ele>471.9</ele>
        <time>2018-09-29T07:19:20Z</time>
      </trkpt>
      <trkpt lat="43.108325" lon="-1.938825">
        <ele>471.3</ele>
        <time>2018-09-29T07:19:23Z</time>
      </trkpt>
      <trkpt lat="43.10838" lon="-1.938755">
        <ele>471.2</ele>
        <time>2018-09-29T07:19:24Z</time>
      </trkpt>
      <trkpt lat="43.10842666666667" lon="-1.938675">
        <ele>471.1</ele>
        <time>2018-09-29T07:19:25Z</time>
      </trkpt>
      <trkpt lat="43.10848166666667" lon="-1.9384966666666668">
        <ele>471.2</ele>
        <time>2018-09-29T07:19:27Z</time>
      </trkpt>
      <trkpt lat="43.10853" lon="-1.9383166666666667">
        <ele>471.3</ele>
        <time>2018-09-29T07:19:29Z</time>
      </trkpt>
      <trkpt lat="43.108558333333335" lon="-1.938135">
        <ele>471.0</ele>
        <time>2018-09-29T07:19:31Z</time>
      </trkpt>
      <trkpt lat="43.108585" lon="-1.93796">
        <ele>470.4</ele>
        <time>2018-09-29T07:19:33Z</time>
      </trkpt>
      <trkpt lat="43.10863666666667" lon="-1.93781">
        <ele>470.1</ele>
        <time>2018-09-29T07:19:35Z</time>
      </trkpt>
      <trkpt lat="43.108713333333334" lon="-1.9377016666666667">
        <ele>469.6</ele>
        <time>2018-09-29T07:19:37Z</time>
      </trkpt>
      <trkpt lat="43.1088" lon="-1.93758">
        <ele>469.3</ele>
        <time>2018-09-29T07:19:39Z</time>
      </trkpt>
      <trkpt lat="43.108905" lon="-1.937505">
        <ele>468.8</ele>
        <time>2018-09-29T07:19:41Z</time>
      </trkpt>
      <trkpt lat="43.109015" lon="-1.9374850000000001">
        <ele>468.6</ele>
        <time>2018-09-29T07:19:43Z</time>
      </trkpt>
      <trkpt lat="43.109125" lon="-1.93748">
        <ele>468.5</ele>
        <time>2018-09-29T07:19:45Z</time>
      </trkpt>
      <trkpt lat="43.10923" lon="-1.937475">
        <ele>468.3</ele>
        <time>2018-09-29T07:19:47Z</time>
      </trkpt>
      <trkpt lat="43.109325" lon="-1.937465">
        <ele>468.2</ele>
        <time>2018-09-29T07:19:49Z</time>
      </trkpt>
      <trkpt lat="43.10941166666667" lon="-1.93746">
        <ele>468.0</ele>
        <time>2018-09-29T07:19:51Z</time>
      </trkpt>
      <trkpt lat="43.109515" lon="-1.9374516666666666">
        <ele>467.9</ele>
        <time>2018-09-29T07:19:53Z</time>
      </trkpt>
      <trkpt lat="43.109625" lon="-1.9374483333333332">
        <ele>467.8</ele>
        <time>2018-09-29T07:19:55Z</time>
      </trkpt>
      <trkpt lat="43.10973166666667" lon="-1.9374333333333333">
        <ele>467.5</ele>
        <time>2018-09-29T07:19:57Z</time>
      </trkpt>
      <trkpt lat="43.10981" lon="-1.93742">
        <ele>467.5</ele>
        <time>2018-09-29T07:19:59Z</time>
      </trkpt>
      <trkpt lat="43.109881666666666" lon="-1.9373550000000002">
        <ele>467.5</ele>
        <time>2018-09-29T07:20:02Z</time>
      </trkpt>
      <trkpt lat="43.10985" lon="-1.9372633333333333">
        <ele>467.5</ele>
        <time>2018-09-29T07:20:05Z</time>
      </trkpt>
      <trkpt lat="43.109746666666666" lon="-1.9372500000000001">
        <ele>467.5</ele>
        <time>2018-09-29T07:20:08Z</time>
      </trkpt>
      <trkpt lat="43.109665" lon="-1.93723">
        <ele>467.7</ele>
        <time>2018-09-29T07:20:10Z</time>
      </trkpt>
      <trkpt lat="43.10957" lon="-1.937205">
        <ele>467.8</ele>
        <time>2018-09-29T07:20:12Z</time>
      </trkpt>
      <trkpt lat="43.10948" lon="-1.93719">
        <ele>467.9</ele>
        <time>2018-09-29T07:20:14Z</time>
      </trkpt>
      <trkpt lat="43.109386666666666" lon="-1.9371550000000002">
        <ele>467.9</ele>
        <time>2018-09-29T07:20:16Z</time>
      </trkpt>
      <trkpt lat="43.1093" lon="-1.937075">
        <ele>467.9</ele>
        <time>2018-09-29T07:20:18Z</time>
      </trkpt>
      <trkpt lat="43.10922" lon="-1.9369883333333333">
        <ele>467.9</ele>
        <time>2018-09-29T07:20:20Z</time>
      </trkpt>
      <trkpt lat="43.109161666666665" lon="-1.936925">
        <ele>467.9</ele>
        <time>2018-09-29T07:20:22Z</time>
      </trkpt>
      <trkpt lat="43.109105" lon="-1.936855">
        <ele>467.9</ele>
        <time>2018-09-29T07:20:25Z</time>
      </trkpt>
      <trkpt lat="43.10905666666667" lon="-1.936775">
        <ele>468.0</ele>
        <time>2018-09-29T07:20:29Z</time>
      </trkpt>
      <trkpt lat="43.109005" lon="-1.936695">
        <ele>468.0</ele>
        <time>2018-09-29T07:20:34Z</time>
      </trkpt>
      <trkpt lat="43.108985" lon="-1.936595">
        <ele>468.1</ele>
        <time>2018-09-29T07:20:39Z</time>
      </trkpt>
      <trkpt lat="43.108965" lon="-1.936485">
        <ele>468.2</ele>
        <time>2018-09-29T07:20:45Z</time>
      </trkpt>
      <trkpt lat="43.10896666666667" lon="-1.936395">
        <ele>468.5</ele>
        <time>2018-09-29T07:20:52Z</time>
      </trkpt>
      <trkpt lat="43.108955" lon="-1.9362933333333334">
        <ele>468.8</ele>
        <time>2018-09-29T07:20:59Z</time>
      </trkpt>
      <trkpt lat="43.10897" lon="-1.9361966666666666">
        <ele>469.1</ele>
        <time>2018-09-29T07:21:06Z</time>
      </trkpt>
      <trkpt lat="43.10896" lon="-1.936085">
        <ele>469.3</ele>
        <time>2018-09-29T07:21:10Z</time>
      </trkpt>
      <trkpt lat="43.10897" lon="-1.93598">
        <ele>469.6</ele>
        <time>2018-09-29T07:21:17Z</time>
      </trkpt>
      <trkpt lat="43.10895166666667" lon="-1.9358716666666667">
        <ele>469.9</ele>
        <time>2018-09-29T07:21:23Z</time>
      </trkpt>
      <trkpt lat="43.10894666666667" lon="-1.935765">
        <ele>470.3</ele>
        <time>2018-09-29T07:21:29Z</time>
      </trkpt>
      <trkpt lat="43.10893" lon="-1.93567">
        <ele>470.7</ele>
        <time>2018-09-29T07:21:36Z</time>
      </trkpt>
      <trkpt lat="43.10895" lon="-1.93561">
        <ele>471.0</ele>
        <time>2018-09-29T07:21:43Z</time>
      </trkpt>
      <trkpt lat="43.109025" lon="-1.9356316666666666">
        <ele>471.3</ele>
        <time>2018-09-29T07:21:49Z</time>
      </trkpt>
      <trkpt lat="43.10908" lon="-1.9357000000000002">
        <ele>471.6</ele>
        <time>2018-09-29T07:21:54Z</time>
      </trkpt>
      <trkpt lat="43.10914" lon="-1.935785">
        <ele>471.9</ele>
        <time>2018-09-29T07:22:00Z</time>
      </trkpt>
      <trkpt lat="43.109201666666664" lon="-1.935865">
        <ele>472.2</ele>
        <time>2018-09-29T07:22:06Z</time>
      </trkpt>
      <trkpt lat="43.109275" lon="-1.93588">
        <ele>472.6</ele>
        <time>2018-09-29T07:22:13Z</time>
      </trkpt>
      <trkpt lat="43.10935" lon="-1.935905">
        <ele>473.0</ele>
        <time>2018-09-29T07:22:20Z</time>
      </trkpt>
      <trkpt lat="43.10943" lon="-1.9359233333333332">
        <ele>473.3</ele>
        <time>2018-09-29T07:22:27Z</time>
      </trkpt>
      <trkpt lat="43.109505" lon="-1.935945">
        <ele>473.7</ele>
        <time>2018-09-29T07:22:33Z</time>
      </trkpt>
      <trkpt lat="43.10959" lon="-1.9359600000000001">
        <ele>474.0</ele>
        <time>2018-09-29T07:22:38Z</time>
      </trkpt>
      <trkpt lat="43.109675" lon="-1.9359600000000001">
        <ele>474.3</ele>
        <time>2018-09-29T07:22:43Z</time>
      </trkpt>
      <trkpt lat="43.109755" lon="-1.9359600000000001">
        <ele>474.6</ele>
        <time>2018-09-29T07:22:48Z</time>
      </trkpt>
      <trkpt lat="43.109825" lon="-1.9359183333333334">
        <ele>474.9</ele>
        <time>2018-09-29T07:22:52Z</time>
      </trkpt>
      <trkpt lat="43.1099" lon="-1.93589">
        <ele>475.4</ele>
        <time>2018-09-29T07:22:57Z</time>
      </trkpt>
      <trkpt lat="43.109965" lon="-1.93584">
        <ele>476.0</ele>
        <time>2018-09-29T07:23:02Z</time>
      </trkpt>
      <trkpt lat="43.11003" lon="-1.9357766666666667">
        <ele>476.8</ele>
        <time>2018-09-29T07:23:09Z</time>
      </trkpt>
      <trkpt lat="43.110101666666665" lon="-1.9357199999999999">
        <ele>477.8</ele>
        <time>2018-09-29T07:23:16Z</time>
      </trkpt>
      <trkpt lat="43.11016" lon="-1.9356583333333333">
        <ele>478.5</ele>
        <time>2018-09-29T07:23:21Z</time>
      </trkpt>
      <trkpt lat="43.110216666666666" lon="-1.9355783333333334">
        <ele>479.2</ele>
        <time>2018-09-29T07:23:26Z</time>
      </trkpt>
      <trkpt lat="43.11027" lon="-1.9354966666666669">
        <ele>479.9</ele>
        <time>2018-09-29T07:23:31Z</time>
      </trkpt>
      <trkpt lat="43.11031666666667" lon="-1.9354033333333334">
        <ele>480.8</ele>
        <time>2018-09-29T07:23:37Z</time>
      </trkpt>
      <trkpt lat="43.11035" lon="-1.93533">
        <ele>482.0</ele>
        <time>2018-09-29T07:23:44Z</time>
      </trkpt>
      <trkpt lat="43.11038666666666" lon="-1.935235">
        <ele>483.4</ele>
        <time>2018-09-29T07:23:50Z</time>
      </trkpt>
      <trkpt lat="43.11043" lon="-1.9351333333333334">
        <ele>484.9</ele>
        <time>2018-09-29T07:23:56Z</time>
      </trkpt>
      <trkpt lat="43.110461666666666" lon="-1.93504">
        <ele>486.6</ele>
        <time>2018-09-29T07:24:02Z</time>
      </trkpt>
      <trkpt lat="43.110505" lon="-1.9349416666666666">
        <ele>488.3</ele>
        <time>2018-09-29T07:24:08Z</time>
      </trkpt>
      <trkpt lat="43.11053166666667" lon="-1.9348366666666668">
        <ele>490.1</ele>
        <time>2018-09-29T07:24:14Z</time>
      </trkpt>
      <trkpt lat="43.110555" lon="-1.9347416666666666">
        <ele>492.2</ele>
        <time>2018-09-29T07:24:21Z</time>
      </trkpt>
      <trkpt lat="43.110575" lon="-1.9346616666666667">
        <ele>494.2</ele>
        <time>2018-09-29T07:24:28Z</time>
      </trkpt>
      <trkpt lat="43.110585" lon="-1.9345616666666667">
        <ele>495.7</ele>
        <time>2018-09-29T07:24:34Z</time>
      </trkpt>
      <trkpt lat="43.11058" lon="-1.93445">
        <ele>497.1</ele>
        <time>2018-09-29T07:24:40Z</time>
      </trkpt>
      <trkpt lat="43.11056166666667" lon="-1.934345">
        <ele>498.4</ele>
        <time>2018-09-29T07:24:46Z</time>
      </trkpt>
      <trkpt lat="43.11055" lon="-1.934245">
        <ele>499.7</ele>
        <time>2018-09-29T07:24:52Z</time>
      </trkpt>
      <trkpt lat="43.11057" lon="-1.9341650000000001">
        <ele>501.1</ele>
        <time>2018-09-29T07:24:59Z</time>
      </trkpt>
      <trkpt lat="43.11057666666667" lon="-1.934085">
        <ele>502.4</ele>
        <time>2018-09-29T07:25:06Z</time>
      </trkpt>
      <trkpt lat="43.110585" lon="-1.93398">
        <ele>503.5</ele>
        <time>2018-09-29T07:25:12Z</time>
      </trkpt>
      <trkpt lat="43.110596666666666" lon="-1.9338783333333334">
        <ele>504.4</ele>
        <time>2018-09-29T07:25:17Z</time>
      </trkpt>
      <trkpt lat="43.11062" lon="-1.9337616666666668">
        <ele>505.3</ele>
        <time>2018-09-29T07:25:22Z</time>
      </trkpt>
      <trkpt lat="43.11065" lon="-1.93365">
        <ele>506.3</ele>
        <time>2018-09-29T07:25:28Z</time>
      </trkpt>
      <trkpt lat="43.110675" lon="-1.9335550000000001">
        <ele>507.6</ele>
        <time>2018-09-29T07:25:35Z</time>
      </trkpt>
      <trkpt lat="43.110701666666664" lon="-1.9334416666666667">
        <ele>508.5</ele>
        <time>2018-09-29T07:25:41Z</time>
      </trkpt>
      <trkpt lat="43.11072" lon="-1.93333">
        <ele>509.4</ele>
        <time>2018-09-29T07:25:47Z</time>
      </trkpt>
      <trkpt lat="43.11072" lon="-1.9332183333333333">
        <ele>510.4</ele>
        <time>2018-09-29T07:25:54Z</time>
      </trkpt>
      <trkpt lat="43.110725" lon="-1.93311">
        <ele>511.2</ele>
        <time>2018-09-29T07:26:00Z</time>
      </trkpt>
      <trkpt lat="43.110715" lon="-1.93301">
        <ele>512.1</ele>
        <time>2018-09-29T07:26:07Z</time>
      </trkpt>
      <trkpt lat="43.11072" lon="-1.9329">
        <ele>512.9</ele>
        <time>2018-09-29T07:26:13Z</time>
      </trkpt>
      <trkpt lat="43.110725" lon="-1.932805">
        <ele>513.7</ele>
        <time>2018-09-29T07:26:20Z</time>
      </trkpt>
      <trkpt lat="43.110753333333335" lon="-1.9327016666666665">
        <ele>514.5</ele>
        <time>2018-09-29T07:26:27Z</time>
      </trkpt>
      <trkpt lat="43.110791666666664" lon="-1.932615">
        <ele>514.9</ele>
        <time>2018-09-29T07:26:30Z</time>
      </trkpt>
      <trkpt lat="43.11082666666667" lon="-1.9325116666666666">
        <ele>515.4</ele>
        <time>2018-09-29T07:26:35Z</time>
      </trkpt>
      <trkpt lat="43.11085" lon="-1.9324166666666667">
        <ele>516.0</ele>
        <time>2018-09-29T07:26:40Z</time>
      </trkpt>
      <trkpt lat="43.11087666666667" lon="-1.9323233333333332">
        <ele>516.5</ele>
        <time>2018-09-29T07:26:45Z</time>
      </trkpt>
      <trkpt lat="43.11089" lon="-1.932225">
        <ele>517.0</ele>
        <time>2018-09-29T07:26:50Z</time>
      </trkpt>
      <trkpt lat="43.110905" lon="-1.9321166666666667">
        <ele>517.6</ele>
        <time>2018-09-29T07:26:55Z</time>
      </trkpt>
      <trkpt lat="43.110955" lon="-1.9320249999999999">
        <ele>518.1</ele>
        <time>2018-09-29T07:27:00Z</time>
      </trkpt>
      <trkpt lat="43.110985" lon="-1.93193">
        <ele>518.7</ele>
        <time>2018-09-29T07:27:05Z</time>
      </trkpt>
      <trkpt lat="43.11102666666667" lon="-1.9317983333333333">
        <ele>519.3</ele>
        <time>2018-09-29T07:27:10Z</time>
      </trkpt>
      <trkpt lat="43.111055" lon="-1.9316849999999999">
        <ele>519.7</ele>
        <time>2018-09-29T07:27:13Z</time>
      </trkpt>
      <trkpt lat="43.111095" lon="-1.9315766666666665">
        <ele>520.1</ele>
        <time>2018-09-29T07:27:16Z</time>
      </trkpt>
      <trkpt lat="43.11113" lon="-1.9314550000000001">
        <ele>520.7</ele>
        <time>2018-09-29T07:27:19Z</time>
      </trkpt>
      <trkpt lat="43.11117" lon="-1.9313383333333332">
        <ele>521.3</ele>
        <time>2018-09-29T07:27:22Z</time>
      </trkpt>
      <trkpt lat="43.111195" lon="-1.931225">
        <ele>521.9</ele>
        <time>2018-09-29T07:27:25Z</time>
      </trkpt>
      <trkpt lat="43.11121166666667" lon="-1.9311083333333334">
        <ele>522.6</ele>
        <time>2018-09-29T07:27:28Z</time>
      </trkpt>
      <trkpt lat="43.11122" lon="-1.931">
        <ele>523.3</ele>
        <time>2018-09-29T07:27:31Z</time>
      </trkpt>
      <trkpt lat="43.11123" lon="-1.9308816666666666">
        <ele>524.4</ele>
        <time>2018-09-29T07:27:35Z</time>
      </trkpt>
      <trkpt lat="43.11125" lon="-1.93078">
        <ele>525.5</ele>
        <time>2018-09-29T07:27:39Z</time>
      </trkpt>
      <trkpt lat="43.11128" lon="-1.930675">
        <ele>526.6</ele>
        <time>2018-09-29T07:27:43Z</time>
      </trkpt>
      <trkpt lat="43.11132" lon="-1.9305416666666666">
        <ele>527.4</ele>
        <time>2018-09-29T07:27:46Z</time>
      </trkpt>
      <trkpt lat="43.11137" lon="-1.930435">
        <ele>528.3</ele>
        <time>2018-09-29T07:27:49Z</time>
      </trkpt>
      <trkpt lat="43.111425" lon="-1.9303483333333333">
        <ele>529.2</ele>
        <time>2018-09-29T07:27:52Z</time>
      </trkpt>
      <trkpt lat="43.11148" lon="-1.9302666666666668">
        <ele>530.1</ele>
        <time>2018-09-29T07:27:55Z</time>
      </trkpt>
      <trkpt lat="43.111505" lon="-1.9301650000000001">
        <ele>531.0</ele>
        <time>2018-09-29T07:27:58Z</time>
      </trkpt>
      <trkpt lat="43.11152" lon="-1.930065">
        <ele>532.5</ele>
        <time>2018-09-29T07:28:03Z</time>
      </trkpt>
      <trkpt lat="43.111536666666666" lon="-1.929945">
        <ele>534.4</ele>
        <time>2018-09-29T07:28:09Z</time>
      </trkpt>
      <trkpt lat="43.111545" lon="-1.92984">
        <ele>536.1</ele>
        <time>2018-09-29T07:28:14Z</time>
      </trkpt>
      <trkpt lat="43.111565" lon="-1.9297233333333335">
        <ele>537.5</ele>
        <time>2018-09-29T07:28:19Z</time>
      </trkpt>
      <trkpt lat="43.11157" lon="-1.929605">
        <ele>539.0</ele>
        <time>2018-09-29T07:28:25Z</time>
      </trkpt>
      <trkpt lat="43.111575" lon="-1.92949">
        <ele>540.2</ele>
        <time>2018-09-29T07:28:30Z</time>
      </trkpt>
      <trkpt lat="43.111565" lon="-1.9293816666666666">
        <ele>540.8</ele>
        <time>2018-09-29T07:28:33Z</time>
      </trkpt>
      <trkpt lat="43.111565" lon="-1.9292816666666668">
        <ele>541.5</ele>
        <time>2018-09-29T07:28:36Z</time>
      </trkpt>
      <trkpt lat="43.111576666666664" lon="-1.929175">
        <ele>542.3</ele>
        <time>2018-09-29T07:28:40Z</time>
      </trkpt>
      <trkpt lat="43.111615" lon="-1.929065">
        <ele>543.1</ele>
        <time>2018-09-29T07:28:44Z</time>
      </trkpt>
      <trkpt lat="43.111615" lon="-1.9289266666666667">
        <ele>543.9</ele>
        <time>2018-09-29T07:28:48Z</time>
      </trkpt>
      <trkpt lat="43.11158" lon="-1.9288316666666667">
        <ele>544.4</ele>
        <time>2018-09-29T07:28:51Z</time>
      </trkpt>
      <trkpt lat="43.111555" lon="-1.928715">
        <ele>545.2</ele>
        <time>2018-09-29T07:28:55Z</time>
      </trkpt>
      <trkpt lat="43.11155" lon="-1.9286150000000002">
        <ele>545.8</ele>
        <time>2018-09-29T07:28:58Z</time>
      </trkpt>
      <trkpt lat="43.11157" lon="-1.9284916666666665">
        <ele>546.8</ele>
        <time>2018-09-29T07:29:02Z</time>
      </trkpt>
      <trkpt lat="43.1116" lon="-1.9284050000000001">
        <ele>548.4</ele>
        <time>2018-09-29T07:29:07Z</time>
      </trkpt>
      <trkpt lat="43.111626666666666" lon="-1.9282933333333334">
        <ele>550.1</ele>
        <time>2018-09-29T07:29:12Z</time>
      </trkpt>
      <trkpt lat="43.111646666666665" lon="-1.92819">
        <ele>551.7</ele>
        <time>2018-09-29T07:29:17Z</time>
      </trkpt>
      <trkpt lat="43.11168" lon="-1.9281016666666666">
        <ele>553.3</ele>
        <time>2018-09-29T07:29:22Z</time>
      </trkpt>
      <trkpt lat="43.11172" lon="-1.9280116666666667">
        <ele>554.3</ele>
        <time>2018-09-29T07:29:25Z</time>
      </trkpt>
      <trkpt lat="43.111775" lon="-1.927925">
        <ele>555.2</ele>
        <time>2018-09-29T07:29:28Z</time>
      </trkpt>
      <trkpt lat="43.11183" lon="-1.92782">
        <ele>556.1</ele>
        <time>2018-09-29T07:29:31Z</time>
      </trkpt>
      <trkpt lat="43.11187" lon="-1.9277083333333334">
        <ele>557.0</ele>
        <time>2018-09-29T07:29:34Z</time>
      </trkpt>
      <trkpt lat="43.111865" lon="-1.9276">
        <ele>558.1</ele>
        <time>2018-09-29T07:29:38Z</time>
      </trkpt>
      <trkpt lat="43.111891666666665" lon="-1.9274816666666665">
        <ele>559.0</ele>
        <time>2018-09-29T07:29:41Z</time>
      </trkpt>
      <trkpt lat="43.111911666666664" lon="-1.92736">
        <ele>560.6</ele>
        <time>2018-09-29T07:29:47Z</time>
      </trkpt>
      <trkpt lat="43.111893333333335" lon="-1.927245">
        <ele>561.9</ele>
        <time>2018-09-29T07:29:52Z</time>
      </trkpt>
      <trkpt lat="43.11188666666666" lon="-1.9271433333333334">
        <ele>563.2</ele>
        <time>2018-09-29T07:29:57Z</time>
      </trkpt>
      <trkpt lat="43.111905" lon="-1.9270466666666666">
        <ele>564.8</ele>
        <time>2018-09-29T07:30:04Z</time>
      </trkpt>
      <trkpt lat="43.111893333333335" lon="-1.9269383333333334">
        <ele>566.1</ele>
        <time>2018-09-29T07:30:10Z</time>
      </trkpt>
      <trkpt lat="43.11188666666666" lon="-1.926835">
        <ele>567.0</ele>
        <time>2018-09-29T07:30:14Z</time>
      </trkpt>
      <trkpt lat="43.111826666666666" lon="-1.926715">
        <ele>570.5</ele>
        <time>2018-09-29T07:30:28Z</time>
      </trkpt>
      <trkpt lat="43.111795" lon="-1.926625">
        <ele>571.6</ele>
        <time>2018-09-29T07:30:32Z</time>
      </trkpt>
      <trkpt lat="43.111765" lon="-1.92652">
        <ele>572.7</ele>
        <time>2018-09-29T07:30:36Z</time>
      </trkpt>
      <trkpt lat="43.11175166666666" lon="-1.9263949999999999">
        <ele>573.7</ele>
        <time>2018-09-29T07:30:40Z</time>
      </trkpt>
      <trkpt lat="43.11176" lon="-1.926295">
        <ele>574.7</ele>
        <time>2018-09-29T07:30:44Z</time>
      </trkpt>
      <trkpt lat="43.111725" lon="-1.926205">
        <ele>575.7</ele>
        <time>2018-09-29T07:30:48Z</time>
      </trkpt>
      <trkpt lat="43.111645" lon="-1.9262333333333332">
        <ele>576.6</ele>
        <time>2018-09-29T07:30:52Z</time>
      </trkpt>
      <trkpt lat="43.111555" lon="-1.9262283333333334">
        <ele>579.3</ele>
        <time>2018-09-29T07:30:55Z</time>
      </trkpt>
      <trkpt lat="43.111455" lon="-1.9262166666666667">
        <ele>581.2</ele>
        <time>2018-09-29T07:30:57Z</time>
      </trkpt>
      <trkpt lat="43.111405" lon="-1.9261366666666666">
        <ele>581.5</ele>
        <time>2018-09-29T07:30:59Z</time>
      </trkpt>
      <trkpt lat="43.11135" lon="-1.92607">
        <ele>581.8</ele>
        <time>2018-09-29T07:31:01Z</time>
      </trkpt>
      <trkpt lat="43.111275" lon="-1.9259683333333335">
        <ele>582.3</ele>
        <time>2018-09-29T07:31:04Z</time>
      </trkpt>
      <trkpt lat="43.111225" lon="-1.92589">
        <ele>582.6</ele>
        <time>2018-09-29T07:31:06Z</time>
      </trkpt>
      <trkpt lat="43.111145" lon="-1.9257716666666667">
        <ele>584.5</ele>
        <time>2018-09-29T07:31:09Z</time>
      </trkpt>
      <trkpt lat="43.111105" lon="-1.92567">
        <ele>585.9</ele>
        <time>2018-09-29T07:31:11Z</time>
      </trkpt>
      <trkpt lat="43.11105166666667" lon="-1.925575">
        <ele>586.1</ele>
        <time>2018-09-29T07:31:13Z</time>
      </trkpt>
      <trkpt lat="43.111005" lon="-1.925475">
        <ele>587.1</ele>
        <time>2018-09-29T07:31:15Z</time>
      </trkpt>
      <trkpt lat="43.11099" lon="-1.925365">
        <ele>587.2</ele>
        <time>2018-09-29T07:31:17Z</time>
      </trkpt>
      <trkpt lat="43.110935" lon="-1.92528">
        <ele>587.4</ele>
        <time>2018-09-29T07:31:19Z</time>
      </trkpt>
      <trkpt lat="43.11088" lon="-1.9251716666666667">
        <ele>587.5</ele>
        <time>2018-09-29T07:31:21Z</time>
      </trkpt>
      <trkpt lat="43.11083" lon="-1.9250583333333333">
        <ele>587.6</ele>
        <time>2018-09-29T07:31:24Z</time>
      </trkpt>
      <trkpt lat="43.11075" lon="-1.9249666666666667">
        <ele>587.8</ele>
        <time>2018-09-29T07:31:27Z</time>
      </trkpt>
      <trkpt lat="43.110695" lon="-1.9248916666666667">
        <ele>587.9</ele>
        <time>2018-09-29T07:31:29Z</time>
      </trkpt>
      <trkpt lat="43.110645" lon="-1.9248150000000002">
        <ele>588.1</ele>
        <time>2018-09-29T07:31:31Z</time>
      </trkpt>
      <trkpt lat="43.110585" lon="-1.92475">
        <ele>588.3</ele>
        <time>2018-09-29T07:31:34Z</time>
      </trkpt>
      <trkpt lat="43.110526666666665" lon="-1.92468">
        <ele>588.5</ele>
        <time>2018-09-29T07:31:37Z</time>
      </trkpt>
      <trkpt lat="43.110465" lon="-1.924575">
        <ele>588.7</ele>
        <time>2018-09-29T07:31:40Z</time>
      </trkpt>
      <trkpt lat="43.11041" lon="-1.924475">
        <ele>589.0</ele>
        <time>2018-09-29T07:31:43Z</time>
      </trkpt>
      <trkpt lat="43.110365" lon="-1.924355">
        <ele>589.3</ele>
        <time>2018-09-29T07:31:46Z</time>
      </trkpt>
      <trkpt lat="43.11032" lon="-1.9242616666666668">
        <ele>589.4</ele>
        <time>2018-09-29T07:31:48Z</time>
      </trkpt>
      <trkpt lat="43.110265" lon="-1.924195">
        <ele>589.6</ele>
        <time>2018-09-29T07:31:51Z</time>
      </trkpt>
      <trkpt lat="43.110215" lon="-1.924115">
        <ele>589.8</ele>
        <time>2018-09-29T07:31:52Z</time>
      </trkpt>
      <trkpt lat="43.110148333333335" lon="-1.92401">
        <ele>590.1</ele>
        <time>2018-09-29T07:31:55Z</time>
      </trkpt>
      <trkpt lat="43.110081666666666" lon="-1.92393">
        <ele>591.0</ele>
        <time>2018-09-29T07:31:57Z</time>
      </trkpt>
      <trkpt lat="43.110015" lon="-1.9238483333333334">
        <ele>591.1</ele>
        <time>2018-09-29T07:31:59Z</time>
      </trkpt>
      <trkpt lat="43.10996" lon="-1.923785">
        <ele>591.2</ele>
        <time>2018-09-29T07:32:01Z</time>
      </trkpt>
      <trkpt lat="43.10992" lon="-1.92368">
        <ele>591.4</ele>
        <time>2018-09-29T07:32:03Z</time>
      </trkpt>
      <trkpt lat="43.109876666666665" lon="-1.923575">
        <ele>591.5</ele>
        <time>2018-09-29T07:32:05Z</time>
      </trkpt>
      <trkpt lat="43.10983" lon="-1.92349">
        <ele>591.6</ele>
        <time>2018-09-29T07:32:07Z</time>
      </trkpt>
      <trkpt lat="43.109795" lon="-1.92337">
        <ele>591.8</ele>
        <time>2018-09-29T07:32:10Z</time>
      </trkpt>
      <trkpt lat="43.10978" lon="-1.92323">
        <ele>592.0</ele>
        <time>2018-09-29T07:32:13Z</time>
      </trkpt>
      <trkpt lat="43.10976333333333" lon="-1.92312">
        <ele>592.1</ele>
        <time>2018-09-29T07:32:15Z</time>
      </trkpt>
      <trkpt lat="43.10973" lon="-1.92298">
        <ele>592.3</ele>
        <time>2018-09-29T07:32:18Z</time>
      </trkpt>
      <trkpt lat="43.109705" lon="-1.92287">
        <ele>592.4</ele>
        <time>2018-09-29T07:32:20Z</time>
      </trkpt>
      <trkpt lat="43.109665" lon="-1.922755">
        <ele>593.0</ele>
        <time>2018-09-29T07:32:22Z</time>
      </trkpt>
      <trkpt lat="43.10961" lon="-1.9226">
        <ele>593.9</ele>
        <time>2018-09-29T07:32:24Z</time>
      </trkpt>
      <trkpt lat="43.109575" lon="-1.922465">
        <ele>594.2</ele>
        <time>2018-09-29T07:32:26Z</time>
      </trkpt>
      <trkpt lat="43.109515" lon="-1.92235">
        <ele>594.7</ele>
        <time>2018-09-29T07:32:28Z</time>
      </trkpt>
      <trkpt lat="43.109476666666666" lon="-1.92221">
        <ele>595.1</ele>
        <time>2018-09-29T07:32:30Z</time>
      </trkpt>
      <trkpt lat="43.10943" lon="-1.92208">
        <ele>595.4</ele>
        <time>2018-09-29T07:32:32Z</time>
      </trkpt>
      <trkpt lat="43.10937166666667" lon="-1.92196">
        <ele>595.5</ele>
        <time>2018-09-29T07:32:34Z</time>
      </trkpt>
      <trkpt lat="43.109325" lon="-1.9218433333333333">
        <ele>595.6</ele>
        <time>2018-09-29T07:32:36Z</time>
      </trkpt>
      <trkpt lat="43.109271666666665" lon="-1.9217366666666666">
        <ele>595.7</ele>
        <time>2018-09-29T07:32:38Z</time>
      </trkpt>
      <trkpt lat="43.109225" lon="-1.9216199999999999">
        <ele>595.8</ele>
        <time>2018-09-29T07:32:40Z</time>
      </trkpt>
      <trkpt lat="43.109185" lon="-1.9214966666666666">
        <ele>595.8</ele>
        <time>2018-09-29T07:32:42Z</time>
      </trkpt>
      <trkpt lat="43.10914" lon="-1.9213816666666665">
        <ele>595.8</ele>
        <time>2018-09-29T07:32:44Z</time>
      </trkpt>
      <trkpt lat="43.109135" lon="-1.921225">
        <ele>595.8</ele>
        <time>2018-09-29T07:32:46Z</time>
      </trkpt>
      <trkpt lat="43.10915" lon="-1.92108">
        <ele>595.9</ele>
        <time>2018-09-29T07:32:48Z</time>
      </trkpt>
      <trkpt lat="43.109175" lon="-1.920955">
        <ele>596.0</ele>
        <time>2018-09-29T07:32:50Z</time>
      </trkpt>
      <trkpt lat="43.10921166666667" lon="-1.920825">
        <ele>596.1</ele>
        <time>2018-09-29T07:32:52Z</time>
      </trkpt>
      <trkpt lat="43.109265" lon="-1.9206933333333334">
        <ele>596.2</ele>
        <time>2018-09-29T07:32:54Z</time>
      </trkpt>
      <trkpt lat="43.109325" lon="-1.92059">
        <ele>596.4</ele>
        <time>2018-09-29T07:32:56Z</time>
      </trkpt>
      <trkpt lat="43.109375" lon="-1.920515">
        <ele>596.4</ele>
        <time>2018-09-29T07:32:58Z</time>
      </trkpt>
      <trkpt lat="43.10948166666667" lon="-1.92042">
        <ele>596.5</ele>
        <time>2018-09-29T07:33:01Z</time>
      </trkpt>
      <trkpt lat="43.10953" lon="-1.9203083333333333">
        <ele>596.6</ele>
        <time>2018-09-29T07:33:03Z</time>
      </trkpt>
      <trkpt lat="43.109585" lon="-1.9202133333333333">
        <ele>596.7</ele>
        <time>2018-09-29T07:33:05Z</time>
      </trkpt>
      <trkpt lat="43.10964666666667" lon="-1.92011">
        <ele>596.7</ele>
        <time>2018-09-29T07:33:07Z</time>
      </trkpt>
      <trkpt lat="43.10972" lon="-1.9199950000000001">
        <ele>596.7</ele>
        <time>2018-09-29T07:33:09Z</time>
      </trkpt>
      <trkpt lat="43.109755" lon="-1.919905">
        <ele>596.7</ele>
        <time>2018-09-29T07:33:11Z</time>
      </trkpt>
      <trkpt lat="43.109775" lon="-1.9197733333333333">
        <ele>596.8</ele>
        <time>2018-09-29T07:33:15Z</time>
      </trkpt>
      <trkpt lat="43.1098" lon="-1.91966">
        <ele>596.7</ele>
        <time>2018-09-29T07:33:19Z</time>
      </trkpt>
      <trkpt lat="43.10986166666667" lon="-1.919605">
        <ele>596.7</ele>
        <time>2018-09-29T07:33:22Z</time>
      </trkpt>
      <trkpt lat="43.1099" lon="-1.9195166666666665">
        <ele>596.7</ele>
        <time>2018-09-29T07:33:29Z</time>
      </trkpt>
      <trkpt lat="43.10991666666666" lon="-1.91948">
        <ele>596.7</ele>
        <time>2018-09-29T07:33:36Z</time>
      </trkpt>
      <trkpt lat="43.109955" lon="-1.9193799999999999">
        <ele>596.7</ele>
        <time>2018-09-29T07:33:43Z</time>
      </trkpt>
      <trkpt lat="43.110005" lon="-1.9193">
        <ele>596.6</ele>
        <time>2018-09-29T07:33:50Z</time>
      </trkpt>
      <trkpt lat="43.11005" lon="-1.91921">
        <ele>596.6</ele>
        <time>2018-09-29T07:33:57Z</time>
      </trkpt>
      <trkpt lat="43.110095" lon="-1.9191150000000001">
        <ele>596.7</ele>
        <time>2018-09-29T07:34:02Z</time>
      </trkpt>
      <trkpt lat="43.110075" lon="-1.919">
        <ele>596.8</ele>
        <time>2018-09-29T07:34:08Z</time>
      </trkpt>
      <trkpt lat="43.11007" lon="-1.91889">
        <ele>597.1</ele>
        <time>2018-09-29T07:34:15Z</time>
      </trkpt>
      <trkpt lat="43.11004166666667" lon="-1.9188100000000001">
        <ele>597.5</ele>
        <time>2018-09-29T07:34:22Z</time>
      </trkpt>
      <trkpt lat="43.110025" lon="-1.9187083333333335">
        <ele>597.7</ele>
        <time>2018-09-29T07:34:28Z</time>
      </trkpt>
      <trkpt lat="43.110035" lon="-1.9186166666666666">
        <ele>598.2</ele>
        <time>2018-09-29T07:34:35Z</time>
      </trkpt>
      <trkpt lat="43.110085" lon="-1.918525">
        <ele>598.8</ele>
        <time>2018-09-29T07:34:42Z</time>
      </trkpt>
      <trkpt lat="43.110125" lon="-1.9184166666666667">
        <ele>599.6</ele>
        <time>2018-09-29T07:34:49Z</time>
      </trkpt>
      <trkpt lat="43.11015666666667" lon="-1.91831">
        <ele>599.9</ele>
        <time>2018-09-29T07:34:52Z</time>
      </trkpt>
      <trkpt lat="43.110185" lon="-1.9181916666666667">
        <ele>600.3</ele>
        <time>2018-09-29T07:34:55Z</time>
      </trkpt>
      <trkpt lat="43.11019" lon="-1.918095">
        <ele>600.7</ele>
        <time>2018-09-29T07:34:58Z</time>
      </trkpt>
      <trkpt lat="43.11019" lon="-1.9179816666666665">
        <ele>601.1</ele>
        <time>2018-09-29T07:35:01Z</time>
      </trkpt>
      <trkpt lat="43.11019666666667" lon="-1.917845">
        <ele>601.4</ele>
        <time>2018-09-29T07:35:04Z</time>
      </trkpt>
      <trkpt lat="43.11023" lon="-1.91774">
        <ele>601.7</ele>
        <time>2018-09-29T07:35:07Z</time>
      </trkpt>
      <trkpt lat="43.110265" lon="-1.9176350000000002">
        <ele>602.0</ele>
        <time>2018-09-29T07:35:09Z</time>
      </trkpt>
      <trkpt lat="43.110301666666665" lon="-1.9175316666666666">
        <ele>602.2</ele>
        <time>2018-09-29T07:35:11Z</time>
      </trkpt>
      <trkpt lat="43.11034" lon="-1.9174433333333334">
        <ele>602.4</ele>
        <time>2018-09-29T07:35:13Z</time>
      </trkpt>
      <trkpt lat="43.11038166666667" lon="-1.9173466666666665">
        <ele>602.6</ele>
        <time>2018-09-29T07:35:15Z</time>
      </trkpt>
      <trkpt lat="43.110458333333334" lon="-1.9172850000000001">
        <ele>602.9</ele>
        <time>2018-09-29T07:35:18Z</time>
      </trkpt>
      <trkpt lat="43.110555" lon="-1.917225">
        <ele>603.4</ele>
        <time>2018-09-29T07:35:22Z</time>
      </trkpt>
      <trkpt lat="43.11064" lon="-1.91719">
        <ele>603.8</ele>
        <time>2018-09-29T07:35:25Z</time>
      </trkpt>
      <trkpt lat="43.11072" lon="-1.9171616666666667">
        <ele>604.2</ele>
        <time>2018-09-29T07:35:28Z</time>
      </trkpt>
      <trkpt lat="43.11081" lon="-1.9171616666666667">
        <ele>604.6</ele>
        <time>2018-09-29T07:35:31Z</time>
      </trkpt>
      <trkpt lat="43.110886666666666" lon="-1.91715">
        <ele>604.9</ele>
        <time>2018-09-29T07:35:33Z</time>
      </trkpt>
      <trkpt lat="43.11099166666666" lon="-1.9171399999999998">
        <ele>605.3</ele>
        <time>2018-09-29T07:35:36Z</time>
      </trkpt>
      <trkpt lat="43.111075" lon="-1.9171200000000002">
        <ele>605.6</ele>
        <time>2018-09-29T07:35:38Z</time>
      </trkpt>
      <trkpt lat="43.11114833333333" lon="-1.9171">
        <ele>605.8</ele>
        <time>2018-09-29T07:35:40Z</time>
      </trkpt>
      <trkpt lat="43.111225" lon="-1.9170966666666667">
        <ele>606.1</ele>
        <time>2018-09-29T07:35:42Z</time>
      </trkpt>
      <trkpt lat="43.11129666666667" lon="-1.9170783333333334">
        <ele>606.3</ele>
        <time>2018-09-29T07:35:44Z</time>
      </trkpt>
      <trkpt lat="43.111358333333335" lon="-1.9169883333333333">
        <ele>606.7</ele>
        <time>2018-09-29T07:35:47Z</time>
      </trkpt>
      <trkpt lat="43.1114" lon="-1.9168850000000002">
        <ele>607.1</ele>
        <time>2018-09-29T07:35:50Z</time>
      </trkpt>
      <trkpt lat="43.111395" lon="-1.9167633333333334">
        <ele>607.5</ele>
        <time>2018-09-29T07:35:53Z</time>
      </trkpt>
      <trkpt lat="43.11143833333333" lon="-1.91668">
        <ele>607.7</ele>
        <time>2018-09-29T07:35:55Z</time>
      </trkpt>
      <trkpt lat="43.111445" lon="-1.9165616666666665">
        <ele>608.1</ele>
        <time>2018-09-29T07:35:58Z</time>
      </trkpt>
      <trkpt lat="43.11146" lon="-1.91643">
        <ele>608.4</ele>
        <time>2018-09-29T07:36:01Z</time>
      </trkpt>
      <trkpt lat="43.111505" lon="-1.9163266666666665">
        <ele>608.8</ele>
        <time>2018-09-29T07:36:04Z</time>
      </trkpt>
      <trkpt lat="43.111511666666665" lon="-1.916205">
        <ele>609.1</ele>
        <time>2018-09-29T07:36:07Z</time>
      </trkpt>
      <trkpt lat="43.11152833333333" lon="-1.9161016666666666">
        <ele>609.3</ele>
        <time>2018-09-29T07:36:09Z</time>
      </trkpt>
      <trkpt lat="43.11155" lon="-1.9160016666666666">
        <ele>609.5</ele>
        <time>2018-09-29T07:36:11Z</time>
      </trkpt>
      <trkpt lat="43.11157" lon="-1.91589">
        <ele>609.8</ele>
        <time>2018-09-29T07:36:14Z</time>
      </trkpt>
      <trkpt lat="43.111605" lon="-1.915795">
        <ele>610.1</ele>
        <time>2018-09-29T07:36:17Z</time>
      </trkpt>
      <trkpt lat="43.111635" lon="-1.9156866666666668">
        <ele>610.5</ele>
        <time>2018-09-29T07:36:21Z</time>
      </trkpt>
      <trkpt lat="43.111665" lon="-1.915595">
        <ele>610.9</ele>
        <time>2018-09-29T07:36:25Z</time>
      </trkpt>
      <trkpt lat="43.111695" lon="-1.9154900000000001">
        <ele>611.2</ele>
        <time>2018-09-29T07:36:29Z</time>
      </trkpt>
      <trkpt lat="43.11175" lon="-1.9154166666666668">
        <ele>611.6</ele>
        <time>2018-09-29T07:36:34Z</time>
      </trkpt>
      <trkpt lat="43.111815" lon="-1.915355">
        <ele>612.1</ele>
        <time>2018-09-29T07:36:40Z</time>
      </trkpt>
      <trkpt lat="43.11185" lon="-1.9153033333333334">
        <ele>612.3</ele>
        <time>2018-09-29T07:36:47Z</time>
      </trkpt>
      <trkpt lat="43.11186" lon="-1.9153">
        <ele>612.6</ele>
        <time>2018-09-29T07:36:54Z</time>
      </trkpt>
      <trkpt lat="43.111905" lon="-1.9152116666666665">
        <ele>613.1</ele>
        <time>2018-09-29T07:37:00Z</time>
      </trkpt>
      <trkpt lat="43.111955" lon="-1.9151183333333335">
        <ele>613.7</ele>
        <time>2018-09-29T07:37:07Z</time>
      </trkpt>
      <trkpt lat="43.11201166666667" lon="-1.91505">
        <ele>614.1</ele>
        <time>2018-09-29T07:37:13Z</time>
      </trkpt>
      <trkpt lat="43.11204" lon="-1.9150200000000002">
        <ele>614.6</ele>
        <time>2018-09-29T07:37:20Z</time>
      </trkpt>
      <trkpt lat="43.11208" lon="-1.9150016666666667">
        <ele>614.8</ele>
        <time>2018-09-29T07:37:27Z</time>
      </trkpt>
      <trkpt lat="43.112125" lon="-1.9149333333333334">
        <ele>615.2</ele>
        <time>2018-09-29T07:37:34Z</time>
      </trkpt>
      <trkpt lat="43.112156666666664" lon="-1.91487">
        <ele>615.5</ele>
        <time>2018-09-29T07:37:41Z</time>
      </trkpt>
      <trkpt lat="43.112186666666666" lon="-1.9148316666666667">
        <ele>615.8</ele>
        <time>2018-09-29T07:37:48Z</time>
      </trkpt>
      <trkpt lat="43.112235" lon="-1.9147483333333333">
        <ele>616.0</ele>
        <time>2018-09-29T07:37:54Z</time>
      </trkpt>
      <trkpt lat="43.11226166666667" lon="-1.914685">
        <ele>616.3</ele>
        <time>2018-09-29T07:38:01Z</time>
      </trkpt>
      <trkpt lat="43.112265" lon="-1.914555">
        <ele>616.5</ele>
        <time>2018-09-29T07:38:06Z</time>
      </trkpt>
      <trkpt lat="43.11226" lon="-1.9144450000000002">
        <ele>616.7</ele>
        <time>2018-09-29T07:38:09Z</time>
      </trkpt>
      <trkpt lat="43.112295" lon="-1.914345">
        <ele>617.0</ele>
        <time>2018-09-29T07:38:13Z</time>
      </trkpt>
      <trkpt lat="43.112335" lon="-1.9142616666666665">
        <ele>617.4</ele>
        <time>2018-09-29T07:38:18Z</time>
      </trkpt>
      <trkpt lat="43.112405" lon="-1.9141933333333334">
        <ele>617.8</ele>
        <time>2018-09-29T07:38:22Z</time>
      </trkpt>
      <trkpt lat="43.11247" lon="-1.9141116666666667">
        <ele>618.3</ele>
        <time>2018-09-29T07:38:29Z</time>
      </trkpt>
      <trkpt lat="43.112535" lon="-1.91406">
        <ele>618.8</ele>
        <time>2018-09-29T07:38:35Z</time>
      </trkpt>
      <trkpt lat="43.112585" lon="-1.9139816666666667">
        <ele>619.3</ele>
        <time>2018-09-29T07:38:41Z</time>
      </trkpt>
      <trkpt lat="43.112645" lon="-1.9139316666666666">
        <ele>619.9</ele>
        <time>2018-09-29T07:38:48Z</time>
      </trkpt>
      <trkpt lat="43.11271" lon="-1.9138616666666666">
        <ele>620.4</ele>
        <time>2018-09-29T07:38:54Z</time>
      </trkpt>
      <trkpt lat="43.11277" lon="-1.91379">
        <ele>620.7</ele>
        <time>2018-09-29T07:38:57Z</time>
      </trkpt>
      <trkpt lat="43.112845" lon="-1.9136950000000001">
        <ele>621.1</ele>
        <time>2018-09-29T07:39:01Z</time>
      </trkpt>
      <trkpt lat="43.112905" lon="-1.9136183333333334">
        <ele>621.4</ele>
        <time>2018-09-29T07:39:04Z</time>
      </trkpt>
      <trkpt lat="43.11296" lon="-1.91355">
        <ele>621.9</ele>
        <time>2018-09-29T07:39:08Z</time>
      </trkpt>
      <trkpt lat="43.11304" lon="-1.9134883333333335">
        <ele>622.3</ele>
        <time>2018-09-29T07:39:12Z</time>
      </trkpt>
      <trkpt lat="43.11311666666667" lon="-1.913435">
        <ele>622.6</ele>
        <time>2018-09-29T07:39:15Z</time>
      </trkpt>
      <trkpt lat="43.113186666666664" lon="-1.913385">
        <ele>622.9</ele>
        <time>2018-09-29T07:39:18Z</time>
      </trkpt>
      <trkpt lat="43.113256666666665" lon="-1.9133233333333333">
        <ele>623.2</ele>
        <time>2018-09-29T07:39:21Z</time>
      </trkpt>
      <trkpt lat="43.11334" lon="-1.91326">
        <ele>623.6</ele>
        <time>2018-09-29T07:39:24Z</time>
      </trkpt>
      <trkpt lat="43.113415" lon="-1.91316">
        <ele>623.9</ele>
        <time>2018-09-29T07:39:27Z</time>
      </trkpt>
      <trkpt lat="43.11347" lon="-1.913065">
        <ele>625.0</ele>
        <time>2018-09-29T07:39:29Z</time>
      </trkpt>
      <trkpt lat="43.11351666666667" lon="-1.91297">
        <ele>625.2</ele>
        <time>2018-09-29T07:39:31Z</time>
      </trkpt>
      <trkpt lat="43.11355666666667" lon="-1.9128616666666667">
        <ele>626.0</ele>
        <time>2018-09-29T07:39:33Z</time>
      </trkpt>
      <trkpt lat="43.113615" lon="-1.91276">
        <ele>626.2</ele>
        <time>2018-09-29T07:39:35Z</time>
      </trkpt>
      <trkpt lat="43.113655" lon="-1.912665">
        <ele>626.9</ele>
        <time>2018-09-29T07:39:37Z</time>
      </trkpt>
      <trkpt lat="43.11369" lon="-1.912565">
        <ele>627.5</ele>
        <time>2018-09-29T07:39:39Z</time>
      </trkpt>
      <trkpt lat="43.113715" lon="-1.91245">
        <ele>627.6</ele>
        <time>2018-09-29T07:39:41Z</time>
      </trkpt>
      <trkpt lat="43.11371166666667" lon="-1.912345">
        <ele>627.6</ele>
        <time>2018-09-29T07:39:43Z</time>
      </trkpt>
      <trkpt lat="43.11372" lon="-1.9122416666666666">
        <ele>627.7</ele>
        <time>2018-09-29T07:39:45Z</time>
      </trkpt>
      <trkpt lat="43.113735" lon="-1.9121383333333333">
        <ele>627.8</ele>
        <time>2018-09-29T07:39:47Z</time>
      </trkpt>
      <trkpt lat="43.113778333333336" lon="-1.9120566666666665">
        <ele>627.9</ele>
        <time>2018-09-29T07:39:49Z</time>
      </trkpt>
      <trkpt lat="43.113815" lon="-1.91196">
        <ele>627.9</ele>
        <time>2018-09-29T07:39:51Z</time>
      </trkpt>
      <trkpt lat="43.113845" lon="-1.9118300000000001">
        <ele>628.0</ele>
        <time>2018-09-29T07:39:54Z</time>
      </trkpt>
      <trkpt lat="43.113885" lon="-1.9117016666666666">
        <ele>628.2</ele>
        <time>2018-09-29T07:39:57Z</time>
      </trkpt>
      <trkpt lat="43.11389666666667" lon="-1.911565">
        <ele>628.3</ele>
        <time>2018-09-29T07:40:00Z</time>
      </trkpt>
      <trkpt lat="43.113905" lon="-1.9114383333333334">
        <ele>628.4</ele>
        <time>2018-09-29T07:40:02Z</time>
      </trkpt>
      <trkpt lat="43.1139" lon="-1.9112966666666666">
        <ele>628.5</ele>
        <time>2018-09-29T07:40:05Z</time>
      </trkpt>
      <trkpt lat="43.113905" lon="-1.9111516666666666">
        <ele>628.7</ele>
        <time>2018-09-29T07:40:08Z</time>
      </trkpt>
      <trkpt lat="43.11391" lon="-1.911035">
        <ele>628.8</ele>
        <time>2018-09-29T07:40:10Z</time>
      </trkpt>
      <trkpt lat="43.11391" lon="-1.9109250000000002">
        <ele>628.9</ele>
        <time>2018-09-29T07:40:12Z</time>
      </trkpt>
      <trkpt lat="43.113915" lon="-1.9108116666666666">
        <ele>629.0</ele>
        <time>2018-09-29T07:40:14Z</time>
      </trkpt>
      <trkpt lat="43.113931666666666" lon="-1.9107083333333335">
        <ele>629.1</ele>
        <time>2018-09-29T07:40:16Z</time>
      </trkpt>
      <trkpt lat="43.11396666666667" lon="-1.91059">
        <ele>629.6</ele>
        <time>2018-09-29T07:40:18Z</time>
      </trkpt>
      <trkpt lat="43.11399" lon="-1.9104516666666667">
        <ele>629.7</ele>
        <time>2018-09-29T07:40:20Z</time>
      </trkpt>
      <trkpt lat="43.11401166666667" lon="-1.9103483333333333">
        <ele>629.8</ele>
        <time>2018-09-29T07:40:22Z</time>
      </trkpt>
      <trkpt lat="43.11405" lon="-1.9102583333333332">
        <ele>629.9</ele>
        <time>2018-09-29T07:40:24Z</time>
      </trkpt>
      <trkpt lat="43.114095" lon="-1.910145">
        <ele>630.2</ele>
        <time>2018-09-29T07:40:28Z</time>
      </trkpt>
      <trkpt lat="43.114081666666664" lon="-1.9099966666666668">
        <ele>630.4</ele>
        <time>2018-09-29T07:40:31Z</time>
      </trkpt>
      <trkpt lat="43.114085" lon="-1.9098866666666667">
        <ele>630.5</ele>
        <time>2018-09-29T07:40:33Z</time>
      </trkpt>
      <trkpt lat="43.114065" lon="-1.90977">
        <ele>630.7</ele>
        <time>2018-09-29T07:40:36Z</time>
      </trkpt>
      <trkpt lat="43.11403" lon="-1.90967">
        <ele>630.8</ele>
        <time>2018-09-29T07:40:38Z</time>
      </trkpt>
      <trkpt lat="43.113995" lon="-1.90958">
        <ele>630.9</ele>
        <time>2018-09-29T07:40:40Z</time>
      </trkpt>
      <trkpt lat="43.113965" lon="-1.9094583333333333">
        <ele>631.0</ele>
        <time>2018-09-29T07:40:43Z</time>
      </trkpt>
      <trkpt lat="43.113945" lon="-1.9093583333333335">
        <ele>631.1</ele>
        <time>2018-09-29T07:40:45Z</time>
      </trkpt>
      <trkpt lat="43.113933333333335" lon="-1.909235">
        <ele>631.2</ele>
        <time>2018-09-29T07:40:47Z</time>
      </trkpt>
      <trkpt lat="43.11393666666667" lon="-1.9091333333333333">
        <ele>631.3</ele>
        <time>2018-09-29T07:40:49Z</time>
      </trkpt>
      <trkpt lat="43.113955" lon="-1.908995">
        <ele>631.4</ele>
        <time>2018-09-29T07:40:51Z</time>
      </trkpt>
      <trkpt lat="43.113975" lon="-1.908875">
        <ele>631.5</ele>
        <time>2018-09-29T07:40:53Z</time>
      </trkpt>
      <trkpt lat="43.113995" lon="-1.9087749999999999">
        <ele>631.6</ele>
        <time>2018-09-29T07:40:55Z</time>
      </trkpt>
      <trkpt lat="43.11401" lon="-1.9086566666666667">
        <ele>631.9</ele>
        <time>2018-09-29T07:40:58Z</time>
      </trkpt>
      <trkpt lat="43.114025" lon="-1.908535">
        <ele>632.1</ele>
        <time>2018-09-29T07:41:01Z</time>
      </trkpt>
      <trkpt lat="43.11405" lon="-1.9083866666666667">
        <ele>632.3</ele>
        <time>2018-09-29T07:41:04Z</time>
      </trkpt>
      <trkpt lat="43.114095" lon="-1.9082816666666667">
        <ele>632.4</ele>
        <time>2018-09-29T07:41:06Z</time>
      </trkpt>
      <trkpt lat="43.114135" lon="-1.9081700000000001">
        <ele>632.6</ele>
        <time>2018-09-29T07:41:08Z</time>
      </trkpt>
      <trkpt lat="43.11418" lon="-1.908085">
        <ele>632.7</ele>
        <time>2018-09-29T07:41:10Z</time>
      </trkpt>
      <trkpt lat="43.114243333333334" lon="-1.90801">
        <ele>632.9</ele>
        <time>2018-09-29T07:41:12Z</time>
      </trkpt>
      <trkpt lat="43.1143" lon="-1.907945">
        <ele>633.0</ele>
        <time>2018-09-29T07:41:14Z</time>
      </trkpt>
      <trkpt lat="43.11437" lon="-1.90789">
        <ele>633.2</ele>
        <time>2018-09-29T07:41:16Z</time>
      </trkpt>
      <trkpt lat="43.114425" lon="-1.907775">
        <ele>633.4</ele>
        <time>2018-09-29T07:41:18Z</time>
      </trkpt>
      <trkpt lat="43.114398333333334" lon="-1.9076616666666666">
        <ele>633.6</ele>
        <time>2018-09-29T07:41:20Z</time>
      </trkpt>
      <trkpt lat="43.114355" lon="-1.907555">
        <ele>633.9</ele>
        <time>2018-09-29T07:41:23Z</time>
      </trkpt>
      <trkpt lat="43.114306666666664" lon="-1.90747">
        <ele>634.8</ele>
        <time>2018-09-29T07:41:25Z</time>
      </trkpt>
      <trkpt lat="43.11426" lon="-1.9073716666666667">
        <ele>635.5</ele>
        <time>2018-09-29T07:41:27Z</time>
      </trkpt>
      <trkpt lat="43.114175" lon="-1.90728">
        <ele>636.4</ele>
        <time>2018-09-29T07:41:29Z</time>
      </trkpt>
      <trkpt lat="43.11411" lon="-1.9071799999999999">
        <ele>636.7</ele>
        <time>2018-09-29T07:41:31Z</time>
      </trkpt>
      <trkpt lat="43.114045" lon="-1.907075">
        <ele>637.2</ele>
        <time>2018-09-29T07:41:33Z</time>
      </trkpt>
      <trkpt lat="43.11398" lon="-1.9069850000000002">
        <ele>637.4</ele>
        <time>2018-09-29T07:41:35Z</time>
      </trkpt>
      <trkpt lat="43.113905" lon="-1.906885">
        <ele>637.6</ele>
        <time>2018-09-29T07:41:37Z</time>
      </trkpt>
      <trkpt lat="43.113825" lon="-1.9068100000000001">
        <ele>637.7</ele>
        <time>2018-09-29T07:41:39Z</time>
      </trkpt>
      <trkpt lat="43.11375" lon="-1.9067516666666666">
        <ele>637.7</ele>
        <time>2018-09-29T07:41:41Z</time>
      </trkpt>
      <trkpt lat="43.11367" lon="-1.9066833333333335">
        <ele>637.7</ele>
        <time>2018-09-29T07:41:45Z</time>
      </trkpt>
      <trkpt lat="43.11361" lon="-1.9066100000000001">
        <ele>637.8</ele>
        <time>2018-09-29T07:41:47Z</time>
      </trkpt>
      <trkpt lat="43.113595" lon="-1.9065116666666668">
        <ele>637.8</ele>
        <time>2018-09-29T07:41:49Z</time>
      </trkpt>
      <trkpt lat="43.11358" lon="-1.9063949999999998">
        <ele>637.8</ele>
        <time>2018-09-29T07:41:51Z</time>
      </trkpt>
      <trkpt lat="43.113565" lon="-1.90627">
        <ele>637.8</ele>
        <time>2018-09-29T07:41:54Z</time>
      </trkpt>
      <trkpt lat="43.113575" lon="-1.9061433333333333">
        <ele>637.8</ele>
        <time>2018-09-29T07:41:57Z</time>
      </trkpt>
      <trkpt lat="43.1136" lon="-1.906025">
        <ele>637.8</ele>
        <time>2018-09-29T07:42:00Z</time>
      </trkpt>
      <trkpt lat="43.11361" lon="-1.9058950000000001">
        <ele>637.9</ele>
        <time>2018-09-29T07:42:02Z</time>
      </trkpt>
      <trkpt lat="43.11362" lon="-1.9057716666666666">
        <ele>638.0</ele>
        <time>2018-09-29T07:42:05Z</time>
      </trkpt>
      <trkpt lat="43.113616666666665" lon="-1.9056433333333334">
        <ele>638.1</ele>
        <time>2018-09-29T07:42:09Z</time>
      </trkpt>
      <trkpt lat="43.11361" lon="-1.9055300000000002">
        <ele>638.2</ele>
        <time>2018-09-29T07:42:13Z</time>
      </trkpt>
      <trkpt lat="43.113638333333334" lon="-1.90544">
        <ele>638.3</ele>
        <time>2018-09-29T07:42:17Z</time>
      </trkpt>
      <trkpt lat="43.113706666666666" lon="-1.9053849999999999">
        <ele>638.5</ele>
        <time>2018-09-29T07:42:21Z</time>
      </trkpt>
      <trkpt lat="43.113715" lon="-1.9052850000000001">
        <ele>638.7</ele>
        <time>2018-09-29T07:42:25Z</time>
      </trkpt>
      <trkpt lat="43.113745" lon="-1.9051733333333334">
        <ele>639.0</ele>
        <time>2018-09-29T07:42:30Z</time>
      </trkpt>
      <trkpt lat="43.113755" lon="-1.9050616666666667">
        <ele>639.3</ele>
        <time>2018-09-29T07:42:35Z</time>
      </trkpt>
      <trkpt lat="43.11376166666667" lon="-1.90496">
        <ele>639.5</ele>
        <time>2018-09-29T07:42:38Z</time>
      </trkpt>
      <trkpt lat="43.113795" lon="-1.904865">
        <ele>639.7</ele>
        <time>2018-09-29T07:42:41Z</time>
      </trkpt>
      <trkpt lat="43.11383" lon="-1.9047749999999999">
        <ele>640.0</ele>
        <time>2018-09-29T07:42:45Z</time>
      </trkpt>
      <trkpt lat="43.11387" lon="-1.90469">
        <ele>640.5</ele>
        <time>2018-09-29T07:42:51Z</time>
      </trkpt>
      <trkpt lat="43.113895" lon="-1.904585">
        <ele>640.9</ele>
        <time>2018-09-29T07:42:56Z</time>
      </trkpt>
      <trkpt lat="43.11392" lon="-1.90449">
        <ele>641.3</ele>
        <time>2018-09-29T07:43:00Z</time>
      </trkpt>
      <trkpt lat="43.113955" lon="-1.9044">
        <ele>641.8</ele>
        <time>2018-09-29T07:43:05Z</time>
      </trkpt>
      <trkpt lat="43.113985" lon="-1.9043100000000002">
        <ele>642.5</ele>
        <time>2018-09-29T07:43:11Z</time>
      </trkpt>
      <trkpt lat="43.113985" lon="-1.9042516666666667">
        <ele>643.1</ele>
        <time>2018-09-29T07:43:18Z</time>
      </trkpt>
      <trkpt lat="43.113995" lon="-1.904185">
        <ele>643.9</ele>
        <time>2018-09-29T07:43:25Z</time>
      </trkpt>
      <trkpt lat="43.11398" lon="-1.9040683333333335">
        <ele>644.3</ele>
        <time>2018-09-29T07:43:29Z</time>
      </trkpt>
      <trkpt lat="43.113971666666664" lon="-1.90397">
        <ele>644.8</ele>
        <time>2018-09-29T07:43:34Z</time>
      </trkpt>
      <trkpt lat="43.11397" lon="-1.903855">
        <ele>645.3</ele>
        <time>2018-09-29T07:43:39Z</time>
      </trkpt>
      <trkpt lat="43.113945" lon="-1.903735">
        <ele>645.9</ele>
        <time>2018-09-29T07:43:45Z</time>
      </trkpt>
      <trkpt lat="43.11394" lon="-1.9036316666666666">
        <ele>646.2</ele>
        <time>2018-09-29T07:43:48Z</time>
      </trkpt>
      <trkpt lat="43.11394" lon="-1.9035316666666666">
        <ele>646.5</ele>
        <time>2018-09-29T07:43:51Z</time>
      </trkpt>
      <trkpt lat="43.113925" lon="-1.9034300000000002">
        <ele>646.8</ele>
        <time>2018-09-29T07:43:55Z</time>
      </trkpt>
      <trkpt lat="43.113925" lon="-1.903315">
        <ele>647.2</ele>
        <time>2018-09-29T07:43:59Z</time>
      </trkpt>
      <trkpt lat="43.113931666666666" lon="-1.903205">
        <ele>647.4</ele>
        <time>2018-09-29T07:44:01Z</time>
      </trkpt>
      <trkpt lat="43.11396666666667" lon="-1.9030816666666666">
        <ele>647.7</ele>
        <time>2018-09-29T07:44:04Z</time>
      </trkpt>
      <trkpt lat="43.113976666666666" lon="-1.90298">
        <ele>648.1</ele>
        <time>2018-09-29T07:44:07Z</time>
      </trkpt>
      <trkpt lat="43.113996666666665" lon="-1.90286">
        <ele>648.5</ele>
        <time>2018-09-29T07:44:10Z</time>
      </trkpt>
      <trkpt lat="43.114035" lon="-1.902765">
        <ele>649.1</ele>
        <time>2018-09-29T07:44:14Z</time>
      </trkpt>
      <trkpt lat="43.11408333333333" lon="-1.9026483333333335">
        <ele>649.6</ele>
        <time>2018-09-29T07:44:18Z</time>
      </trkpt>
      <trkpt lat="43.11416166666667" lon="-1.90258">
        <ele>650.3</ele>
        <time>2018-09-29T07:44:23Z</time>
      </trkpt>
      <trkpt lat="43.11421" lon="-1.90249">
        <ele>650.9</ele>
        <time>2018-09-29T07:44:27Z</time>
      </trkpt>
      <trkpt lat="43.114255" lon="-1.902385">
        <ele>651.6</ele>
        <time>2018-09-29T07:44:31Z</time>
      </trkpt>
      <trkpt lat="43.114275" lon="-1.9022766666666668">
        <ele>652.5</ele>
        <time>2018-09-29T07:44:36Z</time>
      </trkpt>
      <trkpt lat="43.114265" lon="-1.90216">
        <ele>653.6</ele>
        <time>2018-09-29T07:44:42Z</time>
      </trkpt>
      <trkpt lat="43.114205" lon="-1.902065">
        <ele>654.4</ele>
        <time>2018-09-29T07:44:46Z</time>
      </trkpt>
      <trkpt lat="43.114175" lon="-1.9019483333333334">
        <ele>654.9</ele>
        <time>2018-09-29T07:44:49Z</time>
      </trkpt>
      <trkpt lat="43.114155" lon="-1.9018466666666667">
        <ele>655.5</ele>
        <time>2018-09-29T07:44:52Z</time>
      </trkpt>
      <trkpt lat="43.114185" lon="-1.9017483333333334">
        <ele>656.2</ele>
        <time>2018-09-29T07:44:56Z</time>
      </trkpt>
      <trkpt lat="43.114215" lon="-1.9016483333333334">
        <ele>656.9</ele>
        <time>2018-09-29T07:45:00Z</time>
      </trkpt>
      <trkpt lat="43.114225" lon="-1.90153">
        <ele>657.5</ele>
        <time>2018-09-29T07:45:04Z</time>
      </trkpt>
      <trkpt lat="43.114225" lon="-1.90143">
        <ele>658.1</ele>
        <time>2018-09-29T07:45:08Z</time>
      </trkpt>
      <trkpt lat="43.11423666666666" lon="-1.9013200000000001">
        <ele>658.9</ele>
        <time>2018-09-29T07:45:14Z</time>
      </trkpt>
      <trkpt lat="43.114243333333334" lon="-1.901215">
        <ele>659.6</ele>
        <time>2018-09-29T07:45:19Z</time>
      </trkpt>
      <trkpt lat="43.114265" lon="-1.9011049999999998">
        <ele>660.4</ele>
        <time>2018-09-29T07:45:25Z</time>
      </trkpt>
      <trkpt lat="43.11428" lon="-1.901005">
        <ele>661.1</ele>
        <time>2018-09-29T07:45:30Z</time>
      </trkpt>
      <trkpt lat="43.114285" lon="-1.900895">
        <ele>661.6</ele>
        <time>2018-09-29T07:45:33Z</time>
      </trkpt>
      <trkpt lat="43.11429" lon="-1.90078">
        <ele>662.4</ele>
        <time>2018-09-29T07:45:39Z</time>
      </trkpt>
      <trkpt lat="43.114306666666664" lon="-1.9006783333333335">
        <ele>662.9</ele>
        <time>2018-09-29T07:45:42Z</time>
      </trkpt>
      <trkpt lat="43.1143" lon="-1.900565">
        <ele>663.9</ele>
        <time>2018-09-29T07:45:48Z</time>
      </trkpt>
      <trkpt lat="43.114295" lon="-1.900455">
        <ele>664.7</ele>
        <time>2018-09-29T07:45:53Z</time>
      </trkpt>
      <trkpt lat="43.114305" lon="-1.900345">
        <ele>665.6</ele>
        <time>2018-09-29T07:45:59Z</time>
      </trkpt>
      <trkpt lat="43.11432" lon="-1.9002266666666667">
        <ele>666.7</ele>
        <time>2018-09-29T07:46:06Z</time>
      </trkpt>
      <trkpt lat="43.11432" lon="-1.9001166666666667">
        <ele>667.6</ele>
        <time>2018-09-29T07:46:12Z</time>
      </trkpt>
      <trkpt lat="43.114335" lon="-1.90001">
        <ele>668.5</ele>
        <time>2018-09-29T07:46:18Z</time>
      </trkpt>
      <trkpt lat="43.11436" lon="-1.899915">
        <ele>669.3</ele>
        <time>2018-09-29T07:46:24Z</time>
      </trkpt>
      <trkpt lat="43.114375" lon="-1.899795">
        <ele>670.0</ele>
        <time>2018-09-29T07:46:29Z</time>
      </trkpt>
      <trkpt lat="43.114396666666664" lon="-1.8996833333333334">
        <ele>671.1</ele>
        <time>2018-09-29T07:46:35Z</time>
      </trkpt>
      <trkpt lat="43.114435" lon="-1.8995816666666667">
        <ele>672.1</ele>
        <time>2018-09-29T07:46:41Z</time>
      </trkpt>
      <trkpt lat="43.114461666666664" lon="-1.8994849999999999">
        <ele>672.9</ele>
        <time>2018-09-29T07:46:46Z</time>
      </trkpt>
      <trkpt lat="43.11448333333333" lon="-1.89937">
        <ele>673.9</ele>
        <time>2018-09-29T07:46:52Z</time>
      </trkpt>
      <trkpt lat="43.114495" lon="-1.89927">
        <ele>674.9</ele>
        <time>2018-09-29T07:46:58Z</time>
      </trkpt>
      <trkpt lat="43.11452" lon="-1.899175">
        <ele>675.6</ele>
        <time>2018-09-29T07:47:02Z</time>
      </trkpt>
      <trkpt lat="43.11456" lon="-1.8990733333333334">
        <ele>676.3</ele>
        <time>2018-09-29T07:47:06Z</time>
      </trkpt>
      <trkpt lat="43.114575" lon="-1.8989716666666667">
        <ele>677.0</ele>
        <time>2018-09-29T07:47:10Z</time>
      </trkpt>
      <trkpt lat="43.11459166666667" lon="-1.8988616666666667">
        <ele>678.5</ele>
        <time>2018-09-29T07:47:17Z</time>
      </trkpt>
      <trkpt lat="43.114641666666664" lon="-1.89877">
        <ele>679.9</ele>
        <time>2018-09-29T07:47:24Z</time>
      </trkpt>
      <trkpt lat="43.114665" lon="-1.89866">
        <ele>680.4</ele>
        <time>2018-09-29T07:47:27Z</time>
      </trkpt>
      <trkpt lat="43.114691666666666" lon="-1.898565">
        <ele>681.2</ele>
        <time>2018-09-29T07:47:31Z</time>
      </trkpt>
      <trkpt lat="43.11474" lon="-1.898485">
        <ele>682.1</ele>
        <time>2018-09-29T07:47:36Z</time>
      </trkpt>
      <trkpt lat="43.114778333333334" lon="-1.89839">
        <ele>683.0</ele>
        <time>2018-09-29T07:47:41Z</time>
      </trkpt>
      <trkpt lat="43.11482" lon="-1.8982866666666667">
        <ele>683.9</ele>
        <time>2018-09-29T07:47:46Z</time>
      </trkpt>
      <trkpt lat="43.114866666666664" lon="-1.898185">
        <ele>684.4</ele>
        <time>2018-09-29T07:47:49Z</time>
      </trkpt>
      <trkpt lat="43.114916666666666" lon="-1.898115">
        <ele>684.8</ele>
        <time>2018-09-29T07:47:52Z</time>
      </trkpt>
      <trkpt lat="43.11498" lon="-1.8980166666666667">
        <ele>685.4</ele>
        <time>2018-09-29T07:47:56Z</time>
      </trkpt>
      <trkpt lat="43.115035" lon="-1.897935">
        <ele>686.0</ele>
        <time>2018-09-29T07:48:00Z</time>
      </trkpt>
      <trkpt lat="43.115085" lon="-1.8978549999999998">
        <ele>686.6</ele>
        <time>2018-09-29T07:48:04Z</time>
      </trkpt>
      <trkpt lat="43.115136666666665" lon="-1.89776">
        <ele>687.2</ele>
        <time>2018-09-29T07:48:09Z</time>
      </trkpt>
      <trkpt lat="43.115206666666666" lon="-1.89769">
        <ele>687.6</ele>
        <time>2018-09-29T07:48:12Z</time>
      </trkpt>
      <trkpt lat="43.11526666666666" lon="-1.897605">
        <ele>688.1</ele>
        <time>2018-09-29T07:48:16Z</time>
      </trkpt>
      <trkpt lat="43.115325" lon="-1.8975283333333333">
        <ele>688.5</ele>
        <time>2018-09-29T07:48:19Z</time>
      </trkpt>
      <trkpt lat="43.115375" lon="-1.8974600000000001">
        <ele>688.9</ele>
        <time>2018-09-29T07:48:23Z</time>
      </trkpt>
      <trkpt lat="43.115435" lon="-1.8973566666666666">
        <ele>689.4</ele>
        <time>2018-09-29T07:48:27Z</time>
      </trkpt>
      <trkpt lat="43.115505" lon="-1.89727">
        <ele>689.7</ele>
        <time>2018-09-29T07:48:30Z</time>
      </trkpt>
      <trkpt lat="43.115555" lon="-1.8971833333333334">
        <ele>689.9</ele>
        <time>2018-09-29T07:48:32Z</time>
      </trkpt>
      <trkpt lat="43.1156" lon="-1.8970733333333332">
        <ele>690.1</ele>
        <time>2018-09-29T07:48:35Z</time>
      </trkpt>
      <trkpt lat="43.115645" lon="-1.896965">
        <ele>690.4</ele>
        <time>2018-09-29T07:48:38Z</time>
      </trkpt>
      <trkpt lat="43.115701666666666" lon="-1.896875">
        <ele>690.7</ele>
        <time>2018-09-29T07:48:41Z</time>
      </trkpt>
      <trkpt lat="43.115775" lon="-1.896785">
        <ele>691.0</ele>
        <time>2018-09-29T07:48:44Z</time>
      </trkpt>
      <trkpt lat="43.11582833333333" lon="-1.8967116666666666">
        <ele>691.1</ele>
        <time>2018-09-29T07:48:46Z</time>
      </trkpt>
      <trkpt lat="43.115901666666666" lon="-1.89661">
        <ele>691.4</ele>
        <time>2018-09-29T07:48:49Z</time>
      </trkpt>
      <trkpt lat="43.115955" lon="-1.8965266666666667">
        <ele>692.3</ele>
        <time>2018-09-29T07:48:51Z</time>
      </trkpt>
      <trkpt lat="43.11601" lon="-1.89643">
        <ele>693.6</ele>
        <time>2018-09-29T07:48:53Z</time>
      </trkpt>
      <trkpt lat="43.116056666666665" lon="-1.8963450000000002">
        <ele>693.7</ele>
        <time>2018-09-29T07:48:55Z</time>
      </trkpt>
      <trkpt lat="43.116105" lon="-1.896245">
        <ele>694.6</ele>
        <time>2018-09-29T07:48:57Z</time>
      </trkpt>
      <trkpt lat="43.116155" lon="-1.8961450000000002">
        <ele>695.1</ele>
        <time>2018-09-29T07:48:59Z</time>
      </trkpt>
      <trkpt lat="43.116191666666666" lon="-1.896035">
        <ele>695.6</ele>
        <time>2018-09-29T07:49:01Z</time>
      </trkpt>
      <trkpt lat="43.116245" lon="-1.895925">
        <ele>695.9</ele>
        <time>2018-09-29T07:49:03Z</time>
      </trkpt>
      <trkpt lat="43.116225" lon="-1.895785">
        <ele>696.0</ele>
        <time>2018-09-29T07:49:06Z</time>
      </trkpt>
      <trkpt lat="43.116213333333334" lon="-1.89568">
        <ele>696.1</ele>
        <time>2018-09-29T07:49:09Z</time>
      </trkpt>
      <trkpt lat="43.1162" lon="-1.89557">
        <ele>696.3</ele>
        <time>2018-09-29T07:49:13Z</time>
      </trkpt>
      <trkpt lat="43.11618" lon="-1.8954483333333334">
        <ele>696.6</ele>
        <time>2018-09-29T07:49:17Z</time>
      </trkpt>
      <trkpt lat="43.116165" lon="-1.89532">
        <ele>696.8</ele>
        <time>2018-09-29T07:49:20Z</time>
      </trkpt>
      <trkpt lat="43.116146666666666" lon="-1.8952200000000001">
        <ele>697.0</ele>
        <time>2018-09-29T07:49:23Z</time>
      </trkpt>
      <trkpt lat="43.11612" lon="-1.8950983333333333">
        <ele>697.4</ele>
        <time>2018-09-29T07:49:27Z</time>
      </trkpt>
      <trkpt lat="43.116075" lon="-1.8950033333333334">
        <ele>697.7</ele>
        <time>2018-09-29T07:49:31Z</time>
      </trkpt>
      <trkpt lat="43.116025" lon="-1.8949099999999999">
        <ele>698.3</ele>
        <time>2018-09-29T07:49:37Z</time>
      </trkpt>
      <trkpt lat="43.115975" lon="-1.8948266666666667">
        <ele>698.9</ele>
        <time>2018-09-29T07:49:43Z</time>
      </trkpt>
      <trkpt lat="43.115945" lon="-1.89473">
        <ele>699.6</ele>
        <time>2018-09-29T07:49:49Z</time>
      </trkpt>
      <trkpt lat="43.11593" lon="-1.894635">
        <ele>700.1</ele>
        <time>2018-09-29T07:49:53Z</time>
      </trkpt>
      <trkpt lat="43.115895" lon="-1.894545">
        <ele>700.7</ele>
        <time>2018-09-29T07:49:58Z</time>
      </trkpt>
      <trkpt lat="43.115845" lon="-1.89445">
        <ele>701.1</ele>
        <time>2018-09-29T07:50:01Z</time>
      </trkpt>
      <trkpt lat="43.115815" lon="-1.89435">
        <ele>701.6</ele>
        <time>2018-09-29T07:50:05Z</time>
      </trkpt>
      <trkpt lat="43.11577" lon="-1.894265">
        <ele>702.1</ele>
        <time>2018-09-29T07:50:09Z</time>
      </trkpt>
      <trkpt lat="43.11574" lon="-1.89417">
        <ele>702.8</ele>
        <time>2018-09-29T07:50:14Z</time>
      </trkpt>
      <trkpt lat="43.11572" lon="-1.8940649999999999">
        <ele>703.5</ele>
        <time>2018-09-29T07:50:19Z</time>
      </trkpt>
      <trkpt lat="43.11569166666666" lon="-1.893975">
        <ele>704.1</ele>
        <time>2018-09-29T07:50:23Z</time>
      </trkpt>
      <trkpt lat="43.115655" lon="-1.8938666666666666">
        <ele>704.7</ele>
        <time>2018-09-29T07:50:27Z</time>
      </trkpt>
      <trkpt lat="43.115625" lon="-1.893775">
        <ele>705.3</ele>
        <time>2018-09-29T07:50:31Z</time>
      </trkpt>
      <trkpt lat="43.11560166666667" lon="-1.8936716666666666">
        <ele>706.2</ele>
        <time>2018-09-29T07:50:36Z</time>
      </trkpt>
      <trkpt lat="43.11556" lon="-1.8935916666666666">
        <ele>707.0</ele>
        <time>2018-09-29T07:50:41Z</time>
      </trkpt>
      <trkpt lat="43.115521666666666" lon="-1.893525">
        <ele>708.1</ele>
        <time>2018-09-29T07:50:48Z</time>
      </trkpt>
      <trkpt lat="43.11546" lon="-1.8934433333333334">
        <ele>709.1</ele>
        <time>2018-09-29T07:50:54Z</time>
      </trkpt>
      <trkpt lat="43.11542" lon="-1.893345">
        <ele>709.8</ele>
        <time>2018-09-29T07:50:59Z</time>
      </trkpt>
      <trkpt lat="43.115355" lon="-1.893275">
        <ele>710.5</ele>
        <time>2018-09-29T07:51:03Z</time>
      </trkpt>
      <trkpt lat="43.115296666666666" lon="-1.893185">
        <ele>711.1</ele>
        <time>2018-09-29T07:51:07Z</time>
      </trkpt>
      <trkpt lat="43.11525" lon="-1.893105">
        <ele>711.8</ele>
        <time>2018-09-29T07:51:11Z</time>
      </trkpt>
      <trkpt lat="43.1152" lon="-1.89302">
        <ele>712.6</ele>
        <time>2018-09-29T07:51:16Z</time>
      </trkpt>
      <trkpt lat="43.11517" lon="-1.892915">
        <ele>713.5</ele>
        <time>2018-09-29T07:51:22Z</time>
      </trkpt>
      <trkpt lat="43.115155" lon="-1.8927816666666666">
        <ele>714.1</ele>
        <time>2018-09-29T07:51:26Z</time>
      </trkpt>
      <trkpt lat="43.11515" lon="-1.892675">
        <ele>714.6</ele>
        <time>2018-09-29T07:51:29Z</time>
      </trkpt>
      <trkpt lat="43.115175" lon="-1.89254">
        <ele>716.2</ele>
        <time>2018-09-29T07:51:31Z</time>
      </trkpt>
      <trkpt lat="43.11519" lon="-1.8924050000000001">
        <ele>718.6</ele>
        <time>2018-09-29T07:51:33Z</time>
      </trkpt>
      <trkpt lat="43.115215" lon="-1.892275">
        <ele>720.6</ele>
        <time>2018-09-29T07:51:35Z</time>
      </trkpt>
      <trkpt lat="43.11521" lon="-1.8921433333333333">
        <ele>721.5</ele>
        <time>2018-09-29T07:51:37Z</time>
      </trkpt>
      <trkpt lat="43.115205" lon="-1.89202">
        <ele>721.6</ele>
        <time>2018-09-29T07:51:39Z</time>
      </trkpt>
      <trkpt lat="43.11517" lon="-1.89191">
        <ele>722.5</ele>
        <time>2018-09-29T07:51:41Z</time>
      </trkpt>
      <trkpt lat="43.11512" lon="-1.8918133333333333">
        <ele>723.3</ele>
        <time>2018-09-29T07:51:43Z</time>
      </trkpt>
      <trkpt lat="43.11506166666667" lon="-1.8916966666666668">
        <ele>723.5</ele>
        <time>2018-09-29T07:51:46Z</time>
      </trkpt>
      <trkpt lat="43.11503166666667" lon="-1.8915566666666668">
        <ele>723.7</ele>
        <time>2018-09-29T07:51:49Z</time>
      </trkpt>
      <trkpt lat="43.11501" lon="-1.891455">
        <ele>723.8</ele>
        <time>2018-09-29T07:51:51Z</time>
      </trkpt>
      <trkpt lat="43.11498" lon="-1.8913600000000002">
        <ele>724.1</ele>
        <time>2018-09-29T07:51:54Z</time>
      </trkpt>
      <trkpt lat="43.114918333333335" lon="-1.8912583333333333">
        <ele>724.5</ele>
        <time>2018-09-29T07:51:57Z</time>
      </trkpt>
      <trkpt lat="43.114855" lon="-1.8911799999999999">
        <ele>724.8</ele>
        <time>2018-09-29T07:52:00Z</time>
      </trkpt>
      <trkpt lat="43.114795" lon="-1.891105">
        <ele>725.2</ele>
        <time>2018-09-29T07:52:03Z</time>
      </trkpt>
      <trkpt lat="43.114725" lon="-1.89105">
        <ele>725.6</ele>
        <time>2018-09-29T07:52:06Z</time>
      </trkpt>
      <trkpt lat="43.11466" lon="-1.890965">
        <ele>726.0</ele>
        <time>2018-09-29T07:52:09Z</time>
      </trkpt>
      <trkpt lat="43.11459" lon="-1.8909">
        <ele>726.4</ele>
        <time>2018-09-29T07:52:12Z</time>
      </trkpt>
      <trkpt lat="43.11451" lon="-1.89082">
        <ele>726.9</ele>
        <time>2018-09-29T07:52:15Z</time>
      </trkpt>
      <trkpt lat="43.114435" lon="-1.8907216666666666">
        <ele>727.3</ele>
        <time>2018-09-29T07:52:18Z</time>
      </trkpt>
      <trkpt lat="43.11439166666667" lon="-1.8906216666666666">
        <ele>727.8</ele>
        <time>2018-09-29T07:52:21Z</time>
      </trkpt>
      <trkpt lat="43.11434" lon="-1.8905233333333333">
        <ele>728.2</ele>
        <time>2018-09-29T07:52:24Z</time>
      </trkpt>
      <trkpt lat="43.11429" lon="-1.8904483333333335">
        <ele>728.7</ele>
        <time>2018-09-29T07:52:27Z</time>
      </trkpt>
      <trkpt lat="43.11425" lon="-1.8903583333333334">
        <ele>729.2</ele>
        <time>2018-09-29T07:52:30Z</time>
      </trkpt>
      <trkpt lat="43.11419" lon="-1.8902800000000002">
        <ele>730.0</ele>
        <time>2018-09-29T07:52:34Z</time>
      </trkpt>
      <trkpt lat="43.11412166666667" lon="-1.89019">
        <ele>730.5</ele>
        <time>2018-09-29T07:52:37Z</time>
      </trkpt>
      <trkpt lat="43.11407" lon="-1.890115">
        <ele>731.1</ele>
        <time>2018-09-29T07:52:40Z</time>
      </trkpt>
      <trkpt lat="43.11400166666667" lon="-1.890035">
        <ele>731.8</ele>
        <time>2018-09-29T07:52:44Z</time>
      </trkpt>
      <trkpt lat="43.11394" lon="-1.889955">
        <ele>732.6</ele>
        <time>2018-09-29T07:52:48Z</time>
      </trkpt>
      <trkpt lat="43.113885" lon="-1.889865">
        <ele>733.6</ele>
        <time>2018-09-29T07:52:53Z</time>
      </trkpt>
      <trkpt lat="43.11382" lon="-1.8898">
        <ele>734.3</ele>
        <time>2018-09-29T07:52:57Z</time>
      </trkpt>
      <trkpt lat="43.113755" lon="-1.8897116666666667">
        <ele>735.3</ele>
        <time>2018-09-29T07:53:02Z</time>
      </trkpt>
      <trkpt lat="43.11369166666667" lon="-1.8896366666666666">
        <ele>736.1</ele>
        <time>2018-09-29T07:53:06Z</time>
      </trkpt>
      <trkpt lat="43.11363333333333" lon="-1.88957">
        <ele>736.8</ele>
        <time>2018-09-29T07:53:10Z</time>
      </trkpt>
      <trkpt lat="43.113565" lon="-1.8894950000000001">
        <ele>737.7</ele>
        <time>2018-09-29T07:53:14Z</time>
      </trkpt>
      <trkpt lat="43.11351" lon="-1.8894166666666667">
        <ele>738.7</ele>
        <time>2018-09-29T07:53:18Z</time>
      </trkpt>
      <trkpt lat="43.11344666666667" lon="-1.88934">
        <ele>739.7</ele>
        <time>2018-09-29T07:53:22Z</time>
      </trkpt>
      <trkpt lat="43.113385" lon="-1.8892600000000002">
        <ele>740.8</ele>
        <time>2018-09-29T07:53:26Z</time>
      </trkpt>
      <trkpt lat="43.11332" lon="-1.8891766666666667">
        <ele>741.9</ele>
        <time>2018-09-29T07:53:30Z</time>
      </trkpt>
      <trkpt lat="43.113258333333334" lon="-1.8890983333333333">
        <ele>742.9</ele>
        <time>2018-09-29T07:53:34Z</time>
      </trkpt>
      <trkpt lat="43.1132" lon="-1.88903">
        <ele>744.0</ele>
        <time>2018-09-29T07:53:38Z</time>
      </trkpt>
      <trkpt lat="43.11314" lon="-1.888965">
        <ele>745.0</ele>
        <time>2018-09-29T07:53:42Z</time>
      </trkpt>
      <trkpt lat="43.113085" lon="-1.888895">
        <ele>746.0</ele>
        <time>2018-09-29T07:53:46Z</time>
      </trkpt>
      <trkpt lat="43.113025" lon="-1.8888250000000002">
        <ele>747.0</ele>
        <time>2018-09-29T07:53:50Z</time>
      </trkpt>
      <trkpt lat="43.11297" lon="-1.888755">
        <ele>748.0</ele>
        <time>2018-09-29T07:53:54Z</time>
      </trkpt>
      <trkpt lat="43.1129" lon="-1.8886850000000002">
        <ele>748.9</ele>
        <time>2018-09-29T07:53:58Z</time>
      </trkpt>
      <trkpt lat="43.112825" lon="-1.88861">
        <ele>749.9</ele>
        <time>2018-09-29T07:54:02Z</time>
      </trkpt>
      <trkpt lat="43.112746666666666" lon="-1.8885466666666666">
        <ele>750.8</ele>
        <time>2018-09-29T07:54:06Z</time>
      </trkpt>
      <trkpt lat="43.11268" lon="-1.888485">
        <ele>751.8</ele>
        <time>2018-09-29T07:54:10Z</time>
      </trkpt>
      <trkpt lat="43.112615" lon="-1.88842">
        <ele>752.7</ele>
        <time>2018-09-29T07:54:14Z</time>
      </trkpt>
      <trkpt lat="43.112545" lon="-1.88836">
        <ele>753.6</ele>
        <time>2018-09-29T07:54:18Z</time>
      </trkpt>
      <trkpt lat="43.11247" lon="-1.8883100000000002">
        <ele>754.4</ele>
        <time>2018-09-29T07:54:22Z</time>
      </trkpt>
      <trkpt lat="43.112405" lon="-1.88825">
        <ele>755.3</ele>
        <time>2018-09-29T07:54:26Z</time>
      </trkpt>
      <trkpt lat="43.112335" lon="-1.888185">
        <ele>756.1</ele>
        <time>2018-09-29T07:54:30Z</time>
      </trkpt>
      <trkpt lat="43.11226" lon="-1.8881116666666666">
        <ele>756.9</ele>
        <time>2018-09-29T07:54:34Z</time>
      </trkpt>
      <trkpt lat="43.1122" lon="-1.888025">
        <ele>757.7</ele>
        <time>2018-09-29T07:54:38Z</time>
      </trkpt>
      <trkpt lat="43.112135" lon="-1.8879549999999998">
        <ele>758.5</ele>
        <time>2018-09-29T07:54:42Z</time>
      </trkpt>
      <trkpt lat="43.11208166666667" lon="-1.88787">
        <ele>759.2</ele>
        <time>2018-09-29T07:54:46Z</time>
      </trkpt>
      <trkpt lat="43.11204" lon="-1.88778">
        <ele>760.0</ele>
        <time>2018-09-29T07:54:50Z</time>
      </trkpt>
      <trkpt lat="43.111975" lon="-1.88771">
        <ele>760.7</ele>
        <time>2018-09-29T07:54:54Z</time>
      </trkpt>
      <trkpt lat="43.11192" lon="-1.887645">
        <ele>761.4</ele>
        <time>2018-09-29T07:54:58Z</time>
      </trkpt>
      <trkpt lat="43.11186" lon="-1.887585">
        <ele>762.1</ele>
        <time>2018-09-29T07:55:02Z</time>
      </trkpt>
      <trkpt lat="43.111801666666665" lon="-1.8875216666666668">
        <ele>762.8</ele>
        <time>2018-09-29T07:55:06Z</time>
      </trkpt>
      <trkpt lat="43.11173" lon="-1.88746">
        <ele>763.7</ele>
        <time>2018-09-29T07:55:11Z</time>
      </trkpt>
      <trkpt lat="43.11166" lon="-1.8873933333333333">
        <ele>764.6</ele>
        <time>2018-09-29T07:55:16Z</time>
      </trkpt>
      <trkpt lat="43.111581666666666" lon="-1.88735">
        <ele>765.5</ele>
        <time>2018-09-29T07:55:21Z</time>
      </trkpt>
      <trkpt lat="43.11150166666667" lon="-1.8872983333333333">
        <ele>766.4</ele>
        <time>2018-09-29T07:55:26Z</time>
      </trkpt>
      <trkpt lat="43.111425" lon="-1.887265">
        <ele>767.3</ele>
        <time>2018-09-29T07:55:31Z</time>
      </trkpt>
      <trkpt lat="43.11134" lon="-1.8872300000000002">
        <ele>768.3</ele>
        <time>2018-09-29T07:55:37Z</time>
      </trkpt>
      <trkpt lat="43.111265" lon="-1.8872133333333334">
        <ele>769.1</ele>
        <time>2018-09-29T07:55:42Z</time>
      </trkpt>
      <trkpt lat="43.11119" lon="-1.8872">
        <ele>769.9</ele>
        <time>2018-09-29T07:55:47Z</time>
      </trkpt>
      <trkpt lat="43.111111666666666" lon="-1.8872033333333333">
        <ele>770.7</ele>
        <time>2018-09-29T07:55:52Z</time>
      </trkpt>
      <trkpt lat="43.11103166666667" lon="-1.8872">
        <ele>771.4</ele>
        <time>2018-09-29T07:55:57Z</time>
      </trkpt>
      <trkpt lat="43.11096" lon="-1.8871850000000001">
        <ele>772.2</ele>
        <time>2018-09-29T07:56:02Z</time>
      </trkpt>
      <trkpt lat="43.11089" lon="-1.887165">
        <ele>773.1</ele>
        <time>2018-09-29T07:56:08Z</time>
      </trkpt>
      <trkpt lat="43.110815" lon="-1.88715">
        <ele>774.0</ele>
        <time>2018-09-29T07:56:14Z</time>
      </trkpt>
      <trkpt lat="43.11073666666667" lon="-1.8871433333333334">
        <ele>774.7</ele>
        <time>2018-09-29T07:56:19Z</time>
      </trkpt>
      <trkpt lat="43.11066" lon="-1.8871099999999998">
        <ele>775.5</ele>
        <time>2018-09-29T07:56:25Z</time>
      </trkpt>
      <trkpt lat="43.110625" lon="-1.88707">
        <ele>776.4</ele>
        <time>2018-09-29T07:56:32Z</time>
      </trkpt>
      <trkpt lat="43.11058" lon="-1.8870283333333333">
        <ele>777.4</ele>
        <time>2018-09-29T07:56:39Z</time>
      </trkpt>
      <trkpt lat="43.110525" lon="-1.886985">
        <ele>778.3</ele>
        <time>2018-09-29T07:56:46Z</time>
      </trkpt>
      <trkpt lat="43.110495" lon="-1.8870233333333335">
        <ele>778.9</ele>
        <time>2018-09-29T07:56:53Z</time>
      </trkpt>
      <trkpt lat="43.11047" lon="-1.88706">
        <ele>779.7</ele>
        <time>2018-09-29T07:57:00Z</time>
      </trkpt>
      <trkpt lat="43.11041" lon="-1.887105">
        <ele>780.5</ele>
        <time>2018-09-29T07:57:07Z</time>
      </trkpt>
      <trkpt lat="43.110335" lon="-1.88714">
        <ele>781.1</ele>
        <time>2018-09-29T07:57:12Z</time>
      </trkpt>
      <trkpt lat="43.110255" lon="-1.88718">
        <ele>781.8</ele>
        <time>2018-09-29T07:57:17Z</time>
      </trkpt>
      <trkpt lat="43.11018" lon="-1.8872300000000002">
        <ele>782.5</ele>
        <time>2018-09-29T07:57:22Z</time>
      </trkpt>
      <trkpt lat="43.11010666666667" lon="-1.8872916666666666">
        <ele>783.3</ele>
        <time>2018-09-29T07:57:27Z</time>
      </trkpt>
      <trkpt lat="43.110031666666664" lon="-1.88733">
        <ele>784.2</ele>
        <time>2018-09-29T07:57:32Z</time>
      </trkpt>
      <trkpt lat="43.10996" lon="-1.88737">
        <ele>785.4</ele>
        <time>2018-09-29T07:57:37Z</time>
      </trkpt>
      <trkpt lat="43.109885" lon="-1.88742">
        <ele>786.4</ele>
        <time>2018-09-29T07:57:41Z</time>
      </trkpt>
      <trkpt lat="43.109825" lon="-1.8874816666666665">
        <ele>787.5</ele>
        <time>2018-09-29T07:57:46Z</time>
      </trkpt>
      <trkpt lat="43.109775" lon="-1.8875666666666666">
        <ele>788.6</ele>
        <time>2018-09-29T07:57:50Z</time>
      </trkpt>
      <trkpt lat="43.10971" lon="-1.887645">
        <ele>789.9</ele>
        <time>2018-09-29T07:57:55Z</time>
      </trkpt>
      <trkpt lat="43.109645" lon="-1.887715">
        <ele>790.7</ele>
        <time>2018-09-29T07:57:58Z</time>
      </trkpt>
      <trkpt lat="43.10959" lon="-1.8878">
        <ele>792.1</ele>
        <time>2018-09-29T07:58:03Z</time>
      </trkpt>
      <trkpt lat="43.109541666666665" lon="-1.887875">
        <ele>793.8</ele>
        <time>2018-09-29T07:58:09Z</time>
      </trkpt>
      <trkpt lat="43.109495" lon="-1.88796">
        <ele>795.4</ele>
        <time>2018-09-29T07:58:15Z</time>
      </trkpt>
      <trkpt lat="43.10945" lon="-1.8880400000000002">
        <ele>797.0</ele>
        <time>2018-09-29T07:58:20Z</time>
      </trkpt>
      <trkpt lat="43.109415" lon="-1.88814">
        <ele>798.5</ele>
        <time>2018-09-29T07:58:25Z</time>
      </trkpt>
      <trkpt lat="43.10935666666666" lon="-1.88822">
        <ele>799.4</ele>
        <time>2018-09-29T07:58:28Z</time>
      </trkpt>
      <trkpt lat="43.1093" lon="-1.888315">
        <ele>801.2</ele>
        <time>2018-09-29T07:58:34Z</time>
      </trkpt>
      <trkpt lat="43.109245" lon="-1.888395">
        <ele>802.8</ele>
        <time>2018-09-29T07:58:39Z</time>
      </trkpt>
      <trkpt lat="43.109201666666664" lon="-1.8884816666666668">
        <ele>804.4</ele>
        <time>2018-09-29T07:58:44Z</time>
      </trkpt>
      <trkpt lat="43.109163333333335" lon="-1.8885683333333334">
        <ele>805.6</ele>
        <time>2018-09-29T07:58:48Z</time>
      </trkpt>
      <trkpt lat="43.109125" lon="-1.88866">
        <ele>807.1</ele>
        <time>2018-09-29T07:58:53Z</time>
      </trkpt>
      <trkpt lat="43.109075" lon="-1.8887383333333334">
        <ele>808.5</ele>
        <time>2018-09-29T07:58:58Z</time>
      </trkpt>
      <trkpt lat="43.10904" lon="-1.8888266666666667">
        <ele>809.7</ele>
        <time>2018-09-29T07:59:02Z</time>
      </trkpt>
      <trkpt lat="43.10899" lon="-1.888935">
        <ele>811.0</ele>
        <time>2018-09-29T07:59:07Z</time>
      </trkpt>
      <trkpt lat="43.108935" lon="-1.88901">
        <ele>811.8</ele>
        <time>2018-09-29T07:59:10Z</time>
      </trkpt>
      <trkpt lat="43.10888" lon="-1.88911">
        <ele>813.1</ele>
        <time>2018-09-29T07:59:15Z</time>
      </trkpt>
      <trkpt lat="43.108835" lon="-1.889205">
        <ele>814.3</ele>
        <time>2018-09-29T07:59:20Z</time>
      </trkpt>
      <trkpt lat="43.108765" lon="-1.8892950000000002">
        <ele>815.3</ele>
        <time>2018-09-29T07:59:24Z</time>
      </trkpt>
      <trkpt lat="43.108713333333334" lon="-1.8893900000000001">
        <ele>816.2</ele>
        <time>2018-09-29T07:59:28Z</time>
      </trkpt>
      <trkpt lat="43.108665" lon="-1.88947">
        <ele>817.4</ele>
        <time>2018-09-29T07:59:33Z</time>
      </trkpt>
      <trkpt lat="43.10860666666667" lon="-1.8895383333333333">
        <ele>818.6</ele>
        <time>2018-09-29T07:59:38Z</time>
      </trkpt>
      <trkpt lat="43.10853" lon="-1.8896">
        <ele>819.5</ele>
        <time>2018-09-29T07:59:42Z</time>
      </trkpt>
      <trkpt lat="43.108455" lon="-1.8896516666666667">
        <ele>820.6</ele>
        <time>2018-09-29T07:59:47Z</time>
      </trkpt>
      <trkpt lat="43.108395" lon="-1.8897166666666667">
        <ele>821.7</ele>
        <time>2018-09-29T07:59:52Z</time>
      </trkpt>
      <trkpt lat="43.10831" lon="-1.88977">
        <ele>822.7</ele>
        <time>2018-09-29T07:59:57Z</time>
      </trkpt>
      <trkpt lat="43.108235" lon="-1.889825">
        <ele>823.9</ele>
        <time>2018-09-29T08:00:03Z</time>
      </trkpt>
      <trkpt lat="43.10816666666667" lon="-1.889865">
        <ele>824.7</ele>
        <time>2018-09-29T08:00:07Z</time>
      </trkpt>
      <trkpt lat="43.10809" lon="-1.889875">
        <ele>825.5</ele>
        <time>2018-09-29T08:00:11Z</time>
      </trkpt>
      <trkpt lat="43.108015" lon="-1.8898700000000002">
        <ele>826.1</ele>
        <time>2018-09-29T08:00:14Z</time>
      </trkpt>
      <trkpt lat="43.10793" lon="-1.88986">
        <ele>826.7</ele>
        <time>2018-09-29T08:00:17Z</time>
      </trkpt>
      <trkpt lat="43.10786" lon="-1.889845">
        <ele>827.2</ele>
        <time>2018-09-29T08:00:20Z</time>
      </trkpt>
      <trkpt lat="43.107776666666666" lon="-1.889845">
        <ele>828.0</ele>
        <time>2018-09-29T08:00:24Z</time>
      </trkpt>
      <trkpt lat="43.10769" lon="-1.88982">
        <ele>828.7</ele>
        <time>2018-09-29T08:00:28Z</time>
      </trkpt>
      <trkpt lat="43.10761166666666" lon="-1.889835">
        <ele>829.2</ele>
        <time>2018-09-29T08:00:31Z</time>
      </trkpt>
      <trkpt lat="43.10752" lon="-1.889835">
        <ele>829.9</ele>
        <time>2018-09-29T08:00:35Z</time>
      </trkpt>
      <trkpt lat="43.10743166666666" lon="-1.889855">
        <ele>830.6</ele>
        <time>2018-09-29T08:00:39Z</time>
      </trkpt>
      <trkpt lat="43.107355" lon="-1.8899183333333334">
        <ele>831.4</ele>
        <time>2018-09-29T08:00:44Z</time>
      </trkpt>
      <trkpt lat="43.10729" lon="-1.890025">
        <ele>832.0</ele>
        <time>2018-09-29T08:00:48Z</time>
      </trkpt>
      <trkpt lat="43.107216666666666" lon="-1.89012">
        <ele>832.5</ele>
        <time>2018-09-29T08:00:51Z</time>
      </trkpt>
      <trkpt lat="43.107135" lon="-1.890215">
        <ele>833.1</ele>
        <time>2018-09-29T08:00:54Z</time>
      </trkpt>
      <trkpt lat="43.107075" lon="-1.8902766666666668">
        <ele>833.4</ele>
        <time>2018-09-29T08:00:56Z</time>
      </trkpt>
      <trkpt lat="43.107015" lon="-1.890365">
        <ele>833.9</ele>
        <time>2018-09-29T08:00:59Z</time>
      </trkpt>
      <trkpt lat="43.106935" lon="-1.8904466666666666">
        <ele>834.4</ele>
        <time>2018-09-29T08:01:02Z</time>
      </trkpt>
      <trkpt lat="43.106865" lon="-1.89049">
        <ele>834.9</ele>
        <time>2018-09-29T08:01:05Z</time>
      </trkpt>
      <trkpt lat="43.1068" lon="-1.8905416666666666">
        <ele>835.4</ele>
        <time>2018-09-29T08:01:08Z</time>
      </trkpt>
      <trkpt lat="43.10673" lon="-1.89059">
        <ele>836.0</ele>
        <time>2018-09-29T08:01:11Z</time>
      </trkpt>
      <trkpt lat="43.106655" lon="-1.89065">
        <ele>836.5</ele>
        <time>2018-09-29T08:01:14Z</time>
      </trkpt>
      <trkpt lat="43.106585" lon="-1.8907083333333334">
        <ele>837.0</ele>
        <time>2018-09-29T08:01:17Z</time>
      </trkpt>
      <trkpt lat="43.106535" lon="-1.8907983333333331">
        <ele>837.5</ele>
        <time>2018-09-29T08:01:20Z</time>
      </trkpt>
      <trkpt lat="43.10647" lon="-1.8909099999999999">
        <ele>838.0</ele>
        <time>2018-09-29T08:01:23Z</time>
      </trkpt>
      <trkpt lat="43.10641666666667" lon="-1.8909916666666666">
        <ele>838.8</ele>
        <time>2018-09-29T08:01:27Z</time>
      </trkpt>
      <trkpt lat="43.106355" lon="-1.8910900000000002">
        <ele>839.7</ele>
        <time>2018-09-29T08:01:31Z</time>
      </trkpt>
      <trkpt lat="43.10628166666667" lon="-1.89121">
        <ele>840.3</ele>
        <time>2018-09-29T08:01:34Z</time>
      </trkpt>
      <trkpt lat="43.10623" lon="-1.891305">
        <ele>841.0</ele>
        <time>2018-09-29T08:01:37Z</time>
      </trkpt>
      <trkpt lat="43.1062" lon="-1.8914">
        <ele>842.0</ele>
        <time>2018-09-29T08:01:41Z</time>
      </trkpt>
      <trkpt lat="43.106145" lon="-1.891475">
        <ele>843.3</ele>
        <time>2018-09-29T08:01:46Z</time>
      </trkpt>
      <trkpt lat="43.10608" lon="-1.8915533333333334">
        <ele>844.3</ele>
        <time>2018-09-29T08:01:50Z</time>
      </trkpt>
      <trkpt lat="43.10602" lon="-1.8916233333333334">
        <ele>845.3</ele>
        <time>2018-09-29T08:01:54Z</time>
      </trkpt>
      <trkpt lat="43.10594" lon="-1.891645">
        <ele>846.4</ele>
        <time>2018-09-29T08:01:58Z</time>
      </trkpt>
      <trkpt lat="43.10587" lon="-1.89168">
        <ele>847.5</ele>
        <time>2018-09-29T08:02:02Z</time>
      </trkpt>
      <trkpt lat="43.10578" lon="-1.8917033333333335">
        <ele>849.1</ele>
        <time>2018-09-29T08:02:08Z</time>
      </trkpt>
      <trkpt lat="43.1057" lon="-1.891745">
        <ele>849.9</ele>
        <time>2018-09-29T08:02:11Z</time>
      </trkpt>
      <trkpt lat="43.105626666666666" lon="-1.8917766666666667">
        <ele>851.1</ele>
        <time>2018-09-29T08:02:16Z</time>
      </trkpt>
      <trkpt lat="43.105545" lon="-1.891775">
        <ele>852.5</ele>
        <time>2018-09-29T08:02:22Z</time>
      </trkpt>
      <trkpt lat="43.10547" lon="-1.8917766666666667">
        <ele>853.6</ele>
        <time>2018-09-29T08:02:27Z</time>
      </trkpt>
      <trkpt lat="43.105396666666664" lon="-1.89181">
        <ele>854.4</ele>
        <time>2018-09-29T08:02:31Z</time>
      </trkpt>
      <trkpt lat="43.10531" lon="-1.89181">
        <ele>855.7</ele>
        <time>2018-09-29T08:02:37Z</time>
      </trkpt>
      <trkpt lat="43.10523666666667" lon="-1.891805">
        <ele>856.7</ele>
        <time>2018-09-29T08:02:42Z</time>
      </trkpt>
      <trkpt lat="43.105155" lon="-1.891805">
        <ele>857.7</ele>
        <time>2018-09-29T08:02:47Z</time>
      </trkpt>
      <trkpt lat="43.10508" lon="-1.8918149999999998">
        <ele>858.5</ele>
        <time>2018-09-29T08:02:51Z</time>
      </trkpt>
      <trkpt lat="43.10501" lon="-1.8918016666666666">
        <ele>859.8</ele>
        <time>2018-09-29T08:02:58Z</time>
      </trkpt>
      <trkpt lat="43.10493" lon="-1.8917766666666667">
        <ele>860.7</ele>
        <time>2018-09-29T08:03:03Z</time>
      </trkpt>
      <trkpt lat="43.104855" lon="-1.8917783333333333">
        <ele>861.4</ele>
        <time>2018-09-29T08:03:07Z</time>
      </trkpt>
      <trkpt lat="43.10476666666667" lon="-1.89174">
        <ele>862.1</ele>
        <time>2018-09-29T08:03:11Z</time>
      </trkpt>
      <trkpt lat="43.104686666666666" lon="-1.8917350000000002">
        <ele>862.9</ele>
        <time>2018-09-29T08:03:16Z</time>
      </trkpt>
      <trkpt lat="43.10460666666667" lon="-1.8917133333333334">
        <ele>863.7</ele>
        <time>2018-09-29T08:03:21Z</time>
      </trkpt>
      <trkpt lat="43.10453" lon="-1.8916966666666668">
        <ele>864.6</ele>
        <time>2018-09-29T08:03:27Z</time>
      </trkpt>
      <trkpt lat="43.10442666666667" lon="-1.8916966666666668">
        <ele>865.6</ele>
        <time>2018-09-29T08:03:34Z</time>
      </trkpt>
      <trkpt lat="43.104371666666665" lon="-1.891745">
        <ele>866.6</ele>
        <time>2018-09-29T08:03:41Z</time>
      </trkpt>
      <trkpt lat="43.10436" lon="-1.891845">
        <ele>867.5</ele>
        <time>2018-09-29T08:03:47Z</time>
      </trkpt>
      <trkpt lat="43.104305" lon="-1.89191">
        <ele>867.9</ele>
        <time>2018-09-29T08:03:50Z</time>
      </trkpt>
      <trkpt lat="43.104225" lon="-1.8919616666666665">
        <ele>868.5</ele>
        <time>2018-09-29T08:03:54Z</time>
      </trkpt>
      <trkpt lat="43.104205" lon="-1.8920566666666667">
        <ele>869.1</ele>
        <time>2018-09-29T08:03:58Z</time>
      </trkpt>
      <trkpt lat="43.1042" lon="-1.8921616666666665">
        <ele>869.8</ele>
        <time>2018-09-29T08:04:03Z</time>
      </trkpt>
      <trkpt lat="43.10416166666667" lon="-1.892265">
        <ele>870.6</ele>
        <time>2018-09-29T08:04:09Z</time>
      </trkpt>
      <trkpt lat="43.10416" lon="-1.89237">
        <ele>871.3</ele>
        <time>2018-09-29T08:04:14Z</time>
      </trkpt>
      <trkpt lat="43.10415166666667" lon="-1.89249">
        <ele>872.2</ele>
        <time>2018-09-29T08:04:20Z</time>
      </trkpt>
      <trkpt lat="43.10413166666667" lon="-1.8925916666666667">
        <ele>872.6</ele>
        <time>2018-09-29T08:04:23Z</time>
      </trkpt>
      <trkpt lat="43.10413" lon="-1.8927">
        <ele>873.3</ele>
        <time>2018-09-29T08:04:28Z</time>
      </trkpt>
      <trkpt lat="43.10414" lon="-1.8927999999999998">
        <ele>873.9</ele>
        <time>2018-09-29T08:04:32Z</time>
      </trkpt>
      <trkpt lat="43.104125" lon="-1.8929216666666666">
        <ele>874.7</ele>
        <time>2018-09-29T08:04:38Z</time>
      </trkpt>
      <trkpt lat="43.10409833333333" lon="-1.89302">
        <ele>875.6</ele>
        <time>2018-09-29T08:04:44Z</time>
      </trkpt>
      <trkpt lat="43.10409" lon="-1.8931366666666667">
        <ele>876.6</ele>
        <time>2018-09-29T08:04:51Z</time>
      </trkpt>
      <trkpt lat="43.10408" lon="-1.8932366666666667">
        <ele>877.2</ele>
        <time>2018-09-29T08:04:55Z</time>
      </trkpt>
      <trkpt lat="43.104075" lon="-1.8933550000000001">
        <ele>878.0</ele>
        <time>2018-09-29T08:05:00Z</time>
      </trkpt>
      <trkpt lat="43.10408" lon="-1.89346">
        <ele>878.6</ele>
        <time>2018-09-29T08:05:04Z</time>
      </trkpt>
      <trkpt lat="43.104075" lon="-1.8935716666666667">
        <ele>879.2</ele>
        <time>2018-09-29T08:05:08Z</time>
      </trkpt>
      <trkpt lat="43.104083333333335" lon="-1.893685">
        <ele>879.9</ele>
        <time>2018-09-29T08:05:12Z</time>
      </trkpt>
      <trkpt lat="43.104081666666666" lon="-1.89379">
        <ele>880.7</ele>
        <time>2018-09-29T08:05:17Z</time>
      </trkpt>
      <trkpt lat="43.10409166666667" lon="-1.89389">
        <ele>881.0</ele>
        <time>2018-09-29T08:05:19Z</time>
      </trkpt>
      <trkpt lat="43.104105" lon="-1.89399">
        <ele>881.3</ele>
        <time>2018-09-29T08:05:21Z</time>
      </trkpt>
      <trkpt lat="43.10408666666667" lon="-1.89409">
        <ele>881.8</ele>
        <time>2018-09-29T08:05:24Z</time>
      </trkpt>
      <trkpt lat="43.10406" lon="-1.89419">
        <ele>882.2</ele>
        <time>2018-09-29T08:05:27Z</time>
      </trkpt>
      <trkpt lat="43.104016666666666" lon="-1.894285">
        <ele>882.5</ele>
        <time>2018-09-29T08:05:29Z</time>
      </trkpt>
      <trkpt lat="43.103975" lon="-1.8943816666666666">
        <ele>882.8</ele>
        <time>2018-09-29T08:05:31Z</time>
      </trkpt>
      <trkpt lat="43.10394" lon="-1.894505">
        <ele>883.0</ele>
        <time>2018-09-29T08:05:33Z</time>
      </trkpt>
      <trkpt lat="43.103905" lon="-1.8946100000000001">
        <ele>883.3</ele>
        <time>2018-09-29T08:05:35Z</time>
      </trkpt>
      <trkpt lat="43.10387333333333" lon="-1.89471">
        <ele>883.7</ele>
        <time>2018-09-29T08:05:38Z</time>
      </trkpt>
      <trkpt lat="43.10382" lon="-1.8947850000000002">
        <ele>884.0</ele>
        <time>2018-09-29T08:05:41Z</time>
      </trkpt>
      <trkpt lat="43.103745" lon="-1.8948800000000001">
        <ele>884.4</ele>
        <time>2018-09-29T08:05:44Z</time>
      </trkpt>
      <trkpt lat="43.103675" lon="-1.89499">
        <ele>884.8</ele>
        <time>2018-09-29T08:05:47Z</time>
      </trkpt>
      <trkpt lat="43.103615" lon="-1.895085">
        <ele>885.1</ele>
        <time>2018-09-29T08:05:50Z</time>
      </trkpt>
      <trkpt lat="43.10355666666667" lon="-1.895155">
        <ele>885.5</ele>
        <time>2018-09-29T08:05:53Z</time>
      </trkpt>
      <trkpt lat="43.10355166666667" lon="-1.8952783333333334">
        <ele>885.8</ele>
        <time>2018-09-29T08:05:56Z</time>
      </trkpt>
      <trkpt lat="43.103548333333336" lon="-1.895405">
        <ele>886.3</ele>
        <time>2018-09-29T08:06:00Z</time>
      </trkpt>
      <trkpt lat="43.10355666666667" lon="-1.895515">
        <ele>887.0</ele>
        <time>2018-09-29T08:06:05Z</time>
      </trkpt>
      <trkpt lat="43.103565" lon="-1.8956149999999998">
        <ele>887.4</ele>
        <time>2018-09-29T08:06:08Z</time>
      </trkpt>
      <trkpt lat="43.103585" lon="-1.895725">
        <ele>887.7</ele>
        <time>2018-09-29T08:06:11Z</time>
      </trkpt>
      <trkpt lat="43.10362666666666" lon="-1.8958183333333332">
        <ele>888.1</ele>
        <time>2018-09-29T08:06:14Z</time>
      </trkpt>
      <trkpt lat="43.103655" lon="-1.895945">
        <ele>888.5</ele>
        <time>2018-09-29T08:06:17Z</time>
      </trkpt>
      <trkpt lat="43.103675" lon="-1.8960466666666667">
        <ele>888.8</ele>
        <time>2018-09-29T08:06:20Z</time>
      </trkpt>
      <trkpt lat="43.103685" lon="-1.8961766666666668">
        <ele>889.2</ele>
        <time>2018-09-29T08:06:23Z</time>
      </trkpt>
      <trkpt lat="43.103695" lon="-1.8963">
        <ele>889.6</ele>
        <time>2018-09-29T08:06:26Z</time>
      </trkpt>
      <trkpt lat="43.103695" lon="-1.89641">
        <ele>889.9</ele>
        <time>2018-09-29T08:06:29Z</time>
      </trkpt>
      <trkpt lat="43.10368" lon="-1.8965416666666666">
        <ele>890.3</ele>
        <time>2018-09-29T08:06:32Z</time>
      </trkpt>
      <trkpt lat="43.10366" lon="-1.8966433333333335">
        <ele>890.8</ele>
        <time>2018-09-29T08:06:36Z</time>
      </trkpt>
      <trkpt lat="43.10364" lon="-1.8967800000000001">
        <ele>891.2</ele>
        <time>2018-09-29T08:06:39Z</time>
      </trkpt>
      <trkpt lat="43.103595" lon="-1.8969066666666667">
        <ele>891.5</ele>
        <time>2018-09-29T08:06:42Z</time>
      </trkpt>
      <trkpt lat="43.103548333333336" lon="-1.8970066666666665">
        <ele>891.9</ele>
        <time>2018-09-29T08:06:45Z</time>
      </trkpt>
      <trkpt lat="43.103505" lon="-1.89712">
        <ele>892.3</ele>
        <time>2018-09-29T08:06:48Z</time>
      </trkpt>
      <trkpt lat="43.103455" lon="-1.8972250000000002">
        <ele>892.6</ele>
        <time>2018-09-29T08:06:51Z</time>
      </trkpt>
      <trkpt lat="43.10342" lon="-1.897325">
        <ele>893.2</ele>
        <time>2018-09-29T08:06:56Z</time>
      </trkpt>
      <trkpt lat="43.103365" lon="-1.8974199999999999">
        <ele>893.7</ele>
        <time>2018-09-29T08:07:01Z</time>
      </trkpt>
      <trkpt lat="43.103295" lon="-1.89751">
        <ele>894.1</ele>
        <time>2018-09-29T08:07:05Z</time>
      </trkpt>
      <trkpt lat="43.103225" lon="-1.89759">
        <ele>894.5</ele>
        <time>2018-09-29T08:07:09Z</time>
      </trkpt>
      <trkpt lat="43.10317" lon="-1.8976600000000001">
        <ele>894.8</ele>
        <time>2018-09-29T08:07:12Z</time>
      </trkpt>
      <trkpt lat="43.10312" lon="-1.8977650000000001">
        <ele>895.1</ele>
        <time>2018-09-29T08:07:15Z</time>
      </trkpt>
      <trkpt lat="43.103055" lon="-1.8978549999999998">
        <ele>895.5</ele>
        <time>2018-09-29T08:07:20Z</time>
      </trkpt>
      <trkpt lat="43.102985" lon="-1.897925">
        <ele>896.0</ele>
        <time>2018-09-29T08:07:25Z</time>
      </trkpt>
      <trkpt lat="43.10292" lon="-1.8979866666666667">
        <ele>896.5</ele>
        <time>2018-09-29T08:07:30Z</time>
      </trkpt>
      <trkpt lat="43.10286833333333" lon="-1.8980716666666666">
        <ele>896.8</ele>
        <time>2018-09-29T08:07:34Z</time>
      </trkpt>
      <trkpt lat="43.102815" lon="-1.8981466666666669">
        <ele>897.2</ele>
        <time>2018-09-29T08:07:38Z</time>
      </trkpt>
      <trkpt lat="43.102775" lon="-1.8982299999999999">
        <ele>897.6</ele>
        <time>2018-09-29T08:07:42Z</time>
      </trkpt>
      <trkpt lat="43.102731666666664" lon="-1.898315">
        <ele>897.9</ele>
        <time>2018-09-29T08:07:46Z</time>
      </trkpt>
      <trkpt lat="43.102675" lon="-1.8984">
        <ele>898.5</ele>
        <time>2018-09-29T08:07:52Z</time>
      </trkpt>
      <trkpt lat="43.10263" lon="-1.898495">
        <ele>899.1</ele>
        <time>2018-09-29T08:07:58Z</time>
      </trkpt>
      <trkpt lat="43.102595" lon="-1.8985850000000002">
        <ele>899.4</ele>
        <time>2018-09-29T08:08:02Z</time>
      </trkpt>
      <trkpt lat="43.102563333333336" lon="-1.8986800000000001">
        <ele>899.9</ele>
        <time>2018-09-29T08:08:07Z</time>
      </trkpt>
      <trkpt lat="43.102525" lon="-1.89877">
        <ele>900.4</ele>
        <time>2018-09-29T08:08:13Z</time>
      </trkpt>
      <trkpt lat="43.102475" lon="-1.89885">
        <ele>901.0</ele>
        <time>2018-09-29T08:08:19Z</time>
      </trkpt>
      <trkpt lat="43.102421666666665" lon="-1.89893">
        <ele>901.4</ele>
        <time>2018-09-29T08:08:23Z</time>
      </trkpt>
      <trkpt lat="43.10237" lon="-1.89901">
        <ele>901.9</ele>
        <time>2018-09-29T08:08:28Z</time>
      </trkpt>
      <trkpt lat="43.102325" lon="-1.899085">
        <ele>902.5</ele>
        <time>2018-09-29T08:08:35Z</time>
      </trkpt>
      <trkpt lat="43.102265" lon="-1.8991516666666666">
        <ele>903.1</ele>
        <time>2018-09-29T08:08:41Z</time>
      </trkpt>
      <trkpt lat="43.102205" lon="-1.8992149999999999">
        <ele>903.8</ele>
        <time>2018-09-29T08:08:48Z</time>
      </trkpt>
      <trkpt lat="43.10215" lon="-1.899285">
        <ele>904.4</ele>
        <time>2018-09-29T08:08:53Z</time>
      </trkpt>
      <trkpt lat="43.10209166666667" lon="-1.89935">
        <ele>905.0</ele>
        <time>2018-09-29T08:08:58Z</time>
      </trkpt>
      <trkpt lat="43.102025" lon="-1.8994083333333334">
        <ele>905.7</ele>
        <time>2018-09-29T08:09:04Z</time>
      </trkpt>
      <trkpt lat="43.101955" lon="-1.899465">
        <ele>906.6</ele>
        <time>2018-09-29T08:09:11Z</time>
      </trkpt>
      <trkpt lat="43.101888333333335" lon="-1.89953">
        <ele>907.4</ele>
        <time>2018-09-29T08:09:17Z</time>
      </trkpt>
      <trkpt lat="43.101815" lon="-1.8995716666666667">
        <ele>908.3</ele>
        <time>2018-09-29T08:09:24Z</time>
      </trkpt>
      <trkpt lat="43.10174166666667" lon="-1.89961">
        <ele>909.3</ele>
        <time>2018-09-29T08:09:31Z</time>
      </trkpt>
      <trkpt lat="43.10167166666667" lon="-1.8996499999999998">
        <ele>910.0</ele>
        <time>2018-09-29T08:09:36Z</time>
      </trkpt>
      <trkpt lat="43.101595" lon="-1.899705">
        <ele>911.1</ele>
        <time>2018-09-29T08:09:43Z</time>
      </trkpt>
      <trkpt lat="43.101525" lon="-1.89973">
        <ele>911.8</ele>
        <time>2018-09-29T08:09:48Z</time>
      </trkpt>
      <trkpt lat="43.10145" lon="-1.8997616666666666">
        <ele>912.8</ele>
        <time>2018-09-29T08:09:54Z</time>
      </trkpt>
      <trkpt lat="43.101375" lon="-1.8998">
        <ele>913.7</ele>
        <time>2018-09-29T08:10:00Z</time>
      </trkpt>
      <trkpt lat="43.101305" lon="-1.8998300000000001">
        <ele>914.4</ele>
        <time>2018-09-29T08:10:05Z</time>
      </trkpt>
      <trkpt lat="43.10122166666667" lon="-1.89984">
        <ele>915.4</ele>
        <time>2018-09-29T08:10:11Z</time>
      </trkpt>
      <trkpt lat="43.10114166666666" lon="-1.8998533333333332">
        <ele>916.5</ele>
        <time>2018-09-29T08:10:18Z</time>
      </trkpt>
      <trkpt lat="43.101056666666665" lon="-1.89988">
        <ele>917.5</ele>
        <time>2018-09-29T08:10:24Z</time>
      </trkpt>
      <trkpt lat="43.10098166666667" lon="-1.89988">
        <ele>918.4</ele>
        <time>2018-09-29T08:10:29Z</time>
      </trkpt>
      <trkpt lat="43.10091" lon="-1.8999000000000001">
        <ele>919.3</ele>
        <time>2018-09-29T08:10:34Z</time>
      </trkpt>
      <trkpt lat="43.100831666666664" lon="-1.899915">
        <ele>920.3</ele>
        <time>2018-09-29T08:10:39Z</time>
      </trkpt>
      <trkpt lat="43.10075666666667" lon="-1.8999433333333333">
        <ele>921.2</ele>
        <time>2018-09-29T08:10:44Z</time>
      </trkpt>
      <trkpt lat="43.100676666666665" lon="-1.89998">
        <ele>922.5</ele>
        <time>2018-09-29T08:10:50Z</time>
      </trkpt>
      <trkpt lat="43.1006" lon="-1.899985">
        <ele>924.0</ele>
        <time>2018-09-29T08:10:57Z</time>
      </trkpt>
      <trkpt lat="43.100521666666666" lon="-1.9000050000000002">
        <ele>925.1</ele>
        <time>2018-09-29T08:11:02Z</time>
      </trkpt>
      <trkpt lat="43.100445" lon="-1.9000216666666667">
        <ele>926.2</ele>
        <time>2018-09-29T08:11:07Z</time>
      </trkpt>
      <trkpt lat="43.100368333333336" lon="-1.90002">
        <ele>927.4</ele>
        <time>2018-09-29T08:11:12Z</time>
      </trkpt>
      <trkpt lat="43.10029333333333" lon="-1.9000599999999999">
        <ele>967.9</ele>
        <time>2018-09-29T08:24:23Z</time>
      </trkpt>
      <trkpt lat="43.10029333333333" lon="-1.9000599999999999">
        <ele>967.9</ele>
        <time>2018-09-29T08:24:45Z</time>
      </trkpt>
      <trkpt lat="43.10026" lon="-1.9000333333333335">
        <ele>970.1</ele>
        <time>2018-09-29T08:24:52Z</time>
      </trkpt>
      <trkpt lat="43.100185" lon="-1.9000566666666665">
        <ele>971.8</ele>
        <time>2018-09-29T08:24:58Z</time>
      </trkpt>
      <trkpt lat="43.10011" lon="-1.900075">
        <ele>971.4</ele>
        <time>2018-09-29T08:25:03Z</time>
      </trkpt>
      <trkpt lat="43.10002" lon="-1.9000949999999999">
        <ele>971.4</ele>
        <time>2018-09-29T08:25:08Z</time>
      </trkpt>
      <trkpt lat="43.09993333333333" lon="-1.9001283333333334">
        <ele>971.4</ele>
        <time>2018-09-29T08:25:11Z</time>
      </trkpt>
      <trkpt lat="43.099846666666664" lon="-1.9001283333333334">
        <ele>971.6</ele>
        <time>2018-09-29T08:25:13Z</time>
      </trkpt>
      <trkpt lat="43.0998" lon="-1.900055">
        <ele>971.7</ele>
        <time>2018-09-29T08:25:15Z</time>
      </trkpt>
      <trkpt lat="43.0998" lon="-1.8999416666666666">
        <ele>971.8</ele>
        <time>2018-09-29T08:25:18Z</time>
      </trkpt>
      <trkpt lat="43.099825" lon="-1.89982">
        <ele>971.9</ele>
        <time>2018-09-29T08:25:21Z</time>
      </trkpt>
      <trkpt lat="43.09986" lon="-1.899715">
        <ele>972.0</ele>
        <time>2018-09-29T08:25:24Z</time>
      </trkpt>
      <trkpt lat="43.099885" lon="-1.899625">
        <ele>972.1</ele>
        <time>2018-09-29T08:25:27Z</time>
      </trkpt>
      <trkpt lat="43.09992166666667" lon="-1.8995016666666666">
        <ele>972.2</ele>
        <time>2018-09-29T08:25:31Z</time>
      </trkpt>
      <trkpt lat="43.099965" lon="-1.8994066666666667">
        <ele>972.2</ele>
        <time>2018-09-29T08:25:35Z</time>
      </trkpt>
      <trkpt lat="43.1" lon="-1.8993">
        <ele>972.3</ele>
        <time>2018-09-29T08:25:40Z</time>
      </trkpt>
      <trkpt lat="43.100026666666665" lon="-1.8992">
        <ele>972.3</ele>
        <time>2018-09-29T08:25:44Z</time>
      </trkpt>
      <trkpt lat="43.100055" lon="-1.8991">
        <ele>972.3</ele>
        <time>2018-09-29T08:25:48Z</time>
      </trkpt>
      <trkpt lat="43.1001" lon="-1.89899">
        <ele>972.4</ele>
        <time>2018-09-29T08:25:53Z</time>
      </trkpt>
      <trkpt lat="43.10012666666667" lon="-1.898895">
        <ele>972.4</ele>
        <time>2018-09-29T08:25:56Z</time>
      </trkpt>
      <trkpt lat="43.100165" lon="-1.8987866666666666">
        <ele>972.5</ele>
        <time>2018-09-29T08:26:00Z</time>
      </trkpt>
      <trkpt lat="43.1002" lon="-1.8986966666666665">
        <ele>972.6</ele>
        <time>2018-09-29T08:26:04Z</time>
      </trkpt>
      <trkpt lat="43.10022166666667" lon="-1.898595">
        <ele>972.7</ele>
        <time>2018-09-29T08:26:08Z</time>
      </trkpt>
      <trkpt lat="43.100251666666665" lon="-1.898505">
        <ele>972.8</ele>
        <time>2018-09-29T08:26:12Z</time>
      </trkpt>
      <trkpt lat="43.100275" lon="-1.8984">
        <ele>973.0</ele>
        <time>2018-09-29T08:26:17Z</time>
      </trkpt>
      <trkpt lat="43.100291666666664" lon="-1.8982866666666667">
        <ele>973.2</ele>
        <time>2018-09-29T08:26:22Z</time>
      </trkpt>
      <trkpt lat="43.100325" lon="-1.8981916666666667">
        <ele>973.4</ele>
        <time>2018-09-29T08:26:26Z</time>
      </trkpt>
      <trkpt lat="43.100375" lon="-1.8980883333333334">
        <ele>973.6</ele>
        <time>2018-09-29T08:26:30Z</time>
      </trkpt>
      <trkpt lat="43.100415" lon="-1.898005">
        <ele>973.8</ele>
        <time>2018-09-29T08:26:34Z</time>
      </trkpt>
      <trkpt lat="43.100451666666665" lon="-1.897905">
        <ele>974.0</ele>
        <time>2018-09-29T08:26:38Z</time>
      </trkpt>
      <trkpt lat="43.1005" lon="-1.89781">
        <ele>974.3</ele>
        <time>2018-09-29T08:26:43Z</time>
      </trkpt>
      <trkpt lat="43.10055" lon="-1.89773">
        <ele>974.5</ele>
        <time>2018-09-29T08:26:48Z</time>
      </trkpt>
      <trkpt lat="43.100615" lon="-1.89764">
        <ele>974.7</ele>
        <time>2018-09-29T08:26:51Z</time>
      </trkpt>
      <trkpt lat="43.10067333333333" lon="-1.89757">
        <ele>974.9</ele>
        <time>2018-09-29T08:26:55Z</time>
      </trkpt>
      <trkpt lat="43.10073" lon="-1.897475">
        <ele>975.2</ele>
        <time>2018-09-29T08:26:59Z</time>
      </trkpt>
      <trkpt lat="43.100755" lon="-1.89738">
        <ele>975.5</ele>
        <time>2018-09-29T08:27:03Z</time>
      </trkpt>
      <trkpt lat="43.10075666666667" lon="-1.89725">
        <ele>975.8</ele>
        <time>2018-09-29T08:27:08Z</time>
      </trkpt>
      <trkpt lat="43.100795" lon="-1.8971616666666669">
        <ele>976.0</ele>
        <time>2018-09-29T08:27:11Z</time>
      </trkpt>
      <trkpt lat="43.10084" lon="-1.897065">
        <ele>976.3</ele>
        <time>2018-09-29T08:27:15Z</time>
      </trkpt>
      <trkpt lat="43.100885" lon="-1.89696">
        <ele>976.6</ele>
        <time>2018-09-29T08:27:19Z</time>
      </trkpt>
      <trkpt lat="43.100901666666665" lon="-1.896855">
        <ele>976.9</ele>
        <time>2018-09-29T08:27:23Z</time>
      </trkpt>
      <trkpt lat="43.1009" lon="-1.89675">
        <ele>977.2</ele>
        <time>2018-09-29T08:27:27Z</time>
      </trkpt>
      <trkpt lat="43.100915" lon="-1.8966416666666666">
        <ele>977.4</ele>
        <time>2018-09-29T08:27:30Z</time>
      </trkpt>
      <trkpt lat="43.100925" lon="-1.89653">
        <ele>977.7</ele>
        <time>2018-09-29T08:27:34Z</time>
      </trkpt>
      <trkpt lat="43.100925" lon="-1.89641">
        <ele>977.9</ele>
        <time>2018-09-29T08:27:37Z</time>
      </trkpt>
      <trkpt lat="43.10094" lon="-1.896305">
        <ele>978.1</ele>
        <time>2018-09-29T08:27:41Z</time>
      </trkpt>
      <trkpt lat="43.100945" lon="-1.8961716666666666">
        <ele>978.4</ele>
        <time>2018-09-29T08:27:45Z</time>
      </trkpt>
      <trkpt lat="43.10094" lon="-1.89607">
        <ele>978.6</ele>
        <time>2018-09-29T08:27:48Z</time>
      </trkpt>
      <trkpt lat="43.10093" lon="-1.89594">
        <ele>978.9</ele>
        <time>2018-09-29T08:27:51Z</time>
      </trkpt>
      <trkpt lat="43.10095166666667" lon="-1.8958133333333334">
        <ele>979.2</ele>
        <time>2018-09-29T08:27:55Z</time>
      </trkpt>
      <trkpt lat="43.100971666666666" lon="-1.89572">
        <ele>979.5</ele>
        <time>2018-09-29T08:27:59Z</time>
      </trkpt>
      <trkpt lat="43.10099666666667" lon="-1.89562">
        <ele>979.8</ele>
        <time>2018-09-29T08:28:01Z</time>
      </trkpt>
      <trkpt lat="43.10102" lon="-1.8955066666666667">
        <ele>980.2</ele>
        <time>2018-09-29T08:28:05Z</time>
      </trkpt>
      <trkpt lat="43.101025" lon="-1.89541">
        <ele>980.4</ele>
        <time>2018-09-29T08:28:09Z</time>
      </trkpt>
      <trkpt lat="43.101025" lon="-1.8952866666666668">
        <ele>980.8</ele>
        <time>2018-09-29T08:28:14Z</time>
      </trkpt>
      <trkpt lat="43.100991666666665" lon="-1.89517">
        <ele>981.2</ele>
        <time>2018-09-29T08:28:18Z</time>
      </trkpt>
      <trkpt lat="43.100991666666665" lon="-1.89505">
        <ele>981.4</ele>
        <time>2018-09-29T08:28:21Z</time>
      </trkpt>
      <trkpt lat="43.100995" lon="-1.894935">
        <ele>981.6</ele>
        <time>2018-09-29T08:28:23Z</time>
      </trkpt>
      <trkpt lat="43.10099666666667" lon="-1.894815">
        <ele>981.9</ele>
        <time>2018-09-29T08:28:27Z</time>
      </trkpt>
      <trkpt lat="43.100995" lon="-1.89471">
        <ele>982.1</ele>
        <time>2018-09-29T08:28:30Z</time>
      </trkpt>
      <trkpt lat="43.10101" lon="-1.8945766666666666">
        <ele>982.4</ele>
        <time>2018-09-29T08:28:33Z</time>
      </trkpt>
      <trkpt lat="43.101" lon="-1.8944783333333333">
        <ele>982.6</ele>
        <time>2018-09-29T08:28:36Z</time>
      </trkpt>
      <trkpt lat="43.100973333333336" lon="-1.8943866666666667">
        <ele>982.8</ele>
        <time>2018-09-29T08:28:40Z</time>
      </trkpt>
      <trkpt lat="43.101005" lon="-1.894275">
        <ele>983.0</ele>
        <time>2018-09-29T08:28:43Z</time>
      </trkpt>
      <trkpt lat="43.10101" lon="-1.89415">
        <ele>983.3</ele>
        <time>2018-09-29T08:28:47Z</time>
      </trkpt>
      <trkpt lat="43.10102" lon="-1.8940266666666665">
        <ele>983.4</ele>
        <time>2018-09-29T08:28:51Z</time>
      </trkpt>
      <trkpt lat="43.101045" lon="-1.8939249999999999">
        <ele>983.6</ele>
        <time>2018-09-29T08:28:54Z</time>
      </trkpt>
      <trkpt lat="43.101075" lon="-1.893825">
        <ele>983.8</ele>
        <time>2018-09-29T08:28:57Z</time>
      </trkpt>
      <trkpt lat="43.101076666666664" lon="-1.89371">
        <ele>984.0</ele>
        <time>2018-09-29T08:29:01Z</time>
      </trkpt>
      <trkpt lat="43.10108" lon="-1.893605">
        <ele>984.2</ele>
        <time>2018-09-29T08:29:04Z</time>
      </trkpt>
      <trkpt lat="43.101085" lon="-1.8935066666666667">
        <ele>984.4</ele>
        <time>2018-09-29T08:29:07Z</time>
      </trkpt>
      <trkpt lat="43.101105" lon="-1.8934016666666666">
        <ele>984.5</ele>
        <time>2018-09-29T08:29:10Z</time>
      </trkpt>
      <trkpt lat="43.101135" lon="-1.893285">
        <ele>984.7</ele>
        <time>2018-09-29T08:29:13Z</time>
      </trkpt>
      <trkpt lat="43.101165" lon="-1.89318">
        <ele>984.9</ele>
        <time>2018-09-29T08:29:15Z</time>
      </trkpt>
      <trkpt lat="43.10119" lon="-1.893085">
        <ele>985.1</ele>
        <time>2018-09-29T08:29:19Z</time>
      </trkpt>
      <trkpt lat="43.101216666666666" lon="-1.8929733333333334">
        <ele>985.3</ele>
        <time>2018-09-29T08:29:23Z</time>
      </trkpt>
      <trkpt lat="43.10124166666667" lon="-1.892875">
        <ele>985.6</ele>
        <time>2018-09-29T08:29:27Z</time>
      </trkpt>
      <trkpt lat="43.101275" lon="-1.8927766666666668">
        <ele>985.8</ele>
        <time>2018-09-29T08:29:30Z</time>
      </trkpt>
      <trkpt lat="43.101281666666665" lon="-1.892675">
        <ele>986.1</ele>
        <time>2018-09-29T08:29:34Z</time>
      </trkpt>
      <trkpt lat="43.101325" lon="-1.8925800000000002">
        <ele>986.4</ele>
        <time>2018-09-29T08:29:39Z</time>
      </trkpt>
      <trkpt lat="43.10134" lon="-1.8924699999999999">
        <ele>986.8</ele>
        <time>2018-09-29T08:29:43Z</time>
      </trkpt>
      <trkpt lat="43.10135" lon="-1.8923666666666668">
        <ele>987.4</ele>
        <time>2018-09-29T08:29:49Z</time>
      </trkpt>
      <trkpt lat="43.101351666666666" lon="-1.89225">
        <ele>988.2</ele>
        <time>2018-09-29T08:29:55Z</time>
      </trkpt>
      <trkpt lat="43.10137" lon="-1.8921433333333333">
        <ele>989.0</ele>
        <time>2018-09-29T08:30:00Z</time>
      </trkpt>
      <trkpt lat="43.10138666666667" lon="-1.892035">
        <ele>989.9</ele>
        <time>2018-09-29T08:30:05Z</time>
      </trkpt>
      <trkpt lat="43.10139" lon="-1.89192">
        <ele>990.8</ele>
        <time>2018-09-29T08:30:10Z</time>
      </trkpt>
      <trkpt lat="43.101396666666666" lon="-1.8918216666666667">
        <ele>991.6</ele>
        <time>2018-09-29T08:30:14Z</time>
      </trkpt>
      <trkpt lat="43.10141" lon="-1.8917033333333335">
        <ele>992.7</ele>
        <time>2018-09-29T08:30:19Z</time>
      </trkpt>
      <trkpt lat="43.10142" lon="-1.8915899999999999">
        <ele>993.7</ele>
        <time>2018-09-29T08:30:23Z</time>
      </trkpt>
      <trkpt lat="43.10142166666667" lon="-1.8914816666666667">
        <ele>994.8</ele>
        <time>2018-09-29T08:30:29Z</time>
      </trkpt>
      <trkpt lat="43.10143" lon="-1.8913783333333334">
        <ele>995.9</ele>
        <time>2018-09-29T08:30:34Z</time>
      </trkpt>
      <trkpt lat="43.10143166666667" lon="-1.8912616666666668">
        <ele>997.0</ele>
        <time>2018-09-29T08:30:38Z</time>
      </trkpt>
      <trkpt lat="43.101455" lon="-1.8911449999999999">
        <ele>998.1</ele>
        <time>2018-09-29T08:30:44Z</time>
      </trkpt>
      <trkpt lat="43.101465" lon="-1.89103">
        <ele>999.2</ele>
        <time>2018-09-29T08:30:49Z</time>
      </trkpt>
      <trkpt lat="43.10147" lon="-1.89092">
        <ele>1000.3</ele>
        <time>2018-09-29T08:30:54Z</time>
      </trkpt>
      <trkpt lat="43.10147166666667" lon="-1.890805">
        <ele>1001.3</ele>
        <time>2018-09-29T08:30:59Z</time>
      </trkpt>
      <trkpt lat="43.10147666666667" lon="-1.8907">
        <ele>1002.4</ele>
        <time>2018-09-29T08:31:03Z</time>
      </trkpt>
      <trkpt lat="43.10149" lon="-1.8905949999999998">
        <ele>1003.4</ele>
        <time>2018-09-29T08:31:09Z</time>
      </trkpt>
      <trkpt lat="43.101495" lon="-1.890485">
        <ele>1004.5</ele>
        <time>2018-09-29T08:31:14Z</time>
      </trkpt>
      <trkpt lat="43.101505" lon="-1.8903750000000001">
        <ele>1005.5</ele>
        <time>2018-09-29T08:31:19Z</time>
      </trkpt>
      <trkpt lat="43.101495" lon="-1.8902633333333334">
        <ele>1006.5</ele>
        <time>2018-09-29T08:31:24Z</time>
      </trkpt>
      <trkpt lat="43.10149" lon="-1.89015">
        <ele>1007.5</ele>
        <time>2018-09-29T08:31:29Z</time>
      </trkpt>
      <trkpt lat="43.10147" lon="-1.8900283333333334">
        <ele>1008.5</ele>
        <time>2018-09-29T08:31:33Z</time>
      </trkpt>
      <trkpt lat="43.10147166666667" lon="-1.88993">
        <ele>1009.4</ele>
        <time>2018-09-29T08:31:38Z</time>
      </trkpt>
      <trkpt lat="43.101485" lon="-1.88982">
        <ele>1010.4</ele>
        <time>2018-09-29T08:31:43Z</time>
      </trkpt>
      <trkpt lat="43.10149" lon="-1.88971">
        <ele>1011.3</ele>
        <time>2018-09-29T08:31:48Z</time>
      </trkpt>
      <trkpt lat="43.101485" lon="-1.889595">
        <ele>1012.3</ele>
        <time>2018-09-29T08:31:53Z</time>
      </trkpt>
      <trkpt lat="43.1015" lon="-1.8894916666666668">
        <ele>1013.3</ele>
        <time>2018-09-29T08:31:58Z</time>
      </trkpt>
      <trkpt lat="43.10155666666667" lon="-1.889425">
        <ele>1014.0</ele>
        <time>2018-09-29T08:32:02Z</time>
      </trkpt>
      <trkpt lat="43.10163" lon="-1.8893733333333333">
        <ele>1014.8</ele>
        <time>2018-09-29T08:32:06Z</time>
      </trkpt>
      <trkpt lat="43.101675" lon="-1.8892716666666667">
        <ele>1016.0</ele>
        <time>2018-09-29T08:32:12Z</time>
      </trkpt>
      <trkpt lat="43.101725" lon="-1.8891916666666666">
        <ele>1016.7</ele>
        <time>2018-09-29T08:32:16Z</time>
      </trkpt>
      <trkpt lat="43.10179" lon="-1.88913">
        <ele>1017.5</ele>
        <time>2018-09-29T08:32:20Z</time>
      </trkpt>
      <trkpt lat="43.10186" lon="-1.889065">
        <ele>1018.7</ele>
        <time>2018-09-29T08:32:26Z</time>
      </trkpt>
      <trkpt lat="43.10191" lon="-1.8889966666666667">
        <ele>1019.5</ele>
        <time>2018-09-29T08:32:29Z</time>
      </trkpt>
      <trkpt lat="43.10192166666667" lon="-1.888895">
        <ele>1020.9</ele>
        <time>2018-09-29T08:32:37Z</time>
      </trkpt>
      <trkpt lat="43.10185" lon="-1.8888333333333334">
        <ele>1022.0</ele>
        <time>2018-09-29T08:32:42Z</time>
      </trkpt>
      <trkpt lat="43.101776666666666" lon="-1.888795">
        <ele>1023.0</ele>
        <time>2018-09-29T08:32:47Z</time>
      </trkpt>
      <trkpt lat="43.10172" lon="-1.88871">
        <ele>1024.1</ele>
        <time>2018-09-29T08:32:52Z</time>
      </trkpt>
      <trkpt lat="43.10166" lon="-1.8886416666666666">
        <ele>1025.3</ele>
        <time>2018-09-29T08:32:58Z</time>
      </trkpt>
      <trkpt lat="43.10162666666667" lon="-1.8885450000000001">
        <ele>1026.5</ele>
        <time>2018-09-29T08:33:03Z</time>
      </trkpt>
      <trkpt lat="43.101595" lon="-1.88844">
        <ele>1027.6</ele>
        <time>2018-09-29T08:33:09Z</time>
      </trkpt>
      <trkpt lat="43.10156" lon="-1.88834">
        <ele>1028.8</ele>
        <time>2018-09-29T08:33:15Z</time>
      </trkpt>
      <trkpt lat="43.10152333333333" lon="-1.88825">
        <ele>1030.2</ele>
        <time>2018-09-29T08:33:22Z</time>
      </trkpt>
      <trkpt lat="43.10151166666667" lon="-1.888145">
        <ele>1031.2</ele>
        <time>2018-09-29T08:33:27Z</time>
      </trkpt>
      <trkpt lat="43.10146" lon="-1.8880750000000002">
        <ele>1032.4</ele>
        <time>2018-09-29T08:33:33Z</time>
      </trkpt>
      <trkpt lat="43.10142" lon="-1.887985">
        <ele>1033.4</ele>
        <time>2018-09-29T08:33:37Z</time>
      </trkpt>
      <trkpt lat="43.10138" lon="-1.8878916666666665">
        <ele>1034.4</ele>
        <time>2018-09-29T08:33:42Z</time>
      </trkpt>
      <trkpt lat="43.101345" lon="-1.8877950000000001">
        <ele>1035.5</ele>
        <time>2018-09-29T08:33:49Z</time>
      </trkpt>
      <trkpt lat="43.10132" lon="-1.8876816666666667">
        <ele>1036.7</ele>
        <time>2018-09-29T08:33:55Z</time>
      </trkpt>
      <trkpt lat="43.101276666666664" lon="-1.8875816666666667">
        <ele>1037.8</ele>
        <time>2018-09-29T08:34:01Z</time>
      </trkpt>
      <trkpt lat="43.10124" lon="-1.8874833333333334">
        <ele>1038.7</ele>
        <time>2018-09-29T08:34:06Z</time>
      </trkpt>
      <trkpt lat="43.10120666666667" lon="-1.8873833333333334">
        <ele>1039.7</ele>
        <time>2018-09-29T08:34:11Z</time>
      </trkpt>
      <trkpt lat="43.101175" lon="-1.8872916666666666">
        <ele>1040.6</ele>
        <time>2018-09-29T08:34:15Z</time>
      </trkpt>
      <trkpt lat="43.10114166666666" lon="-1.88718">
        <ele>1041.8</ele>
        <time>2018-09-29T08:34:22Z</time>
      </trkpt>
      <trkpt lat="43.10112" lon="-1.887085">
        <ele>1042.8</ele>
        <time>2018-09-29T08:34:27Z</time>
      </trkpt>
      <trkpt lat="43.101095" lon="-1.8869950000000002">
        <ele>1043.7</ele>
        <time>2018-09-29T08:34:32Z</time>
      </trkpt>
      <trkpt lat="43.101085" lon="-1.88689">
        <ele>1044.6</ele>
        <time>2018-09-29T08:34:37Z</time>
      </trkpt>
      <trkpt lat="43.10107" lon="-1.8867716666666667">
        <ele>1045.7</ele>
        <time>2018-09-29T08:34:43Z</time>
      </trkpt>
      <trkpt lat="43.10105" lon="-1.8866716666666665">
        <ele>1046.5</ele>
        <time>2018-09-29T08:34:48Z</time>
      </trkpt>
      <trkpt lat="43.10103" lon="-1.88656">
        <ele>1047.3</ele>
        <time>2018-09-29T08:34:53Z</time>
      </trkpt>
      <trkpt lat="43.10101" lon="-1.88646">
        <ele>1047.9</ele>
        <time>2018-09-29T08:34:57Z</time>
      </trkpt>
      <trkpt lat="43.100985" lon="-1.886345">
        <ele>1048.7</ele>
        <time>2018-09-29T08:35:02Z</time>
      </trkpt>
      <trkpt lat="43.10095666666667" lon="-1.88625">
        <ele>1049.5</ele>
        <time>2018-09-29T08:35:07Z</time>
      </trkpt>
      <trkpt lat="43.10094" lon="-1.8861433333333333">
        <ele>1050.2</ele>
        <time>2018-09-29T08:35:11Z</time>
      </trkpt>
      <trkpt lat="43.100915" lon="-1.8860366666666666">
        <ele>1050.8</ele>
        <time>2018-09-29T08:35:15Z</time>
      </trkpt>
      <trkpt lat="43.10089" lon="-1.88593">
        <ele>1051.4</ele>
        <time>2018-09-29T08:35:19Z</time>
      </trkpt>
      <trkpt lat="43.10087" lon="-1.885805">
        <ele>1052.1</ele>
        <time>2018-09-29T08:35:23Z</time>
      </trkpt>
      <trkpt lat="43.100845" lon="-1.8856933333333332">
        <ele>1052.7</ele>
        <time>2018-09-29T08:35:27Z</time>
      </trkpt>
      <trkpt lat="43.100795" lon="-1.885585">
        <ele>1053.3</ele>
        <time>2018-09-29T08:35:31Z</time>
      </trkpt>
      <trkpt lat="43.100765" lon="-1.8854950000000001">
        <ele>1053.8</ele>
        <time>2018-09-29T08:35:33Z</time>
      </trkpt>
      <trkpt lat="43.10074" lon="-1.8853916666666666">
        <ele>1054.3</ele>
        <time>2018-09-29T08:35:37Z</time>
      </trkpt>
      <trkpt lat="43.100715" lon="-1.8853">
        <ele>1054.8</ele>
        <time>2018-09-29T08:35:39Z</time>
      </trkpt>
      <trkpt lat="43.100676666666665" lon="-1.8851849999999999">
        <ele>1055.4</ele>
        <time>2018-09-29T08:35:44Z</time>
      </trkpt>
      <trkpt lat="43.10065" lon="-1.8850766666666665">
        <ele>1056.3</ele>
        <time>2018-09-29T08:35:49Z</time>
      </trkpt>
      <trkpt lat="43.100625" lon="-1.884975">
        <ele>1057.1</ele>
        <time>2018-09-29T08:35:54Z</time>
      </trkpt>
      <trkpt lat="43.100585" lon="-1.8848883333333333">
        <ele>1058.0</ele>
        <time>2018-09-29T08:35:59Z</time>
      </trkpt>
      <trkpt lat="43.100515" lon="-1.884825">
        <ele>1058.9</ele>
        <time>2018-09-29T08:36:04Z</time>
      </trkpt>
      <trkpt lat="43.100445" lon="-1.88478">
        <ele>1059.8</ele>
        <time>2018-09-29T08:36:09Z</time>
      </trkpt>
      <trkpt lat="43.100385" lon="-1.8846933333333333">
        <ele>1060.9</ele>
        <time>2018-09-29T08:36:15Z</time>
      </trkpt>
      <trkpt lat="43.10032" lon="-1.8846183333333335">
        <ele>1062.0</ele>
        <time>2018-09-29T08:36:21Z</time>
      </trkpt>
      <trkpt lat="43.100275" lon="-1.8845366666666667">
        <ele>1063.2</ele>
        <time>2018-09-29T08:36:27Z</time>
      </trkpt>
      <trkpt lat="43.100245" lon="-1.8844466666666668">
        <ele>1064.1</ele>
        <time>2018-09-29T08:36:32Z</time>
      </trkpt>
      <trkpt lat="43.10024" lon="-1.8843333333333334">
        <ele>1064.7</ele>
        <time>2018-09-29T08:36:35Z</time>
      </trkpt>
      <trkpt lat="43.10025" lon="-1.884185">
        <ele>1068.4</ele>
        <time>2018-09-29T08:36:38Z</time>
      </trkpt>
      <trkpt lat="43.100255" lon="-1.884085">
        <ele>1068.6</ele>
        <time>2018-09-29T08:36:40Z</time>
      </trkpt>
      <trkpt lat="43.10027" lon="-1.8839783333333333">
        <ele>1070.9</ele>
        <time>2018-09-29T08:36:42Z</time>
      </trkpt>
      <trkpt lat="43.10029" lon="-1.8838366666666668">
        <ele>1072.4</ele>
        <time>2018-09-29T08:36:44Z</time>
      </trkpt>
      <trkpt lat="43.100298333333335" lon="-1.88367">
        <ele>1073.5</ele>
        <time>2018-09-29T08:36:46Z</time>
      </trkpt>
      <trkpt lat="43.100285" lon="-1.883505">
        <ele>1074.4</ele>
        <time>2018-09-29T08:36:48Z</time>
      </trkpt>
      <trkpt lat="43.100276666666666" lon="-1.883305">
        <ele>1075.0</ele>
        <time>2018-09-29T08:36:50Z</time>
      </trkpt>
      <trkpt lat="43.10028" lon="-1.883125">
        <ele>1075.6</ele>
        <time>2018-09-29T08:36:52Z</time>
      </trkpt>
      <trkpt lat="43.100305" lon="-1.88297">
        <ele>1076.1</ele>
        <time>2018-09-29T08:36:54Z</time>
      </trkpt>
      <trkpt lat="43.100316666666664" lon="-1.8828">
        <ele>1076.4</ele>
        <time>2018-09-29T08:36:56Z</time>
      </trkpt>
      <trkpt lat="43.100335" lon="-1.8826100000000001">
        <ele>1076.7</ele>
        <time>2018-09-29T08:36:58Z</time>
      </trkpt>
      <trkpt lat="43.100291666666664" lon="-1.88248">
        <ele>1076.9</ele>
        <time>2018-09-29T08:37:00Z</time>
      </trkpt>
      <trkpt lat="43.10022" lon="-1.8823933333333334">
        <ele>1076.9</ele>
        <time>2018-09-29T08:37:03Z</time>
      </trkpt>
      <trkpt lat="43.100195" lon="-1.8822816666666666">
        <ele>1076.9</ele>
        <time>2018-09-29T08:37:06Z</time>
      </trkpt>
      <trkpt lat="43.10011" lon="-1.882255">
        <ele>1077.0</ele>
        <time>2018-09-29T08:37:11Z</time>
      </trkpt>
      <trkpt lat="43.10006666666666" lon="-1.8823500000000002">
        <ele>1077.1</ele>
        <time>2018-09-29T08:37:14Z</time>
      </trkpt>
      <trkpt lat="43.100035" lon="-1.8824466666666666">
        <ele>1077.1</ele>
        <time>2018-09-29T08:37:17Z</time>
      </trkpt>
      <trkpt lat="43.099985" lon="-1.88254">
        <ele>1077.2</ele>
        <time>2018-09-29T08:37:20Z</time>
      </trkpt>
      <trkpt lat="43.099925" lon="-1.882655">
        <ele>1077.3</ele>
        <time>2018-09-29T08:37:23Z</time>
      </trkpt>
      <trkpt lat="43.099855" lon="-1.8827183333333333">
        <ele>1077.4</ele>
        <time>2018-09-29T08:37:26Z</time>
      </trkpt>
      <trkpt lat="43.099795" lon="-1.88278">
        <ele>1077.5</ele>
        <time>2018-09-29T08:37:29Z</time>
      </trkpt>
      <trkpt lat="43.09973" lon="-1.88287">
        <ele>1077.7</ele>
        <time>2018-09-29T08:37:32Z</time>
      </trkpt>
      <trkpt lat="43.09968" lon="-1.882975">
        <ele>1077.7</ele>
        <time>2018-09-29T08:37:35Z</time>
      </trkpt>
      <trkpt lat="43.09961666666667" lon="-1.883065">
        <ele>1077.7</ele>
        <time>2018-09-29T08:37:38Z</time>
      </trkpt>
      <trkpt lat="43.09954166666667" lon="-1.883165">
        <ele>1077.7</ele>
        <time>2018-09-29T08:37:42Z</time>
      </trkpt>
      <trkpt lat="43.09945" lon="-1.883245">
        <ele>1077.3</ele>
        <time>2018-09-29T08:37:45Z</time>
      </trkpt>
      <trkpt lat="43.099356666666665" lon="-1.883295">
        <ele>1077.0</ele>
        <time>2018-09-29T08:37:46Z</time>
      </trkpt>
      <trkpt lat="43.099255" lon="-1.8833366666666667">
        <ele>1076.7</ele>
        <time>2018-09-29T08:37:49Z</time>
      </trkpt>
      <trkpt lat="43.099151666666664" lon="-1.88337">
        <ele>1076.4</ele>
        <time>2018-09-29T08:37:51Z</time>
      </trkpt>
      <trkpt lat="43.09906" lon="-1.883425">
        <ele>1076.0</ele>
        <time>2018-09-29T08:37:53Z</time>
      </trkpt>
      <trkpt lat="43.098976666666665" lon="-1.88347">
        <ele>1075.7</ele>
        <time>2018-09-29T08:37:55Z</time>
      </trkpt>
      <trkpt lat="43.098885" lon="-1.8835116666666667">
        <ele>1075.6</ele>
        <time>2018-09-29T08:37:58Z</time>
      </trkpt>
      <trkpt lat="43.098785" lon="-1.8835899999999999">
        <ele>1075.1</ele>
        <time>2018-09-29T08:38:01Z</time>
      </trkpt>
      <trkpt lat="43.098715" lon="-1.883655">
        <ele>1074.8</ele>
        <time>2018-09-29T08:38:03Z</time>
      </trkpt>
      <trkpt lat="43.098635" lon="-1.8837116666666667">
        <ele>1074.6</ele>
        <time>2018-09-29T08:38:05Z</time>
      </trkpt>
      <trkpt lat="43.098546666666664" lon="-1.88376">
        <ele>1074.3</ele>
        <time>2018-09-29T08:38:07Z</time>
      </trkpt>
      <trkpt lat="43.098455" lon="-1.8838083333333333">
        <ele>1074.1</ele>
        <time>2018-09-29T08:38:09Z</time>
      </trkpt>
      <trkpt lat="43.09836166666667" lon="-1.8838666666666666">
        <ele>1073.8</ele>
        <time>2018-09-29T08:38:11Z</time>
      </trkpt>
      <trkpt lat="43.09826666666667" lon="-1.8839283333333334">
        <ele>1073.6</ele>
        <time>2018-09-29T08:38:13Z</time>
      </trkpt>
      <trkpt lat="43.09817666666667" lon="-1.8839700000000001">
        <ele>1073.4</ele>
        <time>2018-09-29T08:38:15Z</time>
      </trkpt>
      <trkpt lat="43.098075" lon="-1.8839700000000001">
        <ele>1073.2</ele>
        <time>2018-09-29T08:38:17Z</time>
      </trkpt>
      <trkpt lat="43.09797" lon="-1.8839866666666667">
        <ele>1073.0</ele>
        <time>2018-09-29T08:38:19Z</time>
      </trkpt>
      <trkpt lat="43.09786" lon="-1.88401">
        <ele>1072.8</ele>
        <time>2018-09-29T08:38:21Z</time>
      </trkpt>
      <trkpt lat="43.09773166666667" lon="-1.8840050000000002">
        <ele>1072.5</ele>
        <time>2018-09-29T08:38:23Z</time>
      </trkpt>
      <trkpt lat="43.09760166666667" lon="-1.8839866666666667">
        <ele>1072.0</ele>
        <time>2018-09-29T08:38:25Z</time>
      </trkpt>
      <trkpt lat="43.097475" lon="-1.8839866666666667">
        <ele>1071.2</ele>
        <time>2018-09-29T08:38:27Z</time>
      </trkpt>
      <trkpt lat="43.097343333333335" lon="-1.883995">
        <ele>1069.6</ele>
        <time>2018-09-29T08:38:29Z</time>
      </trkpt>
      <trkpt lat="43.097206666666665" lon="-1.8840016666666668">
        <ele>1067.1</ele>
        <time>2018-09-29T08:38:31Z</time>
      </trkpt>
      <trkpt lat="43.09708" lon="-1.884015">
        <ele>1063.6</ele>
        <time>2018-09-29T08:38:33Z</time>
      </trkpt>
      <trkpt lat="43.09695833333333" lon="-1.884035">
        <ele>1059.4</ele>
        <time>2018-09-29T08:38:34Z</time>
      </trkpt>
      <trkpt lat="43.096855" lon="-1.884045">
        <ele>1054.8</ele>
        <time>2018-09-29T08:38:37Z</time>
      </trkpt>
      <trkpt lat="43.096765" lon="-1.884045">
        <ele>1050.0</ele>
        <time>2018-09-29T08:38:39Z</time>
      </trkpt>
      <trkpt lat="43.096685" lon="-1.884045">
        <ele>1047.5</ele>
        <time>2018-09-29T08:38:41Z</time>
      </trkpt>
      <trkpt lat="43.096605" lon="-1.8840599999999998">
        <ele>1046.8</ele>
        <time>2018-09-29T08:38:44Z</time>
      </trkpt>
      <trkpt lat="43.096605" lon="-1.884195">
        <ele>1045.6</ele>
        <time>2018-09-29T08:38:48Z</time>
      </trkpt>
      <trkpt lat="43.096621666666664" lon="-1.884315">
        <ele>1039.5</ele>
        <time>2018-09-29T08:38:50Z</time>
      </trkpt>
      <trkpt lat="43.096645" lon="-1.8844433333333335">
        <ele>1035.3</ele>
        <time>2018-09-29T08:38:52Z</time>
      </trkpt>
      <trkpt lat="43.09668" lon="-1.8845966666666667">
        <ele>1032.4</ele>
        <time>2018-09-29T08:38:54Z</time>
      </trkpt>
      <trkpt lat="43.096735" lon="-1.88476">
        <ele>1030.0</ele>
        <time>2018-09-29T08:38:56Z</time>
      </trkpt>
      <trkpt lat="43.09677666666666" lon="-1.8848500000000001">
        <ele>1028.7</ele>
        <time>2018-09-29T08:38:57Z</time>
      </trkpt>
      <trkpt lat="43.09682" lon="-1.88493">
        <ele>1027.5</ele>
        <time>2018-09-29T08:38:58Z</time>
      </trkpt>
      <trkpt lat="43.096895" lon="-1.8850766666666665">
        <ele>1025.1</ele>
        <time>2018-09-29T08:39:00Z</time>
      </trkpt>
      <trkpt lat="43.096963333333335" lon="-1.8852250000000002">
        <ele>1022.8</ele>
        <time>2018-09-29T08:39:02Z</time>
      </trkpt>
      <trkpt lat="43.09703666666667" lon="-1.88538">
        <ele>1020.7</ele>
        <time>2018-09-29T08:39:04Z</time>
      </trkpt>
      <trkpt lat="43.09711333333333" lon="-1.88554">
        <ele>1018.8</ele>
        <time>2018-09-29T08:39:06Z</time>
      </trkpt>
      <trkpt lat="43.097186666666666" lon="-1.8857133333333334">
        <ele>1017.1</ele>
        <time>2018-09-29T08:39:08Z</time>
      </trkpt>
      <trkpt lat="43.09725" lon="-1.88588">
        <ele>1015.6</ele>
        <time>2018-09-29T08:39:10Z</time>
      </trkpt>
      <trkpt lat="43.097315" lon="-1.8860283333333334">
        <ele>1014.5</ele>
        <time>2018-09-29T08:39:12Z</time>
      </trkpt>
      <trkpt lat="43.09738" lon="-1.886175">
        <ele>1013.3</ele>
        <time>2018-09-29T08:39:14Z</time>
      </trkpt>
      <trkpt lat="43.097431666666665" lon="-1.8863183333333333">
        <ele>1012.0</ele>
        <time>2018-09-29T08:39:16Z</time>
      </trkpt>
      <trkpt lat="43.097476666666665" lon="-1.88645">
        <ele>1010.9</ele>
        <time>2018-09-29T08:39:18Z</time>
      </trkpt>
      <trkpt lat="43.09752" lon="-1.8865766666666666">
        <ele>1010.7</ele>
        <time>2018-09-29T08:39:21Z</time>
      </trkpt>
      <trkpt lat="43.097555" lon="-1.8866466666666666">
        <ele>1010.2</ele>
        <time>2018-09-29T08:39:28Z</time>
      </trkpt>
      <trkpt lat="43.09746" lon="-1.8866200000000002">
        <ele>1009.3</ele>
        <time>2018-09-29T08:39:34Z</time>
      </trkpt>
      <trkpt lat="43.09738" lon="-1.8865866666666666">
        <ele>1008.9</ele>
        <time>2018-09-29T08:39:36Z</time>
      </trkpt>
      <trkpt lat="43.09730166666667" lon="-1.886545">
        <ele>1008.6</ele>
        <time>2018-09-29T08:39:38Z</time>
      </trkpt>
      <trkpt lat="43.097231666666666" lon="-1.8865066666666666">
        <ele>1008.2</ele>
        <time>2018-09-29T08:39:40Z</time>
      </trkpt>
      <trkpt lat="43.097165" lon="-1.88646">
        <ele>1007.7</ele>
        <time>2018-09-29T08:39:43Z</time>
      </trkpt>
      <trkpt lat="43.09708" lon="-1.8864016666666665">
        <ele>1007.1</ele>
        <time>2018-09-29T08:39:46Z</time>
      </trkpt>
      <trkpt lat="43.097015" lon="-1.886355">
        <ele>1006.4</ele>
        <time>2018-09-29T08:39:49Z</time>
      </trkpt>
      <trkpt lat="43.096945" lon="-1.88629">
        <ele>1005.6</ele>
        <time>2018-09-29T08:39:52Z</time>
      </trkpt>
      <trkpt lat="43.096871666666665" lon="-1.886215">
        <ele>1004.7</ele>
        <time>2018-09-29T08:39:55Z</time>
      </trkpt>
      <trkpt lat="43.096795" lon="-1.88618">
        <ele>1003.9</ele>
        <time>2018-09-29T08:39:57Z</time>
      </trkpt>
      <trkpt lat="43.09672166666667" lon="-1.8861433333333333">
        <ele>1003.2</ele>
        <time>2018-09-29T08:40:00Z</time>
      </trkpt>
      <trkpt lat="43.096645" lon="-1.886095">
        <ele>1002.2</ele>
        <time>2018-09-29T08:40:03Z</time>
      </trkpt>
      <trkpt lat="43.09656" lon="-1.8860466666666666">
        <ele>1001.2</ele>
        <time>2018-09-29T08:40:06Z</time>
      </trkpt>
      <trkpt lat="43.096465" lon="-1.8859933333333334">
        <ele>1000.2</ele>
        <time>2018-09-29T08:40:09Z</time>
      </trkpt>
      <trkpt lat="43.096396666666664" lon="-1.8859583333333334">
        <ele>999.6</ele>
        <time>2018-09-29T08:40:11Z</time>
      </trkpt>
      <trkpt lat="43.09632166666667" lon="-1.885895">
        <ele>998.6</ele>
        <time>2018-09-29T08:40:14Z</time>
      </trkpt>
      <trkpt lat="43.09625" lon="-1.88585">
        <ele>997.6</ele>
        <time>2018-09-29T08:40:17Z</time>
      </trkpt>
      <trkpt lat="43.09616166666667" lon="-1.88582">
        <ele>996.0</ele>
        <time>2018-09-29T08:40:22Z</time>
      </trkpt>
      <trkpt lat="43.09607166666667" lon="-1.8857750000000002">
        <ele>994.8</ele>
        <time>2018-09-29T08:40:26Z</time>
      </trkpt>
      <trkpt lat="43.096005" lon="-1.8857216666666667">
        <ele>993.9</ele>
        <time>2018-09-29T08:40:29Z</time>
      </trkpt>
      <trkpt lat="43.095945" lon="-1.8856916666666668">
        <ele>991.9</ele>
        <time>2018-09-29T08:40:36Z</time>
      </trkpt>
      <trkpt lat="43.09589" lon="-1.885625">
        <ele>990.2</ele>
        <time>2018-09-29T08:40:42Z</time>
      </trkpt>
      <trkpt lat="43.09583" lon="-1.88555">
        <ele>989.1</ele>
        <time>2018-09-29T08:40:46Z</time>
      </trkpt>
      <trkpt lat="43.095765" lon="-1.8854966666666666">
        <ele>988.3</ele>
        <time>2018-09-29T08:40:49Z</time>
      </trkpt>
      <trkpt lat="43.09569" lon="-1.8854066666666667">
        <ele>987.5</ele>
        <time>2018-09-29T08:40:52Z</time>
      </trkpt>
      <trkpt lat="43.095621666666666" lon="-1.885305">
        <ele>986.7</ele>
        <time>2018-09-29T08:40:55Z</time>
      </trkpt>
      <trkpt lat="43.095555" lon="-1.88522">
        <ele>986.0</ele>
        <time>2018-09-29T08:40:58Z</time>
      </trkpt>
      <trkpt lat="43.0955" lon="-1.88513">
        <ele>985.2</ele>
        <time>2018-09-29T08:41:01Z</time>
      </trkpt>
      <trkpt lat="43.095455" lon="-1.8850500000000001">
        <ele>984.5</ele>
        <time>2018-09-29T08:41:04Z</time>
      </trkpt>
      <trkpt lat="43.095395" lon="-1.884975">
        <ele>983.8</ele>
        <time>2018-09-29T08:41:07Z</time>
      </trkpt>
      <trkpt lat="43.09533666666667" lon="-1.8848766666666665">
        <ele>983.2</ele>
        <time>2018-09-29T08:41:10Z</time>
      </trkpt>
      <trkpt lat="43.095275" lon="-1.884805">
        <ele>982.5</ele>
        <time>2018-09-29T08:41:13Z</time>
      </trkpt>
      <trkpt lat="43.0952" lon="-1.884735">
        <ele>981.7</ele>
        <time>2018-09-29T08:41:17Z</time>
      </trkpt>
      <trkpt lat="43.09514" lon="-1.88466">
        <ele>981.0</ele>
        <time>2018-09-29T08:41:20Z</time>
      </trkpt>
      <trkpt lat="43.095085" lon="-1.88459">
        <ele>980.4</ele>
        <time>2018-09-29T08:41:23Z</time>
      </trkpt>
      <trkpt lat="43.09503" lon="-1.884485">
        <ele>979.8</ele>
        <time>2018-09-29T08:41:26Z</time>
      </trkpt>
      <trkpt lat="43.094985" lon="-1.884395">
        <ele>978.9</ele>
        <time>2018-09-29T08:41:30Z</time>
      </trkpt>
      <trkpt lat="43.094965" lon="-1.88437">
        <ele>977.8</ele>
        <time>2018-09-29T08:41:37Z</time>
      </trkpt>
      <trkpt lat="43.09488666666667" lon="-1.884285">
        <ele>976.6</ele>
        <time>2018-09-29T08:41:42Z</time>
      </trkpt>
      <trkpt lat="43.094835" lon="-1.8842333333333334">
        <ele>976.0</ele>
        <time>2018-09-29T08:41:49Z</time>
      </trkpt>
      <trkpt lat="43.09476" lon="-1.8841533333333333">
        <ele>974.3</ele>
        <time>2018-09-29T08:41:58Z</time>
      </trkpt>
      <trkpt lat="43.09469" lon="-1.8840616666666667">
        <ele>973.5</ele>
        <time>2018-09-29T08:42:01Z</time>
      </trkpt>
      <trkpt lat="43.094635" lon="-1.8839983333333334">
        <ele>973.1</ele>
        <time>2018-09-29T08:42:03Z</time>
      </trkpt>
      <trkpt lat="43.094575" lon="-1.883935">
        <ele>972.6</ele>
        <time>2018-09-29T08:42:05Z</time>
      </trkpt>
      <trkpt lat="43.094525" lon="-1.8838650000000001">
        <ele>972.2</ele>
        <time>2018-09-29T08:42:07Z</time>
      </trkpt>
      <trkpt lat="43.094465" lon="-1.8837966666666666">
        <ele>971.5</ele>
        <time>2018-09-29T08:42:10Z</time>
      </trkpt>
      <trkpt lat="43.094388333333335" lon="-1.8837700000000002">
        <ele>970.5</ele>
        <time>2018-09-29T08:42:15Z</time>
      </trkpt>
      <trkpt lat="43.09431333333333" lon="-1.883765">
        <ele>969.7</ele>
        <time>2018-09-29T08:42:19Z</time>
      </trkpt>
      <trkpt lat="43.094233333333335" lon="-1.88375">
        <ele>969.0</ele>
        <time>2018-09-29T08:42:23Z</time>
      </trkpt>
      <trkpt lat="43.09415666666666" lon="-1.8837">
        <ele>968.1</ele>
        <time>2018-09-29T08:42:28Z</time>
      </trkpt>
      <trkpt lat="43.094085" lon="-1.8836266666666668">
        <ele>967.3</ele>
        <time>2018-09-29T08:42:32Z</time>
      </trkpt>
      <trkpt lat="43.094001666666664" lon="-1.8836">
        <ele>965.0</ele>
        <time>2018-09-29T08:42:39Z</time>
      </trkpt>
      <trkpt lat="43.09393" lon="-1.8836216666666665">
        <ele>962.2</ele>
        <time>2018-09-29T08:42:45Z</time>
      </trkpt>
      <trkpt lat="43.093865" lon="-1.88366">
        <ele>960.3</ele>
        <time>2018-09-29T08:42:49Z</time>
      </trkpt>
      <trkpt lat="43.09378666666667" lon="-1.88361">
        <ele>957.8</ele>
        <time>2018-09-29T08:42:54Z</time>
      </trkpt>
      <trkpt lat="43.093705" lon="-1.88355">
        <ele>955.5</ele>
        <time>2018-09-29T08:42:58Z</time>
      </trkpt>
      <trkpt lat="43.093615" lon="-1.883545">
        <ele>953.9</ele>
        <time>2018-09-29T08:43:01Z</time>
      </trkpt>
      <trkpt lat="43.093515" lon="-1.8835516666666667">
        <ele>951.9</ele>
        <time>2018-09-29T08:43:05Z</time>
      </trkpt>
      <trkpt lat="43.09341166666667" lon="-1.8835266666666666">
        <ele>950.5</ele>
        <time>2018-09-29T08:43:08Z</time>
      </trkpt>
      <trkpt lat="43.09331666666667" lon="-1.8834833333333334">
        <ele>949.5</ele>
        <time>2018-09-29T08:43:10Z</time>
      </trkpt>
      <trkpt lat="43.0932" lon="-1.88342">
        <ele>948.3</ele>
        <time>2018-09-29T08:43:12Z</time>
      </trkpt>
      <trkpt lat="43.09313" lon="-1.8833783333333334">
        <ele>941.0</ele>
        <time>2018-09-29T08:43:13Z</time>
      </trkpt>
      <trkpt lat="43.093" lon="-1.88333">
        <ele>929.2</ele>
        <time>2018-09-29T08:43:15Z</time>
      </trkpt>
      <trkpt lat="43.09290166666667" lon="-1.8833199999999999">
        <ele>928.1</ele>
        <time>2018-09-29T08:43:17Z</time>
      </trkpt>
      <trkpt lat="43.092815" lon="-1.8833116666666667">
        <ele>922.5</ele>
        <time>2018-09-29T08:43:19Z</time>
      </trkpt>
      <trkpt lat="43.09271" lon="-1.8832900000000001">
        <ele>915.3</ele>
        <time>2018-09-29T08:43:21Z</time>
      </trkpt>
      <trkpt lat="43.09260166666667" lon="-1.8832483333333334">
        <ele>911.1</ele>
        <time>2018-09-29T08:43:23Z</time>
      </trkpt>
      <trkpt lat="43.092495" lon="-1.8831950000000002">
        <ele>907.8</ele>
        <time>2018-09-29T08:43:25Z</time>
      </trkpt>
      <trkpt lat="43.09239" lon="-1.883165">
        <ele>904.6</ele>
        <time>2018-09-29T08:43:27Z</time>
      </trkpt>
      <trkpt lat="43.0923" lon="-1.88313">
        <ele>901.1</ele>
        <time>2018-09-29T08:43:29Z</time>
      </trkpt>
      <trkpt lat="43.092215" lon="-1.8830883333333333">
        <ele>896.4</ele>
        <time>2018-09-29T08:43:31Z</time>
      </trkpt>
      <trkpt lat="43.09212333333333" lon="-1.883035">
        <ele>892.2</ele>
        <time>2018-09-29T08:43:33Z</time>
      </trkpt>
      <trkpt lat="43.092038333333335" lon="-1.882975">
        <ele>887.6</ele>
        <time>2018-09-29T08:43:35Z</time>
      </trkpt>
      <trkpt lat="43.091955" lon="-1.8829033333333334">
        <ele>883.6</ele>
        <time>2018-09-29T08:43:37Z</time>
      </trkpt>
      <trkpt lat="43.09185" lon="-1.88287">
        <ele>880.4</ele>
        <time>2018-09-29T08:43:39Z</time>
      </trkpt>
      <trkpt lat="43.091755" lon="-1.8828233333333333">
        <ele>877.6</ele>
        <time>2018-09-29T08:43:41Z</time>
      </trkpt>
      <trkpt lat="43.091656666666665" lon="-1.8827500000000001">
        <ele>874.4</ele>
        <time>2018-09-29T08:43:43Z</time>
      </trkpt>
      <trkpt lat="43.09157" lon="-1.8827216666666666">
        <ele>874.1</ele>
        <time>2018-09-29T08:43:45Z</time>
      </trkpt>
      <trkpt lat="43.09149" lon="-1.882735">
        <ele>872.6</ele>
        <time>2018-09-29T08:43:52Z</time>
      </trkpt>
      <trkpt lat="43.09147" lon="-1.8827866666666666">
        <ele>870.9</ele>
        <time>2018-09-29T08:43:59Z</time>
      </trkpt>
      <trkpt lat="43.091395" lon="-1.882775">
        <ele>869.3</ele>
        <time>2018-09-29T08:44:05Z</time>
      </trkpt>
      <trkpt lat="43.091385" lon="-1.8827500000000001">
        <ele>868.3</ele>
        <time>2018-09-29T08:44:12Z</time>
      </trkpt>
      <trkpt lat="43.09131" lon="-1.882715">
        <ele>866.8</ele>
        <time>2018-09-29T08:44:17Z</time>
      </trkpt>
      <trkpt lat="43.091235" lon="-1.88269">
        <ele>865.3</ele>
        <time>2018-09-29T08:44:22Z</time>
      </trkpt>
      <trkpt lat="43.091165" lon="-1.882655">
        <ele>863.9</ele>
        <time>2018-09-29T08:44:27Z</time>
      </trkpt>
      <trkpt lat="43.091096666666665" lon="-1.8826">
        <ele>862.6</ele>
        <time>2018-09-29T08:44:32Z</time>
      </trkpt>
      <trkpt lat="43.09103" lon="-1.8825566666666667">
        <ele>861.7</ele>
        <time>2018-09-29T08:44:36Z</time>
      </trkpt>
      <trkpt lat="43.090945" lon="-1.88253">
        <ele>860.5</ele>
        <time>2018-09-29T08:44:41Z</time>
      </trkpt>
      <trkpt lat="43.09088" lon="-1.882495">
        <ele>859.7</ele>
        <time>2018-09-29T08:44:45Z</time>
      </trkpt>
      <trkpt lat="43.090805" lon="-1.88247">
        <ele>858.7</ele>
        <time>2018-09-29T08:44:50Z</time>
      </trkpt>
      <trkpt lat="43.09072" lon="-1.8824299999999998">
        <ele>857.8</ele>
        <time>2018-09-29T08:44:55Z</time>
      </trkpt>
      <trkpt lat="43.09064" lon="-1.882415">
        <ele>857.1</ele>
        <time>2018-09-29T08:45:00Z</time>
      </trkpt>
      <trkpt lat="43.090565" lon="-1.8824166666666666">
        <ele>856.5</ele>
        <time>2018-09-29T08:45:04Z</time>
      </trkpt>
      <trkpt lat="43.09047" lon="-1.8824">
        <ele>855.9</ele>
        <time>2018-09-29T08:45:09Z</time>
      </trkpt>
      <trkpt lat="43.090395" lon="-1.8824">
        <ele>855.5</ele>
        <time>2018-09-29T08:45:12Z</time>
      </trkpt>
      <trkpt lat="43.09031" lon="-1.8824">
        <ele>855.1</ele>
        <time>2018-09-29T08:45:16Z</time>
      </trkpt>
      <trkpt lat="43.090223333333334" lon="-1.8823866666666667">
        <ele>854.8</ele>
        <time>2018-09-29T08:45:19Z</time>
      </trkpt>
      <trkpt lat="43.090145" lon="-1.8823783333333335">
        <ele>854.5</ele>
        <time>2018-09-29T08:45:22Z</time>
      </trkpt>
      <trkpt lat="43.09005" lon="-1.88239">
        <ele>854.1</ele>
        <time>2018-09-29T08:45:26Z</time>
      </trkpt>
      <trkpt lat="43.089955" lon="-1.8824166666666666">
        <ele>853.9</ele>
        <time>2018-09-29T08:45:29Z</time>
      </trkpt>
      <trkpt lat="43.089885" lon="-1.8824566666666667">
        <ele>852.9</ele>
        <time>2018-09-29T08:45:31Z</time>
      </trkpt>
      <trkpt lat="43.089795" lon="-1.882505">
        <ele>852.7</ele>
        <time>2018-09-29T08:45:34Z</time>
      </trkpt>
      <trkpt lat="43.08972" lon="-1.8825500000000002">
        <ele>852.5</ele>
        <time>2018-09-29T08:45:37Z</time>
      </trkpt>
      <trkpt lat="43.089635" lon="-1.88259">
        <ele>852.2</ele>
        <time>2018-09-29T08:45:41Z</time>
      </trkpt>
      <trkpt lat="43.089565" lon="-1.8826450000000001">
        <ele>852.0</ele>
        <time>2018-09-29T08:45:44Z</time>
      </trkpt>
      <trkpt lat="43.089486666666666" lon="-1.8826516666666666">
        <ele>851.8</ele>
        <time>2018-09-29T08:45:47Z</time>
      </trkpt>
      <trkpt lat="43.089405" lon="-1.882675">
        <ele>851.2</ele>
        <time>2018-09-29T08:45:57Z</time>
      </trkpt>
      <trkpt lat="43.089308333333335" lon="-1.88269">
        <ele>850.9</ele>
        <time>2018-09-29T08:46:00Z</time>
      </trkpt>
      <trkpt lat="43.08921" lon="-1.882715">
        <ele>850.6</ele>
        <time>2018-09-29T08:46:03Z</time>
      </trkpt>
      <trkpt lat="43.08913" lon="-1.8827333333333334">
        <ele>850.4</ele>
        <time>2018-09-29T08:46:06Z</time>
      </trkpt>
      <trkpt lat="43.08904" lon="-1.8827433333333334">
        <ele>850.0</ele>
        <time>2018-09-29T08:46:10Z</time>
      </trkpt>
      <trkpt lat="43.08895166666667" lon="-1.882735">
        <ele>849.7</ele>
        <time>2018-09-29T08:46:14Z</time>
      </trkpt>
      <trkpt lat="43.088856666666665" lon="-1.882735">
        <ele>849.2</ele>
        <time>2018-09-29T08:46:19Z</time>
      </trkpt>
      <trkpt lat="43.088766666666665" lon="-1.8827383333333334">
        <ele>848.8</ele>
        <time>2018-09-29T08:46:22Z</time>
      </trkpt>
      <trkpt lat="43.088681666666666" lon="-1.8827266666666667">
        <ele>848.6</ele>
        <time>2018-09-29T08:46:24Z</time>
      </trkpt>
      <trkpt lat="43.08861" lon="-1.8827166666666666">
        <ele>848.4</ele>
        <time>2018-09-29T08:46:26Z</time>
      </trkpt>
      <trkpt lat="43.088525" lon="-1.882715">
        <ele>848.2</ele>
        <time>2018-09-29T08:46:30Z</time>
      </trkpt>
      <trkpt lat="43.088435" lon="-1.882695">
        <ele>848.0</ele>
        <time>2018-09-29T08:46:33Z</time>
      </trkpt>
      <trkpt lat="43.08835" lon="-1.8827183333333333">
        <ele>847.9</ele>
        <time>2018-09-29T08:46:35Z</time>
      </trkpt>
      <trkpt lat="43.088285" lon="-1.88278">
        <ele>847.8</ele>
        <time>2018-09-29T08:46:37Z</time>
      </trkpt>
      <trkpt lat="43.088225" lon="-1.88285">
        <ele>847.8</ele>
        <time>2018-09-29T08:46:39Z</time>
      </trkpt>
      <trkpt lat="43.08815" lon="-1.882885">
        <ele>847.7</ele>
        <time>2018-09-29T08:46:42Z</time>
      </trkpt>
      <trkpt lat="43.08806" lon="-1.8828049999999998">
        <ele>846.3</ele>
        <time>2018-09-29T08:46:46Z</time>
      </trkpt>
      <trkpt lat="43.08801" lon="-1.8827">
        <ele>845.8</ele>
        <time>2018-09-29T08:46:48Z</time>
      </trkpt>
      <trkpt lat="43.088005" lon="-1.882575">
        <ele>845.2</ele>
        <time>2018-09-29T08:46:50Z</time>
      </trkpt>
      <trkpt lat="43.088" lon="-1.8824566666666667">
        <ele>841.3</ele>
        <time>2018-09-29T08:46:52Z</time>
      </trkpt>
      <trkpt lat="43.08795666666666" lon="-1.8823616666666667">
        <ele>840.3</ele>
        <time>2018-09-29T08:46:57Z</time>
      </trkpt>
      <trkpt lat="43.08788" lon="-1.8824616666666665">
        <ele>838.0</ele>
        <time>2018-09-29T08:47:00Z</time>
      </trkpt>
      <trkpt lat="43.087835" lon="-1.8826016666666665">
        <ele>831.9</ele>
        <time>2018-09-29T08:47:02Z</time>
      </trkpt>
      <trkpt lat="43.087795" lon="-1.8827250000000002">
        <ele>826.8</ele>
        <time>2018-09-29T08:47:04Z</time>
      </trkpt>
      <trkpt lat="43.087795" lon="-1.88285">
        <ele>824.1</ele>
        <time>2018-09-29T08:47:07Z</time>
      </trkpt>
      <trkpt lat="43.087725" lon="-1.8828033333333334">
        <ele>822.5</ele>
        <time>2018-09-29T08:47:13Z</time>
      </trkpt>
      <trkpt lat="43.087635" lon="-1.88276">
        <ele>818.8</ele>
        <time>2018-09-29T08:47:15Z</time>
      </trkpt>
      <trkpt lat="43.08757" lon="-1.882685">
        <ele>815.8</ele>
        <time>2018-09-29T08:47:16Z</time>
      </trkpt>
      <trkpt lat="43.08749" lon="-1.882615">
        <ele>813.5</ele>
        <time>2018-09-29T08:47:17Z</time>
      </trkpt>
      <trkpt lat="43.087406666666666" lon="-1.8825416666666666">
        <ele>810.1</ele>
        <time>2018-09-29T08:47:18Z</time>
      </trkpt>
      <trkpt lat="43.087335" lon="-1.8824666666666667">
        <ele>806.2</ele>
        <time>2018-09-29T08:47:19Z</time>
      </trkpt>
      <trkpt lat="43.087255" lon="-1.8824049999999999">
        <ele>801.4</ele>
        <time>2018-09-29T08:47:20Z</time>
      </trkpt>
      <trkpt lat="43.08718" lon="-1.882355">
        <ele>797.5</ele>
        <time>2018-09-29T08:47:21Z</time>
      </trkpt>
      <trkpt lat="43.087105" lon="-1.882295">
        <ele>793.7</ele>
        <time>2018-09-29T08:47:23Z</time>
      </trkpt>
      <trkpt lat="43.087041666666664" lon="-1.8822316666666667">
        <ele>790.2</ele>
        <time>2018-09-29T08:47:24Z</time>
      </trkpt>
      <trkpt lat="43.086985" lon="-1.88216">
        <ele>787.1</ele>
        <time>2018-09-29T08:47:25Z</time>
      </trkpt>
      <trkpt lat="43.086945" lon="-1.882075">
        <ele>784.1</ele>
        <time>2018-09-29T08:47:26Z</time>
      </trkpt>
      <trkpt lat="43.086886666666665" lon="-1.8819949999999999">
        <ele>781.4</ele>
        <time>2018-09-29T08:47:27Z</time>
      </trkpt>
      <trkpt lat="43.08683" lon="-1.8819066666666666">
        <ele>778.7</ele>
        <time>2018-09-29T08:47:28Z</time>
      </trkpt>
      <trkpt lat="43.086775" lon="-1.881805">
        <ele>776.2</ele>
        <time>2018-09-29T08:47:29Z</time>
      </trkpt>
      <trkpt lat="43.08673" lon="-1.88171">
        <ele>773.8</ele>
        <time>2018-09-29T08:47:30Z</time>
      </trkpt>
      <trkpt lat="43.086695" lon="-1.881615">
        <ele>771.6</ele>
        <time>2018-09-29T08:47:31Z</time>
      </trkpt>
      <trkpt lat="43.0866" lon="-1.8814633333333333">
        <ele>767.8</ele>
        <time>2018-09-29T08:47:33Z</time>
      </trkpt>
      <trkpt lat="43.08654666666666" lon="-1.8813883333333332">
        <ele>766.1</ele>
        <time>2018-09-29T08:47:34Z</time>
      </trkpt>
      <trkpt lat="43.08645" lon="-1.881255">
        <ele>763.4</ele>
        <time>2018-09-29T08:47:36Z</time>
      </trkpt>
      <trkpt lat="43.08633666666667" lon="-1.8811300000000002">
        <ele>761.3</ele>
        <time>2018-09-29T08:47:38Z</time>
      </trkpt>
      <trkpt lat="43.08623" lon="-1.8810183333333335">
        <ele>759.5</ele>
        <time>2018-09-29T08:47:40Z</time>
      </trkpt>
      <trkpt lat="43.086115" lon="-1.8809200000000001">
        <ele>758.1</ele>
        <time>2018-09-29T08:47:42Z</time>
      </trkpt>
      <trkpt lat="43.08599" lon="-1.8808316666666667">
        <ele>757.1</ele>
        <time>2018-09-29T08:47:44Z</time>
      </trkpt>
      <trkpt lat="43.085865" lon="-1.8807316666666667">
        <ele>756.2</ele>
        <time>2018-09-29T08:47:46Z</time>
      </trkpt>
      <trkpt lat="43.0858" lon="-1.8806566666666666">
        <ele>755.7</ele>
        <time>2018-09-29T08:47:47Z</time>
      </trkpt>
      <trkpt lat="43.085746666666665" lon="-1.8805766666666668">
        <ele>755.2</ele>
        <time>2018-09-29T08:47:48Z</time>
      </trkpt>
      <trkpt lat="43.08567" lon="-1.8804400000000001">
        <ele>754.2</ele>
        <time>2018-09-29T08:47:50Z</time>
      </trkpt>
      <trkpt lat="43.085605" lon="-1.8803016666666665">
        <ele>753.2</ele>
        <time>2018-09-29T08:47:52Z</time>
      </trkpt>
      <trkpt lat="43.08555" lon="-1.88018">
        <ele>752.3</ele>
        <time>2018-09-29T08:47:54Z</time>
      </trkpt>
      <trkpt lat="43.085465" lon="-1.88009">
        <ele>751.6</ele>
        <time>2018-09-29T08:47:56Z</time>
      </trkpt>
      <trkpt lat="43.08539" lon="-1.8800050000000001">
        <ele>751.0</ele>
        <time>2018-09-29T08:47:58Z</time>
      </trkpt>
      <trkpt lat="43.08533" lon="-1.87992">
        <ele>750.8</ele>
        <time>2018-09-29T08:48:00Z</time>
      </trkpt>
      <trkpt lat="43.085285" lon="-1.87982">
        <ele>750.4</ele>
        <time>2018-09-29T08:48:02Z</time>
      </trkpt>
      <trkpt lat="43.08522" lon="-1.879745">
        <ele>750.4</ele>
        <time>2018-09-29T08:48:04Z</time>
      </trkpt>
      <trkpt lat="43.085135" lon="-1.8796716666666666">
        <ele>750.0</ele>
        <time>2018-09-29T08:48:06Z</time>
      </trkpt>
      <trkpt lat="43.08503" lon="-1.87961">
        <ele>749.8</ele>
        <time>2018-09-29T08:48:08Z</time>
      </trkpt>
      <trkpt lat="43.08495" lon="-1.87955">
        <ele>749.8</ele>
        <time>2018-09-29T08:48:10Z</time>
      </trkpt>
      <trkpt lat="43.084895" lon="-1.879475">
        <ele>749.7</ele>
        <time>2018-09-29T08:48:12Z</time>
      </trkpt>
      <trkpt lat="43.084855" lon="-1.879365">
        <ele>749.7</ele>
        <time>2018-09-29T08:48:14Z</time>
      </trkpt>
      <trkpt lat="43.08478" lon="-1.87926">
        <ele>749.6</ele>
        <time>2018-09-29T08:48:17Z</time>
      </trkpt>
      <trkpt lat="43.08468666666667" lon="-1.8791600000000002">
        <ele>749.2</ele>
        <time>2018-09-29T08:48:19Z</time>
      </trkpt>
      <trkpt lat="43.0846" lon="-1.8790583333333333">
        <ele>749.0</ele>
        <time>2018-09-29T08:48:21Z</time>
      </trkpt>
      <trkpt lat="43.084495" lon="-1.87897">
        <ele>748.7</ele>
        <time>2018-09-29T08:48:23Z</time>
      </trkpt>
      <trkpt lat="43.084435" lon="-1.8788716666666667">
        <ele>748.6</ele>
        <time>2018-09-29T08:48:25Z</time>
      </trkpt>
      <trkpt lat="43.08439" lon="-1.8787699999999998">
        <ele>748.6</ele>
        <time>2018-09-29T08:48:29Z</time>
      </trkpt>
      <trkpt lat="43.08433" lon="-1.8787449999999999">
        <ele>748.4</ele>
        <time>2018-09-29T08:48:48Z</time>
      </trkpt>
      <trkpt lat="43.08427" lon="-1.878765">
        <ele>748.2</ele>
        <time>2018-09-29T08:48:55Z</time>
      </trkpt>
      <trkpt lat="43.084255" lon="-1.8786283333333333">
        <ele>744.2</ele>
        <time>2018-09-29T09:03:11Z</time>
      </trkpt>
      <trkpt lat="43.084215" lon="-1.8785500000000002">
        <ele>744.3</ele>
        <time>2018-09-29T09:03:18Z</time>
      </trkpt>
      <trkpt lat="43.08414" lon="-1.878455">
        <ele>744.4</ele>
        <time>2018-09-29T09:03:30Z</time>
      </trkpt>
      <trkpt lat="43.08407" lon="-1.8783583333333334">
        <ele>744.5</ele>
        <time>2018-09-29T09:03:34Z</time>
      </trkpt>
      <trkpt lat="43.084025" lon="-1.87826">
        <ele>744.5</ele>
        <time>2018-09-29T09:03:37Z</time>
      </trkpt>
      <trkpt lat="43.08399" lon="-1.8781750000000001">
        <ele>744.5</ele>
        <time>2018-09-29T09:03:39Z</time>
      </trkpt>
      <trkpt lat="43.083955" lon="-1.8780883333333334">
        <ele>744.5</ele>
        <time>2018-09-29T09:03:41Z</time>
      </trkpt>
      <trkpt lat="43.0839" lon="-1.8779733333333333">
        <ele>744.6</ele>
        <time>2018-09-29T09:03:44Z</time>
      </trkpt>
      <trkpt lat="43.08385666666667" lon="-1.8778816666666667">
        <ele>744.6</ele>
        <time>2018-09-29T09:03:46Z</time>
      </trkpt>
      <trkpt lat="43.083816666666664" lon="-1.8777883333333332">
        <ele>744.6</ele>
        <time>2018-09-29T09:03:48Z</time>
      </trkpt>
      <trkpt lat="43.083776666666665" lon="-1.8776950000000001">
        <ele>744.6</ele>
        <time>2018-09-29T09:03:50Z</time>
      </trkpt>
      <trkpt lat="43.08374166666667" lon="-1.8775816666666665">
        <ele>744.6</ele>
        <time>2018-09-29T09:03:52Z</time>
      </trkpt>
      <trkpt lat="43.0837" lon="-1.8774899999999999">
        <ele>744.6</ele>
        <time>2018-09-29T09:03:54Z</time>
      </trkpt>
      <trkpt lat="43.083665" lon="-1.8774">
        <ele>744.7</ele>
        <time>2018-09-29T09:03:56Z</time>
      </trkpt>
      <trkpt lat="43.083623333333335" lon="-1.87731">
        <ele>744.7</ele>
        <time>2018-09-29T09:03:58Z</time>
      </trkpt>
      <trkpt lat="43.08359166666666" lon="-1.877225">
        <ele>744.7</ele>
        <time>2018-09-29T09:04:00Z</time>
      </trkpt>
      <trkpt lat="43.083565" lon="-1.877125">
        <ele>744.7</ele>
        <time>2018-09-29T09:04:02Z</time>
      </trkpt>
      <trkpt lat="43.083545" lon="-1.877025">
        <ele>744.7</ele>
        <time>2018-09-29T09:04:04Z</time>
      </trkpt>
      <trkpt lat="43.08354" lon="-1.8768850000000001">
        <ele>744.8</ele>
        <time>2018-09-29T09:04:07Z</time>
      </trkpt>
      <trkpt lat="43.083531666666666" lon="-1.876755">
        <ele>744.8</ele>
        <time>2018-09-29T09:04:10Z</time>
      </trkpt>
      <trkpt lat="43.08353" lon="-1.8766166666666666">
        <ele>744.8</ele>
        <time>2018-09-29T09:04:13Z</time>
      </trkpt>
      <trkpt lat="43.083515" lon="-1.8764816666666668">
        <ele>744.9</ele>
        <time>2018-09-29T09:04:16Z</time>
      </trkpt>
      <trkpt lat="43.08350166666666" lon="-1.8763616666666665">
        <ele>744.9</ele>
        <time>2018-09-29T09:04:19Z</time>
      </trkpt>
      <trkpt lat="43.083481666666664" lon="-1.87624">
        <ele>744.9</ele>
        <time>2018-09-29T09:04:22Z</time>
      </trkpt>
      <trkpt lat="43.083465" lon="-1.876125">
        <ele>745.0</ele>
        <time>2018-09-29T09:04:25Z</time>
      </trkpt>
      <trkpt lat="43.08345" lon="-1.8759966666666668">
        <ele>745.0</ele>
        <time>2018-09-29T09:04:28Z</time>
      </trkpt>
      <trkpt lat="43.083435" lon="-1.87587">
        <ele>745.1</ele>
        <time>2018-09-29T09:04:31Z</time>
      </trkpt>
      <trkpt lat="43.08342" lon="-1.8757383333333333">
        <ele>745.1</ele>
        <time>2018-09-29T09:04:34Z</time>
      </trkpt>
      <trkpt lat="43.08341333333333" lon="-1.87561">
        <ele>745.1</ele>
        <time>2018-09-29T09:04:37Z</time>
      </trkpt>
      <trkpt lat="43.083396666666665" lon="-1.875475">
        <ele>745.2</ele>
        <time>2018-09-29T09:04:39Z</time>
      </trkpt>
      <trkpt lat="43.083385" lon="-1.8753733333333333">
        <ele>745.2</ele>
        <time>2018-09-29T09:04:41Z</time>
      </trkpt>
      <trkpt lat="43.08336" lon="-1.8752716666666667">
        <ele>745.2</ele>
        <time>2018-09-29T09:04:43Z</time>
      </trkpt>
      <trkpt lat="43.083335" lon="-1.875175">
        <ele>745.3</ele>
        <time>2018-09-29T09:04:45Z</time>
      </trkpt>
      <trkpt lat="43.08331" lon="-1.875085">
        <ele>745.3</ele>
        <time>2018-09-29T09:04:47Z</time>
      </trkpt>
      <trkpt lat="43.08328" lon="-1.8749850000000001">
        <ele>745.3</ele>
        <time>2018-09-29T09:04:50Z</time>
      </trkpt>
      <trkpt lat="43.08327" lon="-1.87488">
        <ele>745.3</ele>
        <time>2018-09-29T09:04:51Z</time>
      </trkpt>
      <trkpt lat="43.083255" lon="-1.8747466666666668">
        <ele>745.4</ele>
        <time>2018-09-29T09:04:54Z</time>
      </trkpt>
      <trkpt lat="43.08324" lon="-1.874615">
        <ele>745.4</ele>
        <time>2018-09-29T09:04:57Z</time>
      </trkpt>
      <trkpt lat="43.08321" lon="-1.874495">
        <ele>745.5</ele>
        <time>2018-09-29T09:05:01Z</time>
      </trkpt>
      <trkpt lat="43.08316" lon="-1.87437">
        <ele>745.5</ele>
        <time>2018-09-29T09:05:03Z</time>
      </trkpt>
      <trkpt lat="43.08309666666667" lon="-1.874255">
        <ele>745.6</ele>
        <time>2018-09-29T09:05:07Z</time>
      </trkpt>
      <trkpt lat="43.083045" lon="-1.874185">
        <ele>745.7</ele>
        <time>2018-09-29T09:05:09Z</time>
      </trkpt>
      <trkpt lat="43.08298666666666" lon="-1.87409">
        <ele>745.8</ele>
        <time>2018-09-29T09:05:13Z</time>
      </trkpt>
      <trkpt lat="43.08293" lon="-1.874">
        <ele>745.9</ele>
        <time>2018-09-29T09:05:17Z</time>
      </trkpt>
      <trkpt lat="43.082885" lon="-1.87391">
        <ele>746.1</ele>
        <time>2018-09-29T09:05:21Z</time>
      </trkpt>
      <trkpt lat="43.082845" lon="-1.873825">
        <ele>746.2</ele>
        <time>2018-09-29T09:05:25Z</time>
      </trkpt>
      <trkpt lat="43.082791666666665" lon="-1.87372">
        <ele>746.3</ele>
        <time>2018-09-29T09:05:28Z</time>
      </trkpt>
      <trkpt lat="43.082755" lon="-1.87362">
        <ele>746.4</ele>
        <time>2018-09-29T09:05:31Z</time>
      </trkpt>
      <trkpt lat="43.08270666666667" lon="-1.8735300000000001">
        <ele>746.6</ele>
        <time>2018-09-29T09:05:34Z</time>
      </trkpt>
      <trkpt lat="43.08264666666667" lon="-1.8734416666666667">
        <ele>746.7</ele>
        <time>2018-09-29T09:05:37Z</time>
      </trkpt>
      <trkpt lat="43.082575" lon="-1.873365">
        <ele>747.0</ele>
        <time>2018-09-29T09:05:41Z</time>
      </trkpt>
      <trkpt lat="43.08252" lon="-1.8732950000000002">
        <ele>747.1</ele>
        <time>2018-09-29T09:05:44Z</time>
      </trkpt>
      <trkpt lat="43.082455" lon="-1.8732066666666667">
        <ele>747.4</ele>
        <time>2018-09-29T09:05:48Z</time>
      </trkpt>
      <trkpt lat="43.0824" lon="-1.8731416666666667">
        <ele>747.5</ele>
        <time>2018-09-29T09:05:51Z</time>
      </trkpt>
      <trkpt lat="43.082341666666665" lon="-1.8730516666666666">
        <ele>747.7</ele>
        <time>2018-09-29T09:05:55Z</time>
      </trkpt>
      <trkpt lat="43.082285" lon="-1.872965">
        <ele>748.0</ele>
        <time>2018-09-29T09:05:59Z</time>
      </trkpt>
      <trkpt lat="43.08223" lon="-1.8728633333333333">
        <ele>748.2</ele>
        <time>2018-09-29T09:06:03Z</time>
      </trkpt>
      <trkpt lat="43.08219166666667" lon="-1.8727716666666667">
        <ele>748.4</ele>
        <time>2018-09-29T09:06:07Z</time>
      </trkpt>
      <trkpt lat="43.082135" lon="-1.872695">
        <ele>748.7</ele>
        <time>2018-09-29T09:06:11Z</time>
      </trkpt>
      <trkpt lat="43.08207" lon="-1.872625">
        <ele>749.0</ele>
        <time>2018-09-29T09:06:15Z</time>
      </trkpt>
      <trkpt lat="43.082011666666666" lon="-1.87257">
        <ele>749.2</ele>
        <time>2018-09-29T09:06:18Z</time>
      </trkpt>
      <trkpt lat="43.08199" lon="-1.872465">
        <ele>749.5</ele>
        <time>2018-09-29T09:06:22Z</time>
      </trkpt>
      <trkpt lat="43.081941666666665" lon="-1.872385">
        <ele>749.8</ele>
        <time>2018-09-29T09:06:26Z</time>
      </trkpt>
      <trkpt lat="43.081885" lon="-1.8723166666666666">
        <ele>750.1</ele>
        <time>2018-09-29T09:06:30Z</time>
      </trkpt>
      <trkpt lat="43.08184" lon="-1.8722166666666666">
        <ele>750.4</ele>
        <time>2018-09-29T09:06:35Z</time>
      </trkpt>
      <trkpt lat="43.0818" lon="-1.872125">
        <ele>750.7</ele>
        <time>2018-09-29T09:06:39Z</time>
      </trkpt>
      <trkpt lat="43.081755" lon="-1.87202">
        <ele>751.1</ele>
        <time>2018-09-29T09:06:44Z</time>
      </trkpt>
      <trkpt lat="43.08171" lon="-1.87193">
        <ele>751.5</ele>
        <time>2018-09-29T09:06:49Z</time>
      </trkpt>
      <trkpt lat="43.081665" lon="-1.871845">
        <ele>752.0</ele>
        <time>2018-09-29T09:06:54Z</time>
      </trkpt>
      <trkpt lat="43.08162" lon="-1.871765">
        <ele>752.3</ele>
        <time>2018-09-29T09:06:58Z</time>
      </trkpt>
      <trkpt lat="43.08159" lon="-1.871675">
        <ele>752.7</ele>
        <time>2018-09-29T09:07:02Z</time>
      </trkpt>
      <trkpt lat="43.08155" lon="-1.871565">
        <ele>753.2</ele>
        <time>2018-09-29T09:07:07Z</time>
      </trkpt>
      <trkpt lat="43.08151" lon="-1.87147">
        <ele>753.6</ele>
        <time>2018-09-29T09:07:11Z</time>
      </trkpt>
      <trkpt lat="43.081475" lon="-1.8713766666666667">
        <ele>754.0</ele>
        <time>2018-09-29T09:07:15Z</time>
      </trkpt>
      <trkpt lat="43.081435" lon="-1.8713">
        <ele>754.3</ele>
        <time>2018-09-29T09:07:18Z</time>
      </trkpt>
      <trkpt lat="43.081381666666665" lon="-1.871205">
        <ele>754.7</ele>
        <time>2018-09-29T09:07:22Z</time>
      </trkpt>
      <trkpt lat="43.08135" lon="-1.8711083333333334">
        <ele>755.1</ele>
        <time>2018-09-29T09:07:26Z</time>
      </trkpt>
      <trkpt lat="43.08132" lon="-1.8710033333333334">
        <ele>755.5</ele>
        <time>2018-09-29T09:07:30Z</time>
      </trkpt>
      <trkpt lat="43.081285" lon="-1.870915">
        <ele>755.9</ele>
        <time>2018-09-29T09:07:34Z</time>
      </trkpt>
      <trkpt lat="43.08124" lon="-1.8708116666666665">
        <ele>756.4</ele>
        <time>2018-09-29T09:07:39Z</time>
      </trkpt>
      <trkpt lat="43.081201666666665" lon="-1.8707183333333333">
        <ele>756.8</ele>
        <time>2018-09-29T09:07:43Z</time>
      </trkpt>
      <trkpt lat="43.081165" lon="-1.8706216666666666">
        <ele>757.3</ele>
        <time>2018-09-29T09:07:48Z</time>
      </trkpt>
      <trkpt lat="43.081131666666664" lon="-1.8705316666666667">
        <ele>757.7</ele>
        <time>2018-09-29T09:07:52Z</time>
      </trkpt>
      <trkpt lat="43.08111" lon="-1.87042">
        <ele>758.2</ele>
        <time>2018-09-29T09:07:57Z</time>
      </trkpt>
      <trkpt lat="43.0811" lon="-1.870315">
        <ele>758.6</ele>
        <time>2018-09-29T09:08:01Z</time>
      </trkpt>
      <trkpt lat="43.081075" lon="-1.8701933333333334">
        <ele>759.1</ele>
        <time>2018-09-29T09:08:06Z</time>
      </trkpt>
      <trkpt lat="43.081055" lon="-1.8700766666666666">
        <ele>759.6</ele>
        <time>2018-09-29T09:08:10Z</time>
      </trkpt>
      <trkpt lat="43.08103166666667" lon="-1.86995">
        <ele>760.0</ele>
        <time>2018-09-29T09:08:14Z</time>
      </trkpt>
      <trkpt lat="43.081026666666666" lon="-1.86984">
        <ele>760.4</ele>
        <time>2018-09-29T09:08:18Z</time>
      </trkpt>
      <trkpt lat="43.081026666666666" lon="-1.8697316666666666">
        <ele>760.9</ele>
        <time>2018-09-29T09:08:22Z</time>
      </trkpt>
      <trkpt lat="43.081015" lon="-1.8696316666666668">
        <ele>761.3</ele>
        <time>2018-09-29T09:08:26Z</time>
      </trkpt>
      <trkpt lat="43.08101166666667" lon="-1.869515">
        <ele>761.6</ele>
        <time>2018-09-29T09:08:30Z</time>
      </trkpt>
      <trkpt lat="43.081025" lon="-1.8693833333333334">
        <ele>762.1</ele>
        <time>2018-09-29T09:08:34Z</time>
      </trkpt>
      <trkpt lat="43.081035" lon="-1.869265">
        <ele>762.5</ele>
        <time>2018-09-29T09:08:38Z</time>
      </trkpt>
      <trkpt lat="43.081" lon="-1.8691650000000002">
        <ele>762.9</ele>
        <time>2018-09-29T09:08:42Z</time>
      </trkpt>
      <trkpt lat="43.080955" lon="-1.86906">
        <ele>763.3</ele>
        <time>2018-09-29T09:08:46Z</time>
      </trkpt>
      <trkpt lat="43.08090833333333" lon="-1.86895">
        <ele>763.8</ele>
        <time>2018-09-29T09:08:50Z</time>
      </trkpt>
      <trkpt lat="43.080885" lon="-1.8688416666666665">
        <ele>764.2</ele>
        <time>2018-09-29T09:08:54Z</time>
      </trkpt>
      <trkpt lat="43.08085" lon="-1.8687516666666668">
        <ele>764.5</ele>
        <time>2018-09-29T09:08:57Z</time>
      </trkpt>
      <trkpt lat="43.08081" lon="-1.8686516666666666">
        <ele>765.1</ele>
        <time>2018-09-29T09:09:03Z</time>
      </trkpt>
      <trkpt lat="43.080745" lon="-1.8685733333333334">
        <ele>765.5</ele>
        <time>2018-09-29T09:09:08Z</time>
      </trkpt>
      <trkpt lat="43.080705" lon="-1.86849">
        <ele>766.0</ele>
        <time>2018-09-29T09:09:12Z</time>
      </trkpt>
      <trkpt lat="43.08068" lon="-1.8683800000000002">
        <ele>766.6</ele>
        <time>2018-09-29T09:09:18Z</time>
      </trkpt>
      <trkpt lat="43.08066" lon="-1.8682766666666666">
        <ele>767.1</ele>
        <time>2018-09-29T09:09:23Z</time>
      </trkpt>
      <trkpt lat="43.08064" lon="-1.8681566666666667">
        <ele>767.6</ele>
        <time>2018-09-29T09:09:28Z</time>
      </trkpt>
      <trkpt lat="43.08063" lon="-1.8680333333333334">
        <ele>767.9</ele>
        <time>2018-09-29T09:09:31Z</time>
      </trkpt>
      <trkpt lat="43.08061333333333" lon="-1.867915">
        <ele>768.3</ele>
        <time>2018-09-29T09:09:35Z</time>
      </trkpt>
      <trkpt lat="43.080595" lon="-1.8678050000000002">
        <ele>768.9</ele>
        <time>2018-09-29T09:09:41Z</time>
      </trkpt>
      <trkpt lat="43.08057" lon="-1.8677">
        <ele>769.4</ele>
        <time>2018-09-29T09:09:47Z</time>
      </trkpt>
      <trkpt lat="43.08055" lon="-1.867605">
        <ele>769.8</ele>
        <time>2018-09-29T09:09:51Z</time>
      </trkpt>
      <trkpt lat="43.08051666666667" lon="-1.86751">
        <ele>770.5</ele>
        <time>2018-09-29T09:09:57Z</time>
      </trkpt>
      <trkpt lat="43.080466666666666" lon="-1.8673966666666666">
        <ele>771.0</ele>
        <time>2018-09-29T09:10:01Z</time>
      </trkpt>
      <trkpt lat="43.080436666666664" lon="-1.8672966666666666">
        <ele>771.4</ele>
        <time>2018-09-29T09:10:05Z</time>
      </trkpt>
      <trkpt lat="43.08039" lon="-1.8672">
        <ele>772.0</ele>
        <time>2018-09-29T09:10:10Z</time>
      </trkpt>
      <trkpt lat="43.08034" lon="-1.8671166666666665">
        <ele>772.6</ele>
        <time>2018-09-29T09:10:14Z</time>
      </trkpt>
      <trkpt lat="43.080286666666666" lon="-1.8670383333333334">
        <ele>773.4</ele>
        <time>2018-09-29T09:10:21Z</time>
      </trkpt>
      <trkpt lat="43.080245" lon="-1.8669383333333334">
        <ele>774.2</ele>
        <time>2018-09-29T09:10:27Z</time>
      </trkpt>
      <trkpt lat="43.08020166666667" lon="-1.8668399999999998">
        <ele>775.3</ele>
        <time>2018-09-29T09:10:33Z</time>
      </trkpt>
      <trkpt lat="43.080155" lon="-1.8667616666666667">
        <ele>776.3</ele>
        <time>2018-09-29T09:10:38Z</time>
      </trkpt>
      <trkpt lat="43.0801" lon="-1.866695">
        <ele>777.5</ele>
        <time>2018-09-29T09:10:44Z</time>
      </trkpt>
      <trkpt lat="43.08009" lon="-1.86656">
        <ele>778.3</ele>
        <time>2018-09-29T09:10:48Z</time>
      </trkpt>
      <trkpt lat="43.08013166666667" lon="-1.86646">
        <ele>778.8</ele>
        <time>2018-09-29T09:10:51Z</time>
      </trkpt>
      <trkpt lat="43.080175" lon="-1.86634">
        <ele>779.2</ele>
        <time>2018-09-29T09:10:54Z</time>
      </trkpt>
      <trkpt lat="43.08018666666667" lon="-1.8661949999999998">
        <ele>779.5</ele>
        <time>2018-09-29T09:10:56Z</time>
      </trkpt>
      <trkpt lat="43.08018666666667" lon="-1.86609">
        <ele>779.7</ele>
        <time>2018-09-29T09:10:58Z</time>
      </trkpt>
      <trkpt lat="43.080205" lon="-1.865985">
        <ele>780.0</ele>
        <time>2018-09-29T09:11:01Z</time>
      </trkpt>
      <trkpt lat="43.080215" lon="-1.8658666666666668">
        <ele>780.3</ele>
        <time>2018-09-29T09:11:05Z</time>
      </trkpt>
      <trkpt lat="43.080236666666664" lon="-1.8657233333333334">
        <ele>780.5</ele>
        <time>2018-09-29T09:11:08Z</time>
      </trkpt>
      <trkpt lat="43.08027" lon="-1.8656166666666665">
        <ele>780.7</ele>
        <time>2018-09-29T09:11:10Z</time>
      </trkpt>
      <trkpt lat="43.080295" lon="-1.8654899999999999">
        <ele>781.0</ele>
        <time>2018-09-29T09:11:13Z</time>
      </trkpt>
      <trkpt lat="43.080301666666664" lon="-1.86536">
        <ele>781.2</ele>
        <time>2018-09-29T09:11:16Z</time>
      </trkpt>
      <trkpt lat="43.08034166666667" lon="-1.865195">
        <ele>781.3</ele>
        <time>2018-09-29T09:11:19Z</time>
      </trkpt>
      <trkpt lat="43.080373333333334" lon="-1.865105">
        <ele>781.4</ele>
        <time>2018-09-29T09:11:21Z</time>
      </trkpt>
      <trkpt lat="43.080395" lon="-1.8649900000000001">
        <ele>781.6</ele>
        <time>2018-09-29T09:11:24Z</time>
      </trkpt>
      <trkpt lat="43.08041" lon="-1.8648683333333334">
        <ele>781.8</ele>
        <time>2018-09-29T09:11:27Z</time>
      </trkpt>
      <trkpt lat="43.08043" lon="-1.86475">
        <ele>782.1</ele>
        <time>2018-09-29T09:11:30Z</time>
      </trkpt>
      <trkpt lat="43.08049" lon="-1.864585">
        <ele>782.3</ele>
        <time>2018-09-29T09:11:32Z</time>
      </trkpt>
      <trkpt lat="43.080545" lon="-1.86448">
        <ele>782.5</ele>
        <time>2018-09-29T09:11:34Z</time>
      </trkpt>
      <trkpt lat="43.08060666666667" lon="-1.8643566666666667">
        <ele>783.0</ele>
        <time>2018-09-29T09:11:38Z</time>
      </trkpt>
      <trkpt lat="43.080635" lon="-1.864235">
        <ele>783.2</ele>
        <time>2018-09-29T09:11:40Z</time>
      </trkpt>
      <trkpt lat="43.08065" lon="-1.8641366666666666">
        <ele>783.5</ele>
        <time>2018-09-29T09:11:43Z</time>
      </trkpt>
      <trkpt lat="43.08065166666667" lon="-1.86401">
        <ele>784.5</ele>
        <time>2018-09-29T09:11:45Z</time>
      </trkpt>
      <trkpt lat="43.080668333333335" lon="-1.86385">
        <ele>785.2</ele>
        <time>2018-09-29T09:11:47Z</time>
      </trkpt>
      <trkpt lat="43.08071" lon="-1.863745">
        <ele>785.3</ele>
        <time>2018-09-29T09:11:49Z</time>
      </trkpt>
      <trkpt lat="43.080753333333334" lon="-1.863645">
        <ele>785.3</ele>
        <time>2018-09-29T09:11:51Z</time>
      </trkpt>
      <trkpt lat="43.08078" lon="-1.8635000000000002">
        <ele>785.4</ele>
        <time>2018-09-29T09:11:54Z</time>
      </trkpt>
      <trkpt lat="43.08078" lon="-1.86339">
        <ele>785.4</ele>
        <time>2018-09-29T09:11:57Z</time>
      </trkpt>
      <trkpt lat="43.080795" lon="-1.863295">
        <ele>785.3</ele>
        <time>2018-09-29T09:11:59Z</time>
      </trkpt>
      <trkpt lat="43.080835" lon="-1.86315">
        <ele>784.9</ele>
        <time>2018-09-29T09:12:02Z</time>
      </trkpt>
      <trkpt lat="43.080891666666666" lon="-1.863045">
        <ele>784.6</ele>
        <time>2018-09-29T09:12:04Z</time>
      </trkpt>
      <trkpt lat="43.08093" lon="-1.86294">
        <ele>784.3</ele>
        <time>2018-09-29T09:12:06Z</time>
      </trkpt>
      <trkpt lat="43.080945" lon="-1.862835">
        <ele>784.0</ele>
        <time>2018-09-29T09:12:08Z</time>
      </trkpt>
      <trkpt lat="43.081005" lon="-1.862705">
        <ele>783.7</ele>
        <time>2018-09-29T09:12:11Z</time>
      </trkpt>
      <trkpt lat="43.081035" lon="-1.862615">
        <ele>783.4</ele>
        <time>2018-09-29T09:12:13Z</time>
      </trkpt>
      <trkpt lat="43.081055" lon="-1.86249">
        <ele>782.9</ele>
        <time>2018-09-29T09:12:15Z</time>
      </trkpt>
      <trkpt lat="43.08107" lon="-1.8623750000000001">
        <ele>782.8</ele>
        <time>2018-09-29T09:12:17Z</time>
      </trkpt>
      <trkpt lat="43.08107" lon="-1.86224">
        <ele>782.4</ele>
        <time>2018-09-29T09:12:20Z</time>
      </trkpt>
      <trkpt lat="43.08108" lon="-1.86213">
        <ele>781.7</ele>
        <time>2018-09-29T09:12:22Z</time>
      </trkpt>
      <trkpt lat="43.081105" lon="-1.8620283333333334">
        <ele>781.3</ele>
        <time>2018-09-29T09:12:24Z</time>
      </trkpt>
      <trkpt lat="43.081145" lon="-1.861895">
        <ele>780.6</ele>
        <time>2018-09-29T09:12:27Z</time>
      </trkpt>
      <trkpt lat="43.08121666666667" lon="-1.861805">
        <ele>779.8</ele>
        <time>2018-09-29T09:12:29Z</time>
      </trkpt>
      <trkpt lat="43.08128166666667" lon="-1.8617333333333335">
        <ele>779.8</ele>
        <time>2018-09-29T09:12:31Z</time>
      </trkpt>
      <trkpt lat="43.081335" lon="-1.8616633333333334">
        <ele>779.0</ele>
        <time>2018-09-29T09:12:33Z</time>
      </trkpt>
      <trkpt lat="43.081395" lon="-1.8615849999999998">
        <ele>777.7</ele>
        <time>2018-09-29T09:12:35Z</time>
      </trkpt>
      <trkpt lat="43.08148" lon="-1.8615566666666665">
        <ele>777.0</ele>
        <time>2018-09-29T09:12:37Z</time>
      </trkpt>
      <trkpt lat="43.081555" lon="-1.8614666666666668">
        <ele>776.0</ele>
        <time>2018-09-29T09:12:40Z</time>
      </trkpt>
      <trkpt lat="43.08164" lon="-1.8614350000000002">
        <ele>775.7</ele>
        <time>2018-09-29T09:12:43Z</time>
      </trkpt>
      <trkpt lat="43.081635" lon="-1.8613300000000002">
        <ele>775.4</ele>
        <time>2018-09-29T09:12:47Z</time>
      </trkpt>
      <trkpt lat="43.081575" lon="-1.8612950000000001">
        <ele>774.7</ele>
        <time>2018-09-29T09:12:54Z</time>
      </trkpt>
      <trkpt lat="43.081495" lon="-1.861325">
        <ele>773.5</ele>
        <time>2018-09-29T09:13:01Z</time>
      </trkpt>
      <trkpt lat="43.081415" lon="-1.8613716666666666">
        <ele>772.8</ele>
        <time>2018-09-29T09:13:05Z</time>
      </trkpt>
      <trkpt lat="43.08133" lon="-1.861425">
        <ele>771.9</ele>
        <time>2018-09-29T09:13:10Z</time>
      </trkpt>
      <trkpt lat="43.08126" lon="-1.8615016666666668">
        <ele>771.3</ele>
        <time>2018-09-29T09:13:14Z</time>
      </trkpt>
      <trkpt lat="43.081201666666665" lon="-1.861575">
        <ele>770.7</ele>
        <time>2018-09-29T09:13:18Z</time>
      </trkpt>
      <trkpt lat="43.081145" lon="-1.861655">
        <ele>770.2</ele>
        <time>2018-09-29T09:13:22Z</time>
      </trkpt>
      <trkpt lat="43.0811" lon="-1.8617316666666666">
        <ele>769.8</ele>
        <time>2018-09-29T09:13:25Z</time>
      </trkpt>
      <trkpt lat="43.08104" lon="-1.86181">
        <ele>769.4</ele>
        <time>2018-09-29T09:13:29Z</time>
      </trkpt>
      <trkpt lat="43.080985" lon="-1.86189">
        <ele>769.1</ele>
        <time>2018-09-29T09:13:32Z</time>
      </trkpt>
      <trkpt lat="43.08092" lon="-1.86198">
        <ele>768.8</ele>
        <time>2018-09-29T09:13:35Z</time>
      </trkpt>
      <trkpt lat="43.080855" lon="-1.8620649999999999">
        <ele>768.5</ele>
        <time>2018-09-29T09:13:38Z</time>
      </trkpt>
      <trkpt lat="43.08079" lon="-1.862155">
        <ele>768.2</ele>
        <time>2018-09-29T09:13:41Z</time>
      </trkpt>
      <trkpt lat="43.08074" lon="-1.8622266666666667">
        <ele>767.9</ele>
        <time>2018-09-29T09:13:44Z</time>
      </trkpt>
      <trkpt lat="43.08068" lon="-1.8623316666666665">
        <ele>767.7</ele>
        <time>2018-09-29T09:13:47Z</time>
      </trkpt>
      <trkpt lat="43.08063166666667" lon="-1.862435">
        <ele>767.4</ele>
        <time>2018-09-29T09:13:50Z</time>
      </trkpt>
      <trkpt lat="43.080595" lon="-1.8625683333333334">
        <ele>767.2</ele>
        <time>2018-09-29T09:13:53Z</time>
      </trkpt>
      <trkpt lat="43.080555" lon="-1.8626800000000001">
        <ele>767.0</ele>
        <time>2018-09-29T09:13:56Z</time>
      </trkpt>
      <trkpt lat="43.080485" lon="-1.862735">
        <ele>766.3</ele>
        <time>2018-09-29T09:13:58Z</time>
      </trkpt>
      <trkpt lat="43.080395" lon="-1.8627183333333335">
        <ele>766.2</ele>
        <time>2018-09-29T09:14:00Z</time>
      </trkpt>
      <trkpt lat="43.080326666666664" lon="-1.8626316666666667">
        <ele>766.0</ele>
        <time>2018-09-29T09:14:03Z</time>
      </trkpt>
      <trkpt lat="43.08028" lon="-1.86253">
        <ele>765.9</ele>
        <time>2018-09-29T09:14:06Z</time>
      </trkpt>
      <trkpt lat="43.080255" lon="-1.86242">
        <ele>765.8</ele>
        <time>2018-09-29T09:14:09Z</time>
      </trkpt>
      <trkpt lat="43.080215" lon="-1.86233">
        <ele>765.7</ele>
        <time>2018-09-29T09:14:12Z</time>
      </trkpt>
      <trkpt lat="43.080175" lon="-1.86223">
        <ele>765.5</ele>
        <time>2018-09-29T09:14:16Z</time>
      </trkpt>
      <trkpt lat="43.08014" lon="-1.8621366666666668">
        <ele>765.4</ele>
        <time>2018-09-29T09:14:20Z</time>
      </trkpt>
      <trkpt lat="43.080105" lon="-1.8620450000000002">
        <ele>765.4</ele>
        <time>2018-09-29T09:14:23Z</time>
      </trkpt>
      <trkpt lat="43.08007166666667" lon="-1.861955">
        <ele>765.3</ele>
        <time>2018-09-29T09:14:26Z</time>
      </trkpt>
      <trkpt lat="43.080075" lon="-1.8618366666666666">
        <ele>765.3</ele>
        <time>2018-09-29T09:14:29Z</time>
      </trkpt>
      <trkpt lat="43.080075" lon="-1.8617333333333335">
        <ele>765.2</ele>
        <time>2018-09-29T09:14:33Z</time>
      </trkpt>
      <trkpt lat="43.080085" lon="-1.86163">
        <ele>765.2</ele>
        <time>2018-09-29T09:14:36Z</time>
      </trkpt>
      <trkpt lat="43.0801" lon="-1.8615216666666665">
        <ele>765.2</ele>
        <time>2018-09-29T09:14:39Z</time>
      </trkpt>
      <trkpt lat="43.0801" lon="-1.861425">
        <ele>765.2</ele>
        <time>2018-09-29T09:14:43Z</time>
      </trkpt>
      <trkpt lat="43.080045" lon="-1.86132">
        <ele>765.2</ele>
        <time>2018-09-29T09:14:47Z</time>
      </trkpt>
      <trkpt lat="43.079975" lon="-1.8612549999999999">
        <ele>765.2</ele>
        <time>2018-09-29T09:14:50Z</time>
      </trkpt>
      <trkpt lat="43.079905" lon="-1.8611916666666666">
        <ele>765.2</ele>
        <time>2018-09-29T09:14:54Z</time>
      </trkpt>
      <trkpt lat="43.079825" lon="-1.861135">
        <ele>765.2</ele>
        <time>2018-09-29T09:14:57Z</time>
      </trkpt>
      <trkpt lat="43.07976166666667" lon="-1.861065">
        <ele>765.2</ele>
        <time>2018-09-29T09:15:00Z</time>
      </trkpt>
      <trkpt lat="43.07971666666667" lon="-1.86098">
        <ele>765.2</ele>
        <time>2018-09-29T09:15:03Z</time>
      </trkpt>
      <trkpt lat="43.0797" lon="-1.860865">
        <ele>765.2</ele>
        <time>2018-09-29T09:15:07Z</time>
      </trkpt>
      <trkpt lat="43.07971" lon="-1.8607433333333332">
        <ele>765.3</ele>
        <time>2018-09-29T09:15:10Z</time>
      </trkpt>
      <trkpt lat="43.07968" lon="-1.86063">
        <ele>765.4</ele>
        <time>2018-09-29T09:15:14Z</time>
      </trkpt>
      <trkpt lat="43.079645" lon="-1.860525">
        <ele>765.6</ele>
        <time>2018-09-29T09:15:19Z</time>
      </trkpt>
      <trkpt lat="43.07959" lon="-1.860445">
        <ele>765.8</ele>
        <time>2018-09-29T09:15:23Z</time>
      </trkpt>
      <trkpt lat="43.079515" lon="-1.8603983333333334">
        <ele>766.1</ele>
        <time>2018-09-29T09:15:28Z</time>
      </trkpt>
      <trkpt lat="43.079435" lon="-1.860355">
        <ele>766.4</ele>
        <time>2018-09-29T09:15:33Z</time>
      </trkpt>
      <trkpt lat="43.07936" lon="-1.860285">
        <ele>766.7</ele>
        <time>2018-09-29T09:15:37Z</time>
      </trkpt>
      <trkpt lat="43.07931166666667" lon="-1.86018">
        <ele>767.0</ele>
        <time>2018-09-29T09:15:41Z</time>
      </trkpt>
      <trkpt lat="43.0793" lon="-1.860085">
        <ele>767.2</ele>
        <time>2018-09-29T09:15:44Z</time>
      </trkpt>
      <trkpt lat="43.07926" lon="-1.859975">
        <ele>767.6</ele>
        <time>2018-09-29T09:15:48Z</time>
      </trkpt>
      <trkpt lat="43.079233333333335" lon="-1.85988">
        <ele>767.9</ele>
        <time>2018-09-29T09:15:52Z</time>
      </trkpt>
      <trkpt lat="43.0792" lon="-1.8597666666666668">
        <ele>768.4</ele>
        <time>2018-09-29T09:15:57Z</time>
      </trkpt>
      <trkpt lat="43.07917" lon="-1.8596599999999999">
        <ele>768.8</ele>
        <time>2018-09-29T09:16:01Z</time>
      </trkpt>
      <trkpt lat="43.07914" lon="-1.859555">
        <ele>769.3</ele>
        <time>2018-09-29T09:16:05Z</time>
      </trkpt>
      <trkpt lat="43.079115" lon="-1.859435">
        <ele>769.8</ele>
        <time>2018-09-29T09:16:09Z</time>
      </trkpt>
      <trkpt lat="43.07909333333333" lon="-1.859335">
        <ele>770.2</ele>
        <time>2018-09-29T09:16:12Z</time>
      </trkpt>
      <trkpt lat="43.07906666666667" lon="-1.8592233333333334">
        <ele>770.7</ele>
        <time>2018-09-29T09:16:16Z</time>
      </trkpt>
      <trkpt lat="43.07905" lon="-1.859115">
        <ele>771.3</ele>
        <time>2018-09-29T09:16:20Z</time>
      </trkpt>
      <trkpt lat="43.079055" lon="-1.8590066666666667">
        <ele>771.8</ele>
        <time>2018-09-29T09:16:23Z</time>
      </trkpt>
      <trkpt lat="43.079055" lon="-1.858905">
        <ele>772.3</ele>
        <time>2018-09-29T09:16:26Z</time>
      </trkpt>
      <trkpt lat="43.079065" lon="-1.8587950000000002">
        <ele>773.0</ele>
        <time>2018-09-29T09:16:30Z</time>
      </trkpt>
      <trkpt lat="43.07907" lon="-1.8586866666666668">
        <ele>773.6</ele>
        <time>2018-09-29T09:16:34Z</time>
      </trkpt>
      <trkpt lat="43.079078333333335" lon="-1.8585866666666666">
        <ele>774.3</ele>
        <time>2018-09-29T09:16:38Z</time>
      </trkpt>
      <trkpt lat="43.079078333333335" lon="-1.8584716666666665">
        <ele>775.0</ele>
        <time>2018-09-29T09:16:42Z</time>
      </trkpt>
      <trkpt lat="43.079076666666666" lon="-1.8583666666666667">
        <ele>775.6</ele>
        <time>2018-09-29T09:16:46Z</time>
      </trkpt>
      <trkpt lat="43.079065" lon="-1.8582483333333335">
        <ele>776.3</ele>
        <time>2018-09-29T09:16:50Z</time>
      </trkpt>
      <trkpt lat="43.079055" lon="-1.85813">
        <ele>777.0</ele>
        <time>2018-09-29T09:16:54Z</time>
      </trkpt>
      <trkpt lat="43.079035" lon="-1.8580266666666667">
        <ele>777.7</ele>
        <time>2018-09-29T09:16:58Z</time>
      </trkpt>
      <trkpt lat="43.07904" lon="-1.85792">
        <ele>778.4</ele>
        <time>2018-09-29T09:17:02Z</time>
      </trkpt>
      <trkpt lat="43.079035" lon="-1.857815">
        <ele>779.1</ele>
        <time>2018-09-29T09:17:06Z</time>
      </trkpt>
      <trkpt lat="43.07904" lon="-1.857715">
        <ele>779.8</ele>
        <time>2018-09-29T09:17:10Z</time>
      </trkpt>
      <trkpt lat="43.079045" lon="-1.8576116666666667">
        <ele>780.4</ele>
        <time>2018-09-29T09:17:14Z</time>
      </trkpt>
      <trkpt lat="43.079055" lon="-1.8575">
        <ele>781.1</ele>
        <time>2018-09-29T09:17:18Z</time>
      </trkpt>
      <trkpt lat="43.07906666666667" lon="-1.857395">
        <ele>781.7</ele>
        <time>2018-09-29T09:17:22Z</time>
      </trkpt>
      <trkpt lat="43.07907" lon="-1.8572899999999999">
        <ele>782.3</ele>
        <time>2018-09-29T09:17:26Z</time>
      </trkpt>
      <trkpt lat="43.07906666666667" lon="-1.8571816666666667">
        <ele>782.9</ele>
        <time>2018-09-29T09:17:30Z</time>
      </trkpt>
      <trkpt lat="43.079065" lon="-1.8570716666666667">
        <ele>783.5</ele>
        <time>2018-09-29T09:17:34Z</time>
      </trkpt>
      <trkpt lat="43.07907" lon="-1.8569650000000002">
        <ele>784.2</ele>
        <time>2018-09-29T09:17:38Z</time>
      </trkpt>
      <trkpt lat="43.07907" lon="-1.85686">
        <ele>784.9</ele>
        <time>2018-09-29T09:17:43Z</time>
      </trkpt>
      <trkpt lat="43.07906" lon="-1.8567383333333334">
        <ele>785.8</ele>
        <time>2018-09-29T09:17:49Z</time>
      </trkpt>
      <trkpt lat="43.07904" lon="-1.8566366666666667">
        <ele>786.4</ele>
        <time>2018-09-29T09:17:53Z</time>
      </trkpt>
      <trkpt lat="43.078995" lon="-1.8565466666666666">
        <ele>787.0</ele>
        <time>2018-09-29T09:17:57Z</time>
      </trkpt>
      <trkpt lat="43.07895666666667" lon="-1.8564533333333333">
        <ele>787.6</ele>
        <time>2018-09-29T09:18:01Z</time>
      </trkpt>
      <trkpt lat="43.07891" lon="-1.856345">
        <ele>788.3</ele>
        <time>2018-09-29T09:18:06Z</time>
      </trkpt>
      <trkpt lat="43.078885" lon="-1.856245">
        <ele>788.7</ele>
        <time>2018-09-29T09:18:09Z</time>
      </trkpt>
      <trkpt lat="43.078851666666665" lon="-1.85613">
        <ele>789.1</ele>
        <time>2018-09-29T09:18:12Z</time>
      </trkpt>
      <trkpt lat="43.07882" lon="-1.856025">
        <ele>789.4</ele>
        <time>2018-09-29T09:18:15Z</time>
      </trkpt>
      <trkpt lat="43.078765" lon="-1.8559350000000001">
        <ele>789.8</ele>
        <time>2018-09-29T09:18:18Z</time>
      </trkpt>
      <trkpt lat="43.07872" lon="-1.8558400000000002">
        <ele>790.1</ele>
        <time>2018-09-29T09:18:21Z</time>
      </trkpt>
      <trkpt lat="43.078665" lon="-1.85575">
        <ele>790.4</ele>
        <time>2018-09-29T09:18:24Z</time>
      </trkpt>
      <trkpt lat="43.07861" lon="-1.8556316666666666">
        <ele>790.9</ele>
        <time>2018-09-29T09:18:28Z</time>
      </trkpt>
      <trkpt lat="43.07857" lon="-1.85552">
        <ele>791.2</ele>
        <time>2018-09-29T09:18:32Z</time>
      </trkpt>
      <trkpt lat="43.078535" lon="-1.8554">
        <ele>791.5</ele>
        <time>2018-09-29T09:18:34Z</time>
      </trkpt>
      <trkpt lat="43.078495" lon="-1.85529">
        <ele>792.0</ele>
        <time>2018-09-29T09:18:38Z</time>
      </trkpt>
      <trkpt lat="43.07846" lon="-1.8551950000000001">
        <ele>792.4</ele>
        <time>2018-09-29T09:18:41Z</time>
      </trkpt>
      <trkpt lat="43.07842" lon="-1.8550983333333333">
        <ele>792.8</ele>
        <time>2018-09-29T09:18:44Z</time>
      </trkpt>
      <trkpt lat="43.078375" lon="-1.855">
        <ele>793.2</ele>
        <time>2018-09-29T09:18:47Z</time>
      </trkpt>
      <trkpt lat="43.07834" lon="-1.85491">
        <ele>793.5</ele>
        <time>2018-09-29T09:18:49Z</time>
      </trkpt>
      <trkpt lat="43.07831" lon="-1.8548133333333334">
        <ele>793.8</ele>
        <time>2018-09-29T09:18:51Z</time>
      </trkpt>
      <trkpt lat="43.07827" lon="-1.85473">
        <ele>794.1</ele>
        <time>2018-09-29T09:18:53Z</time>
      </trkpt>
      <trkpt lat="43.07823" lon="-1.8546399999999998">
        <ele>794.5</ele>
        <time>2018-09-29T09:18:55Z</time>
      </trkpt>
      <trkpt lat="43.078178333333334" lon="-1.8545250000000002">
        <ele>795.0</ele>
        <time>2018-09-29T09:18:58Z</time>
      </trkpt>
      <trkpt lat="43.07814" lon="-1.8544399999999999">
        <ele>795.3</ele>
        <time>2018-09-29T09:19:00Z</time>
      </trkpt>
      <trkpt lat="43.078085" lon="-1.8543316666666667">
        <ele>795.7</ele>
        <time>2018-09-29T09:19:03Z</time>
      </trkpt>
      <trkpt lat="43.078041666666664" lon="-1.854235">
        <ele>796.2</ele>
        <time>2018-09-29T09:19:06Z</time>
      </trkpt>
      <trkpt lat="43.078" lon="-1.85414">
        <ele>796.7</ele>
        <time>2018-09-29T09:19:09Z</time>
      </trkpt>
      <trkpt lat="43.077965" lon="-1.854045">
        <ele>797.1</ele>
        <time>2018-09-29T09:19:12Z</time>
      </trkpt>
      <trkpt lat="43.07793" lon="-1.8539516666666667">
        <ele>797.7</ele>
        <time>2018-09-29T09:19:16Z</time>
      </trkpt>
      <trkpt lat="43.077865" lon="-1.85388">
        <ele>798.3</ele>
        <time>2018-09-29T09:19:20Z</time>
      </trkpt>
      <trkpt lat="43.077798333333334" lon="-1.853825">
        <ele>798.9</ele>
        <time>2018-09-29T09:19:24Z</time>
      </trkpt>
      <trkpt lat="43.077705" lon="-1.853825">
        <ele>799.5</ele>
        <time>2018-09-29T09:19:28Z</time>
      </trkpt>
      <trkpt lat="43.077635" lon="-1.8538483333333333">
        <ele>800.1</ele>
        <time>2018-09-29T09:19:32Z</time>
      </trkpt>
      <trkpt lat="43.07757" lon="-1.853895">
        <ele>800.5</ele>
        <time>2018-09-29T09:19:35Z</time>
      </trkpt>
      <trkpt lat="43.07751" lon="-1.85396">
        <ele>801.1</ele>
        <time>2018-09-29T09:19:38Z</time>
      </trkpt>
      <trkpt lat="43.077455" lon="-1.85405">
        <ele>802.3</ele>
        <time>2018-09-29T09:19:44Z</time>
      </trkpt>
      <trkpt lat="43.077405" lon="-1.8541283333333334">
        <ele>803.4</ele>
        <time>2018-09-29T09:19:49Z</time>
      </trkpt>
      <trkpt lat="43.07738" lon="-1.8542299999999998">
        <ele>804.7</ele>
        <time>2018-09-29T09:19:55Z</time>
      </trkpt>
      <trkpt lat="43.07736" lon="-1.85433">
        <ele>806.0</ele>
        <time>2018-09-29T09:20:01Z</time>
      </trkpt>
      <trkpt lat="43.077333333333335" lon="-1.854425">
        <ele>807.0</ele>
        <time>2018-09-29T09:20:06Z</time>
      </trkpt>
      <trkpt lat="43.07731166666667" lon="-1.8545250000000002">
        <ele>808.0</ele>
        <time>2018-09-29T09:20:11Z</time>
      </trkpt>
      <trkpt lat="43.07727" lon="-1.854615">
        <ele>809.0</ele>
        <time>2018-09-29T09:20:16Z</time>
      </trkpt>
      <trkpt lat="43.07725" lon="-1.8547150000000001">
        <ele>809.7</ele>
        <time>2018-09-29T09:20:20Z</time>
      </trkpt>
      <trkpt lat="43.07722" lon="-1.8548149999999999">
        <ele>810.6</ele>
        <time>2018-09-29T09:20:25Z</time>
      </trkpt>
      <trkpt lat="43.077175" lon="-1.8549">
        <ele>811.3</ele>
        <time>2018-09-29T09:20:29Z</time>
      </trkpt>
      <trkpt lat="43.077115" lon="-1.854975">
        <ele>811.9</ele>
        <time>2018-09-29T09:20:32Z</time>
      </trkpt>
      <trkpt lat="43.077035" lon="-1.855035">
        <ele>812.6</ele>
        <time>2018-09-29T09:20:36Z</time>
      </trkpt>
      <trkpt lat="43.076953333333336" lon="-1.8550550000000001">
        <ele>813.7</ele>
        <time>2018-09-29T09:20:42Z</time>
      </trkpt>
      <trkpt lat="43.07687" lon="-1.8550550000000001">
        <ele>814.6</ele>
        <time>2018-09-29T09:20:47Z</time>
      </trkpt>
      <trkpt lat="43.076785" lon="-1.85508">
        <ele>815.3</ele>
        <time>2018-09-29T09:20:51Z</time>
      </trkpt>
      <trkpt lat="43.076735" lon="-1.85515">
        <ele>815.9</ele>
        <time>2018-09-29T09:20:54Z</time>
      </trkpt>
      <trkpt lat="43.07668" lon="-1.855245">
        <ele>816.8</ele>
        <time>2018-09-29T09:20:58Z</time>
      </trkpt>
      <trkpt lat="43.076635" lon="-1.855345">
        <ele>817.7</ele>
        <time>2018-09-29T09:21:02Z</time>
      </trkpt>
      <trkpt lat="43.076605" lon="-1.855435">
        <ele>818.9</ele>
        <time>2018-09-29T09:21:07Z</time>
      </trkpt>
      <trkpt lat="43.07655" lon="-1.8555433333333333">
        <ele>820.0</ele>
        <time>2018-09-29T09:21:12Z</time>
      </trkpt>
      <trkpt lat="43.07649" lon="-1.855615">
        <ele>820.8</ele>
        <time>2018-09-29T09:21:15Z</time>
      </trkpt>
      <trkpt lat="43.076415" lon="-1.8556416666666666">
        <ele>821.8</ele>
        <time>2018-09-29T09:21:19Z</time>
      </trkpt>
      <trkpt lat="43.076335" lon="-1.85565">
        <ele>822.7</ele>
        <time>2018-09-29T09:21:22Z</time>
      </trkpt>
      <trkpt lat="43.07626" lon="-1.855615">
        <ele>823.4</ele>
        <time>2018-09-29T09:21:25Z</time>
      </trkpt>
      <trkpt lat="43.07618" lon="-1.855535">
        <ele>824.5</ele>
        <time>2018-09-29T09:21:29Z</time>
      </trkpt>
      <trkpt lat="43.076121666666666" lon="-1.8554533333333332">
        <ele>825.3</ele>
        <time>2018-09-29T09:21:32Z</time>
      </trkpt>
      <trkpt lat="43.07604666666667" lon="-1.8554">
        <ele>826.1</ele>
        <time>2018-09-29T09:21:35Z</time>
      </trkpt>
      <trkpt lat="43.075995" lon="-1.85533">
        <ele>826.8</ele>
        <time>2018-09-29T09:21:38Z</time>
      </trkpt>
      <trkpt lat="43.07595" lon="-1.85524">
        <ele>827.9</ele>
        <time>2018-09-29T09:21:42Z</time>
      </trkpt>
      <trkpt lat="43.075925" lon="-1.85515">
        <ele>828.6</ele>
        <time>2018-09-29T09:21:45Z</time>
      </trkpt>
      <trkpt lat="43.075876666666666" lon="-1.8550550000000001">
        <ele>829.6</ele>
        <time>2018-09-29T09:21:49Z</time>
      </trkpt>
      <trkpt lat="43.07586" lon="-1.8549366666666667">
        <ele>830.5</ele>
        <time>2018-09-29T09:21:53Z</time>
      </trkpt>
      <trkpt lat="43.075855" lon="-1.8548233333333335">
        <ele>831.3</ele>
        <time>2018-09-29T09:21:56Z</time>
      </trkpt>
      <trkpt lat="43.07584" lon="-1.854705">
        <ele>832.0</ele>
        <time>2018-09-29T09:21:59Z</time>
      </trkpt>
      <trkpt lat="43.07585" lon="-1.8546">
        <ele>832.8</ele>
        <time>2018-09-29T09:22:02Z</time>
      </trkpt>
      <trkpt lat="43.07584666666666" lon="-1.854495">
        <ele>833.6</ele>
        <time>2018-09-29T09:22:05Z</time>
      </trkpt>
      <trkpt lat="43.075855" lon="-1.8543916666666667">
        <ele>834.3</ele>
        <time>2018-09-29T09:22:08Z</time>
      </trkpt>
      <trkpt lat="43.07587" lon="-1.854285">
        <ele>835.3</ele>
        <time>2018-09-29T09:22:12Z</time>
      </trkpt>
      <trkpt lat="43.075875" lon="-1.8541566666666667">
        <ele>836.6</ele>
        <time>2018-09-29T09:22:17Z</time>
      </trkpt>
      <trkpt lat="43.075876666666666" lon="-1.85405">
        <ele>837.6</ele>
        <time>2018-09-29T09:22:21Z</time>
      </trkpt>
      <trkpt lat="43.07589" lon="-1.8539283333333334">
        <ele>838.6</ele>
        <time>2018-09-29T09:22:25Z</time>
      </trkpt>
      <trkpt lat="43.075896666666665" lon="-1.853815">
        <ele>839.6</ele>
        <time>2018-09-29T09:22:29Z</time>
      </trkpt>
      <trkpt lat="43.07590666666667" lon="-1.853705">
        <ele>840.5</ele>
        <time>2018-09-29T09:22:33Z</time>
      </trkpt>
      <trkpt lat="43.075916666666664" lon="-1.8536000000000001">
        <ele>841.4</ele>
        <time>2018-09-29T09:22:37Z</time>
      </trkpt>
      <trkpt lat="43.07593" lon="-1.8534766666666667">
        <ele>842.3</ele>
        <time>2018-09-29T09:22:41Z</time>
      </trkpt>
      <trkpt lat="43.07594" lon="-1.85338">
        <ele>843.0</ele>
        <time>2018-09-29T09:22:44Z</time>
      </trkpt>
      <trkpt lat="43.07597166666667" lon="-1.853265">
        <ele>843.9</ele>
        <time>2018-09-29T09:22:48Z</time>
      </trkpt>
      <trkpt lat="43.075995" lon="-1.85316">
        <ele>844.8</ele>
        <time>2018-09-29T09:22:52Z</time>
      </trkpt>
      <trkpt lat="43.07602" lon="-1.85306">
        <ele>845.7</ele>
        <time>2018-09-29T09:22:56Z</time>
      </trkpt>
      <trkpt lat="43.07603" lon="-1.852935">
        <ele>846.6</ele>
        <time>2018-09-29T09:23:00Z</time>
      </trkpt>
      <trkpt lat="43.07601666666667" lon="-1.852825">
        <ele>847.3</ele>
        <time>2018-09-29T09:23:03Z</time>
      </trkpt>
      <trkpt lat="43.075975" lon="-1.852715">
        <ele>847.9</ele>
        <time>2018-09-29T09:23:06Z</time>
      </trkpt>
      <trkpt lat="43.07593" lon="-1.8525966666666667">
        <ele>848.6</ele>
        <time>2018-09-29T09:23:09Z</time>
      </trkpt>
      <trkpt lat="43.075905" lon="-1.85246">
        <ele>849.2</ele>
        <time>2018-09-29T09:23:12Z</time>
      </trkpt>
      <trkpt lat="43.075885" lon="-1.8523450000000001">
        <ele>849.8</ele>
        <time>2018-09-29T09:23:15Z</time>
      </trkpt>
      <trkpt lat="43.075845" lon="-1.85222">
        <ele>850.4</ele>
        <time>2018-09-29T09:23:18Z</time>
      </trkpt>
      <trkpt lat="43.07581666666667" lon="-1.8520850000000002">
        <ele>851.0</ele>
        <time>2018-09-29T09:23:21Z</time>
      </trkpt>
      <trkpt lat="43.075795" lon="-1.8519616666666665">
        <ele>851.6</ele>
        <time>2018-09-29T09:23:24Z</time>
      </trkpt>
      <trkpt lat="43.075755" lon="-1.85185">
        <ele>852.1</ele>
        <time>2018-09-29T09:23:27Z</time>
      </trkpt>
      <trkpt lat="43.07572" lon="-1.851725">
        <ele>852.7</ele>
        <time>2018-09-29T09:23:30Z</time>
      </trkpt>
      <trkpt lat="43.0757" lon="-1.8515899999999998">
        <ele>853.2</ele>
        <time>2018-09-29T09:23:33Z</time>
      </trkpt>
      <trkpt lat="43.07568166666667" lon="-1.8514750000000002">
        <ele>853.7</ele>
        <time>2018-09-29T09:23:36Z</time>
      </trkpt>
      <trkpt lat="43.07566666666666" lon="-1.8513600000000001">
        <ele>854.2</ele>
        <time>2018-09-29T09:23:39Z</time>
      </trkpt>
      <trkpt lat="43.07564166666667" lon="-1.85123">
        <ele>854.7</ele>
        <time>2018-09-29T09:23:42Z</time>
      </trkpt>
      <trkpt lat="43.07561" lon="-1.85111">
        <ele>855.2</ele>
        <time>2018-09-29T09:23:45Z</time>
      </trkpt>
      <trkpt lat="43.075565" lon="-1.85102">
        <ele>855.7</ele>
        <time>2018-09-29T09:23:48Z</time>
      </trkpt>
      <trkpt lat="43.07551" lon="-1.850915">
        <ele>856.2</ele>
        <time>2018-09-29T09:23:51Z</time>
      </trkpt>
      <trkpt lat="43.075465" lon="-1.8508033333333334">
        <ele>856.7</ele>
        <time>2018-09-29T09:23:54Z</time>
      </trkpt>
      <trkpt lat="43.075446666666664" lon="-1.850675">
        <ele>857.2</ele>
        <time>2018-09-29T09:23:57Z</time>
      </trkpt>
      <trkpt lat="43.07552166666667" lon="-1.85056">
        <ele>857.5</ele>
        <time>2018-09-29T09:23:59Z</time>
      </trkpt>
      <trkpt lat="43.075625" lon="-1.8504900000000002">
        <ele>857.7</ele>
        <time>2018-09-29T09:24:01Z</time>
      </trkpt>
      <trkpt lat="43.075715" lon="-1.8504416666666668">
        <ele>858.1</ele>
        <time>2018-09-29T09:24:04Z</time>
      </trkpt>
      <trkpt lat="43.07578" lon="-1.85039">
        <ele>858.4</ele>
        <time>2018-09-29T09:24:06Z</time>
      </trkpt>
      <trkpt lat="43.07586" lon="-1.850305">
        <ele>858.7</ele>
        <time>2018-09-29T09:24:09Z</time>
      </trkpt>
      <trkpt lat="43.07592" lon="-1.850235">
        <ele>859.1</ele>
        <time>2018-09-29T09:24:12Z</time>
      </trkpt>
      <trkpt lat="43.07598" lon="-1.850145">
        <ele>859.6</ele>
        <time>2018-09-29T09:24:15Z</time>
      </trkpt>
      <trkpt lat="43.076045" lon="-1.850045">
        <ele>860.0</ele>
        <time>2018-09-29T09:24:18Z</time>
      </trkpt>
      <trkpt lat="43.07611" lon="-1.8499349999999999">
        <ele>860.4</ele>
        <time>2018-09-29T09:24:21Z</time>
      </trkpt>
      <trkpt lat="43.076146666666666" lon="-1.8498116666666666">
        <ele>860.9</ele>
        <time>2018-09-29T09:24:24Z</time>
      </trkpt>
      <trkpt lat="43.076185" lon="-1.849695">
        <ele>861.4</ele>
        <time>2018-09-29T09:24:27Z</time>
      </trkpt>
      <trkpt lat="43.07623" lon="-1.849575">
        <ele>861.9</ele>
        <time>2018-09-29T09:24:31Z</time>
      </trkpt>
      <trkpt lat="43.07625" lon="-1.849455">
        <ele>862.4</ele>
        <time>2018-09-29T09:24:34Z</time>
      </trkpt>
      <trkpt lat="43.076305" lon="-1.84934">
        <ele>862.8</ele>
        <time>2018-09-29T09:24:37Z</time>
      </trkpt>
      <trkpt lat="43.076345" lon="-1.8492549999999999">
        <ele>863.1</ele>
        <time>2018-09-29T09:24:39Z</time>
      </trkpt>
      <trkpt lat="43.07636333333333" lon="-1.84912">
        <ele>863.5</ele>
        <time>2018-09-29T09:24:42Z</time>
      </trkpt>
      <trkpt lat="43.076375" lon="-1.8490166666666668">
        <ele>863.8</ele>
        <time>2018-09-29T09:24:45Z</time>
      </trkpt>
      <trkpt lat="43.076385" lon="-1.8488799999999999">
        <ele>864.3</ele>
        <time>2018-09-29T09:24:49Z</time>
      </trkpt>
      <trkpt lat="43.07639666666667" lon="-1.848765">
        <ele>864.8</ele>
        <time>2018-09-29T09:24:53Z</time>
      </trkpt>
      <trkpt lat="43.07638" lon="-1.8486483333333332">
        <ele>865.3</ele>
        <time>2018-09-29T09:24:57Z</time>
      </trkpt>
      <trkpt lat="43.07636" lon="-1.8485466666666666">
        <ele>865.8</ele>
        <time>2018-09-29T09:25:01Z</time>
      </trkpt>
      <trkpt lat="43.07631" lon="-1.84845">
        <ele>866.5</ele>
        <time>2018-09-29T09:25:06Z</time>
      </trkpt>
      <trkpt lat="43.07626" lon="-1.8483649999999998">
        <ele>867.1</ele>
        <time>2018-09-29T09:25:10Z</time>
      </trkpt>
      <trkpt lat="43.076235" lon="-1.8482699999999999">
        <ele>867.6</ele>
        <time>2018-09-29T09:25:14Z</time>
      </trkpt>
      <trkpt lat="43.07623666666667" lon="-1.848155">
        <ele>868.2</ele>
        <time>2018-09-29T09:25:18Z</time>
      </trkpt>
      <trkpt lat="43.076215" lon="-1.8480566666666667">
        <ele>868.8</ele>
        <time>2018-09-29T09:25:22Z</time>
      </trkpt>
      <trkpt lat="43.0762" lon="-1.84795">
        <ele>869.6</ele>
        <time>2018-09-29T09:25:27Z</time>
      </trkpt>
      <trkpt lat="43.07615666666667" lon="-1.8478466666666669">
        <ele>870.3</ele>
        <time>2018-09-29T09:25:32Z</time>
      </trkpt>
      <trkpt lat="43.07611" lon="-1.8477466666666666">
        <ele>871.0</ele>
        <time>2018-09-29T09:25:37Z</time>
      </trkpt>
      <trkpt lat="43.076075" lon="-1.847645">
        <ele>871.7</ele>
        <time>2018-09-29T09:25:42Z</time>
      </trkpt>
      <trkpt lat="43.07602166666667" lon="-1.8475533333333334">
        <ele>872.3</ele>
        <time>2018-09-29T09:25:46Z</time>
      </trkpt>
      <trkpt lat="43.075986666666665" lon="-1.847455">
        <ele>872.9</ele>
        <time>2018-09-29T09:25:50Z</time>
      </trkpt>
      <trkpt lat="43.07594" lon="-1.84737">
        <ele>873.5</ele>
        <time>2018-09-29T09:25:55Z</time>
      </trkpt>
      <trkpt lat="43.07593" lon="-1.8472666666666666">
        <ele>873.8</ele>
        <time>2018-09-29T09:25:57Z</time>
      </trkpt>
      <trkpt lat="43.07589" lon="-1.84717">
        <ele>874.8</ele>
        <time>2018-09-29T09:26:04Z</time>
      </trkpt>
      <trkpt lat="43.07588166666667" lon="-1.8470499999999999">
        <ele>875.2</ele>
        <time>2018-09-29T09:26:07Z</time>
      </trkpt>
      <trkpt lat="43.075891666666664" lon="-1.8469516666666668">
        <ele>875.5</ele>
        <time>2018-09-29T09:26:09Z</time>
      </trkpt>
      <trkpt lat="43.075935" lon="-1.84684">
        <ele>875.8</ele>
        <time>2018-09-29T09:26:11Z</time>
      </trkpt>
      <trkpt lat="43.075925" lon="-1.84673">
        <ele>876.4</ele>
        <time>2018-09-29T09:26:15Z</time>
      </trkpt>
      <trkpt lat="43.07592" lon="-1.846625">
        <ele>877.0</ele>
        <time>2018-09-29T09:26:19Z</time>
      </trkpt>
      <trkpt lat="43.075905" lon="-1.8465083333333334">
        <ele>877.8</ele>
        <time>2018-09-29T09:26:24Z</time>
      </trkpt>
      <trkpt lat="43.075915" lon="-1.84639">
        <ele>878.5</ele>
        <time>2018-09-29T09:26:29Z</time>
      </trkpt>
      <trkpt lat="43.07591" lon="-1.846285">
        <ele>879.1</ele>
        <time>2018-09-29T09:26:33Z</time>
      </trkpt>
      <trkpt lat="43.07591166666667" lon="-1.8461750000000001">
        <ele>879.6</ele>
        <time>2018-09-29T09:26:37Z</time>
      </trkpt>
      <trkpt lat="43.075916666666664" lon="-1.84607">
        <ele>880.2</ele>
        <time>2018-09-29T09:26:41Z</time>
      </trkpt>
      <trkpt lat="43.07591166666667" lon="-1.8459616666666667">
        <ele>880.8</ele>
        <time>2018-09-29T09:26:46Z</time>
      </trkpt>
      <trkpt lat="43.075916666666664" lon="-1.84585">
        <ele>881.4</ele>
        <time>2018-09-29T09:26:51Z</time>
      </trkpt>
      <trkpt lat="43.075916666666664" lon="-1.84575">
        <ele>881.9</ele>
        <time>2018-09-29T09:26:55Z</time>
      </trkpt>
      <trkpt lat="43.075915" lon="-1.845645">
        <ele>882.4</ele>
        <time>2018-09-29T09:26:59Z</time>
      </trkpt>
      <trkpt lat="43.075905" lon="-1.845535">
        <ele>882.9</ele>
        <time>2018-09-29T09:27:03Z</time>
      </trkpt>
      <trkpt lat="43.07591" lon="-1.8454216666666667">
        <ele>883.4</ele>
        <time>2018-09-29T09:27:07Z</time>
      </trkpt>
      <trkpt lat="43.07591" lon="-1.8453066666666667">
        <ele>884.0</ele>
        <time>2018-09-29T09:27:12Z</time>
      </trkpt>
      <trkpt lat="43.075915" lon="-1.845205">
        <ele>884.4</ele>
        <time>2018-09-29T09:27:16Z</time>
      </trkpt>
      <trkpt lat="43.07593" lon="-1.8450950000000002">
        <ele>884.9</ele>
        <time>2018-09-29T09:27:20Z</time>
      </trkpt>
      <trkpt lat="43.07595" lon="-1.8449816666666667">
        <ele>885.4</ele>
        <time>2018-09-29T09:27:24Z</time>
      </trkpt>
      <trkpt lat="43.075975" lon="-1.8448666666666667">
        <ele>885.8</ele>
        <time>2018-09-29T09:27:28Z</time>
      </trkpt>
      <trkpt lat="43.07599" lon="-1.84475">
        <ele>886.3</ele>
        <time>2018-09-29T09:27:32Z</time>
      </trkpt>
      <trkpt lat="43.07601" lon="-1.84464">
        <ele>886.7</ele>
        <time>2018-09-29T09:27:36Z</time>
      </trkpt>
      <trkpt lat="43.07604" lon="-1.84453">
        <ele>887.1</ele>
        <time>2018-09-29T09:27:40Z</time>
      </trkpt>
      <trkpt lat="43.07606" lon="-1.844435">
        <ele>887.4</ele>
        <time>2018-09-29T09:27:43Z</time>
      </trkpt>
      <trkpt lat="43.076076666666665" lon="-1.844315">
        <ele>887.8</ele>
        <time>2018-09-29T09:27:47Z</time>
      </trkpt>
      <trkpt lat="43.076115" lon="-1.844195">
        <ele>888.2</ele>
        <time>2018-09-29T09:27:51Z</time>
      </trkpt>
      <trkpt lat="43.076145" lon="-1.84409">
        <ele>888.7</ele>
        <time>2018-09-29T09:27:55Z</time>
      </trkpt>
      <trkpt lat="43.076155" lon="-1.8439716666666666">
        <ele>889.2</ele>
        <time>2018-09-29T09:27:59Z</time>
      </trkpt>
      <trkpt lat="43.07616" lon="-1.843865">
        <ele>889.7</ele>
        <time>2018-09-29T09:28:03Z</time>
      </trkpt>
      <trkpt lat="43.07617" lon="-1.843755">
        <ele>890.3</ele>
        <time>2018-09-29T09:28:07Z</time>
      </trkpt>
      <trkpt lat="43.076141666666665" lon="-1.843645">
        <ele>891.1</ele>
        <time>2018-09-29T09:28:12Z</time>
      </trkpt>
      <trkpt lat="43.07613" lon="-1.8435416666666666">
        <ele>891.7</ele>
        <time>2018-09-29T09:28:16Z</time>
      </trkpt>
      <trkpt lat="43.07613833333333" lon="-1.8434383333333333">
        <ele>892.3</ele>
        <time>2018-09-29T09:28:20Z</time>
      </trkpt>
      <trkpt lat="43.076135" lon="-1.84332">
        <ele>893.1</ele>
        <time>2018-09-29T09:28:25Z</time>
      </trkpt>
      <trkpt lat="43.076115" lon="-1.84322">
        <ele>893.7</ele>
        <time>2018-09-29T09:28:29Z</time>
      </trkpt>
      <trkpt lat="43.0761" lon="-1.843105">
        <ele>894.3</ele>
        <time>2018-09-29T09:28:33Z</time>
      </trkpt>
      <trkpt lat="43.07609" lon="-1.8429950000000002">
        <ele>894.8</ele>
        <time>2018-09-29T09:28:37Z</time>
      </trkpt>
      <trkpt lat="43.076065" lon="-1.8429016666666667">
        <ele>895.4</ele>
        <time>2018-09-29T09:28:41Z</time>
      </trkpt>
      <trkpt lat="43.076025" lon="-1.8428033333333333">
        <ele>896.0</ele>
        <time>2018-09-29T09:28:46Z</time>
      </trkpt>
      <trkpt lat="43.07599" lon="-1.842705">
        <ele>896.6</ele>
        <time>2018-09-29T09:28:51Z</time>
      </trkpt>
      <trkpt lat="43.07595166666667" lon="-1.84259">
        <ele>897.2</ele>
        <time>2018-09-29T09:28:56Z</time>
      </trkpt>
      <trkpt lat="43.07594" lon="-1.8424800000000001">
        <ele>897.6</ele>
        <time>2018-09-29T09:29:00Z</time>
      </trkpt>
      <trkpt lat="43.07593" lon="-1.8423766666666666">
        <ele>897.9</ele>
        <time>2018-09-29T09:29:03Z</time>
      </trkpt>
      <trkpt lat="43.075891666666664" lon="-1.8422783333333332">
        <ele>898.5</ele>
        <time>2018-09-29T09:29:08Z</time>
      </trkpt>
      <trkpt lat="43.075865" lon="-1.84216">
        <ele>898.9</ele>
        <time>2018-09-29T09:29:12Z</time>
      </trkpt>
      <trkpt lat="43.07586" lon="-1.8420266666666667">
        <ele>899.4</ele>
        <time>2018-09-29T09:29:16Z</time>
      </trkpt>
      <trkpt lat="43.07585" lon="-1.8419266666666667">
        <ele>899.9</ele>
        <time>2018-09-29T09:29:20Z</time>
      </trkpt>
      <trkpt lat="43.07583666666667" lon="-1.8418216666666667">
        <ele>900.2</ele>
        <time>2018-09-29T09:29:23Z</time>
      </trkpt>
      <trkpt lat="43.075831666666666" lon="-1.841715">
        <ele>900.7</ele>
        <time>2018-09-29T09:29:26Z</time>
      </trkpt>
      <trkpt lat="43.075835" lon="-1.84161">
        <ele>901.1</ele>
        <time>2018-09-29T09:29:29Z</time>
      </trkpt>
      <trkpt lat="43.075826666666664" lon="-1.84151">
        <ele>901.6</ele>
        <time>2018-09-29T09:29:32Z</time>
      </trkpt>
      <trkpt lat="43.07583" lon="-1.84141">
        <ele>902.3</ele>
        <time>2018-09-29T09:29:35Z</time>
      </trkpt>
      <trkpt lat="43.075825" lon="-1.8412833333333332">
        <ele>903.5</ele>
        <time>2018-09-29T09:29:40Z</time>
      </trkpt>
      <trkpt lat="43.07582166666667" lon="-1.8411833333333334">
        <ele>904.3</ele>
        <time>2018-09-29T09:29:43Z</time>
      </trkpt>
      <trkpt lat="43.075805" lon="-1.8410600000000001">
        <ele>905.4</ele>
        <time>2018-09-29T09:29:47Z</time>
      </trkpt>
      <trkpt lat="43.07581166666667" lon="-1.84094">
        <ele>906.6</ele>
        <time>2018-09-29T09:29:51Z</time>
      </trkpt>
      <trkpt lat="43.07582" lon="-1.84082">
        <ele>907.8</ele>
        <time>2018-09-29T09:29:55Z</time>
      </trkpt>
      <trkpt lat="43.07582166666667" lon="-1.8407">
        <ele>909.3</ele>
        <time>2018-09-29T09:30:00Z</time>
      </trkpt>
      <trkpt lat="43.07582166666667" lon="-1.8405733333333334">
        <ele>910.8</ele>
        <time>2018-09-29T09:30:05Z</time>
      </trkpt>
      <trkpt lat="43.075828333333334" lon="-1.8404683333333334">
        <ele>911.6</ele>
        <time>2018-09-29T09:30:08Z</time>
      </trkpt>
      <trkpt lat="43.07582333333333" lon="-1.84036">
        <ele>912.4</ele>
        <time>2018-09-29T09:30:11Z</time>
      </trkpt>
      <trkpt lat="43.075805" lon="-1.84025">
        <ele>913.3</ele>
        <time>2018-09-29T09:30:14Z</time>
      </trkpt>
      <trkpt lat="43.0758" lon="-1.84013">
        <ele>914.3</ele>
        <time>2018-09-29T09:30:18Z</time>
      </trkpt>
      <trkpt lat="43.075786666666666" lon="-1.8400233333333333">
        <ele>915.4</ele>
        <time>2018-09-29T09:30:22Z</time>
      </trkpt>
      <trkpt lat="43.07576666666667" lon="-1.83992">
        <ele>916.4</ele>
        <time>2018-09-29T09:30:26Z</time>
      </trkpt>
      <trkpt lat="43.07575833333333" lon="-1.83982">
        <ele>917.4</ele>
        <time>2018-09-29T09:30:30Z</time>
      </trkpt>
      <trkpt lat="43.07574" lon="-1.839705">
        <ele>918.5</ele>
        <time>2018-09-29T09:30:34Z</time>
      </trkpt>
      <trkpt lat="43.07572" lon="-1.8395966666666665">
        <ele>919.5</ele>
        <time>2018-09-29T09:30:38Z</time>
      </trkpt>
      <trkpt lat="43.075695" lon="-1.8394966666666668">
        <ele>920.6</ele>
        <time>2018-09-29T09:30:42Z</time>
      </trkpt>
      <trkpt lat="43.075665" lon="-1.8393899999999999">
        <ele>921.8</ele>
        <time>2018-09-29T09:30:46Z</time>
      </trkpt>
      <trkpt lat="43.07564" lon="-1.83927">
        <ele>922.9</ele>
        <time>2018-09-29T09:30:50Z</time>
      </trkpt>
      <trkpt lat="43.075595" lon="-1.8391516666666665">
        <ele>924.1</ele>
        <time>2018-09-29T09:30:54Z</time>
      </trkpt>
      <trkpt lat="43.07555" lon="-1.8390383333333333">
        <ele>925.2</ele>
        <time>2018-09-29T09:30:58Z</time>
      </trkpt>
      <trkpt lat="43.07551" lon="-1.83893">
        <ele>926.2</ele>
        <time>2018-09-29T09:31:02Z</time>
      </trkpt>
      <trkpt lat="43.075471666666665" lon="-1.83881">
        <ele>927.2</ele>
        <time>2018-09-29T09:31:06Z</time>
      </trkpt>
      <trkpt lat="43.07541666666667" lon="-1.838735">
        <ele>928.0</ele>
        <time>2018-09-29T09:31:09Z</time>
      </trkpt>
      <trkpt lat="43.07533" lon="-1.8387250000000002">
        <ele>930.9</ele>
        <time>2018-09-29T09:31:12Z</time>
      </trkpt>
      <trkpt lat="43.075245" lon="-1.83874">
        <ele>934.5</ele>
        <time>2018-09-29T09:31:14Z</time>
      </trkpt>
      <trkpt lat="43.07515" lon="-1.8387616666666666">
        <ele>937.0</ele>
        <time>2018-09-29T09:31:16Z</time>
      </trkpt>
      <trkpt lat="43.075035" lon="-1.8388466666666667">
        <ele>938.7</ele>
        <time>2018-09-29T09:31:18Z</time>
      </trkpt>
      <trkpt lat="43.074983333333336" lon="-1.8389199999999999">
        <ele>939.4</ele>
        <time>2018-09-29T09:31:19Z</time>
      </trkpt>
      <trkpt lat="43.07494" lon="-1.839005">
        <ele>939.9</ele>
        <time>2018-09-29T09:31:20Z</time>
      </trkpt>
      <trkpt lat="43.074905" lon="-1.8391">
        <ele>940.4</ele>
        <time>2018-09-29T09:31:21Z</time>
      </trkpt>
      <trkpt lat="43.07486" lon="-1.839185">
        <ele>940.7</ele>
        <time>2018-09-29T09:31:22Z</time>
      </trkpt>
      <trkpt lat="43.07482" lon="-1.83927">
        <ele>941.0</ele>
        <time>2018-09-29T09:31:23Z</time>
      </trkpt>
      <trkpt lat="43.074765" lon="-1.8393516666666667">
        <ele>941.2</ele>
        <time>2018-09-29T09:31:24Z</time>
      </trkpt>
      <trkpt lat="43.074711666666666" lon="-1.8394300000000001">
        <ele>941.3</ele>
        <time>2018-09-29T09:31:25Z</time>
      </trkpt>
      <trkpt lat="43.074655" lon="-1.8394983333333332">
        <ele>941.4</ele>
        <time>2018-09-29T09:31:26Z</time>
      </trkpt>
      <trkpt lat="43.074595" lon="-1.8395816666666667">
        <ele>941.4</ele>
        <time>2018-09-29T09:31:27Z</time>
      </trkpt>
      <trkpt lat="43.074525" lon="-1.839665">
        <ele>941.4</ele>
        <time>2018-09-29T09:31:28Z</time>
      </trkpt>
      <trkpt lat="43.074455" lon="-1.83975">
        <ele>941.3</ele>
        <time>2018-09-29T09:31:29Z</time>
      </trkpt>
      <trkpt lat="43.074385" lon="-1.83982">
        <ele>941.3</ele>
        <time>2018-09-29T09:31:30Z</time>
      </trkpt>
      <trkpt lat="43.07431666666667" lon="-1.83989">
        <ele>941.2</ele>
        <time>2018-09-29T09:31:31Z</time>
      </trkpt>
      <trkpt lat="43.074245" lon="-1.839955">
        <ele>941.1</ele>
        <time>2018-09-29T09:31:32Z</time>
      </trkpt>
      <trkpt lat="43.07416833333333" lon="-1.840015">
        <ele>941.0</ele>
        <time>2018-09-29T09:31:33Z</time>
      </trkpt>
      <trkpt lat="43.074095" lon="-1.84005">
        <ele>940.9</ele>
        <time>2018-09-29T09:31:34Z</time>
      </trkpt>
      <trkpt lat="43.073965" lon="-1.840085">
        <ele>941.1</ele>
        <time>2018-09-29T09:31:36Z</time>
      </trkpt>
      <trkpt lat="43.07386" lon="-1.8401450000000001">
        <ele>941.6</ele>
        <time>2018-09-29T09:31:38Z</time>
      </trkpt>
      <trkpt lat="43.073795" lon="-1.8402166666666666">
        <ele>942.7</ele>
        <time>2018-09-29T09:31:40Z</time>
      </trkpt>
      <trkpt lat="43.07374" lon="-1.8402933333333333">
        <ele>943.2</ele>
        <time>2018-09-29T09:31:42Z</time>
      </trkpt>
      <trkpt lat="43.07369" lon="-1.8403833333333335">
        <ele>943.8</ele>
        <time>2018-09-29T09:31:44Z</time>
      </trkpt>
      <trkpt lat="43.07367" lon="-1.8404866666666666">
        <ele>944.3</ele>
        <time>2018-09-29T09:31:46Z</time>
      </trkpt>
      <trkpt lat="43.07365" lon="-1.840595">
        <ele>944.4</ele>
        <time>2018-09-29T09:31:48Z</time>
      </trkpt>
      <trkpt lat="43.073635" lon="-1.8407433333333334">
        <ele>944.6</ele>
        <time>2018-09-29T09:31:51Z</time>
      </trkpt>
      <trkpt lat="43.07361" lon="-1.840875">
        <ele>944.7</ele>
        <time>2018-09-29T09:31:53Z</time>
      </trkpt>
      <trkpt lat="43.073585" lon="-1.8409916666666666">
        <ele>944.9</ele>
        <time>2018-09-29T09:31:55Z</time>
      </trkpt>
      <trkpt lat="43.073555" lon="-1.84109">
        <ele>945.0</ele>
        <time>2018-09-29T09:31:57Z</time>
      </trkpt>
      <trkpt lat="43.07348" lon="-1.8412033333333333">
        <ele>945.2</ele>
        <time>2018-09-29T09:32:00Z</time>
      </trkpt>
      <trkpt lat="43.073405" lon="-1.84123">
        <ele>945.4</ele>
        <time>2018-09-29T09:32:02Z</time>
      </trkpt>
      <trkpt lat="43.07332666666667" lon="-1.8412166666666665">
        <ele>945.7</ele>
        <time>2018-09-29T09:32:04Z</time>
      </trkpt>
      <trkpt lat="43.07327" lon="-1.8412916666666668">
        <ele>946.3</ele>
        <time>2018-09-29T09:32:08Z</time>
      </trkpt>
      <trkpt lat="43.073245" lon="-1.841385">
        <ele>946.7</ele>
        <time>2018-09-29T09:32:11Z</time>
      </trkpt>
      <trkpt lat="43.07321" lon="-1.841485">
        <ele>947.6</ele>
        <time>2018-09-29T09:32:17Z</time>
      </trkpt>
      <trkpt lat="43.073275" lon="-1.8415483333333333">
        <ele>948.6</ele>
        <time>2018-09-29T09:32:23Z</time>
      </trkpt>
      <trkpt lat="43.073335" lon="-1.8415966666666668">
        <ele>949.5</ele>
        <time>2018-09-29T09:32:30Z</time>
      </trkpt>
      <trkpt lat="43.07339" lon="-1.8416350000000001">
        <ele>950.4</ele>
        <time>2018-09-29T09:32:37Z</time>
      </trkpt>
      <trkpt lat="43.07344" lon="-1.8416416666666666">
        <ele>951.2</ele>
        <time>2018-09-29T09:32:44Z</time>
      </trkpt>
      <trkpt lat="43.073505" lon="-1.841585">
        <ele>951.9</ele>
        <time>2018-09-29T09:32:49Z</time>
      </trkpt>
      <trkpt lat="43.073541666666664" lon="-1.841505">
        <ele>952.7</ele>
        <time>2018-09-29T09:32:55Z</time>
      </trkpt>
      <trkpt lat="43.073595" lon="-1.8414616666666666">
        <ele>953.5</ele>
        <time>2018-09-29T09:33:02Z</time>
      </trkpt>
      <trkpt lat="43.073665" lon="-1.84143">
        <ele>954.3</ele>
        <time>2018-09-29T09:33:09Z</time>
      </trkpt>
      <trkpt lat="43.07374" lon="-1.8414633333333335">
        <ele>955.8</ele>
        <time>2018-09-29T09:33:23Z</time>
      </trkpt>
      <trkpt lat="43.07376166666667" lon="-1.8415400000000002">
        <ele>956.5</ele>
        <time>2018-09-29T09:33:30Z</time>
      </trkpt>
      <trkpt lat="43.073785" lon="-1.84162">
        <ele>957.2</ele>
        <time>2018-09-29T09:33:37Z</time>
      </trkpt>
      <trkpt lat="43.07377666666667" lon="-1.84171">
        <ele>958.0</ele>
        <time>2018-09-29T09:33:44Z</time>
      </trkpt>
      <trkpt lat="43.073773333333335" lon="-1.8418100000000002">
        <ele>958.6</ele>
        <time>2018-09-29T09:33:50Z</time>
      </trkpt>
      <trkpt lat="43.07375" lon="-1.8419">
        <ele>959.4</ele>
        <time>2018-09-29T09:33:57Z</time>
      </trkpt>
      <trkpt lat="43.07369833333333" lon="-1.84198">
        <ele>960.1</ele>
        <time>2018-09-29T09:34:04Z</time>
      </trkpt>
      <trkpt lat="43.07363" lon="-1.8420450000000002">
        <ele>960.8</ele>
        <time>2018-09-29T09:34:10Z</time>
      </trkpt>
      <trkpt lat="43.07356" lon="-1.8420883333333333">
        <ele>961.6</ele>
        <time>2018-09-29T09:34:17Z</time>
      </trkpt>
      <trkpt lat="43.07349" lon="-1.842125">
        <ele>962.1</ele>
        <time>2018-09-29T09:34:22Z</time>
      </trkpt>
      <trkpt lat="43.07342" lon="-1.8421616666666667">
        <ele>962.6</ele>
        <time>2018-09-29T09:34:26Z</time>
      </trkpt>
      <trkpt lat="43.073341666666664" lon="-1.8421883333333333">
        <ele>963.0</ele>
        <time>2018-09-29T09:34:30Z</time>
      </trkpt>
      <trkpt lat="43.073265" lon="-1.8422366666666665">
        <ele>963.4</ele>
        <time>2018-09-29T09:34:34Z</time>
      </trkpt>
      <trkpt lat="43.073195" lon="-1.8422733333333334">
        <ele>964.1</ele>
        <time>2018-09-29T09:34:40Z</time>
      </trkpt>
      <trkpt lat="43.073125" lon="-1.8423116666666668">
        <ele>964.7</ele>
        <time>2018-09-29T09:34:46Z</time>
      </trkpt>
      <trkpt lat="43.073065" lon="-1.8423850000000002">
        <ele>965.2</ele>
        <time>2018-09-29T09:34:51Z</time>
      </trkpt>
      <trkpt lat="43.073055" lon="-1.8424200000000002">
        <ele>965.9</ele>
        <time>2018-09-29T09:34:58Z</time>
      </trkpt>
      <trkpt lat="43.073035" lon="-1.842505">
        <ele>966.3</ele>
        <time>2018-09-29T09:35:05Z</time>
      </trkpt>
      <trkpt lat="43.07300166666667" lon="-1.842625">
        <ele>966.9</ele>
        <time>2018-09-29T09:35:12Z</time>
      </trkpt>
      <trkpt lat="43.07296" lon="-1.84271">
        <ele>967.1</ele>
        <time>2018-09-29T09:35:14Z</time>
      </trkpt>
      <trkpt lat="43.072915" lon="-1.8428066666666667">
        <ele>967.3</ele>
        <time>2018-09-29T09:35:17Z</time>
      </trkpt>
      <trkpt lat="43.0729" lon="-1.8429066666666665">
        <ele>967.6</ele>
        <time>2018-09-29T09:35:21Z</time>
      </trkpt>
      <trkpt lat="43.07286666666667" lon="-1.843005">
        <ele>967.9</ele>
        <time>2018-09-29T09:35:26Z</time>
      </trkpt>
      <trkpt lat="43.072851666666665" lon="-1.8431216666666668">
        <ele>968.2</ele>
        <time>2018-09-29T09:35:31Z</time>
      </trkpt>
      <trkpt lat="43.072835" lon="-1.84322">
        <ele>968.5</ele>
        <time>2018-09-29T09:35:35Z</time>
      </trkpt>
      <trkpt lat="43.072795" lon="-1.84331">
        <ele>968.8</ele>
        <time>2018-09-29T09:35:40Z</time>
      </trkpt>
      <trkpt lat="43.07275" lon="-1.8433866666666667">
        <ele>969.2</ele>
        <time>2018-09-29T09:35:46Z</time>
      </trkpt>
      <trkpt lat="43.07273166666667" lon="-1.8434949999999999">
        <ele>969.4</ele>
        <time>2018-09-29T09:35:49Z</time>
      </trkpt>
      <trkpt lat="43.072716666666665" lon="-1.84359">
        <ele>969.5</ele>
        <time>2018-09-29T09:35:52Z</time>
      </trkpt>
      <trkpt lat="43.07270166666667" lon="-1.8437016666666666">
        <ele>969.8</ele>
        <time>2018-09-29T09:35:57Z</time>
      </trkpt>
      <trkpt lat="43.072665" lon="-1.84382">
        <ele>970.0</ele>
        <time>2018-09-29T09:36:01Z</time>
      </trkpt>
      <trkpt lat="43.07262" lon="-1.8439016666666666">
        <ele>970.3</ele>
        <time>2018-09-29T09:36:04Z</time>
      </trkpt>
      <trkpt lat="43.072595" lon="-1.8439966666666667">
        <ele>970.6</ele>
        <time>2018-09-29T09:36:08Z</time>
      </trkpt>
      <trkpt lat="43.072585" lon="-1.8441">
        <ele>970.8</ele>
        <time>2018-09-29T09:36:12Z</time>
      </trkpt>
      <trkpt lat="43.07259" lon="-1.84423">
        <ele>971.1</ele>
        <time>2018-09-29T09:36:16Z</time>
      </trkpt>
      <trkpt lat="43.07261166666667" lon="-1.8443416666666668">
        <ele>971.4</ele>
        <time>2018-09-29T09:36:20Z</time>
      </trkpt>
      <trkpt lat="43.072655" lon="-1.8444266666666667">
        <ele>971.7</ele>
        <time>2018-09-29T09:36:24Z</time>
      </trkpt>
      <trkpt lat="43.07270166666667" lon="-1.8445">
        <ele>972.0</ele>
        <time>2018-09-29T09:36:28Z</time>
      </trkpt>
      <trkpt lat="43.072736666666664" lon="-1.8445900000000002">
        <ele>972.4</ele>
        <time>2018-09-29T09:36:33Z</time>
      </trkpt>
      <trkpt lat="43.07277" lon="-1.8446850000000001">
        <ele>972.8</ele>
        <time>2018-09-29T09:36:37Z</time>
      </trkpt>
      <trkpt lat="43.072783333333334" lon="-1.8448">
        <ele>973.1</ele>
        <time>2018-09-29T09:36:41Z</time>
      </trkpt>
      <trkpt lat="43.072788333333335" lon="-1.84491">
        <ele>973.5</ele>
        <time>2018-09-29T09:36:45Z</time>
      </trkpt>
      <trkpt lat="43.07281" lon="-1.845035">
        <ele>973.9</ele>
        <time>2018-09-29T09:36:49Z</time>
      </trkpt>
      <trkpt lat="43.072825" lon="-1.845135">
        <ele>974.2</ele>
        <time>2018-09-29T09:36:52Z</time>
      </trkpt>
      <trkpt lat="43.07284" lon="-1.8452366666666666">
        <ele>974.5</ele>
        <time>2018-09-29T09:36:55Z</time>
      </trkpt>
      <trkpt lat="43.072845" lon="-1.8453416666666667">
        <ele>974.8</ele>
        <time>2018-09-29T09:36:58Z</time>
      </trkpt>
      <trkpt lat="43.072835" lon="-1.845465">
        <ele>975.2</ele>
        <time>2018-09-29T09:37:02Z</time>
      </trkpt>
      <trkpt lat="43.07284166666667" lon="-1.845575">
        <ele>975.5</ele>
        <time>2018-09-29T09:37:05Z</time>
      </trkpt>
      <trkpt lat="43.07285" lon="-1.845675">
        <ele>975.8</ele>
        <time>2018-09-29T09:37:08Z</time>
      </trkpt>
      <trkpt lat="43.07285666666667" lon="-1.845805">
        <ele>976.3</ele>
        <time>2018-09-29T09:37:12Z</time>
      </trkpt>
      <trkpt lat="43.07286" lon="-1.8459050000000001">
        <ele>976.6</ele>
        <time>2018-09-29T09:37:15Z</time>
      </trkpt>
      <trkpt lat="43.072855" lon="-1.84603">
        <ele>977.1</ele>
        <time>2018-09-29T09:37:19Z</time>
      </trkpt>
      <trkpt lat="43.07285" lon="-1.84615">
        <ele>977.6</ele>
        <time>2018-09-29T09:37:23Z</time>
      </trkpt>
      <trkpt lat="43.07286" lon="-1.8462666666666667">
        <ele>978.0</ele>
        <time>2018-09-29T09:37:27Z</time>
      </trkpt>
      <trkpt lat="43.072865" lon="-1.846375">
        <ele>978.5</ele>
        <time>2018-09-29T09:37:31Z</time>
      </trkpt>
      <trkpt lat="43.07286166666667" lon="-1.8464983333333334">
        <ele>979.0</ele>
        <time>2018-09-29T09:37:35Z</time>
      </trkpt>
      <trkpt lat="43.07286666666667" lon="-1.84661">
        <ele>979.3</ele>
        <time>2018-09-29T09:37:38Z</time>
      </trkpt>
      <trkpt lat="43.072865" lon="-1.846705">
        <ele>979.7</ele>
        <time>2018-09-29T09:37:41Z</time>
      </trkpt>
      <trkpt lat="43.072873333333334" lon="-1.846835">
        <ele>980.1</ele>
        <time>2018-09-29T09:37:45Z</time>
      </trkpt>
      <trkpt lat="43.07288166666667" lon="-1.8469533333333334">
        <ele>980.6</ele>
        <time>2018-09-29T09:37:49Z</time>
      </trkpt>
      <trkpt lat="43.072885" lon="-1.84708">
        <ele>981.1</ele>
        <time>2018-09-29T09:37:53Z</time>
      </trkpt>
      <trkpt lat="43.072905" lon="-1.8471899999999999">
        <ele>981.5</ele>
        <time>2018-09-29T09:37:57Z</time>
      </trkpt>
      <trkpt lat="43.072925" lon="-1.8472966666666668">
        <ele>982.0</ele>
        <time>2018-09-29T09:38:01Z</time>
      </trkpt>
      <trkpt lat="43.072935" lon="-1.8474066666666666">
        <ele>982.4</ele>
        <time>2018-09-29T09:38:05Z</time>
      </trkpt>
      <trkpt lat="43.07295" lon="-1.84751">
        <ele>982.9</ele>
        <time>2018-09-29T09:38:10Z</time>
      </trkpt>
      <trkpt lat="43.072961666666664" lon="-1.84762">
        <ele>983.4</ele>
        <time>2018-09-29T09:38:15Z</time>
      </trkpt>
      <trkpt lat="43.072966666666666" lon="-1.84772">
        <ele>983.8</ele>
        <time>2018-09-29T09:38:20Z</time>
      </trkpt>
      <trkpt lat="43.07298" lon="-1.8478316666666665">
        <ele>984.3</ele>
        <time>2018-09-29T09:38:25Z</time>
      </trkpt>
      <trkpt lat="43.073006666666664" lon="-1.8479266666666665">
        <ele>984.8</ele>
        <time>2018-09-29T09:38:31Z</time>
      </trkpt>
      <trkpt lat="43.073045" lon="-1.8480266666666667">
        <ele>985.2</ele>
        <time>2018-09-29T09:38:36Z</time>
      </trkpt>
      <trkpt lat="43.07307" lon="-1.84812">
        <ele>985.7</ele>
        <time>2018-09-29T09:38:42Z</time>
      </trkpt>
      <trkpt lat="43.07308666666667" lon="-1.848215">
        <ele>986.3</ele>
        <time>2018-09-29T09:38:49Z</time>
      </trkpt>
      <trkpt lat="43.07312" lon="-1.848315">
        <ele>986.7</ele>
        <time>2018-09-29T09:38:54Z</time>
      </trkpt>
      <trkpt lat="43.073115" lon="-1.84842">
        <ele>987.1</ele>
        <time>2018-09-29T09:38:59Z</time>
      </trkpt>
      <trkpt lat="43.07312" lon="-1.848525">
        <ele>987.5</ele>
        <time>2018-09-29T09:39:05Z</time>
      </trkpt>
      <trkpt lat="43.07312" lon="-1.848665">
        <ele>987.8</ele>
        <time>2018-09-29T09:39:09Z</time>
      </trkpt>
      <trkpt lat="43.073145" lon="-1.8487733333333334">
        <ele>988.5</ele>
        <time>2018-09-29T09:39:11Z</time>
      </trkpt>
      <trkpt lat="43.07315666666667" lon="-1.8489">
        <ele>989.1</ele>
        <time>2018-09-29T09:39:13Z</time>
      </trkpt>
      <trkpt lat="43.073135" lon="-1.8490116666666667">
        <ele>989.5</ele>
        <time>2018-09-29T09:39:15Z</time>
      </trkpt>
      <trkpt lat="43.07305" lon="-1.8490966666666666">
        <ele>990.1</ele>
        <time>2018-09-29T09:39:17Z</time>
      </trkpt>
      <trkpt lat="43.07295" lon="-1.8492">
        <ele>990.5</ele>
        <time>2018-09-29T09:39:19Z</time>
      </trkpt>
      <trkpt lat="43.072885" lon="-1.8492616666666666">
        <ele>990.6</ele>
        <time>2018-09-29T09:39:20Z</time>
      </trkpt>
      <trkpt lat="43.0728" lon="-1.849335">
        <ele>990.7</ele>
        <time>2018-09-29T09:39:21Z</time>
      </trkpt>
      <trkpt lat="43.0727" lon="-1.8494">
        <ele>990.8</ele>
        <time>2018-09-29T09:39:22Z</time>
      </trkpt>
      <trkpt lat="43.07259" lon="-1.849475">
        <ele>990.9</ele>
        <time>2018-09-29T09:39:23Z</time>
      </trkpt>
      <trkpt lat="43.072491666666664" lon="-1.8495333333333335">
        <ele>990.9</ele>
        <time>2018-09-29T09:39:24Z</time>
      </trkpt>
      <trkpt lat="43.0724" lon="-1.8496000000000001">
        <ele>991.0</ele>
        <time>2018-09-29T09:39:25Z</time>
      </trkpt>
      <trkpt lat="43.07232" lon="-1.84966">
        <ele>991.0</ele>
        <time>2018-09-29T09:39:26Z</time>
      </trkpt>
      <trkpt lat="43.072225" lon="-1.8497949999999999">
        <ele>991.2</ele>
        <time>2018-09-29T09:39:28Z</time>
      </trkpt>
      <trkpt lat="43.072206666666666" lon="-1.8498933333333334">
        <ele>991.2</ele>
        <time>2018-09-29T09:39:30Z</time>
      </trkpt>
      <trkpt lat="43.072215" lon="-1.8500066666666668">
        <ele>991.2</ele>
        <time>2018-09-29T09:39:35Z</time>
      </trkpt>
      <trkpt lat="43.07225" lon="-1.8501150000000002">
        <ele>991.2</ele>
        <time>2018-09-29T09:39:40Z</time>
      </trkpt>
      <trkpt lat="43.07229" lon="-1.8502066666666668">
        <ele>991.3</ele>
        <time>2018-09-29T09:39:44Z</time>
      </trkpt>
      <trkpt lat="43.072361666666666" lon="-1.8502800000000001">
        <ele>991.3</ele>
        <time>2018-09-29T09:39:48Z</time>
      </trkpt>
      <trkpt lat="43.07242333333333" lon="-1.8503616666666667">
        <ele>991.4</ele>
        <time>2018-09-29T09:39:51Z</time>
      </trkpt>
      <trkpt lat="43.072475" lon="-1.8505">
        <ele>991.5</ele>
        <time>2018-09-29T09:39:54Z</time>
      </trkpt>
      <trkpt lat="43.07248" lon="-1.8506383333333334">
        <ele>992.0</ele>
        <time>2018-09-29T09:39:56Z</time>
      </trkpt>
      <trkpt lat="43.07246166666667" lon="-1.850735">
        <ele>992.2</ele>
        <time>2018-09-29T09:39:57Z</time>
      </trkpt>
      <trkpt lat="43.072435" lon="-1.850845">
        <ele>992.3</ele>
        <time>2018-09-29T09:39:58Z</time>
      </trkpt>
      <trkpt lat="43.072406666666666" lon="-1.85095">
        <ele>992.4</ele>
        <time>2018-09-29T09:39:59Z</time>
      </trkpt>
      <trkpt lat="43.07238666666667" lon="-1.8510566666666666">
        <ele>992.5</ele>
        <time>2018-09-29T09:40:00Z</time>
      </trkpt>
      <trkpt lat="43.072365" lon="-1.851175">
        <ele>992.5</ele>
        <time>2018-09-29T09:40:01Z</time>
      </trkpt>
      <trkpt lat="43.072345" lon="-1.851295">
        <ele>992.6</ele>
        <time>2018-09-29T09:40:02Z</time>
      </trkpt>
      <trkpt lat="43.07232666666667" lon="-1.8514333333333333">
        <ele>992.6</ele>
        <time>2018-09-29T09:40:04Z</time>
      </trkpt>
      <trkpt lat="43.07232166666667" lon="-1.8515533333333334">
        <ele>992.6</ele>
        <time>2018-09-29T09:40:08Z</time>
      </trkpt>
      <trkpt lat="43.072315" lon="-1.851675">
        <ele>992.6</ele>
        <time>2018-09-29T09:40:12Z</time>
      </trkpt>
      <trkpt lat="43.072338333333335" lon="-1.8517783333333333">
        <ele>992.6</ele>
        <time>2018-09-29T09:40:17Z</time>
      </trkpt>
      <trkpt lat="43.072385" lon="-1.85186">
        <ele>992.6</ele>
        <time>2018-09-29T09:40:21Z</time>
      </trkpt>
      <trkpt lat="43.07243" lon="-1.8519466666666666">
        <ele>992.6</ele>
        <time>2018-09-29T09:40:25Z</time>
      </trkpt>
      <trkpt lat="43.072485" lon="-1.85203">
        <ele>992.7</ele>
        <time>2018-09-29T09:40:29Z</time>
      </trkpt>
      <trkpt lat="43.07253" lon="-1.85212">
        <ele>992.7</ele>
        <time>2018-09-29T09:40:33Z</time>
      </trkpt>
      <trkpt lat="43.072585" lon="-1.8521999999999998">
        <ele>992.7</ele>
        <time>2018-09-29T09:40:39Z</time>
      </trkpt>
      <trkpt lat="43.072626666666665" lon="-1.8523">
        <ele>992.8</ele>
        <time>2018-09-29T09:40:43Z</time>
      </trkpt>
      <trkpt lat="43.07268" lon="-1.8523800000000001">
        <ele>992.9</ele>
        <time>2018-09-29T09:40:48Z</time>
      </trkpt>
      <trkpt lat="43.072735" lon="-1.85246">
        <ele>993.0</ele>
        <time>2018-09-29T09:40:54Z</time>
      </trkpt>
      <trkpt lat="43.07277" lon="-1.852545">
        <ele>993.2</ele>
        <time>2018-09-29T09:40:59Z</time>
      </trkpt>
      <trkpt lat="43.072765" lon="-1.852655">
        <ele>993.5</ele>
        <time>2018-09-29T09:41:05Z</time>
      </trkpt>
      <trkpt lat="43.07277666666667" lon="-1.8527733333333334">
        <ele>993.7</ele>
        <time>2018-09-29T09:41:10Z</time>
      </trkpt>
      <trkpt lat="43.072805" lon="-1.8528783333333334">
        <ele>993.9</ele>
        <time>2018-09-29T09:41:15Z</time>
      </trkpt>
      <trkpt lat="43.07276" lon="-1.8530066666666667">
        <ele>994.0</ele>
        <time>2018-09-29T09:41:18Z</time>
      </trkpt>
      <trkpt lat="43.07268" lon="-1.85307">
        <ele>994.9</ele>
        <time>2018-09-29T09:41:20Z</time>
      </trkpt>
      <trkpt lat="43.07257" lon="-1.8531316666666666">
        <ele>995.6</ele>
        <time>2018-09-29T09:41:22Z</time>
      </trkpt>
      <trkpt lat="43.072485" lon="-1.8532433333333334">
        <ele>996.0</ele>
        <time>2018-09-29T09:41:24Z</time>
      </trkpt>
      <trkpt lat="43.072406666666666" lon="-1.8533883333333332">
        <ele>996.3</ele>
        <time>2018-09-29T09:41:26Z</time>
      </trkpt>
      <trkpt lat="43.07238" lon="-1.8535400000000002">
        <ele>996.4</ele>
        <time>2018-09-29T09:41:28Z</time>
      </trkpt>
      <trkpt lat="43.072395" lon="-1.85365">
        <ele>996.4</ele>
        <time>2018-09-29T09:41:30Z</time>
      </trkpt>
      <trkpt lat="43.072395" lon="-1.8537750000000002">
        <ele>996.4</ele>
        <time>2018-09-29T09:41:33Z</time>
      </trkpt>
      <trkpt lat="43.07239166666667" lon="-1.853885">
        <ele>996.4</ele>
        <time>2018-09-29T09:41:35Z</time>
      </trkpt>
      <trkpt lat="43.07236" lon="-1.8540366666666666">
        <ele>996.3</ele>
        <time>2018-09-29T09:41:37Z</time>
      </trkpt>
      <trkpt lat="43.072325" lon="-1.854195">
        <ele>996.2</ele>
        <time>2018-09-29T09:41:39Z</time>
      </trkpt>
      <trkpt lat="43.072305" lon="-1.85436">
        <ele>995.9</ele>
        <time>2018-09-29T09:41:41Z</time>
      </trkpt>
      <trkpt lat="43.07226" lon="-1.854455">
        <ele>995.8</ele>
        <time>2018-09-29T09:41:43Z</time>
      </trkpt>
      <trkpt lat="43.072235" lon="-1.8545616666666667">
        <ele>995.8</ele>
        <time>2018-09-29T09:41:46Z</time>
      </trkpt>
      <trkpt lat="43.07221" lon="-1.8546583333333333">
        <ele>995.7</ele>
        <time>2018-09-29T09:41:51Z</time>
      </trkpt>
      <trkpt lat="43.07217" lon="-1.854765">
        <ele>995.6</ele>
        <time>2018-09-29T09:41:55Z</time>
      </trkpt>
      <trkpt lat="43.072125" lon="-1.8548483333333334">
        <ele>995.5</ele>
        <time>2018-09-29T09:41:59Z</time>
      </trkpt>
      <trkpt lat="43.072085" lon="-1.8549433333333334">
        <ele>995.4</ele>
        <time>2018-09-29T09:42:04Z</time>
      </trkpt>
      <trkpt lat="43.07202" lon="-1.8550233333333335">
        <ele>995.3</ele>
        <time>2018-09-29T09:42:08Z</time>
      </trkpt>
      <trkpt lat="43.07196166666667" lon="-1.8551066666666665">
        <ele>995.2</ele>
        <time>2018-09-29T09:42:12Z</time>
      </trkpt>
      <trkpt lat="43.07189666666667" lon="-1.8551950000000001">
        <ele>995.1</ele>
        <time>2018-09-29T09:42:16Z</time>
      </trkpt>
      <trkpt lat="43.07184" lon="-1.8552666666666666">
        <ele>995.1</ele>
        <time>2018-09-29T09:42:19Z</time>
      </trkpt>
      <trkpt lat="43.071775" lon="-1.8553533333333334">
        <ele>995.0</ele>
        <time>2018-09-29T09:42:24Z</time>
      </trkpt>
      <trkpt lat="43.07172166666667" lon="-1.8554499999999998">
        <ele>995.0</ele>
        <time>2018-09-29T09:42:28Z</time>
      </trkpt>
      <trkpt lat="43.071665" lon="-1.85553">
        <ele>994.9</ele>
        <time>2018-09-29T09:42:33Z</time>
      </trkpt>
      <trkpt lat="43.07163666666667" lon="-1.8556233333333334">
        <ele>994.9</ele>
        <time>2018-09-29T09:42:37Z</time>
      </trkpt>
      <trkpt lat="43.07159166666667" lon="-1.85572">
        <ele>994.9</ele>
        <time>2018-09-29T09:42:41Z</time>
      </trkpt>
      <trkpt lat="43.071556666666666" lon="-1.8558316666666665">
        <ele>994.9</ele>
        <time>2018-09-29T09:42:46Z</time>
      </trkpt>
      <trkpt lat="43.07153" lon="-1.8559350000000001">
        <ele>994.9</ele>
        <time>2018-09-29T09:42:50Z</time>
      </trkpt>
      <trkpt lat="43.071515" lon="-1.8560333333333334">
        <ele>994.9</ele>
        <time>2018-09-29T09:42:54Z</time>
      </trkpt>
      <trkpt lat="43.07147666666667" lon="-1.856145">
        <ele>994.9</ele>
        <time>2018-09-29T09:42:58Z</time>
      </trkpt>
      <trkpt lat="43.071465" lon="-1.856225">
        <ele>994.9</ele>
        <time>2018-09-29T09:43:05Z</time>
      </trkpt>
      <trkpt lat="43.07147166666667" lon="-1.8562633333333332">
        <ele>995.0</ele>
        <time>2018-09-29T09:43:12Z</time>
      </trkpt>
      <trkpt lat="43.07146" lon="-1.85639">
        <ele>995.0</ele>
        <time>2018-09-29T09:43:17Z</time>
      </trkpt>
      <trkpt lat="43.07146" lon="-1.8565066666666667">
        <ele>995.0</ele>
        <time>2018-09-29T09:43:21Z</time>
      </trkpt>
      <trkpt lat="43.071455" lon="-1.8566216666666668">
        <ele>995.1</ele>
        <time>2018-09-29T09:43:25Z</time>
      </trkpt>
      <trkpt lat="43.07147166666667" lon="-1.85674">
        <ele>995.1</ele>
        <time>2018-09-29T09:43:30Z</time>
      </trkpt>
      <trkpt lat="43.0715" lon="-1.856865">
        <ele>995.2</ele>
        <time>2018-09-29T09:43:34Z</time>
      </trkpt>
      <trkpt lat="43.07149166666667" lon="-1.85701">
        <ele>995.2</ele>
        <time>2018-09-29T09:43:37Z</time>
      </trkpt>
      <trkpt lat="43.071505" lon="-1.85714">
        <ele>995.3</ele>
        <time>2018-09-29T09:43:40Z</time>
      </trkpt>
      <trkpt lat="43.07151666666667" lon="-1.8572516666666665">
        <ele>995.4</ele>
        <time>2018-09-29T09:43:42Z</time>
      </trkpt>
      <trkpt lat="43.071535" lon="-1.85737">
        <ele>995.5</ele>
        <time>2018-09-29T09:43:44Z</time>
      </trkpt>
      <trkpt lat="43.071525" lon="-1.8574966666666666">
        <ele>995.7</ele>
        <time>2018-09-29T09:43:46Z</time>
      </trkpt>
      <trkpt lat="43.071526666666664" lon="-1.8576283333333334">
        <ele>995.7</ele>
        <time>2018-09-29T09:43:49Z</time>
      </trkpt>
      <trkpt lat="43.071555" lon="-1.8577233333333334">
        <ele>995.8</ele>
        <time>2018-09-29T09:43:52Z</time>
      </trkpt>
      <trkpt lat="43.071596666666665" lon="-1.857825">
        <ele>995.8</ele>
        <time>2018-09-29T09:43:56Z</time>
      </trkpt>
      <trkpt lat="43.071635" lon="-1.8579233333333334">
        <ele>995.9</ele>
        <time>2018-09-29T09:44:01Z</time>
      </trkpt>
      <trkpt lat="43.071675" lon="-1.8580299999999998">
        <ele>995.9</ele>
        <time>2018-09-29T09:44:05Z</time>
      </trkpt>
      <trkpt lat="43.071691666666666" lon="-1.8581466666666666">
        <ele>996.0</ele>
        <time>2018-09-29T09:44:09Z</time>
      </trkpt>
      <trkpt lat="43.071695" lon="-1.85827">
        <ele>996.0</ele>
        <time>2018-09-29T09:44:13Z</time>
      </trkpt>
      <trkpt lat="43.07168" lon="-1.8583850000000002">
        <ele>996.1</ele>
        <time>2018-09-29T09:44:17Z</time>
      </trkpt>
      <trkpt lat="43.071655" lon="-1.858495">
        <ele>996.2</ele>
        <time>2018-09-29T09:44:22Z</time>
      </trkpt>
      <trkpt lat="43.071645" lon="-1.8586116666666666">
        <ele>996.3</ele>
        <time>2018-09-29T09:44:27Z</time>
      </trkpt>
      <trkpt lat="43.071615" lon="-1.8587150000000001">
        <ele>996.4</ele>
        <time>2018-09-29T09:44:31Z</time>
      </trkpt>
      <trkpt lat="43.071615" lon="-1.8588200000000001">
        <ele>996.5</ele>
        <time>2018-09-29T09:44:36Z</time>
      </trkpt>
      <trkpt lat="43.071601666666666" lon="-1.85893">
        <ele>996.6</ele>
        <time>2018-09-29T09:44:40Z</time>
      </trkpt>
      <trkpt lat="43.0716" lon="-1.8590433333333334">
        <ele>996.7</ele>
        <time>2018-09-29T09:44:44Z</time>
      </trkpt>
      <trkpt lat="43.071585" lon="-1.859175">
        <ele>996.8</ele>
        <time>2018-09-29T09:44:48Z</time>
      </trkpt>
      <trkpt lat="43.071575" lon="-1.859275">
        <ele>997.0</ele>
        <time>2018-09-29T09:44:52Z</time>
      </trkpt>
      <trkpt lat="43.071555" lon="-1.8593966666666666">
        <ele>997.2</ele>
        <time>2018-09-29T09:44:57Z</time>
      </trkpt>
      <trkpt lat="43.071545" lon="-1.8595183333333334">
        <ele>997.5</ele>
        <time>2018-09-29T09:45:01Z</time>
      </trkpt>
      <trkpt lat="43.07154" lon="-1.8596216666666667">
        <ele>997.7</ele>
        <time>2018-09-29T09:45:05Z</time>
      </trkpt>
      <trkpt lat="43.071526666666664" lon="-1.8597299999999999">
        <ele>997.9</ele>
        <time>2018-09-29T09:45:09Z</time>
      </trkpt>
      <trkpt lat="43.071511666666666" lon="-1.859835">
        <ele>998.2</ele>
        <time>2018-09-29T09:45:13Z</time>
      </trkpt>
      <trkpt lat="43.0715" lon="-1.8599366666666666">
        <ele>998.5</ele>
        <time>2018-09-29T09:45:17Z</time>
      </trkpt>
      <trkpt lat="43.071485" lon="-1.8600400000000001">
        <ele>998.8</ele>
        <time>2018-09-29T09:45:22Z</time>
      </trkpt>
      <trkpt lat="43.071466666666666" lon="-1.86015">
        <ele>999.2</ele>
        <time>2018-09-29T09:45:27Z</time>
      </trkpt>
      <trkpt lat="43.07145" lon="-1.8602616666666667">
        <ele>999.6</ele>
        <time>2018-09-29T09:45:32Z</time>
      </trkpt>
      <trkpt lat="43.071415" lon="-1.8603616666666665">
        <ele>1000.1</ele>
        <time>2018-09-29T09:45:37Z</time>
      </trkpt>
      <trkpt lat="43.07139166666666" lon="-1.86046">
        <ele>1000.5</ele>
        <time>2018-09-29T09:45:42Z</time>
      </trkpt>
      <trkpt lat="43.071345" lon="-1.86055">
        <ele>1000.9</ele>
        <time>2018-09-29T09:45:46Z</time>
      </trkpt>
      <trkpt lat="43.07132" lon="-1.8606449999999999">
        <ele>1001.2</ele>
        <time>2018-09-29T09:45:50Z</time>
      </trkpt>
      <trkpt lat="43.071295" lon="-1.8607516666666668">
        <ele>1001.7</ele>
        <time>2018-09-29T09:45:55Z</time>
      </trkpt>
      <trkpt lat="43.07126" lon="-1.8608466666666668">
        <ele>1002.1</ele>
        <time>2018-09-29T09:46:00Z</time>
      </trkpt>
      <trkpt lat="43.07126" lon="-1.86096">
        <ele>1002.6</ele>
        <time>2018-09-29T09:46:05Z</time>
      </trkpt>
      <trkpt lat="43.07124666666667" lon="-1.8610666666666666">
        <ele>1003.1</ele>
        <time>2018-09-29T09:46:10Z</time>
      </trkpt>
      <trkpt lat="43.07124" lon="-1.86118">
        <ele>1003.6</ele>
        <time>2018-09-29T09:46:15Z</time>
      </trkpt>
      <trkpt lat="43.071245" lon="-1.8612916666666668">
        <ele>1004.1</ele>
        <time>2018-09-29T09:46:20Z</time>
      </trkpt>
      <trkpt lat="43.071235" lon="-1.861405">
        <ele>1004.7</ele>
        <time>2018-09-29T09:46:25Z</time>
      </trkpt>
      <trkpt lat="43.071216666666665" lon="-1.8615">
        <ele>1005.2</ele>
        <time>2018-09-29T09:46:30Z</time>
      </trkpt>
      <trkpt lat="43.071191666666664" lon="-1.8615949999999999">
        <ele>1005.6</ele>
        <time>2018-09-29T09:46:34Z</time>
      </trkpt>
      <trkpt lat="43.071165" lon="-1.861695">
        <ele>1006.2</ele>
        <time>2018-09-29T09:46:39Z</time>
      </trkpt>
      <trkpt lat="43.071126666666665" lon="-1.86179">
        <ele>1006.7</ele>
        <time>2018-09-29T09:46:44Z</time>
      </trkpt>
      <trkpt lat="43.071105" lon="-1.861895">
        <ele>1007.2</ele>
        <time>2018-09-29T09:46:49Z</time>
      </trkpt>
      <trkpt lat="43.071065" lon="-1.861985">
        <ele>1007.8</ele>
        <time>2018-09-29T09:46:54Z</time>
      </trkpt>
      <trkpt lat="43.07099" lon="-1.861985">
        <ele>1008.3</ele>
        <time>2018-09-29T09:46:59Z</time>
      </trkpt>
      <trkpt lat="43.07093" lon="-1.8619316666666665">
        <ele>1008.7</ele>
        <time>2018-09-29T09:47:02Z</time>
      </trkpt>
      <trkpt lat="43.070861666666666" lon="-1.8618450000000002">
        <ele>1009.1</ele>
        <time>2018-09-29T09:47:06Z</time>
      </trkpt>
      <trkpt lat="43.07085166666667" lon="-1.8617416666666666">
        <ele>1009.5</ele>
        <time>2018-09-29T09:47:10Z</time>
      </trkpt>
      <trkpt lat="43.07084" lon="-1.861615">
        <ele>1009.9</ele>
        <time>2018-09-29T09:47:14Z</time>
      </trkpt>
      <trkpt lat="43.070811666666664" lon="-1.8615016666666668">
        <ele>1010.3</ele>
        <time>2018-09-29T09:47:18Z</time>
      </trkpt>
      <trkpt lat="43.07077" lon="-1.8613866666666667">
        <ele>1010.6</ele>
        <time>2018-09-29T09:47:22Z</time>
      </trkpt>
      <trkpt lat="43.07074" lon="-1.861275">
        <ele>1010.9</ele>
        <time>2018-09-29T09:47:25Z</time>
      </trkpt>
      <trkpt lat="43.070715" lon="-1.86118">
        <ele>1011.1</ele>
        <time>2018-09-29T09:47:28Z</time>
      </trkpt>
      <trkpt lat="43.07068666666667" lon="-1.861075">
        <ele>1011.4</ele>
        <time>2018-09-29T09:47:31Z</time>
      </trkpt>
      <trkpt lat="43.07065" lon="-1.86097">
        <ele>1011.6</ele>
        <time>2018-09-29T09:47:34Z</time>
      </trkpt>
      <trkpt lat="43.07059666666667" lon="-1.860865">
        <ele>1011.9</ele>
        <time>2018-09-29T09:47:38Z</time>
      </trkpt>
      <trkpt lat="43.070565" lon="-1.8607466666666665">
        <ele>1012.2</ele>
        <time>2018-09-29T09:47:42Z</time>
      </trkpt>
      <trkpt lat="43.070535" lon="-1.860635">
        <ele>1012.5</ele>
        <time>2018-09-29T09:47:46Z</time>
      </trkpt>
      <trkpt lat="43.0705" lon="-1.860525">
        <ele>1012.9</ele>
        <time>2018-09-29T09:47:51Z</time>
      </trkpt>
      <trkpt lat="43.07048" lon="-1.86043">
        <ele>1013.2</ele>
        <time>2018-09-29T09:47:55Z</time>
      </trkpt>
      <trkpt lat="43.070455" lon="-1.86032">
        <ele>1013.4</ele>
        <time>2018-09-29T09:47:58Z</time>
      </trkpt>
      <trkpt lat="43.07043" lon="-1.8602066666666666">
        <ele>1013.6</ele>
        <time>2018-09-29T09:48:01Z</time>
      </trkpt>
      <trkpt lat="43.070415" lon="-1.860105">
        <ele>1013.8</ele>
        <time>2018-09-29T09:48:04Z</time>
      </trkpt>
      <trkpt lat="43.07040166666667" lon="-1.8599999999999999">
        <ele>1014.1</ele>
        <time>2018-09-29T09:48:07Z</time>
      </trkpt>
      <trkpt lat="43.07039" lon="-1.8598966666666668">
        <ele>1014.3</ele>
        <time>2018-09-29T09:48:10Z</time>
      </trkpt>
      <trkpt lat="43.07036166666666" lon="-1.8597866666666667">
        <ele>1014.5</ele>
        <time>2018-09-29T09:48:13Z</time>
      </trkpt>
      <trkpt lat="43.07033" lon="-1.8596766666666666">
        <ele>1014.7</ele>
        <time>2018-09-29T09:48:16Z</time>
      </trkpt>
      <trkpt lat="43.070281666666666" lon="-1.859575">
        <ele>1014.9</ele>
        <time>2018-09-29T09:48:19Z</time>
      </trkpt>
      <trkpt lat="43.070235" lon="-1.8594833333333334">
        <ele>1015.1</ele>
        <time>2018-09-29T09:48:22Z</time>
      </trkpt>
      <trkpt lat="43.07019" lon="-1.859395">
        <ele>1015.3</ele>
        <time>2018-09-29T09:48:25Z</time>
      </trkpt>
      <trkpt lat="43.07013666666667" lon="-1.859305">
        <ele>1015.4</ele>
        <time>2018-09-29T09:48:28Z</time>
      </trkpt>
      <trkpt lat="43.07011" lon="-1.85919">
        <ele>1015.6</ele>
        <time>2018-09-29T09:48:31Z</time>
      </trkpt>
      <trkpt lat="43.07011" lon="-1.8590866666666668">
        <ele>1015.8</ele>
        <time>2018-09-29T09:48:34Z</time>
      </trkpt>
      <trkpt lat="43.070076666666665" lon="-1.8589950000000002">
        <ele>1016.0</ele>
        <time>2018-09-29T09:48:37Z</time>
      </trkpt>
      <trkpt lat="43.070035" lon="-1.8588766666666667">
        <ele>1016.2</ele>
        <time>2018-09-29T09:48:40Z</time>
      </trkpt>
      <trkpt lat="43.06997" lon="-1.858755">
        <ele>1017.0</ele>
        <time>2018-09-29T09:49:03Z</time>
      </trkpt>
      <trkpt lat="43.069918333333334" lon="-1.85868">
        <ele>1017.3</ele>
        <time>2018-09-29T09:49:08Z</time>
      </trkpt>
      <trkpt lat="43.069875" lon="-1.858585">
        <ele>1017.8</ele>
        <time>2018-09-29T09:49:15Z</time>
      </trkpt>
      <trkpt lat="43.06987" lon="-1.85846">
        <ele>1018.1</ele>
        <time>2018-09-29T09:49:21Z</time>
      </trkpt>
      <trkpt lat="43.069895" lon="-1.858355">
        <ele>1018.5</ele>
        <time>2018-09-29T09:49:27Z</time>
      </trkpt>
      <trkpt lat="43.069865" lon="-1.85823">
        <ele>1018.8</ele>
        <time>2018-09-29T09:49:32Z</time>
      </trkpt>
      <trkpt lat="43.069833333333335" lon="-1.8581400000000001">
        <ele>1019.0</ele>
        <time>2018-09-29T09:49:36Z</time>
      </trkpt>
      <trkpt lat="43.069831666666666" lon="-1.85804">
        <ele>1019.3</ele>
        <time>2018-09-29T09:49:41Z</time>
      </trkpt>
      <trkpt lat="43.069845" lon="-1.857935">
        <ele>1019.7</ele>
        <time>2018-09-29T09:49:46Z</time>
      </trkpt>
      <trkpt lat="43.06985666666667" lon="-1.85784">
        <ele>1020.2</ele>
        <time>2018-09-29T09:49:52Z</time>
      </trkpt>
      <trkpt lat="43.06988" lon="-1.857735">
        <ele>1020.9</ele>
        <time>2018-09-29T09:49:58Z</time>
      </trkpt>
      <trkpt lat="43.06988666666667" lon="-1.8576133333333333">
        <ele>1021.6</ele>
        <time>2018-09-29T09:50:04Z</time>
      </trkpt>
      <trkpt lat="43.069896666666665" lon="-1.85751">
        <ele>1022.3</ele>
        <time>2018-09-29T09:50:09Z</time>
      </trkpt>
      <trkpt lat="43.06991333333333" lon="-1.8574283333333335">
        <ele>1023.2</ele>
        <time>2018-09-29T09:50:16Z</time>
      </trkpt>
      <trkpt lat="43.069921666666666" lon="-1.8573116666666665">
        <ele>1023.9</ele>
        <time>2018-09-29T09:50:21Z</time>
      </trkpt>
      <trkpt lat="43.069895" lon="-1.8572166666666665">
        <ele>1024.9</ele>
        <time>2018-09-29T09:50:28Z</time>
      </trkpt>
      <trkpt lat="43.069885" lon="-1.85713">
        <ele>1026.0</ele>
        <time>2018-09-29T09:50:35Z</time>
      </trkpt>
      <trkpt lat="43.069905" lon="-1.8570316666666666">
        <ele>1026.7</ele>
        <time>2018-09-29T09:50:40Z</time>
      </trkpt>
      <trkpt lat="43.06986" lon="-1.85693">
        <ele>1027.5</ele>
        <time>2018-09-29T09:50:45Z</time>
      </trkpt>
      <trkpt lat="43.069855" lon="-1.8568166666666666">
        <ele>1028.5</ele>
        <time>2018-09-29T09:50:51Z</time>
      </trkpt>
      <trkpt lat="43.06984" lon="-1.8567166666666668">
        <ele>1029.4</ele>
        <time>2018-09-29T09:50:56Z</time>
      </trkpt>
      <trkpt lat="43.069795" lon="-1.856635">
        <ele>1030.1</ele>
        <time>2018-09-29T09:51:00Z</time>
      </trkpt>
      <trkpt lat="43.06975" lon="-1.8565566666666666">
        <ele>1031.0</ele>
        <time>2018-09-29T09:51:05Z</time>
      </trkpt>
      <trkpt lat="43.06972" lon="-1.8564349999999998">
        <ele>1032.0</ele>
        <time>2018-09-29T09:51:11Z</time>
      </trkpt>
      <trkpt lat="43.069675" lon="-1.8563533333333333">
        <ele>1032.8</ele>
        <time>2018-09-29T09:51:16Z</time>
      </trkpt>
      <trkpt lat="43.069646666666664" lon="-1.85625">
        <ele>1033.9</ele>
        <time>2018-09-29T09:51:23Z</time>
      </trkpt>
      <trkpt lat="43.06962" lon="-1.85615">
        <ele>1034.9</ele>
        <time>2018-09-29T09:51:30Z</time>
      </trkpt>
      <trkpt lat="43.06958" lon="-1.856045">
        <ele>1035.6</ele>
        <time>2018-09-29T09:51:35Z</time>
      </trkpt>
      <trkpt lat="43.069565" lon="-1.8559283333333334">
        <ele>1036.4</ele>
        <time>2018-09-29T09:51:40Z</time>
      </trkpt>
      <trkpt lat="43.06954" lon="-1.85583">
        <ele>1037.3</ele>
        <time>2018-09-29T09:51:46Z</time>
      </trkpt>
      <trkpt lat="43.06952" lon="-1.8557316666666668">
        <ele>1038.3</ele>
        <time>2018-09-29T09:51:53Z</time>
      </trkpt>
      <trkpt lat="43.069575" lon="-1.8556333333333335">
        <ele>1039.0</ele>
        <time>2018-09-29T09:51:58Z</time>
      </trkpt>
      <trkpt lat="43.069575" lon="-1.855515">
        <ele>1039.7</ele>
        <time>2018-09-29T09:52:03Z</time>
      </trkpt>
      <trkpt lat="43.06957" lon="-1.855405">
        <ele>1040.3</ele>
        <time>2018-09-29T09:52:07Z</time>
      </trkpt>
      <trkpt lat="43.06954666666667" lon="-1.855315">
        <ele>1040.9</ele>
        <time>2018-09-29T09:52:11Z</time>
      </trkpt>
      <trkpt lat="43.069535" lon="-1.8551983333333335">
        <ele>1041.7</ele>
        <time>2018-09-29T09:52:16Z</time>
      </trkpt>
      <trkpt lat="43.06951" lon="-1.8550916666666666">
        <ele>1042.7</ele>
        <time>2018-09-29T09:52:22Z</time>
      </trkpt>
      <trkpt lat="43.06948" lon="-1.855">
        <ele>1043.4</ele>
        <time>2018-09-29T09:52:26Z</time>
      </trkpt>
      <trkpt lat="43.069465" lon="-1.8549">
        <ele>1044.2</ele>
        <time>2018-09-29T09:52:30Z</time>
      </trkpt>
      <trkpt lat="43.069445" lon="-1.85479">
        <ele>1045.1</ele>
        <time>2018-09-29T09:52:36Z</time>
      </trkpt>
      <trkpt lat="43.069435" lon="-1.8546733333333334">
        <ele>1046.0</ele>
        <time>2018-09-29T09:52:42Z</time>
      </trkpt>
      <trkpt lat="43.069415" lon="-1.8545633333333333">
        <ele>1046.9</ele>
        <time>2018-09-29T09:52:49Z</time>
      </trkpt>
      <trkpt lat="43.069381666666665" lon="-1.8544649999999998">
        <ele>1047.7</ele>
        <time>2018-09-29T09:52:53Z</time>
      </trkpt>
      <trkpt lat="43.069345" lon="-1.8543766666666666">
        <ele>1048.3</ele>
        <time>2018-09-29T09:52:57Z</time>
      </trkpt>
      <trkpt lat="43.06929" lon="-1.8542883333333333">
        <ele>1048.9</ele>
        <time>2018-09-29T09:53:01Z</time>
      </trkpt>
      <trkpt lat="43.06922" lon="-1.85425">
        <ele>1049.8</ele>
        <time>2018-09-29T09:53:07Z</time>
      </trkpt>
      <trkpt lat="43.069135" lon="-1.8542450000000001">
        <ele>1050.6</ele>
        <time>2018-09-29T09:53:13Z</time>
      </trkpt>
      <trkpt lat="43.06908166666667" lon="-1.85433">
        <ele>1051.7</ele>
        <time>2018-09-29T09:53:20Z</time>
      </trkpt>
      <trkpt lat="43.069071666666666" lon="-1.854435">
        <ele>1052.7</ele>
        <time>2018-09-29T09:53:26Z</time>
      </trkpt>
      <trkpt lat="43.069035" lon="-1.8545250000000002">
        <ele>1053.5</ele>
        <time>2018-09-29T09:53:31Z</time>
      </trkpt>
      <trkpt lat="43.068985" lon="-1.854595">
        <ele>1054.2</ele>
        <time>2018-09-29T09:53:35Z</time>
      </trkpt>
      <trkpt lat="43.06891" lon="-1.8546483333333335">
        <ele>1055.2</ele>
        <time>2018-09-29T09:53:40Z</time>
      </trkpt>
      <trkpt lat="43.06882" lon="-1.8546966666666667">
        <ele>1056.1</ele>
        <time>2018-09-29T09:53:45Z</time>
      </trkpt>
      <trkpt lat="43.068725" lon="-1.8547333333333333">
        <ele>1056.7</ele>
        <time>2018-09-29T09:53:48Z</time>
      </trkpt>
      <trkpt lat="43.068621666666665" lon="-1.8547516666666666">
        <ele>1057.3</ele>
        <time>2018-09-29T09:53:51Z</time>
      </trkpt>
      <trkpt lat="43.06854" lon="-1.8547600000000002">
        <ele>1060.8</ele>
        <time>2018-09-29T09:53:53Z</time>
      </trkpt>
      <trkpt lat="43.06845166666667" lon="-1.8547433333333334">
        <ele>1063.1</ele>
        <time>2018-09-29T09:53:55Z</time>
      </trkpt>
      <trkpt lat="43.068351666666665" lon="-1.85472">
        <ele>1064.7</ele>
        <time>2018-09-29T09:53:57Z</time>
      </trkpt>
      <trkpt lat="43.06825" lon="-1.85471">
        <ele>1065.7</ele>
        <time>2018-09-29T09:53:59Z</time>
      </trkpt>
      <trkpt lat="43.06816" lon="-1.854725">
        <ele>1066.5</ele>
        <time>2018-09-29T09:54:01Z</time>
      </trkpt>
      <trkpt lat="43.068075" lon="-1.8547466666666668">
        <ele>1066.8</ele>
        <time>2018-09-29T09:54:03Z</time>
      </trkpt>
      <trkpt lat="43.067995" lon="-1.8547850000000001">
        <ele>1067.1</ele>
        <time>2018-09-29T09:54:05Z</time>
      </trkpt>
      <trkpt lat="43.067925" lon="-1.8548283333333333">
        <ele>1067.2</ele>
        <time>2018-09-29T09:54:07Z</time>
      </trkpt>
      <trkpt lat="43.067835" lon="-1.85489">
        <ele>1067.6</ele>
        <time>2018-09-29T09:54:10Z</time>
      </trkpt>
      <trkpt lat="43.067755" lon="-1.854975">
        <ele>1068.1</ele>
        <time>2018-09-29T09:54:13Z</time>
      </trkpt>
      <trkpt lat="43.067695" lon="-1.85504">
        <ele>1068.8</ele>
        <time>2018-09-29T09:54:15Z</time>
      </trkpt>
      <trkpt lat="43.06763" lon="-1.8551166666666667">
        <ele>1069.4</ele>
        <time>2018-09-29T09:54:17Z</time>
      </trkpt>
      <trkpt lat="43.06756" lon="-1.8552116666666667">
        <ele>1070.0</ele>
        <time>2018-09-29T09:54:19Z</time>
      </trkpt>
      <trkpt lat="43.06749" lon="-1.8553183333333334">
        <ele>1070.5</ele>
        <time>2018-09-29T09:54:21Z</time>
      </trkpt>
      <trkpt lat="43.067411666666665" lon="-1.8554216666666665">
        <ele>1070.9</ele>
        <time>2018-09-29T09:54:23Z</time>
      </trkpt>
      <trkpt lat="43.06734" lon="-1.8555416666666669">
        <ele>1071.3</ele>
        <time>2018-09-29T09:54:25Z</time>
      </trkpt>
      <trkpt lat="43.06728" lon="-1.855695">
        <ele>1071.6</ele>
        <time>2018-09-29T09:54:28Z</time>
      </trkpt>
      <trkpt lat="43.067211666666665" lon="-1.855865">
        <ele>1072.0</ele>
        <time>2018-09-29T09:54:30Z</time>
      </trkpt>
      <trkpt lat="43.06718" lon="-1.85596">
        <ele>1072.2</ele>
        <time>2018-09-29T09:54:31Z</time>
      </trkpt>
      <trkpt lat="43.06715166666667" lon="-1.856055">
        <ele>1072.4</ele>
        <time>2018-09-29T09:54:32Z</time>
      </trkpt>
      <trkpt lat="43.067135" lon="-1.8561616666666667">
        <ele>1072.5</ele>
        <time>2018-09-29T09:54:33Z</time>
      </trkpt>
      <trkpt lat="43.067103333333336" lon="-1.8562750000000001">
        <ele>1072.7</ele>
        <time>2018-09-29T09:54:34Z</time>
      </trkpt>
      <trkpt lat="43.067075" lon="-1.8563966666666667">
        <ele>1072.8</ele>
        <time>2018-09-29T09:54:35Z</time>
      </trkpt>
      <trkpt lat="43.06704" lon="-1.8565216666666666">
        <ele>1072.9</ele>
        <time>2018-09-29T09:54:36Z</time>
      </trkpt>
      <trkpt lat="43.067" lon="-1.85664">
        <ele>1073.0</ele>
        <time>2018-09-29T09:54:37Z</time>
      </trkpt>
      <trkpt lat="43.06695666666667" lon="-1.8567616666666669">
        <ele>1073.0</ele>
        <time>2018-09-29T09:54:38Z</time>
      </trkpt>
      <trkpt lat="43.066905" lon="-1.8568799999999999">
        <ele>1073.0</ele>
        <time>2018-09-29T09:54:39Z</time>
      </trkpt>
      <trkpt lat="43.06685" lon="-1.8569916666666666">
        <ele>1073.1</ele>
        <time>2018-09-29T09:54:40Z</time>
      </trkpt>
      <trkpt lat="43.06680166666667" lon="-1.85711">
        <ele>1073.2</ele>
        <time>2018-09-29T09:54:41Z</time>
      </trkpt>
      <trkpt lat="43.06675" lon="-1.8572250000000001">
        <ele>1073.4</ele>
        <time>2018-09-29T09:54:42Z</time>
      </trkpt>
      <trkpt lat="43.066715" lon="-1.8573433333333333">
        <ele>1073.6</ele>
        <time>2018-09-29T09:54:43Z</time>
      </trkpt>
      <trkpt lat="43.066676666666666" lon="-1.857465">
        <ele>1073.9</ele>
        <time>2018-09-29T09:54:44Z</time>
      </trkpt>
      <trkpt lat="43.06665" lon="-1.85758">
        <ele>1074.2</ele>
        <time>2018-09-29T09:54:45Z</time>
      </trkpt>
      <trkpt lat="43.06664" lon="-1.8576966666666666">
        <ele>1074.6</ele>
        <time>2018-09-29T09:54:46Z</time>
      </trkpt>
      <trkpt lat="43.06662166666667" lon="-1.857815">
        <ele>1074.9</ele>
        <time>2018-09-29T09:54:47Z</time>
      </trkpt>
      <trkpt lat="43.066605" lon="-1.8579266666666667">
        <ele>1075.2</ele>
        <time>2018-09-29T09:54:48Z</time>
      </trkpt>
      <trkpt lat="43.06659" lon="-1.85804">
        <ele>1075.3</ele>
        <time>2018-09-29T09:54:49Z</time>
      </trkpt>
      <trkpt lat="43.066586666666666" lon="-1.8581516666666666">
        <ele>1075.5</ele>
        <time>2018-09-29T09:54:50Z</time>
      </trkpt>
      <trkpt lat="43.06658" lon="-1.85826">
        <ele>1075.7</ele>
        <time>2018-09-29T09:54:51Z</time>
      </trkpt>
      <trkpt lat="43.066565" lon="-1.858365">
        <ele>1075.9</ele>
        <time>2018-09-29T09:54:52Z</time>
      </trkpt>
      <trkpt lat="43.066545" lon="-1.85846">
        <ele>1076.1</ele>
        <time>2018-09-29T09:54:53Z</time>
      </trkpt>
      <trkpt lat="43.06651" lon="-1.85855">
        <ele>1076.2</ele>
        <time>2018-09-29T09:54:54Z</time>
      </trkpt>
      <trkpt lat="43.06647" lon="-1.85872">
        <ele>1076.3</ele>
        <time>2018-09-29T09:54:56Z</time>
      </trkpt>
      <trkpt lat="43.066428333333334" lon="-1.8588816666666665">
        <ele>1077.0</ele>
        <time>2018-09-29T09:54:58Z</time>
      </trkpt>
      <trkpt lat="43.06639" lon="-1.8590366666666667">
        <ele>1077.6</ele>
        <time>2018-09-29T09:55:00Z</time>
      </trkpt>
      <trkpt lat="43.066325" lon="-1.859175">
        <ele>1077.9</ele>
        <time>2018-09-29T09:55:02Z</time>
      </trkpt>
      <trkpt lat="43.06624" lon="-1.85924">
        <ele>1078.5</ele>
        <time>2018-09-29T09:55:04Z</time>
      </trkpt>
      <trkpt lat="43.066159999999996" lon="-1.859215">
        <ele>1078.9</ele>
        <time>2018-09-29T09:55:06Z</time>
      </trkpt>
      <trkpt lat="43.066085" lon="-1.8591533333333334">
        <ele>1079.2</ele>
        <time>2018-09-29T09:55:08Z</time>
      </trkpt>
      <trkpt lat="43.065985" lon="-1.8590666666666666">
        <ele>1079.6</ele>
        <time>2018-09-29T09:55:10Z</time>
      </trkpt>
      <trkpt lat="43.065865" lon="-1.85897">
        <ele>1079.8</ele>
        <time>2018-09-29T09:55:12Z</time>
      </trkpt>
      <trkpt lat="43.065738333333336" lon="-1.8588733333333334">
        <ele>1079.9</ele>
        <time>2018-09-29T09:55:14Z</time>
      </trkpt>
      <trkpt lat="43.06564" lon="-1.8587766666666667">
        <ele>1080.6</ele>
        <time>2018-09-29T09:55:16Z</time>
      </trkpt>
      <trkpt lat="43.065545" lon="-1.8586749999999999">
        <ele>1081.0</ele>
        <time>2018-09-29T09:55:18Z</time>
      </trkpt>
      <trkpt lat="43.06545833333333" lon="-1.858575">
        <ele>1081.5</ele>
        <time>2018-09-29T09:55:20Z</time>
      </trkpt>
      <trkpt lat="43.06539166666666" lon="-1.85847">
        <ele>1082.0</ele>
        <time>2018-09-29T09:55:22Z</time>
      </trkpt>
      <trkpt lat="43.06534666666667" lon="-1.858335">
        <ele>1082.1</ele>
        <time>2018-09-29T09:55:24Z</time>
      </trkpt>
      <trkpt lat="43.065325" lon="-1.8581716666666668">
        <ele>1082.0</ele>
        <time>2018-09-29T09:55:26Z</time>
      </trkpt>
      <trkpt lat="43.06532" lon="-1.858015">
        <ele>1081.8</ele>
        <time>2018-09-29T09:55:28Z</time>
      </trkpt>
      <trkpt lat="43.065335" lon="-1.8578350000000001">
        <ele>1081.8</ele>
        <time>2018-09-29T09:55:30Z</time>
      </trkpt>
      <trkpt lat="43.065355" lon="-1.85766">
        <ele>1081.9</ele>
        <time>2018-09-29T09:55:32Z</time>
      </trkpt>
      <trkpt lat="43.065375" lon="-1.857475">
        <ele>1081.9</ele>
        <time>2018-09-29T09:55:34Z</time>
      </trkpt>
      <trkpt lat="43.065401666666666" lon="-1.8572899999999999">
        <ele>1081.9</ele>
        <time>2018-09-29T09:55:36Z</time>
      </trkpt>
      <trkpt lat="43.065425" lon="-1.8571166666666667">
        <ele>1081.7</ele>
        <time>2018-09-29T09:55:38Z</time>
      </trkpt>
      <trkpt lat="43.06545" lon="-1.8569466666666667">
        <ele>1081.7</ele>
        <time>2018-09-29T09:55:40Z</time>
      </trkpt>
      <trkpt lat="43.06548" lon="-1.856785">
        <ele>1081.6</ele>
        <time>2018-09-29T09:55:42Z</time>
      </trkpt>
      <trkpt lat="43.065495" lon="-1.8566183333333335">
        <ele>1081.4</ele>
        <time>2018-09-29T09:55:44Z</time>
      </trkpt>
      <trkpt lat="43.065485" lon="-1.8564616666666667">
        <ele>1081.0</ele>
        <time>2018-09-29T09:55:46Z</time>
      </trkpt>
      <trkpt lat="43.06546" lon="-1.8563100000000001">
        <ele>1080.8</ele>
        <time>2018-09-29T09:55:48Z</time>
      </trkpt>
      <trkpt lat="43.06543166666667" lon="-1.856165">
        <ele>1080.5</ele>
        <time>2018-09-29T09:55:50Z</time>
      </trkpt>
      <trkpt lat="43.0654" lon="-1.856015">
        <ele>1080.4</ele>
        <time>2018-09-29T09:55:52Z</time>
      </trkpt>
      <trkpt lat="43.065356666666666" lon="-1.8558583333333334">
        <ele>1080.4</ele>
        <time>2018-09-29T09:55:54Z</time>
      </trkpt>
      <trkpt lat="43.06531" lon="-1.855715">
        <ele>1080.6</ele>
        <time>2018-09-29T09:55:56Z</time>
      </trkpt>
      <trkpt lat="43.065245" lon="-1.85558">
        <ele>1080.8</ele>
        <time>2018-09-29T09:55:58Z</time>
      </trkpt>
      <trkpt lat="43.065165" lon="-1.8554583333333334">
        <ele>1080.9</ele>
        <time>2018-09-29T09:56:00Z</time>
      </trkpt>
      <trkpt lat="43.065075" lon="-1.8553700000000002">
        <ele>1081.0</ele>
        <time>2018-09-29T09:56:02Z</time>
      </trkpt>
      <trkpt lat="43.064993333333334" lon="-1.855265">
        <ele>1081.2</ele>
        <time>2018-09-29T09:56:04Z</time>
      </trkpt>
      <trkpt lat="43.064908333333335" lon="-1.85515">
        <ele>1081.2</ele>
        <time>2018-09-29T09:56:06Z</time>
      </trkpt>
      <trkpt lat="43.064835" lon="-1.855035">
        <ele>1081.2</ele>
        <time>2018-09-29T09:56:08Z</time>
      </trkpt>
      <trkpt lat="43.064785" lon="-1.85489">
        <ele>1081.3</ele>
        <time>2018-09-29T09:56:10Z</time>
      </trkpt>
      <trkpt lat="43.064735" lon="-1.8547616666666666">
        <ele>1081.7</ele>
        <time>2018-09-29T09:56:12Z</time>
      </trkpt>
      <trkpt lat="43.06469" lon="-1.8546200000000002">
        <ele>1082.3</ele>
        <time>2018-09-29T09:56:14Z</time>
      </trkpt>
      <trkpt lat="43.06465" lon="-1.8544716666666667">
        <ele>1082.8</ele>
        <time>2018-09-29T09:56:16Z</time>
      </trkpt>
      <trkpt lat="43.06459" lon="-1.854315">
        <ele>1083.2</ele>
        <time>2018-09-29T09:56:18Z</time>
      </trkpt>
      <trkpt lat="43.064505" lon="-1.8541500000000002">
        <ele>1083.4</ele>
        <time>2018-09-29T09:56:20Z</time>
      </trkpt>
      <trkpt lat="43.06445" lon="-1.854055">
        <ele>1083.5</ele>
        <time>2018-09-29T09:56:21Z</time>
      </trkpt>
      <trkpt lat="43.06439" lon="-1.85397">
        <ele>1083.5</ele>
        <time>2018-09-29T09:56:22Z</time>
      </trkpt>
      <trkpt lat="43.06433666666667" lon="-1.85388">
        <ele>1083.6</ele>
        <time>2018-09-29T09:56:23Z</time>
      </trkpt>
      <trkpt lat="43.06429166666667" lon="-1.8537750000000002">
        <ele>1083.6</ele>
        <time>2018-09-29T09:56:24Z</time>
      </trkpt>
      <trkpt lat="43.06426" lon="-1.8536666666666668">
        <ele>1083.5</ele>
        <time>2018-09-29T09:56:25Z</time>
      </trkpt>
      <trkpt lat="43.064236666666666" lon="-1.8535599999999999">
        <ele>1083.3</ele>
        <time>2018-09-29T09:56:26Z</time>
      </trkpt>
      <trkpt lat="43.064225" lon="-1.853465">
        <ele>1083.2</ele>
        <time>2018-09-29T09:56:27Z</time>
      </trkpt>
      <trkpt lat="43.064245" lon="-1.853275">
        <ele>1082.8</ele>
        <time>2018-09-29T09:56:29Z</time>
      </trkpt>
      <trkpt lat="43.06431666666667" lon="-1.85314">
        <ele>1082.2</ele>
        <time>2018-09-29T09:56:31Z</time>
      </trkpt>
      <trkpt lat="43.064435" lon="-1.8530733333333331">
        <ele>1081.6</ele>
        <time>2018-09-29T09:56:33Z</time>
      </trkpt>
      <trkpt lat="43.064555" lon="-1.85298">
        <ele>1081.0</ele>
        <time>2018-09-29T09:56:35Z</time>
      </trkpt>
      <trkpt lat="43.06461" lon="-1.85291">
        <ele>1080.6</ele>
        <time>2018-09-29T09:56:36Z</time>
      </trkpt>
      <trkpt lat="43.064655" lon="-1.852745">
        <ele>1079.8</ele>
        <time>2018-09-29T09:56:38Z</time>
      </trkpt>
      <trkpt lat="43.064645" lon="-1.852565">
        <ele>1079.2</ele>
        <time>2018-09-29T09:56:40Z</time>
      </trkpt>
      <trkpt lat="43.064585" lon="-1.8524183333333333">
        <ele>1079.0</ele>
        <time>2018-09-29T09:56:42Z</time>
      </trkpt>
      <trkpt lat="43.06447166666667" lon="-1.852335">
        <ele>1079.0</ele>
        <time>2018-09-29T09:56:44Z</time>
      </trkpt>
      <trkpt lat="43.064365" lon="-1.8523233333333333">
        <ele>1078.9</ele>
        <time>2018-09-29T09:56:46Z</time>
      </trkpt>
      <trkpt lat="43.06425" lon="-1.852285">
        <ele>1078.6</ele>
        <time>2018-09-29T09:56:48Z</time>
      </trkpt>
      <trkpt lat="43.064161666666664" lon="-1.852205">
        <ele>1079.2</ele>
        <time>2018-09-29T09:56:50Z</time>
      </trkpt>
      <trkpt lat="43.064101666666666" lon="-1.8521100000000001">
        <ele>1079.7</ele>
        <time>2018-09-29T09:56:52Z</time>
      </trkpt>
      <trkpt lat="43.064055" lon="-1.851995">
        <ele>1080.7</ele>
        <time>2018-09-29T09:56:54Z</time>
      </trkpt>
      <trkpt lat="43.064025" lon="-1.8518933333333334">
        <ele>1080.8</ele>
        <time>2018-09-29T09:56:56Z</time>
      </trkpt>
      <trkpt lat="43.06402666666666" lon="-1.8517883333333334">
        <ele>1080.9</ele>
        <time>2018-09-29T09:56:58Z</time>
      </trkpt>
      <trkpt lat="43.064035" lon="-1.851645">
        <ele>1081.0</ele>
        <time>2018-09-29T09:57:01Z</time>
      </trkpt>
      <trkpt lat="43.064085" lon="-1.8515166666666667">
        <ele>1081.0</ele>
        <time>2018-09-29T09:57:04Z</time>
      </trkpt>
      <trkpt lat="43.064135" lon="-1.85144">
        <ele>1080.8</ele>
        <time>2018-09-29T09:57:06Z</time>
      </trkpt>
      <trkpt lat="43.06418" lon="-1.8513600000000001">
        <ele>1080.8</ele>
        <time>2018-09-29T09:57:08Z</time>
      </trkpt>
      <trkpt lat="43.06422666666667" lon="-1.85129">
        <ele>1080.8</ele>
        <time>2018-09-29T09:57:10Z</time>
      </trkpt>
      <trkpt lat="43.06427" lon="-1.851205">
        <ele>1080.7</ele>
        <time>2018-09-29T09:57:12Z</time>
      </trkpt>
      <trkpt lat="43.06431" lon="-1.851115">
        <ele>1080.3</ele>
        <time>2018-09-29T09:57:14Z</time>
      </trkpt>
      <trkpt lat="43.06434" lon="-1.851025">
        <ele>1080.3</ele>
        <time>2018-09-29T09:57:16Z</time>
      </trkpt>
      <trkpt lat="43.064335" lon="-1.8509016666666667">
        <ele>1080.2</ele>
        <time>2018-09-29T09:57:19Z</time>
      </trkpt>
      <trkpt lat="43.06433" lon="-1.850765">
        <ele>1080.2</ele>
        <time>2018-09-29T09:57:22Z</time>
      </trkpt>
      <trkpt lat="43.06429" lon="-1.850675">
        <ele>1080.2</ele>
        <time>2018-09-29T09:57:24Z</time>
      </trkpt>
      <trkpt lat="43.06421" lon="-1.8506183333333333">
        <ele>1080.2</ele>
        <time>2018-09-29T09:57:27Z</time>
      </trkpt>
      <trkpt lat="43.064135" lon="-1.8506">
        <ele>1080.1</ele>
        <time>2018-09-29T09:57:30Z</time>
      </trkpt>
      <trkpt lat="43.06405" lon="-1.85058">
        <ele>1080.1</ele>
        <time>2018-09-29T09:57:33Z</time>
      </trkpt>
      <trkpt lat="43.06397166666667" lon="-1.8505433333333334">
        <ele>1080.2</ele>
        <time>2018-09-29T09:57:36Z</time>
      </trkpt>
      <trkpt lat="43.063895" lon="-1.8505150000000001">
        <ele>1080.2</ele>
        <time>2018-09-29T09:57:39Z</time>
      </trkpt>
      <trkpt lat="43.063815" lon="-1.85047">
        <ele>1080.3</ele>
        <time>2018-09-29T09:57:42Z</time>
      </trkpt>
      <trkpt lat="43.06374666666667" lon="-1.8504266666666667">
        <ele>1080.4</ele>
        <time>2018-09-29T09:57:45Z</time>
      </trkpt>
      <trkpt lat="43.063665" lon="-1.850385">
        <ele>1080.5</ele>
        <time>2018-09-29T09:57:48Z</time>
      </trkpt>
      <trkpt lat="43.06359" lon="-1.8503416666666666">
        <ele>1080.7</ele>
        <time>2018-09-29T09:57:51Z</time>
      </trkpt>
      <trkpt lat="43.06352166666667" lon="-1.850295">
        <ele>1080.9</ele>
        <time>2018-09-29T09:57:55Z</time>
      </trkpt>
      <trkpt lat="43.063445" lon="-1.8502483333333333">
        <ele>1081.1</ele>
        <time>2018-09-29T09:57:58Z</time>
      </trkpt>
      <trkpt lat="43.06337" lon="-1.8502">
        <ele>1081.3</ele>
        <time>2018-09-29T09:58:01Z</time>
      </trkpt>
      <trkpt lat="43.063305" lon="-1.8501683333333334">
        <ele>1081.5</ele>
        <time>2018-09-29T09:58:04Z</time>
      </trkpt>
      <trkpt lat="43.063225" lon="-1.85015">
        <ele>1081.8</ele>
        <time>2018-09-29T09:58:07Z</time>
      </trkpt>
      <trkpt lat="43.063135" lon="-1.85012">
        <ele>1082.0</ele>
        <time>2018-09-29T09:58:10Z</time>
      </trkpt>
      <trkpt lat="43.063045" lon="-1.8500966666666667">
        <ele>1082.3</ele>
        <time>2018-09-29T09:58:13Z</time>
      </trkpt>
      <trkpt lat="43.062965" lon="-1.85009">
        <ele>1082.5</ele>
        <time>2018-09-29T09:58:16Z</time>
      </trkpt>
      <trkpt lat="43.062895" lon="-1.85007">
        <ele>1082.8</ele>
        <time>2018-09-29T09:58:19Z</time>
      </trkpt>
      <trkpt lat="43.062795" lon="-1.850065">
        <ele>1083.1</ele>
        <time>2018-09-29T09:58:22Z</time>
      </trkpt>
      <trkpt lat="43.062706666666664" lon="-1.850055">
        <ele>1083.4</ele>
        <time>2018-09-29T09:58:25Z</time>
      </trkpt>
      <trkpt lat="43.06262666666667" lon="-1.850045">
        <ele>1083.7</ele>
        <time>2018-09-29T09:58:28Z</time>
      </trkpt>
      <trkpt lat="43.06254" lon="-1.85001">
        <ele>1084.0</ele>
        <time>2018-09-29T09:58:31Z</time>
      </trkpt>
      <trkpt lat="43.062455" lon="-1.8499883333333333">
        <ele>1084.4</ele>
        <time>2018-09-29T09:58:34Z</time>
      </trkpt>
      <trkpt lat="43.062365" lon="-1.849955">
        <ele>1084.8</ele>
        <time>2018-09-29T09:58:38Z</time>
      </trkpt>
      <trkpt lat="43.062275" lon="-1.849915">
        <ele>1085.3</ele>
        <time>2018-09-29T09:58:42Z</time>
      </trkpt>
      <trkpt lat="43.06219166666666" lon="-1.8498916666666667">
        <ele>1085.6</ele>
        <time>2018-09-29T09:58:45Z</time>
      </trkpt>
      <trkpt lat="43.062106666666665" lon="-1.84987">
        <ele>1085.9</ele>
        <time>2018-09-29T09:58:48Z</time>
      </trkpt>
      <trkpt lat="43.06203" lon="-1.84986">
        <ele>1086.3</ele>
        <time>2018-09-29T09:58:51Z</time>
      </trkpt>
      <trkpt lat="43.06194" lon="-1.84987">
        <ele>1086.7</ele>
        <time>2018-09-29T09:58:55Z</time>
      </trkpt>
      <trkpt lat="43.06185" lon="-1.84986">
        <ele>1087.2</ele>
        <time>2018-09-29T09:58:59Z</time>
      </trkpt>
      <trkpt lat="43.061755" lon="-1.849875">
        <ele>1087.7</ele>
        <time>2018-09-29T09:59:03Z</time>
      </trkpt>
      <trkpt lat="43.06167666666666" lon="-1.8498816666666666">
        <ele>1088.1</ele>
        <time>2018-09-29T09:59:07Z</time>
      </trkpt>
      <trkpt lat="43.061565" lon="-1.8499066666666666">
        <ele>1088.5</ele>
        <time>2018-09-29T09:59:10Z</time>
      </trkpt>
      <trkpt lat="43.061485" lon="-1.8499233333333334">
        <ele>1088.7</ele>
        <time>2018-09-29T09:59:12Z</time>
      </trkpt>
      <trkpt lat="43.061405" lon="-1.8499400000000001">
        <ele>1089.1</ele>
        <time>2018-09-29T09:59:15Z</time>
      </trkpt>
      <trkpt lat="43.06131" lon="-1.84998">
        <ele>1089.4</ele>
        <time>2018-09-29T09:59:18Z</time>
      </trkpt>
      <trkpt lat="43.06124666666667" lon="-1.850025">
        <ele>1089.7</ele>
        <time>2018-09-29T09:59:21Z</time>
      </trkpt>
      <trkpt lat="43.06117" lon="-1.8500816666666666">
        <ele>1090.1</ele>
        <time>2018-09-29T09:59:24Z</time>
      </trkpt>
      <trkpt lat="43.061105" lon="-1.85013">
        <ele>1090.4</ele>
        <time>2018-09-29T09:59:27Z</time>
      </trkpt>
      <trkpt lat="43.061038333333336" lon="-1.8501750000000001">
        <ele>1090.7</ele>
        <time>2018-09-29T09:59:30Z</time>
      </trkpt>
      <trkpt lat="43.06098166666666" lon="-1.8502399999999999">
        <ele>1090.9</ele>
        <time>2018-09-29T09:59:32Z</time>
      </trkpt>
      <trkpt lat="43.060895" lon="-1.8503349999999998">
        <ele>1091.2</ele>
        <time>2018-09-29T09:59:35Z</time>
      </trkpt>
      <trkpt lat="43.06082166666667" lon="-1.8504450000000001">
        <ele>1092.3</ele>
        <time>2018-09-29T09:59:37Z</time>
      </trkpt>
      <trkpt lat="43.060761666666664" lon="-1.85056">
        <ele>1093.8</ele>
        <time>2018-09-29T09:59:39Z</time>
      </trkpt>
      <trkpt lat="43.060715" lon="-1.85067">
        <ele>1093.9</ele>
        <time>2018-09-29T09:59:41Z</time>
      </trkpt>
      <trkpt lat="43.060715" lon="-1.8508200000000001">
        <ele>1094.1</ele>
        <time>2018-09-29T09:59:44Z</time>
      </trkpt>
      <trkpt lat="43.0607" lon="-1.8509250000000002">
        <ele>1094.2</ele>
        <time>2018-09-29T09:59:46Z</time>
      </trkpt>
      <trkpt lat="43.06067" lon="-1.8510399999999998">
        <ele>1094.3</ele>
        <time>2018-09-29T09:59:48Z</time>
      </trkpt>
      <trkpt lat="43.06064" lon="-1.85117">
        <ele>1094.9</ele>
        <time>2018-09-29T09:59:50Z</time>
      </trkpt>
      <trkpt lat="43.06061" lon="-1.851325">
        <ele>1095.6</ele>
        <time>2018-09-29T09:59:52Z</time>
      </trkpt>
      <trkpt lat="43.06057666666667" lon="-1.8515066666666669">
        <ele>1096.1</ele>
        <time>2018-09-29T09:59:54Z</time>
      </trkpt>
      <trkpt lat="43.060545" lon="-1.8516983333333332">
        <ele>1096.4</ele>
        <time>2018-09-29T09:59:56Z</time>
      </trkpt>
      <trkpt lat="43.06051" lon="-1.851885">
        <ele>1096.6</ele>
        <time>2018-09-29T09:59:58Z</time>
      </trkpt>
      <trkpt lat="43.06048" lon="-1.8520466666666666">
        <ele>1096.7</ele>
        <time>2018-09-29T10:00:00Z</time>
      </trkpt>
      <trkpt lat="43.06045" lon="-1.8521450000000002">
        <ele>1096.8</ele>
        <time>2018-09-29T10:00:01Z</time>
      </trkpt>
      <trkpt lat="43.060405" lon="-1.8523183333333333">
        <ele>1097.0</ele>
        <time>2018-09-29T10:00:03Z</time>
      </trkpt>
      <trkpt lat="43.060335" lon="-1.852485">
        <ele>1097.1</ele>
        <time>2018-09-29T10:00:05Z</time>
      </trkpt>
      <trkpt lat="43.060291666666664" lon="-1.8525666666666667">
        <ele>1097.1</ele>
        <time>2018-09-29T10:00:06Z</time>
      </trkpt>
      <trkpt lat="43.06025" lon="-1.852645">
        <ele>1097.1</ele>
        <time>2018-09-29T10:00:07Z</time>
      </trkpt>
      <trkpt lat="43.0602" lon="-1.852725">
        <ele>1097.1</ele>
        <time>2018-09-29T10:00:08Z</time>
      </trkpt>
      <trkpt lat="43.06015" lon="-1.852805">
        <ele>1097.1</ele>
        <time>2018-09-29T10:00:09Z</time>
      </trkpt>
      <trkpt lat="43.06009666666667" lon="-1.85288">
        <ele>1097.1</ele>
        <time>2018-09-29T10:00:10Z</time>
      </trkpt>
      <trkpt lat="43.06004" lon="-1.8529533333333332">
        <ele>1097.0</ele>
        <time>2018-09-29T10:00:11Z</time>
      </trkpt>
      <trkpt lat="43.059975" lon="-1.85302">
        <ele>1096.9</ele>
        <time>2018-09-29T10:00:12Z</time>
      </trkpt>
      <trkpt lat="43.059905" lon="-1.853085">
        <ele>1096.9</ele>
        <time>2018-09-29T10:00:13Z</time>
      </trkpt>
      <trkpt lat="43.059835" lon="-1.8531316666666666">
        <ele>1096.8</ele>
        <time>2018-09-29T10:00:14Z</time>
      </trkpt>
      <trkpt lat="43.059755" lon="-1.853175">
        <ele>1096.7</ele>
        <time>2018-09-29T10:00:15Z</time>
      </trkpt>
      <trkpt lat="43.05968" lon="-1.8532133333333332">
        <ele>1096.6</ele>
        <time>2018-09-29T10:00:16Z</time>
      </trkpt>
      <trkpt lat="43.059596666666664" lon="-1.85324">
        <ele>1096.5</ele>
        <time>2018-09-29T10:00:17Z</time>
      </trkpt>
      <trkpt lat="43.059511666666666" lon="-1.8532433333333334">
        <ele>1096.4</ele>
        <time>2018-09-29T10:00:18Z</time>
      </trkpt>
      <trkpt lat="43.05942666666667" lon="-1.8532283333333335">
        <ele>1096.3</ele>
        <time>2018-09-29T10:00:19Z</time>
      </trkpt>
      <trkpt lat="43.05934166666667" lon="-1.8532083333333333">
        <ele>1096.1</ele>
        <time>2018-09-29T10:00:20Z</time>
      </trkpt>
      <trkpt lat="43.05926" lon="-1.853175">
        <ele>1095.9</ele>
        <time>2018-09-29T10:00:21Z</time>
      </trkpt>
      <trkpt lat="43.05918" lon="-1.8531333333333335">
        <ele>1095.7</ele>
        <time>2018-09-29T10:00:22Z</time>
      </trkpt>
      <trkpt lat="43.05911" lon="-1.853095">
        <ele>1095.5</ele>
        <time>2018-09-29T10:00:23Z</time>
      </trkpt>
      <trkpt lat="43.059036666666664" lon="-1.8530366666666667">
        <ele>1095.3</ele>
        <time>2018-09-29T10:00:24Z</time>
      </trkpt>
      <trkpt lat="43.058975" lon="-1.8529516666666668">
        <ele>1095.1</ele>
        <time>2018-09-29T10:00:25Z</time>
      </trkpt>
      <trkpt lat="43.05892" lon="-1.8528583333333333">
        <ele>1094.9</ele>
        <time>2018-09-29T10:00:26Z</time>
      </trkpt>
      <trkpt lat="43.058875" lon="-1.85278">
        <ele>1094.5</ele>
        <time>2018-09-29T10:00:27Z</time>
      </trkpt>
      <trkpt lat="43.0588" lon="-1.852665">
        <ele>1094.1</ele>
        <time>2018-09-29T10:00:29Z</time>
      </trkpt>
      <trkpt lat="43.05869" lon="-1.8526066666666665">
        <ele>1093.7</ele>
        <time>2018-09-29T10:00:31Z</time>
      </trkpt>
      <trkpt lat="43.058618333333335" lon="-1.85264">
        <ele>1093.5</ele>
        <time>2018-09-29T10:00:32Z</time>
      </trkpt>
      <trkpt lat="43.058525" lon="-1.852745">
        <ele>1093.6</ele>
        <time>2018-09-29T10:00:34Z</time>
      </trkpt>
      <trkpt lat="43.05844" lon="-1.8528616666666666">
        <ele>1093.0</ele>
        <time>2018-09-29T10:00:36Z</time>
      </trkpt>
      <trkpt lat="43.058371666666666" lon="-1.85294">
        <ele>1092.6</ele>
        <time>2018-09-29T10:00:37Z</time>
      </trkpt>
      <trkpt lat="43.0583" lon="-1.85302">
        <ele>1092.3</ele>
        <time>2018-09-29T10:00:38Z</time>
      </trkpt>
      <trkpt lat="43.058231666666664" lon="-1.8531">
        <ele>1091.9</ele>
        <time>2018-09-29T10:00:39Z</time>
      </trkpt>
      <trkpt lat="43.058165" lon="-1.8531900000000001">
        <ele>1091.6</ele>
        <time>2018-09-29T10:00:40Z</time>
      </trkpt>
      <trkpt lat="43.05809" lon="-1.853295">
        <ele>1091.3</ele>
        <time>2018-09-29T10:00:41Z</time>
      </trkpt>
      <trkpt lat="43.05800166666667" lon="-1.8533916666666665">
        <ele>1090.9</ele>
        <time>2018-09-29T10:00:42Z</time>
      </trkpt>
      <trkpt lat="43.057915" lon="-1.85346">
        <ele>1090.7</ele>
        <time>2018-09-29T10:00:43Z</time>
      </trkpt>
      <trkpt lat="43.05782166666667" lon="-1.853505">
        <ele>1090.6</ele>
        <time>2018-09-29T10:00:44Z</time>
      </trkpt>
      <trkpt lat="43.05772" lon="-1.85353">
        <ele>1090.4</ele>
        <time>2018-09-29T10:00:45Z</time>
      </trkpt>
      <trkpt lat="43.05762" lon="-1.853555">
        <ele>1090.0</ele>
        <time>2018-09-29T10:00:46Z</time>
      </trkpt>
      <trkpt lat="43.05752666666667" lon="-1.853605">
        <ele>1089.8</ele>
        <time>2018-09-29T10:00:47Z</time>
      </trkpt>
      <trkpt lat="43.057446666666664" lon="-1.8536533333333334">
        <ele>1089.7</ele>
        <time>2018-09-29T10:00:48Z</time>
      </trkpt>
      <trkpt lat="43.05736666666667" lon="-1.85368">
        <ele>1089.6</ele>
        <time>2018-09-29T10:00:49Z</time>
      </trkpt>
      <trkpt lat="43.05728" lon="-1.8536683333333333">
        <ele>1089.2</ele>
        <time>2018-09-29T10:00:50Z</time>
      </trkpt>
      <trkpt lat="43.05718" lon="-1.85364">
        <ele>1088.4</ele>
        <time>2018-09-29T10:00:51Z</time>
      </trkpt>
      <trkpt lat="43.05708" lon="-1.8535866666666667">
        <ele>1087.5</ele>
        <time>2018-09-29T10:00:52Z</time>
      </trkpt>
      <trkpt lat="43.05697" lon="-1.8535599999999999">
        <ele>1086.3</ele>
        <time>2018-09-29T10:00:53Z</time>
      </trkpt>
      <trkpt lat="43.056865" lon="-1.8535400000000002">
        <ele>1085.2</ele>
        <time>2018-09-29T10:00:54Z</time>
      </trkpt>
      <trkpt lat="43.05676" lon="-1.85351">
        <ele>1084.1</ele>
        <time>2018-09-29T10:00:55Z</time>
      </trkpt>
      <trkpt lat="43.056666666666665" lon="-1.8534883333333334">
        <ele>1083.1</ele>
        <time>2018-09-29T10:00:56Z</time>
      </trkpt>
      <trkpt lat="43.056581666666666" lon="-1.8534916666666668">
        <ele>1082.4</ele>
        <time>2018-09-29T10:00:57Z</time>
      </trkpt>
      <trkpt lat="43.0565" lon="-1.85351">
        <ele>1081.9</ele>
        <time>2018-09-29T10:00:58Z</time>
      </trkpt>
      <trkpt lat="43.05643166666667" lon="-1.853545">
        <ele>1081.3</ele>
        <time>2018-09-29T10:00:59Z</time>
      </trkpt>
      <trkpt lat="43.056335" lon="-1.85365">
        <ele>1080.9</ele>
        <time>2018-09-29T10:01:01Z</time>
      </trkpt>
      <trkpt lat="43.05630166666667" lon="-1.8537400000000002">
        <ele>1080.8</ele>
        <time>2018-09-29T10:01:02Z</time>
      </trkpt>
      <trkpt lat="43.05632" lon="-1.85391">
        <ele>1080.6</ele>
        <time>2018-09-29T10:01:04Z</time>
      </trkpt>
      <trkpt lat="43.05637" lon="-1.8540416666666668">
        <ele>1080.2</ele>
        <time>2018-09-29T10:01:06Z</time>
      </trkpt>
      <trkpt lat="43.05641166666667" lon="-1.854165">
        <ele>1079.7</ele>
        <time>2018-09-29T10:01:08Z</time>
      </trkpt>
      <trkpt lat="43.05646" lon="-1.8542866666666666">
        <ele>1079.7</ele>
        <time>2018-09-29T10:01:10Z</time>
      </trkpt>
      <trkpt lat="43.056475" lon="-1.8544033333333334">
        <ele>1079.4</ele>
        <time>2018-09-29T10:01:12Z</time>
      </trkpt>
      <trkpt lat="43.05649" lon="-1.854515">
        <ele>1079.4</ele>
        <time>2018-09-29T10:01:14Z</time>
      </trkpt>
      <trkpt lat="43.056515" lon="-1.854635">
        <ele>1079.2</ele>
        <time>2018-09-29T10:01:16Z</time>
      </trkpt>
      <trkpt lat="43.056535" lon="-1.8547433333333334">
        <ele>1079.1</ele>
        <time>2018-09-29T10:01:18Z</time>
      </trkpt>
      <trkpt lat="43.056545" lon="-1.8548550000000001">
        <ele>1079.0</ele>
        <time>2018-09-29T10:01:20Z</time>
      </trkpt>
      <trkpt lat="43.056556666666665" lon="-1.8549716666666667">
        <ele>1079.1</ele>
        <time>2018-09-29T10:01:22Z</time>
      </trkpt>
      <trkpt lat="43.056565" lon="-1.8550916666666666">
        <ele>1079.0</ele>
        <time>2018-09-29T10:01:24Z</time>
      </trkpt>
      <trkpt lat="43.056565" lon="-1.8551966666666666">
        <ele>1078.8</ele>
        <time>2018-09-29T10:01:26Z</time>
      </trkpt>
      <trkpt lat="43.056545" lon="-1.855345">
        <ele>1078.7</ele>
        <time>2018-09-29T10:01:29Z</time>
      </trkpt>
      <trkpt lat="43.05649666666667" lon="-1.8554566666666665">
        <ele>1079.0</ele>
        <time>2018-09-29T10:01:31Z</time>
      </trkpt>
      <trkpt lat="43.05643666666667" lon="-1.8555616666666666">
        <ele>1079.3</ele>
        <time>2018-09-29T10:01:33Z</time>
      </trkpt>
      <trkpt lat="43.056375" lon="-1.8556583333333334">
        <ele>1079.6</ele>
        <time>2018-09-29T10:01:35Z</time>
      </trkpt>
      <trkpt lat="43.056315" lon="-1.8557649999999999">
        <ele>1079.7</ele>
        <time>2018-09-29T10:01:37Z</time>
      </trkpt>
      <trkpt lat="43.056285" lon="-1.8559083333333333">
        <ele>1079.7</ele>
        <time>2018-09-29T10:01:39Z</time>
      </trkpt>
      <trkpt lat="43.056315" lon="-1.8560400000000001">
        <ele>1079.7</ele>
        <time>2018-09-29T10:01:41Z</time>
      </trkpt>
      <trkpt lat="43.056365" lon="-1.856115">
        <ele>1079.7</ele>
        <time>2018-09-29T10:01:43Z</time>
      </trkpt>
      <trkpt lat="43.05644" lon="-1.85623">
        <ele>1079.8</ele>
        <time>2018-09-29T10:01:46Z</time>
      </trkpt>
      <trkpt lat="43.056505" lon="-1.8563066666666668">
        <ele>1079.8</ele>
        <time>2018-09-29T10:01:48Z</time>
      </trkpt>
      <trkpt lat="43.05657166666666" lon="-1.85641">
        <ele>1079.8</ele>
        <time>2018-09-29T10:01:51Z</time>
      </trkpt>
      <trkpt lat="43.05663" lon="-1.856475">
        <ele>1079.7</ele>
        <time>2018-09-29T10:01:53Z</time>
      </trkpt>
      <trkpt lat="43.05673" lon="-1.856515">
        <ele>1079.6</ele>
        <time>2018-09-29T10:01:56Z</time>
      </trkpt>
      <trkpt lat="43.056826666666666" lon="-1.8565550000000002">
        <ele>1079.5</ele>
        <time>2018-09-29T10:01:58Z</time>
      </trkpt>
      <trkpt lat="43.056936666666665" lon="-1.8566666666666667">
        <ele>1079.3</ele>
        <time>2018-09-29T10:02:00Z</time>
      </trkpt>
      <trkpt lat="43.05701" lon="-1.85677">
        <ele>1079.1</ele>
        <time>2018-09-29T10:02:02Z</time>
      </trkpt>
      <trkpt lat="43.05708" lon="-1.856875">
        <ele>1079.0</ele>
        <time>2018-09-29T10:02:04Z</time>
      </trkpt>
      <trkpt lat="43.05715" lon="-1.85697">
        <ele>1079.0</ele>
        <time>2018-09-29T10:02:06Z</time>
      </trkpt>
      <trkpt lat="43.05719166666667" lon="-1.8570600000000002">
        <ele>1078.9</ele>
        <time>2018-09-29T10:02:07Z</time>
      </trkpt>
      <trkpt lat="43.05727" lon="-1.857195">
        <ele>1078.9</ele>
        <time>2018-09-29T10:02:09Z</time>
      </trkpt>
      <trkpt lat="43.057361666666665" lon="-1.857325">
        <ele>1079.0</ele>
        <time>2018-09-29T10:02:11Z</time>
      </trkpt>
      <trkpt lat="43.05742" lon="-1.85739">
        <ele>1079.0</ele>
        <time>2018-09-29T10:02:12Z</time>
      </trkpt>
      <trkpt lat="43.057485" lon="-1.85746">
        <ele>1079.0</ele>
        <time>2018-09-29T10:02:13Z</time>
      </trkpt>
      <trkpt lat="43.057575" lon="-1.85762">
        <ele>1079.1</ele>
        <time>2018-09-29T10:02:15Z</time>
      </trkpt>
      <trkpt lat="43.057615" lon="-1.8577016666666668">
        <ele>1079.0</ele>
        <time>2018-09-29T10:02:16Z</time>
      </trkpt>
      <trkpt lat="43.057655" lon="-1.8577883333333334">
        <ele>1078.9</ele>
        <time>2018-09-29T10:02:17Z</time>
      </trkpt>
      <trkpt lat="43.05766666666667" lon="-1.8578916666666667">
        <ele>1078.8</ele>
        <time>2018-09-29T10:02:18Z</time>
      </trkpt>
      <trkpt lat="43.057665" lon="-1.8579933333333334">
        <ele>1078.7</ele>
        <time>2018-09-29T10:02:19Z</time>
      </trkpt>
      <trkpt lat="43.05766" lon="-1.85818">
        <ele>1078.3</ele>
        <time>2018-09-29T10:02:21Z</time>
      </trkpt>
      <trkpt lat="43.057626666666664" lon="-1.8583433333333335">
        <ele>1077.8</ele>
        <time>2018-09-29T10:02:23Z</time>
      </trkpt>
      <trkpt lat="43.05755" lon="-1.858485">
        <ele>1077.4</ele>
        <time>2018-09-29T10:02:25Z</time>
      </trkpt>
      <trkpt lat="43.057445" lon="-1.85859">
        <ele>1077.0</ele>
        <time>2018-09-29T10:02:27Z</time>
      </trkpt>
      <trkpt lat="43.057335" lon="-1.8586816666666666">
        <ele>1076.5</ele>
        <time>2018-09-29T10:02:29Z</time>
      </trkpt>
      <trkpt lat="43.05723" lon="-1.8587816666666668">
        <ele>1076.2</ele>
        <time>2018-09-29T10:02:31Z</time>
      </trkpt>
      <trkpt lat="43.057113333333334" lon="-1.8588666666666667">
        <ele>1075.8</ele>
        <time>2018-09-29T10:02:33Z</time>
      </trkpt>
      <trkpt lat="43.057006666666666" lon="-1.8589633333333333">
        <ele>1075.3</ele>
        <time>2018-09-29T10:02:35Z</time>
      </trkpt>
      <trkpt lat="43.05687666666667" lon="-1.8590366666666667">
        <ele>1075.1</ele>
        <time>2018-09-29T10:02:37Z</time>
      </trkpt>
      <trkpt lat="43.056731666666664" lon="-1.8590550000000001">
        <ele>1075.0</ele>
        <time>2018-09-29T10:02:39Z</time>
      </trkpt>
      <trkpt lat="43.05666166666666" lon="-1.8590416666666667">
        <ele>1074.9</ele>
        <time>2018-09-29T10:02:40Z</time>
      </trkpt>
      <trkpt lat="43.056525" lon="-1.8590149999999999">
        <ele>1074.7</ele>
        <time>2018-09-29T10:02:42Z</time>
      </trkpt>
      <trkpt lat="43.056385" lon="-1.859">
        <ele>1074.5</ele>
        <time>2018-09-29T10:02:44Z</time>
      </trkpt>
      <trkpt lat="43.056245" lon="-1.858975">
        <ele>1074.5</ele>
        <time>2018-09-29T10:02:46Z</time>
      </trkpt>
      <trkpt lat="43.056106666666665" lon="-1.8589516666666666">
        <ele>1074.5</ele>
        <time>2018-09-29T10:02:48Z</time>
      </trkpt>
      <trkpt lat="43.055965" lon="-1.85893">
        <ele>1074.4</ele>
        <time>2018-09-29T10:02:50Z</time>
      </trkpt>
      <trkpt lat="43.055895" lon="-1.858905">
        <ele>1074.4</ele>
        <time>2018-09-29T10:02:51Z</time>
      </trkpt>
      <trkpt lat="43.055825" lon="-1.85888">
        <ele>1074.3</ele>
        <time>2018-09-29T10:02:52Z</time>
      </trkpt>
      <trkpt lat="43.05575" lon="-1.8588550000000001">
        <ele>1074.1</ele>
        <time>2018-09-29T10:02:53Z</time>
      </trkpt>
      <trkpt lat="43.05567666666666" lon="-1.858835">
        <ele>1074.1</ele>
        <time>2018-09-29T10:02:54Z</time>
      </trkpt>
      <trkpt lat="43.05554166666667" lon="-1.8588">
        <ele>1074.0</ele>
        <time>2018-09-29T10:02:56Z</time>
      </trkpt>
      <trkpt lat="43.05541" lon="-1.858755">
        <ele>1073.8</ele>
        <time>2018-09-29T10:02:58Z</time>
      </trkpt>
      <trkpt lat="43.05527" lon="-1.8587500000000001">
        <ele>1073.7</ele>
        <time>2018-09-29T10:03:00Z</time>
      </trkpt>
      <trkpt lat="43.055135" lon="-1.8587833333333332">
        <ele>1073.5</ele>
        <time>2018-09-29T10:03:02Z</time>
      </trkpt>
      <trkpt lat="43.055036666666666" lon="-1.8589083333333334">
        <ele>1073.5</ele>
        <time>2018-09-29T10:03:04Z</time>
      </trkpt>
      <trkpt lat="43.054946666666666" lon="-1.8590433333333334">
        <ele>1073.6</ele>
        <time>2018-09-29T10:03:06Z</time>
      </trkpt>
      <trkpt lat="43.05485" lon="-1.8591816666666667">
        <ele>1073.5</ele>
        <time>2018-09-29T10:03:08Z</time>
      </trkpt>
      <trkpt lat="43.054721666666666" lon="-1.8592216666666666">
        <ele>1072.6</ele>
        <time>2018-09-29T10:03:10Z</time>
      </trkpt>
      <trkpt lat="43.054585" lon="-1.8591366666666667">
        <ele>1070.9</ele>
        <time>2018-09-29T10:03:12Z</time>
      </trkpt>
      <trkpt lat="43.05451" lon="-1.859105">
        <ele>1070.3</ele>
        <time>2018-09-29T10:03:13Z</time>
      </trkpt>
      <trkpt lat="43.054431666666666" lon="-1.8590900000000001">
        <ele>1069.5</ele>
        <time>2018-09-29T10:03:14Z</time>
      </trkpt>
      <trkpt lat="43.05435" lon="-1.859095">
        <ele>1068.8</ele>
        <time>2018-09-29T10:03:15Z</time>
      </trkpt>
      <trkpt lat="43.05427" lon="-1.8591266666666666">
        <ele>1068.2</ele>
        <time>2018-09-29T10:03:16Z</time>
      </trkpt>
      <trkpt lat="43.05419166666667" lon="-1.859175">
        <ele>1067.5</ele>
        <time>2018-09-29T10:03:17Z</time>
      </trkpt>
      <trkpt lat="43.05412" lon="-1.8592333333333335">
        <ele>1066.9</ele>
        <time>2018-09-29T10:03:18Z</time>
      </trkpt>
      <trkpt lat="43.054045" lon="-1.8593016666666666">
        <ele>1066.5</ele>
        <time>2018-09-29T10:03:19Z</time>
      </trkpt>
      <trkpt lat="43.053975" lon="-1.85937">
        <ele>1066.2</ele>
        <time>2018-09-29T10:03:20Z</time>
      </trkpt>
      <trkpt lat="43.053905" lon="-1.85944">
        <ele>1065.9</ele>
        <time>2018-09-29T10:03:21Z</time>
      </trkpt>
      <trkpt lat="43.053835" lon="-1.85951">
        <ele>1065.6</ele>
        <time>2018-09-29T10:03:22Z</time>
      </trkpt>
      <trkpt lat="43.05376" lon="-1.859575">
        <ele>1065.4</ele>
        <time>2018-09-29T10:03:23Z</time>
      </trkpt>
      <trkpt lat="43.053685" lon="-1.8596300000000001">
        <ele>1065.3</ele>
        <time>2018-09-29T10:03:24Z</time>
      </trkpt>
      <trkpt lat="43.053615" lon="-1.8596666666666666">
        <ele>1065.3</ele>
        <time>2018-09-29T10:03:25Z</time>
      </trkpt>
      <trkpt lat="43.053525" lon="-1.8597549999999998">
        <ele>1065.0</ele>
        <time>2018-09-29T10:03:27Z</time>
      </trkpt>
      <trkpt lat="43.05349" lon="-1.85992">
        <ele>1064.3</ele>
        <time>2018-09-29T10:03:29Z</time>
      </trkpt>
      <trkpt lat="43.053475" lon="-1.8601100000000002">
        <ele>1063.8</ele>
        <time>2018-09-29T10:03:31Z</time>
      </trkpt>
      <trkpt lat="43.053461666666664" lon="-1.8602116666666666">
        <ele>1063.4</ele>
        <time>2018-09-29T10:03:32Z</time>
      </trkpt>
      <trkpt lat="43.053445" lon="-1.8603216666666667">
        <ele>1062.9</ele>
        <time>2018-09-29T10:03:33Z</time>
      </trkpt>
      <trkpt lat="43.05342" lon="-1.860425">
        <ele>1062.5</ele>
        <time>2018-09-29T10:03:34Z</time>
      </trkpt>
      <trkpt lat="43.053398333333334" lon="-1.86052">
        <ele>1062.2</ele>
        <time>2018-09-29T10:03:35Z</time>
      </trkpt>
      <trkpt lat="43.053355" lon="-1.8607">
        <ele>1061.7</ele>
        <time>2018-09-29T10:03:37Z</time>
      </trkpt>
      <trkpt lat="43.05332833333333" lon="-1.8607966666666667">
        <ele>1061.4</ele>
        <time>2018-09-29T10:03:38Z</time>
      </trkpt>
      <trkpt lat="43.053305" lon="-1.86096">
        <ele>1060.3</ele>
        <time>2018-09-29T10:03:40Z</time>
      </trkpt>
      <trkpt lat="43.053255" lon="-1.8611116666666665">
        <ele>1059.0</ele>
        <time>2018-09-29T10:03:42Z</time>
      </trkpt>
      <trkpt lat="43.0532" lon="-1.8612600000000001">
        <ele>1057.8</ele>
        <time>2018-09-29T10:03:44Z</time>
      </trkpt>
      <trkpt lat="43.05314" lon="-1.86141">
        <ele>1056.9</ele>
        <time>2018-09-29T10:03:46Z</time>
      </trkpt>
      <trkpt lat="43.053086666666665" lon="-1.8615499999999998">
        <ele>1056.2</ele>
        <time>2018-09-29T10:03:48Z</time>
      </trkpt>
      <trkpt lat="43.053016666666664" lon="-1.86171">
        <ele>1055.4</ele>
        <time>2018-09-29T10:03:50Z</time>
      </trkpt>
      <trkpt lat="43.052955" lon="-1.861855">
        <ele>1054.5</ele>
        <time>2018-09-29T10:03:52Z</time>
      </trkpt>
      <trkpt lat="43.05288" lon="-1.8619983333333334">
        <ele>1053.6</ele>
        <time>2018-09-29T10:03:54Z</time>
      </trkpt>
      <trkpt lat="43.052805" lon="-1.8621566666666667">
        <ele>1053.0</ele>
        <time>2018-09-29T10:03:56Z</time>
      </trkpt>
      <trkpt lat="43.05277" lon="-1.8623266666666667">
        <ele>1052.3</ele>
        <time>2018-09-29T10:03:58Z</time>
      </trkpt>
      <trkpt lat="43.05276166666667" lon="-1.8624800000000001">
        <ele>1051.7</ele>
        <time>2018-09-29T10:04:00Z</time>
      </trkpt>
      <trkpt lat="43.0528" lon="-1.8626266666666667">
        <ele>1051.2</ele>
        <time>2018-09-29T10:04:02Z</time>
      </trkpt>
      <trkpt lat="43.052835" lon="-1.8627500000000001">
        <ele>1050.8</ele>
        <time>2018-09-29T10:04:04Z</time>
      </trkpt>
      <trkpt lat="43.052875" lon="-1.862845">
        <ele>1050.4</ele>
        <time>2018-09-29T10:04:06Z</time>
      </trkpt>
      <trkpt lat="43.052925" lon="-1.86294">
        <ele>1050.1</ele>
        <time>2018-09-29T10:04:08Z</time>
      </trkpt>
      <trkpt lat="43.05298" lon="-1.8630499999999999">
        <ele>1050.1</ele>
        <time>2018-09-29T10:04:10Z</time>
      </trkpt>
      <trkpt lat="43.053021666666666" lon="-1.863165">
        <ele>1050.3</ele>
        <time>2018-09-29T10:04:12Z</time>
      </trkpt>
      <trkpt lat="43.053065" lon="-1.8632666666666666">
        <ele>1050.4</ele>
        <time>2018-09-29T10:04:14Z</time>
      </trkpt>
      <trkpt lat="43.05312166666667" lon="-1.863385">
        <ele>1050.4</ele>
        <time>2018-09-29T10:04:16Z</time>
      </trkpt>
      <trkpt lat="43.05318" lon="-1.86348">
        <ele>1050.0</ele>
        <time>2018-09-29T10:04:18Z</time>
      </trkpt>
      <trkpt lat="43.05322" lon="-1.86357">
        <ele>1049.4</ele>
        <time>2018-09-29T10:04:20Z</time>
      </trkpt>
      <trkpt lat="43.05324" lon="-1.8636750000000002">
        <ele>1048.7</ele>
        <time>2018-09-29T10:04:22Z</time>
      </trkpt>
      <trkpt lat="43.053243333333334" lon="-1.863835">
        <ele>1047.8</ele>
        <time>2018-09-29T10:04:24Z</time>
      </trkpt>
      <trkpt lat="43.053265" lon="-1.8639866666666667">
        <ele>1046.8</ele>
        <time>2018-09-29T10:04:26Z</time>
      </trkpt>
      <trkpt lat="43.053265" lon="-1.8641266666666667">
        <ele>1046.1</ele>
        <time>2018-09-29T10:04:28Z</time>
      </trkpt>
      <trkpt lat="43.053265" lon="-1.864275">
        <ele>1045.4</ele>
        <time>2018-09-29T10:04:30Z</time>
      </trkpt>
      <trkpt lat="43.05325" lon="-1.864415">
        <ele>1044.9</ele>
        <time>2018-09-29T10:04:32Z</time>
      </trkpt>
      <trkpt lat="43.05325" lon="-1.864555">
        <ele>1044.3</ele>
        <time>2018-09-29T10:04:34Z</time>
      </trkpt>
      <trkpt lat="43.05325" lon="-1.864705">
        <ele>1044.1</ele>
        <time>2018-09-29T10:04:36Z</time>
      </trkpt>
      <trkpt lat="43.053205" lon="-1.86486">
        <ele>1043.4</ele>
        <time>2018-09-29T10:04:39Z</time>
      </trkpt>
      <trkpt lat="43.053155" lon="-1.865">
        <ele>1042.9</ele>
        <time>2018-09-29T10:04:41Z</time>
      </trkpt>
      <trkpt lat="43.053115" lon="-1.865135">
        <ele>1042.8</ele>
        <time>2018-09-29T10:04:43Z</time>
      </trkpt>
      <trkpt lat="43.05307" lon="-1.86529">
        <ele>1042.2</ele>
        <time>2018-09-29T10:04:45Z</time>
      </trkpt>
      <trkpt lat="43.053018333333334" lon="-1.8654516666666667">
        <ele>1041.5</ele>
        <time>2018-09-29T10:04:47Z</time>
      </trkpt>
      <trkpt lat="43.052925" lon="-1.8655366666666668">
        <ele>1041.3</ele>
        <time>2018-09-29T10:04:49Z</time>
      </trkpt>
      <trkpt lat="43.05283" lon="-1.86565">
        <ele>1041.2</ele>
        <time>2018-09-29T10:04:51Z</time>
      </trkpt>
      <trkpt lat="43.05275" lon="-1.865845">
        <ele>1041.1</ele>
        <time>2018-09-29T10:04:53Z</time>
      </trkpt>
      <trkpt lat="43.052715" lon="-1.8659683333333335">
        <ele>1041.1</ele>
        <time>2018-09-29T10:04:55Z</time>
      </trkpt>
      <trkpt lat="43.052686666666666" lon="-1.866065">
        <ele>1040.9</ele>
        <time>2018-09-29T10:04:59Z</time>
      </trkpt>
      <trkpt lat="43.052635" lon="-1.866165">
        <ele>1040.8</ele>
        <time>2018-09-29T10:05:02Z</time>
      </trkpt>
      <trkpt lat="43.052605" lon="-1.86626">
        <ele>1040.7</ele>
        <time>2018-09-29T10:05:04Z</time>
      </trkpt>
      <trkpt lat="43.052575" lon="-1.8663750000000001">
        <ele>1040.5</ele>
        <time>2018-09-29T10:05:07Z</time>
      </trkpt>
      <trkpt lat="43.052595" lon="-1.8665116666666666">
        <ele>1039.8</ele>
        <time>2018-09-29T10:05:11Z</time>
      </trkpt>
      <trkpt lat="43.05257666666667" lon="-1.86662">
        <ele>1039.3</ele>
        <time>2018-09-29T10:05:12Z</time>
      </trkpt>
      <trkpt lat="43.05254" lon="-1.866795">
        <ele>1038.4</ele>
        <time>2018-09-29T10:05:14Z</time>
      </trkpt>
      <trkpt lat="43.05249166666667" lon="-1.866975">
        <ele>1037.8</ele>
        <time>2018-09-29T10:05:16Z</time>
      </trkpt>
      <trkpt lat="43.052445" lon="-1.867155">
        <ele>1037.2</ele>
        <time>2018-09-29T10:05:18Z</time>
      </trkpt>
      <trkpt lat="43.0524" lon="-1.86728">
        <ele>1036.9</ele>
        <time>2018-09-29T10:05:19Z</time>
      </trkpt>
      <trkpt lat="43.052355" lon="-1.86741">
        <ele>1036.7</ele>
        <time>2018-09-29T10:05:20Z</time>
      </trkpt>
      <trkpt lat="43.05232" lon="-1.8675183333333334">
        <ele>1036.4</ele>
        <time>2018-09-29T10:05:21Z</time>
      </trkpt>
      <trkpt lat="43.052256666666665" lon="-1.8676300000000001">
        <ele>1036.0</ele>
        <time>2018-09-29T10:05:22Z</time>
      </trkpt>
      <trkpt lat="43.05222166666667" lon="-1.8677466666666667">
        <ele>1035.6</ele>
        <time>2018-09-29T10:05:23Z</time>
      </trkpt>
      <trkpt lat="43.0522" lon="-1.86785">
        <ele>1035.1</ele>
        <time>2018-09-29T10:05:24Z</time>
      </trkpt>
      <trkpt lat="43.0522" lon="-1.86799">
        <ele>1034.0</ele>
        <time>2018-09-29T10:05:26Z</time>
      </trkpt>
      <trkpt lat="43.05218833333333" lon="-1.8681133333333333">
        <ele>1032.6</ele>
        <time>2018-09-29T10:05:28Z</time>
      </trkpt>
      <trkpt lat="43.052215" lon="-1.8682066666666666">
        <ele>1031.1</ele>
        <time>2018-09-29T10:05:30Z</time>
      </trkpt>
      <trkpt lat="43.05221" lon="-1.86836">
        <ele>1029.0</ele>
        <time>2018-09-29T10:05:33Z</time>
      </trkpt>
      <trkpt lat="43.052205" lon="-1.8684783333333335">
        <ele>1028.3</ele>
        <time>2018-09-29T10:05:35Z</time>
      </trkpt>
      <trkpt lat="43.052205" lon="-1.8686099999999999">
        <ele>1027.5</ele>
        <time>2018-09-29T10:05:37Z</time>
      </trkpt>
      <trkpt lat="43.052215" lon="-1.86874">
        <ele>1027.3</ele>
        <time>2018-09-29T10:05:39Z</time>
      </trkpt>
      <trkpt lat="43.05222" lon="-1.86884">
        <ele>1027.1</ele>
        <time>2018-09-29T10:05:41Z</time>
      </trkpt>
      <trkpt lat="43.05223" lon="-1.868985">
        <ele>1026.8</ele>
        <time>2018-09-29T10:05:44Z</time>
      </trkpt>
      <trkpt lat="43.05224166666667" lon="-1.8691116666666667">
        <ele>1026.4</ele>
        <time>2018-09-29T10:05:47Z</time>
      </trkpt>
      <trkpt lat="43.05225333333333" lon="-1.8692199999999999">
        <ele>1026.1</ele>
        <time>2018-09-29T10:05:49Z</time>
      </trkpt>
      <trkpt lat="43.05225333333333" lon="-1.8693566666666666">
        <ele>1025.7</ele>
        <time>2018-09-29T10:05:52Z</time>
      </trkpt>
      <trkpt lat="43.05223" lon="-1.8694716666666666">
        <ele>1025.4</ele>
        <time>2018-09-29T10:05:54Z</time>
      </trkpt>
      <trkpt lat="43.0522" lon="-1.86961">
        <ele>1025.1</ele>
        <time>2018-09-29T10:05:56Z</time>
      </trkpt>
      <trkpt lat="43.05216166666667" lon="-1.86971">
        <ele>1024.8</ele>
        <time>2018-09-29T10:05:58Z</time>
      </trkpt>
      <trkpt lat="43.052125" lon="-1.86985">
        <ele>1024.5</ele>
        <time>2018-09-29T10:06:00Z</time>
      </trkpt>
      <trkpt lat="43.05207" lon="-1.869935">
        <ele>1024.2</ele>
        <time>2018-09-29T10:06:02Z</time>
      </trkpt>
      <trkpt lat="43.05204" lon="-1.8700350000000001">
        <ele>1024.0</ele>
        <time>2018-09-29T10:06:04Z</time>
      </trkpt>
      <trkpt lat="43.051975" lon="-1.87012">
        <ele>1023.7</ele>
        <time>2018-09-29T10:06:06Z</time>
      </trkpt>
      <trkpt lat="43.05188666666667" lon="-1.870235">
        <ele>1021.2</ele>
        <time>2018-09-29T10:06:08Z</time>
      </trkpt>
      <trkpt lat="43.0518" lon="-1.87039">
        <ele>1019.3</ele>
        <time>2018-09-29T10:06:10Z</time>
      </trkpt>
      <trkpt lat="43.05173" lon="-1.8705266666666667">
        <ele>1019.1</ele>
        <time>2018-09-29T10:06:12Z</time>
      </trkpt>
      <trkpt lat="43.051665" lon="-1.87065">
        <ele>1018.0</ele>
        <time>2018-09-29T10:06:14Z</time>
      </trkpt>
      <trkpt lat="43.05163" lon="-1.8707449999999999">
        <ele>1017.8</ele>
        <time>2018-09-29T10:06:16Z</time>
      </trkpt>
      <trkpt lat="43.051575" lon="-1.8708383333333334">
        <ele>1016.7</ele>
        <time>2018-09-29T10:06:18Z</time>
      </trkpt>
      <trkpt lat="43.05151166666667" lon="-1.871">
        <ele>1014.4</ele>
        <time>2018-09-29T10:06:20Z</time>
      </trkpt>
      <trkpt lat="43.05145" lon="-1.8711483333333334">
        <ele>1012.2</ele>
        <time>2018-09-29T10:06:22Z</time>
      </trkpt>
      <trkpt lat="43.051415" lon="-1.8712433333333334">
        <ele>1011.2</ele>
        <time>2018-09-29T10:06:23Z</time>
      </trkpt>
      <trkpt lat="43.05137" lon="-1.8714316666666666">
        <ele>1009.4</ele>
        <time>2018-09-29T10:06:25Z</time>
      </trkpt>
      <trkpt lat="43.051343333333335" lon="-1.871595">
        <ele>1007.6</ele>
        <time>2018-09-29T10:06:27Z</time>
      </trkpt>
      <trkpt lat="43.051335" lon="-1.8717833333333334">
        <ele>1005.8</ele>
        <time>2018-09-29T10:06:29Z</time>
      </trkpt>
      <trkpt lat="43.051341666666666" lon="-1.8718933333333334">
        <ele>1005.0</ele>
        <time>2018-09-29T10:06:30Z</time>
      </trkpt>
      <trkpt lat="43.05134" lon="-1.87202">
        <ele>1004.1</ele>
        <time>2018-09-29T10:06:31Z</time>
      </trkpt>
      <trkpt lat="43.051341666666666" lon="-1.872125">
        <ele>1003.3</ele>
        <time>2018-09-29T10:06:32Z</time>
      </trkpt>
      <trkpt lat="43.05132" lon="-1.8723049999999999">
        <ele>1001.6</ele>
        <time>2018-09-29T10:06:34Z</time>
      </trkpt>
      <trkpt lat="43.05133" lon="-1.8724699999999999">
        <ele>1000.1</ele>
        <time>2018-09-29T10:06:36Z</time>
      </trkpt>
      <trkpt lat="43.051315" lon="-1.872655">
        <ele>998.0</ele>
        <time>2018-09-29T10:06:38Z</time>
      </trkpt>
      <trkpt lat="43.05128166666667" lon="-1.8728433333333334">
        <ele>995.7</ele>
        <time>2018-09-29T10:06:40Z</time>
      </trkpt>
      <trkpt lat="43.05125" lon="-1.87301">
        <ele>993.4</ele>
        <time>2018-09-29T10:06:42Z</time>
      </trkpt>
      <trkpt lat="43.051245" lon="-1.8731200000000001">
        <ele>992.1</ele>
        <time>2018-09-29T10:06:43Z</time>
      </trkpt>
      <trkpt lat="43.051255" lon="-1.8733133333333334">
        <ele>988.4</ele>
        <time>2018-09-29T10:06:45Z</time>
      </trkpt>
      <trkpt lat="43.05127" lon="-1.8734166666666667">
        <ele>986.6</ele>
        <time>2018-09-29T10:06:46Z</time>
      </trkpt>
      <trkpt lat="43.05129" lon="-1.873585">
        <ele>982.8</ele>
        <time>2018-09-29T10:06:48Z</time>
      </trkpt>
      <trkpt lat="43.051273333333334" lon="-1.8737666666666666">
        <ele>979.4</ele>
        <time>2018-09-29T10:06:50Z</time>
      </trkpt>
      <trkpt lat="43.051271666666665" lon="-1.8739050000000002">
        <ele>979.1</ele>
        <time>2018-09-29T10:06:52Z</time>
      </trkpt>
      <trkpt lat="43.051273333333334" lon="-1.8740233333333334">
        <ele>978.7</ele>
        <time>2018-09-29T10:06:54Z</time>
      </trkpt>
      <trkpt lat="43.051285" lon="-1.87415">
        <ele>978.3</ele>
        <time>2018-09-29T10:06:56Z</time>
      </trkpt>
      <trkpt lat="43.051265" lon="-1.874255">
        <ele>977.8</ele>
        <time>2018-09-29T10:06:58Z</time>
      </trkpt>
      <trkpt lat="43.05121" lon="-1.8744200000000002">
        <ele>972.6</ele>
        <time>2018-09-29T10:07:00Z</time>
      </trkpt>
      <trkpt lat="43.051186666666666" lon="-1.87452">
        <ele>970.5</ele>
        <time>2018-09-29T10:07:01Z</time>
      </trkpt>
      <trkpt lat="43.051195" lon="-1.8746200000000002">
        <ele>968.5</ele>
        <time>2018-09-29T10:07:02Z</time>
      </trkpt>
      <trkpt lat="43.051201666666664" lon="-1.87473">
        <ele>966.7</ele>
        <time>2018-09-29T10:07:03Z</time>
      </trkpt>
      <trkpt lat="43.05121" lon="-1.8748366666666667">
        <ele>965.1</ele>
        <time>2018-09-29T10:07:04Z</time>
      </trkpt>
      <trkpt lat="43.051206666666666" lon="-1.8749500000000001">
        <ele>963.5</ele>
        <time>2018-09-29T10:07:05Z</time>
      </trkpt>
      <trkpt lat="43.051188333333336" lon="-1.8751083333333334">
        <ele>960.9</ele>
        <time>2018-09-29T10:07:07Z</time>
      </trkpt>
      <trkpt lat="43.051206666666666" lon="-1.87526">
        <ele>958.6</ele>
        <time>2018-09-29T10:07:09Z</time>
      </trkpt>
      <trkpt lat="43.05124" lon="-1.87544">
        <ele>956.2</ele>
        <time>2018-09-29T10:07:11Z</time>
      </trkpt>
      <trkpt lat="43.05126" lon="-1.87562">
        <ele>953.8</ele>
        <time>2018-09-29T10:07:13Z</time>
      </trkpt>
      <trkpt lat="43.05128666666667" lon="-1.8758166666666667">
        <ele>951.2</ele>
        <time>2018-09-29T10:07:15Z</time>
      </trkpt>
      <trkpt lat="43.05131" lon="-1.8759966666666668">
        <ele>948.5</ele>
        <time>2018-09-29T10:07:17Z</time>
      </trkpt>
      <trkpt lat="43.051355" lon="-1.876135">
        <ele>945.8</ele>
        <time>2018-09-29T10:07:19Z</time>
      </trkpt>
      <trkpt lat="43.05141666666667" lon="-1.87626">
        <ele>943.4</ele>
        <time>2018-09-29T10:07:21Z</time>
      </trkpt>
      <trkpt lat="43.051455" lon="-1.87642">
        <ele>942.2</ele>
        <time>2018-09-29T10:07:23Z</time>
      </trkpt>
      <trkpt lat="43.051491666666664" lon="-1.876515">
        <ele>941.9</ele>
        <time>2018-09-29T10:07:25Z</time>
      </trkpt>
      <trkpt lat="43.05155" lon="-1.8766283333333333">
        <ele>939.6</ele>
        <time>2018-09-29T10:07:27Z</time>
      </trkpt>
      <trkpt lat="43.05156" lon="-1.8768150000000001">
        <ele>937.8</ele>
        <time>2018-09-29T10:07:29Z</time>
      </trkpt>
      <trkpt lat="43.05155" lon="-1.87695">
        <ele>936.9</ele>
        <time>2018-09-29T10:07:30Z</time>
      </trkpt>
      <trkpt lat="43.05155166666667" lon="-1.8770766666666667">
        <ele>936.0</ele>
        <time>2018-09-29T10:07:31Z</time>
      </trkpt>
      <trkpt lat="43.05155666666667" lon="-1.877225">
        <ele>935.2</ele>
        <time>2018-09-29T10:07:33Z</time>
      </trkpt>
      <trkpt lat="43.051555" lon="-1.877365">
        <ele>935.1</ele>
        <time>2018-09-29T10:07:35Z</time>
      </trkpt>
      <trkpt lat="43.05159" lon="-1.877515">
        <ele>933.1</ele>
        <time>2018-09-29T10:07:37Z</time>
      </trkpt>
      <trkpt lat="43.051595" lon="-1.877685">
        <ele>931.4</ele>
        <time>2018-09-29T10:07:39Z</time>
      </trkpt>
      <trkpt lat="43.05159" lon="-1.87786">
        <ele>930.0</ele>
        <time>2018-09-29T10:07:41Z</time>
      </trkpt>
      <trkpt lat="43.051581666666664" lon="-1.8780666666666668">
        <ele>928.8</ele>
        <time>2018-09-29T10:07:43Z</time>
      </trkpt>
      <trkpt lat="43.05157666666667" lon="-1.87829">
        <ele>927.4</ele>
        <time>2018-09-29T10:07:45Z</time>
      </trkpt>
      <trkpt lat="43.05155" lon="-1.87839">
        <ele>926.8</ele>
        <time>2018-09-29T10:07:46Z</time>
      </trkpt>
      <trkpt lat="43.05147" lon="-1.878575">
        <ele>925.4</ele>
        <time>2018-09-29T10:07:48Z</time>
      </trkpt>
      <trkpt lat="43.05144" lon="-1.8787516666666666">
        <ele>924.2</ele>
        <time>2018-09-29T10:07:50Z</time>
      </trkpt>
      <trkpt lat="43.051395" lon="-1.8789250000000002">
        <ele>923.4</ele>
        <time>2018-09-29T10:07:52Z</time>
      </trkpt>
      <trkpt lat="43.0514" lon="-1.879025">
        <ele>922.5</ele>
        <time>2018-09-29T10:07:54Z</time>
      </trkpt>
      <trkpt lat="43.051425" lon="-1.879165">
        <ele>921.4</ele>
        <time>2018-09-29T10:07:56Z</time>
      </trkpt>
      <trkpt lat="43.05144666666666" lon="-1.87934">
        <ele>920.5</ele>
        <time>2018-09-29T10:07:58Z</time>
      </trkpt>
      <trkpt lat="43.051498333333335" lon="-1.8794933333333332">
        <ele>919.8</ele>
        <time>2018-09-29T10:08:00Z</time>
      </trkpt>
      <trkpt lat="43.051545" lon="-1.879625">
        <ele>919.4</ele>
        <time>2018-09-29T10:08:02Z</time>
      </trkpt>
      <trkpt lat="43.051555" lon="-1.87973">
        <ele>919.0</ele>
        <time>2018-09-29T10:08:04Z</time>
      </trkpt>
      <trkpt lat="43.05156" lon="-1.8798916666666667">
        <ele>918.5</ele>
        <time>2018-09-29T10:08:06Z</time>
      </trkpt>
      <trkpt lat="43.051585" lon="-1.8800233333333334">
        <ele>918.4</ele>
        <time>2018-09-29T10:08:08Z</time>
      </trkpt>
      <trkpt lat="43.051605" lon="-1.8801283333333334">
        <ele>918.3</ele>
        <time>2018-09-29T10:08:10Z</time>
      </trkpt>
      <trkpt lat="43.0516" lon="-1.8802699999999999">
        <ele>918.2</ele>
        <time>2018-09-29T10:08:13Z</time>
      </trkpt>
      <trkpt lat="43.051581666666664" lon="-1.880375">
        <ele>918.1</ele>
        <time>2018-09-29T10:08:15Z</time>
      </trkpt>
      <trkpt lat="43.051565" lon="-1.880495">
        <ele>917.9</ele>
        <time>2018-09-29T10:08:17Z</time>
      </trkpt>
      <trkpt lat="43.051565" lon="-1.88062">
        <ele>917.7</ele>
        <time>2018-09-29T10:08:20Z</time>
      </trkpt>
      <trkpt lat="43.051555" lon="-1.8807216666666666">
        <ele>917.5</ele>
        <time>2018-09-29T10:08:23Z</time>
      </trkpt>
      <trkpt lat="43.051545" lon="-1.8808616666666667">
        <ele>917.2</ele>
        <time>2018-09-29T10:08:27Z</time>
      </trkpt>
      <trkpt lat="43.051535" lon="-1.8809716666666667">
        <ele>917.0</ele>
        <time>2018-09-29T10:08:29Z</time>
      </trkpt>
      <trkpt lat="43.05153" lon="-1.8811083333333334">
        <ele>916.8</ele>
        <time>2018-09-29T10:08:32Z</time>
      </trkpt>
      <trkpt lat="43.051535" lon="-1.8812250000000001">
        <ele>916.5</ele>
        <time>2018-09-29T10:08:35Z</time>
      </trkpt>
      <trkpt lat="43.051536666666664" lon="-1.8813300000000002">
        <ele>916.1</ele>
        <time>2018-09-29T10:08:39Z</time>
      </trkpt>
      <trkpt lat="43.051536666666664" lon="-1.8814449999999998">
        <ele>915.7</ele>
        <time>2018-09-29T10:08:43Z</time>
      </trkpt>
      <trkpt lat="43.051515" lon="-1.8815583333333334">
        <ele>915.4</ele>
        <time>2018-09-29T10:08:47Z</time>
      </trkpt>
      <trkpt lat="43.05148" lon="-1.881675">
        <ele>915.1</ele>
        <time>2018-09-29T10:08:50Z</time>
      </trkpt>
      <trkpt lat="43.05145" lon="-1.8817866666666667">
        <ele>914.8</ele>
        <time>2018-09-29T10:08:53Z</time>
      </trkpt>
      <trkpt lat="43.051475" lon="-1.88189">
        <ele>914.6</ele>
        <time>2018-09-29T10:08:55Z</time>
      </trkpt>
      <trkpt lat="43.05151" lon="-1.88199">
        <ele>912.9</ele>
        <time>2018-09-29T10:08:57Z</time>
      </trkpt>
      <trkpt lat="43.05149" lon="-1.882135">
        <ele>912.3</ele>
        <time>2018-09-29T10:08:59Z</time>
      </trkpt>
      <trkpt lat="43.051476666666666" lon="-1.88227">
        <ele>912.1</ele>
        <time>2018-09-29T10:09:02Z</time>
      </trkpt>
      <trkpt lat="43.05146" lon="-1.8824100000000001">
        <ele>912.0</ele>
        <time>2018-09-29T10:09:05Z</time>
      </trkpt>
      <trkpt lat="43.051475" lon="-1.882535">
        <ele>911.5</ele>
        <time>2018-09-29T10:09:07Z</time>
      </trkpt>
      <trkpt lat="43.05149" lon="-1.88266">
        <ele>910.8</ele>
        <time>2018-09-29T10:09:09Z</time>
      </trkpt>
      <trkpt lat="43.051445" lon="-1.8827683333333334">
        <ele>910.5</ele>
        <time>2018-09-29T10:09:11Z</time>
      </trkpt>
      <trkpt lat="43.051381666666664" lon="-1.882855">
        <ele>910.5</ele>
        <time>2018-09-29T10:09:14Z</time>
      </trkpt>
      <trkpt lat="43.051335" lon="-1.8829433333333334">
        <ele>910.4</ele>
        <time>2018-09-29T10:09:19Z</time>
      </trkpt>
      <trkpt lat="43.051295" lon="-1.883035">
        <ele>910.3</ele>
        <time>2018-09-29T10:09:22Z</time>
      </trkpt>
      <trkpt lat="43.051276666666666" lon="-1.883145">
        <ele>910.3</ele>
        <time>2018-09-29T10:09:26Z</time>
      </trkpt>
      <trkpt lat="43.05125" lon="-1.88324">
        <ele>910.2</ele>
        <time>2018-09-29T10:09:28Z</time>
      </trkpt>
      <trkpt lat="43.051245" lon="-1.883345">
        <ele>910.2</ele>
        <time>2018-09-29T10:09:30Z</time>
      </trkpt>
      <trkpt lat="43.051255" lon="-1.8834416666666667">
        <ele>910.1</ele>
        <time>2018-09-29T10:09:33Z</time>
      </trkpt>
      <trkpt lat="43.051235" lon="-1.8835383333333335">
        <ele>910.0</ele>
        <time>2018-09-29T10:09:36Z</time>
      </trkpt>
      <trkpt lat="43.05121" lon="-1.88366">
        <ele>909.9</ele>
        <time>2018-09-29T10:09:39Z</time>
      </trkpt>
      <trkpt lat="43.051175" lon="-1.88378">
        <ele>909.9</ele>
        <time>2018-09-29T10:09:42Z</time>
      </trkpt>
      <trkpt lat="43.05117166666667" lon="-1.8839066666666666">
        <ele>909.8</ele>
        <time>2018-09-29T10:09:45Z</time>
      </trkpt>
      <trkpt lat="43.051145" lon="-1.884045">
        <ele>909.7</ele>
        <time>2018-09-29T10:09:48Z</time>
      </trkpt>
      <trkpt lat="43.0511" lon="-1.8841533333333333">
        <ele>909.6</ele>
        <time>2018-09-29T10:09:52Z</time>
      </trkpt>
      <trkpt lat="43.051085" lon="-1.8842750000000001">
        <ele>909.6</ele>
        <time>2018-09-29T10:09:54Z</time>
      </trkpt>
      <trkpt lat="43.05107" lon="-1.88441">
        <ele>909.6</ele>
        <time>2018-09-29T10:09:56Z</time>
      </trkpt>
      <trkpt lat="43.05107" lon="-1.8845316666666667">
        <ele>909.5</ele>
        <time>2018-09-29T10:09:58Z</time>
      </trkpt>
      <trkpt lat="43.051048333333334" lon="-1.884665">
        <ele>909.4</ele>
        <time>2018-09-29T10:10:01Z</time>
      </trkpt>
      <trkpt lat="43.05102" lon="-1.884825">
        <ele>909.4</ele>
        <time>2018-09-29T10:10:04Z</time>
      </trkpt>
      <trkpt lat="43.051015" lon="-1.884925">
        <ele>909.3</ele>
        <time>2018-09-29T10:10:06Z</time>
      </trkpt>
      <trkpt lat="43.051025" lon="-1.8850500000000001">
        <ele>909.3</ele>
        <time>2018-09-29T10:10:08Z</time>
      </trkpt>
      <trkpt lat="43.051001666666664" lon="-1.88521">
        <ele>909.2</ele>
        <time>2018-09-29T10:10:10Z</time>
      </trkpt>
      <trkpt lat="43.050975" lon="-1.8853849999999999">
        <ele>908.4</ele>
        <time>2018-09-29T10:10:12Z</time>
      </trkpt>
      <trkpt lat="43.05097" lon="-1.88554">
        <ele>907.8</ele>
        <time>2018-09-29T10:10:14Z</time>
      </trkpt>
      <trkpt lat="43.050975" lon="-1.88571">
        <ele>907.3</ele>
        <time>2018-09-29T10:10:16Z</time>
      </trkpt>
      <trkpt lat="43.051005" lon="-1.8858633333333334">
        <ele>907.0</ele>
        <time>2018-09-29T10:10:18Z</time>
      </trkpt>
      <trkpt lat="43.05104166666667" lon="-1.886025">
        <ele>906.8</ele>
        <time>2018-09-29T10:10:20Z</time>
      </trkpt>
      <trkpt lat="43.05107" lon="-1.8862183333333333">
        <ele>906.6</ele>
        <time>2018-09-29T10:10:22Z</time>
      </trkpt>
      <trkpt lat="43.05108666666667" lon="-1.8863166666666666">
        <ele>906.6</ele>
        <time>2018-09-29T10:10:23Z</time>
      </trkpt>
      <trkpt lat="43.05111" lon="-1.8864816666666666">
        <ele>906.6</ele>
        <time>2018-09-29T10:10:25Z</time>
      </trkpt>
      <trkpt lat="43.05113" lon="-1.88665">
        <ele>906.6</ele>
        <time>2018-09-29T10:10:27Z</time>
      </trkpt>
      <trkpt lat="43.051118333333335" lon="-1.8868016666666667">
        <ele>906.7</ele>
        <time>2018-09-29T10:10:29Z</time>
      </trkpt>
      <trkpt lat="43.05112666666667" lon="-1.8869483333333332">
        <ele>906.8</ele>
        <time>2018-09-29T10:10:31Z</time>
      </trkpt>
      <trkpt lat="43.051145" lon="-1.8870900000000002">
        <ele>906.8</ele>
        <time>2018-09-29T10:10:33Z</time>
      </trkpt>
      <trkpt lat="43.05115" lon="-1.88726">
        <ele>906.9</ele>
        <time>2018-09-29T10:10:35Z</time>
      </trkpt>
      <trkpt lat="43.05116666666667" lon="-1.88741">
        <ele>906.9</ele>
        <time>2018-09-29T10:10:37Z</time>
      </trkpt>
      <trkpt lat="43.051206666666666" lon="-1.887535">
        <ele>906.9</ele>
        <time>2018-09-29T10:10:39Z</time>
      </trkpt>
      <trkpt lat="43.051225" lon="-1.887645">
        <ele>906.9</ele>
        <time>2018-09-29T10:10:41Z</time>
      </trkpt>
      <trkpt lat="43.051215" lon="-1.8877916666666668">
        <ele>906.8</ele>
        <time>2018-09-29T10:10:43Z</time>
      </trkpt>
      <trkpt lat="43.051186666666666" lon="-1.88795">
        <ele>906.8</ele>
        <time>2018-09-29T10:10:45Z</time>
      </trkpt>
      <trkpt lat="43.05116" lon="-1.8881083333333333">
        <ele>906.8</ele>
        <time>2018-09-29T10:10:47Z</time>
      </trkpt>
      <trkpt lat="43.051111666666664" lon="-1.888265">
        <ele>906.6</ele>
        <time>2018-09-29T10:10:49Z</time>
      </trkpt>
      <trkpt lat="43.051065" lon="-1.8884266666666667">
        <ele>906.3</ele>
        <time>2018-09-29T10:10:51Z</time>
      </trkpt>
      <trkpt lat="43.051035" lon="-1.888525">
        <ele>906.2</ele>
        <time>2018-09-29T10:10:52Z</time>
      </trkpt>
      <trkpt lat="43.050995" lon="-1.88863">
        <ele>906.1</ele>
        <time>2018-09-29T10:10:53Z</time>
      </trkpt>
      <trkpt lat="43.050955" lon="-1.8887266666666667">
        <ele>906.1</ele>
        <time>2018-09-29T10:10:54Z</time>
      </trkpt>
      <trkpt lat="43.05091" lon="-1.8888500000000001">
        <ele>906.0</ele>
        <time>2018-09-29T10:10:55Z</time>
      </trkpt>
      <trkpt lat="43.05084166666666" lon="-1.88897">
        <ele>905.9</ele>
        <time>2018-09-29T10:10:56Z</time>
      </trkpt>
      <trkpt lat="43.050775" lon="-1.889065">
        <ele>905.8</ele>
        <time>2018-09-29T10:10:57Z</time>
      </trkpt>
      <trkpt lat="43.05071" lon="-1.889165">
        <ele>905.6</ele>
        <time>2018-09-29T10:10:58Z</time>
      </trkpt>
      <trkpt lat="43.050665" lon="-1.889255">
        <ele>905.5</ele>
        <time>2018-09-29T10:10:59Z</time>
      </trkpt>
      <trkpt lat="43.050615" lon="-1.8893499999999999">
        <ele>905.4</ele>
        <time>2018-09-29T10:11:00Z</time>
      </trkpt>
      <trkpt lat="43.05058" lon="-1.8894483333333334">
        <ele>905.3</ele>
        <time>2018-09-29T10:11:01Z</time>
      </trkpt>
      <trkpt lat="43.05054" lon="-1.8895383333333333">
        <ele>905.2</ele>
        <time>2018-09-29T10:11:02Z</time>
      </trkpt>
      <trkpt lat="43.0505" lon="-1.8896466666666667">
        <ele>905.2</ele>
        <time>2018-09-29T10:11:02Z</time>
      </trkpt>
      <trkpt lat="43.050485" lon="-1.889745">
        <ele>905.2</ele>
        <time>2018-09-29T10:11:03Z</time>
      </trkpt>
      <trkpt lat="43.05042" lon="-1.889915">
        <ele>905.1</ele>
        <time>2018-09-29T10:11:05Z</time>
      </trkpt>
      <trkpt lat="43.050385" lon="-1.8900000000000001">
        <ele>905.1</ele>
        <time>2018-09-29T10:11:06Z</time>
      </trkpt>
      <trkpt lat="43.050351666666664" lon="-1.89009">
        <ele>905.1</ele>
        <time>2018-09-29T10:11:07Z</time>
      </trkpt>
      <trkpt lat="43.05032" lon="-1.890185">
        <ele>905.1</ele>
        <time>2018-09-29T10:11:08Z</time>
      </trkpt>
      <trkpt lat="43.05028166666666" lon="-1.8903483333333333">
        <ele>905.0</ele>
        <time>2018-09-29T10:11:10Z</time>
      </trkpt>
      <trkpt lat="43.050245" lon="-1.8905150000000002">
        <ele>904.9</ele>
        <time>2018-09-29T10:11:12Z</time>
      </trkpt>
      <trkpt lat="43.05022" lon="-1.8907">
        <ele>904.7</ele>
        <time>2018-09-29T10:11:14Z</time>
      </trkpt>
      <trkpt lat="43.0502" lon="-1.8908116666666666">
        <ele>904.7</ele>
        <time>2018-09-29T10:11:15Z</time>
      </trkpt>
      <trkpt lat="43.05018166666667" lon="-1.8909916666666666">
        <ele>904.5</ele>
        <time>2018-09-29T10:11:17Z</time>
      </trkpt>
      <trkpt lat="43.050196666666665" lon="-1.8911666666666667">
        <ele>904.4</ele>
        <time>2018-09-29T10:11:19Z</time>
      </trkpt>
      <trkpt lat="43.050203333333336" lon="-1.8913316666666666">
        <ele>904.2</ele>
        <time>2018-09-29T10:11:21Z</time>
      </trkpt>
      <trkpt lat="43.050225" lon="-1.8915000000000002">
        <ele>904.1</ele>
        <time>2018-09-29T10:11:23Z</time>
      </trkpt>
      <trkpt lat="43.050245" lon="-1.89166">
        <ele>904.1</ele>
        <time>2018-09-29T10:11:25Z</time>
      </trkpt>
      <trkpt lat="43.050241666666665" lon="-1.891835">
        <ele>904.2</ele>
        <time>2018-09-29T10:11:27Z</time>
      </trkpt>
      <trkpt lat="43.050225" lon="-1.8919616666666665">
        <ele>904.2</ele>
        <time>2018-09-29T10:11:29Z</time>
      </trkpt>
      <trkpt lat="43.050215" lon="-1.89209">
        <ele>904.3</ele>
        <time>2018-09-29T10:11:31Z</time>
      </trkpt>
      <trkpt lat="43.0502" lon="-1.892215">
        <ele>904.3</ele>
        <time>2018-09-29T10:11:33Z</time>
      </trkpt>
      <trkpt lat="43.05018" lon="-1.8923450000000002">
        <ele>904.3</ele>
        <time>2018-09-29T10:11:35Z</time>
      </trkpt>
      <trkpt lat="43.05014166666667" lon="-1.892465">
        <ele>904.3</ele>
        <time>2018-09-29T10:11:37Z</time>
      </trkpt>
      <trkpt lat="43.05010166666667" lon="-1.8925616666666667">
        <ele>904.3</ele>
        <time>2018-09-29T10:11:39Z</time>
      </trkpt>
      <trkpt lat="43.050035" lon="-1.892695">
        <ele>904.3</ele>
        <time>2018-09-29T10:11:41Z</time>
      </trkpt>
      <trkpt lat="43.050005" lon="-1.8927816666666666">
        <ele>904.3</ele>
        <time>2018-09-29T10:11:43Z</time>
      </trkpt>
      <trkpt lat="43.049985" lon="-1.892885">
        <ele>904.3</ele>
        <time>2018-09-29T10:11:45Z</time>
      </trkpt>
      <trkpt lat="43.04995666666667" lon="-1.89299">
        <ele>904.2</ele>
        <time>2018-09-29T10:11:47Z</time>
      </trkpt>
      <trkpt lat="43.04994" lon="-1.89309">
        <ele>904.2</ele>
        <time>2018-09-29T10:11:49Z</time>
      </trkpt>
      <trkpt lat="43.049915" lon="-1.8932433333333334">
        <ele>904.2</ele>
        <time>2018-09-29T10:11:52Z</time>
      </trkpt>
      <trkpt lat="43.049895" lon="-1.8933516666666668">
        <ele>904.2</ele>
        <time>2018-09-29T10:11:54Z</time>
      </trkpt>
      <trkpt lat="43.049865" lon="-1.8934883333333334">
        <ele>904.1</ele>
        <time>2018-09-29T10:11:56Z</time>
      </trkpt>
      <trkpt lat="43.049816666666665" lon="-1.8936">
        <ele>904.1</ele>
        <time>2018-09-29T10:11:57Z</time>
      </trkpt>
      <trkpt lat="43.04978666666667" lon="-1.8936883333333334">
        <ele>903.9</ele>
        <time>2018-09-29T10:11:58Z</time>
      </trkpt>
      <trkpt lat="43.049753333333335" lon="-1.89379">
        <ele>903.9</ele>
        <time>2018-09-29T10:11:59Z</time>
      </trkpt>
      <trkpt lat="43.049745" lon="-1.8939300000000001">
        <ele>903.8</ele>
        <time>2018-09-29T10:12:01Z</time>
      </trkpt>
      <trkpt lat="43.049746666666664" lon="-1.89405">
        <ele>903.8</ele>
        <time>2018-09-29T10:12:03Z</time>
      </trkpt>
      <trkpt lat="43.04973" lon="-1.89418">
        <ele>903.8</ele>
        <time>2018-09-29T10:12:06Z</time>
      </trkpt>
      <trkpt lat="43.049725" lon="-1.8943349999999999">
        <ele>903.5</ele>
        <time>2018-09-29T10:12:08Z</time>
      </trkpt>
      <trkpt lat="43.049705" lon="-1.89452">
        <ele>903.2</ele>
        <time>2018-09-29T10:12:10Z</time>
      </trkpt>
      <trkpt lat="43.049675" lon="-1.89471">
        <ele>902.9</ele>
        <time>2018-09-29T10:12:12Z</time>
      </trkpt>
      <trkpt lat="43.049665" lon="-1.89481">
        <ele>902.8</ele>
        <time>2018-09-29T10:12:13Z</time>
      </trkpt>
      <trkpt lat="43.049641666666666" lon="-1.8949099999999999">
        <ele>902.8</ele>
        <time>2018-09-29T10:12:14Z</time>
      </trkpt>
      <trkpt lat="43.049635" lon="-1.8950983333333333">
        <ele>902.6</ele>
        <time>2018-09-29T10:12:16Z</time>
      </trkpt>
      <trkpt lat="43.049625" lon="-1.89527">
        <ele>902.4</ele>
        <time>2018-09-29T10:12:18Z</time>
      </trkpt>
      <trkpt lat="43.04961" lon="-1.89544">
        <ele>902.3</ele>
        <time>2018-09-29T10:12:20Z</time>
      </trkpt>
      <trkpt lat="43.04960166666667" lon="-1.8955916666666668">
        <ele>902.2</ele>
        <time>2018-09-29T10:12:22Z</time>
      </trkpt>
      <trkpt lat="43.04959" lon="-1.8957383333333335">
        <ele>902.1</ele>
        <time>2018-09-29T10:12:24Z</time>
      </trkpt>
      <trkpt lat="43.04958" lon="-1.895875">
        <ele>902.1</ele>
        <time>2018-09-29T10:12:26Z</time>
      </trkpt>
      <trkpt lat="43.049551666666666" lon="-1.89608">
        <ele>902.0</ele>
        <time>2018-09-29T10:12:28Z</time>
      </trkpt>
      <trkpt lat="43.04954166666667" lon="-1.8961733333333335">
        <ele>901.9</ele>
        <time>2018-09-29T10:12:29Z</time>
      </trkpt>
      <trkpt lat="43.04953166666667" lon="-1.896325">
        <ele>901.8</ele>
        <time>2018-09-29T10:12:31Z</time>
      </trkpt>
      <trkpt lat="43.04951" lon="-1.89648">
        <ele>901.7</ele>
        <time>2018-09-29T10:12:33Z</time>
      </trkpt>
      <trkpt lat="43.04947" lon="-1.896585">
        <ele>901.7</ele>
        <time>2018-09-29T10:12:34Z</time>
      </trkpt>
      <trkpt lat="43.049445" lon="-1.89668">
        <ele>901.7</ele>
        <time>2018-09-29T10:12:35Z</time>
      </trkpt>
      <trkpt lat="43.04942" lon="-1.8968033333333332">
        <ele>901.7</ele>
        <time>2018-09-29T10:12:37Z</time>
      </trkpt>
      <trkpt lat="43.049391666666665" lon="-1.896935">
        <ele>901.7</ele>
        <time>2018-09-29T10:12:39Z</time>
      </trkpt>
      <trkpt lat="43.04936" lon="-1.89706">
        <ele>901.7</ele>
        <time>2018-09-29T10:12:41Z</time>
      </trkpt>
      <trkpt lat="43.04934" lon="-1.8971633333333333">
        <ele>901.6</ele>
        <time>2018-09-29T10:12:43Z</time>
      </trkpt>
      <trkpt lat="43.049315" lon="-1.8972616666666666">
        <ele>901.6</ele>
        <time>2018-09-29T10:12:44Z</time>
      </trkpt>
      <trkpt lat="43.049295" lon="-1.8973733333333334">
        <ele>901.6</ele>
        <time>2018-09-29T10:12:46Z</time>
      </trkpt>
      <trkpt lat="43.049275" lon="-1.897495">
        <ele>901.6</ele>
        <time>2018-09-29T10:12:48Z</time>
      </trkpt>
      <trkpt lat="43.049255" lon="-1.897635">
        <ele>901.6</ele>
        <time>2018-09-29T10:12:50Z</time>
      </trkpt>
      <trkpt lat="43.04926" lon="-1.897785">
        <ele>901.6</ele>
        <time>2018-09-29T10:12:52Z</time>
      </trkpt>
      <trkpt lat="43.04929166666667" lon="-1.897905">
        <ele>901.6</ele>
        <time>2018-09-29T10:12:54Z</time>
      </trkpt>
      <trkpt lat="43.04928" lon="-1.898045">
        <ele>901.4</ele>
        <time>2018-09-29T10:12:56Z</time>
      </trkpt>
      <trkpt lat="43.04925" lon="-1.898225">
        <ele>901.3</ele>
        <time>2018-09-29T10:12:58Z</time>
      </trkpt>
      <trkpt lat="43.049225" lon="-1.8983416666666666">
        <ele>901.2</ele>
        <time>2018-09-29T10:12:59Z</time>
      </trkpt>
      <trkpt lat="43.04921" lon="-1.8984366666666666">
        <ele>901.1</ele>
        <time>2018-09-29T10:13:00Z</time>
      </trkpt>
      <trkpt lat="43.04919" lon="-1.8985333333333334">
        <ele>901.1</ele>
        <time>2018-09-29T10:13:01Z</time>
      </trkpt>
      <trkpt lat="43.049175" lon="-1.8986399999999999">
        <ele>901.0</ele>
        <time>2018-09-29T10:13:02Z</time>
      </trkpt>
      <trkpt lat="43.04912" lon="-1.89881">
        <ele>901.0</ele>
        <time>2018-09-29T10:13:04Z</time>
      </trkpt>
      <trkpt lat="43.0491" lon="-1.8989616666666667">
        <ele>900.9</ele>
        <time>2018-09-29T10:13:06Z</time>
      </trkpt>
      <trkpt lat="43.04906666666667" lon="-1.8991066666666665">
        <ele>900.9</ele>
        <time>2018-09-29T10:13:08Z</time>
      </trkpt>
      <trkpt lat="43.04903" lon="-1.89927">
        <ele>900.9</ele>
        <time>2018-09-29T10:13:10Z</time>
      </trkpt>
      <trkpt lat="43.049011666666665" lon="-1.8994133333333334">
        <ele>900.7</ele>
        <time>2018-09-29T10:13:12Z</time>
      </trkpt>
      <trkpt lat="43.049" lon="-1.89952">
        <ele>900.7</ele>
        <time>2018-09-29T10:13:13Z</time>
      </trkpt>
      <trkpt lat="43.04898166666667" lon="-1.89962">
        <ele>900.7</ele>
        <time>2018-09-29T10:13:14Z</time>
      </trkpt>
      <trkpt lat="43.048965" lon="-1.899715">
        <ele>900.6</ele>
        <time>2018-09-29T10:13:15Z</time>
      </trkpt>
      <trkpt lat="43.04895" lon="-1.899835">
        <ele>900.6</ele>
        <time>2018-09-29T10:13:16Z</time>
      </trkpt>
      <trkpt lat="43.048941666666664" lon="-1.8999416666666666">
        <ele>900.5</ele>
        <time>2018-09-29T10:13:17Z</time>
      </trkpt>
      <trkpt lat="43.048975" lon="-1.9001366666666666">
        <ele>900.5</ele>
        <time>2018-09-29T10:13:19Z</time>
      </trkpt>
      <trkpt lat="43.048985" lon="-1.90028">
        <ele>900.4</ele>
        <time>2018-09-29T10:13:21Z</time>
      </trkpt>
      <trkpt lat="43.04893166666667" lon="-1.9004150000000002">
        <ele>900.4</ele>
        <time>2018-09-29T10:13:23Z</time>
      </trkpt>
      <trkpt lat="43.048835" lon="-1.900535">
        <ele>900.3</ele>
        <time>2018-09-29T10:13:25Z</time>
      </trkpt>
      <trkpt lat="43.048786666666665" lon="-1.900605">
        <ele>900.3</ele>
        <time>2018-09-29T10:13:26Z</time>
      </trkpt>
      <trkpt lat="43.048735" lon="-1.9007">
        <ele>900.2</ele>
        <time>2018-09-29T10:13:27Z</time>
      </trkpt>
      <trkpt lat="43.04868" lon="-1.90078">
        <ele>900.2</ele>
        <time>2018-09-29T10:13:28Z</time>
      </trkpt>
      <trkpt lat="43.04862" lon="-1.90086">
        <ele>900.2</ele>
        <time>2018-09-29T10:13:29Z</time>
      </trkpt>
      <trkpt lat="43.04855" lon="-1.9009383333333334">
        <ele>900.1</ele>
        <time>2018-09-29T10:13:30Z</time>
      </trkpt>
      <trkpt lat="43.04850666666667" lon="-1.9010183333333335">
        <ele>900.1</ele>
        <time>2018-09-29T10:13:31Z</time>
      </trkpt>
      <trkpt lat="43.048445" lon="-1.901165">
        <ele>899.9</ele>
        <time>2018-09-29T10:13:33Z</time>
      </trkpt>
      <trkpt lat="43.048388333333335" lon="-1.901325">
        <ele>899.7</ele>
        <time>2018-09-29T10:13:35Z</time>
      </trkpt>
      <trkpt lat="43.048355" lon="-1.90145">
        <ele>899.6</ele>
        <time>2018-09-29T10:13:37Z</time>
      </trkpt>
      <trkpt lat="43.04831" lon="-1.9015716666666667">
        <ele>899.5</ele>
        <time>2018-09-29T10:13:39Z</time>
      </trkpt>
      <trkpt lat="43.04826666666666" lon="-1.9017">
        <ele>899.5</ele>
        <time>2018-09-29T10:13:41Z</time>
      </trkpt>
      <trkpt lat="43.048225" lon="-1.9018216666666667">
        <ele>899.3</ele>
        <time>2018-09-29T10:13:43Z</time>
      </trkpt>
      <trkpt lat="43.048175" lon="-1.9019483333333334">
        <ele>899.2</ele>
        <time>2018-09-29T10:13:45Z</time>
      </trkpt>
      <trkpt lat="43.048135" lon="-1.9020700000000001">
        <ele>899.1</ele>
        <time>2018-09-29T10:13:47Z</time>
      </trkpt>
      <trkpt lat="43.04812" lon="-1.902165">
        <ele>899.1</ele>
        <time>2018-09-29T10:13:49Z</time>
      </trkpt>
      <trkpt lat="43.048046666666664" lon="-1.9022716666666666">
        <ele>899.0</ele>
        <time>2018-09-29T10:13:52Z</time>
      </trkpt>
      <trkpt lat="43.047975" lon="-1.9023666666666668">
        <ele>899.0</ele>
        <time>2018-09-29T10:13:55Z</time>
      </trkpt>
      <trkpt lat="43.04793" lon="-1.9024633333333334">
        <ele>899.0</ele>
        <time>2018-09-29T10:13:58Z</time>
      </trkpt>
      <trkpt lat="43.047885" lon="-1.9025466666666666">
        <ele>898.9</ele>
        <time>2018-09-29T10:14:01Z</time>
      </trkpt>
      <trkpt lat="43.047835" lon="-1.9026416666666666">
        <ele>899.0</ele>
        <time>2018-09-29T10:14:05Z</time>
      </trkpt>
      <trkpt lat="43.04779" lon="-1.9027316666666665">
        <ele>898.9</ele>
        <time>2018-09-29T10:14:09Z</time>
      </trkpt>
      <trkpt lat="43.047745" lon="-1.90283">
        <ele>898.9</ele>
        <time>2018-09-29T10:14:13Z</time>
      </trkpt>
      <trkpt lat="43.04769" lon="-1.9029">
        <ele>899.0</ele>
        <time>2018-09-29T10:14:16Z</time>
      </trkpt>
      <trkpt lat="43.04764" lon="-1.9029716666666667">
        <ele>899.0</ele>
        <time>2018-09-29T10:14:20Z</time>
      </trkpt>
      <trkpt lat="43.04761166666667" lon="-1.9030749999999999">
        <ele>899.0</ele>
        <time>2018-09-29T10:14:24Z</time>
      </trkpt>
      <trkpt lat="43.04759" lon="-1.9031866666666666">
        <ele>899.0</ele>
        <time>2018-09-29T10:14:27Z</time>
      </trkpt>
      <trkpt lat="43.04759166666667" lon="-1.903295">
        <ele>899.1</ele>
        <time>2018-09-29T10:14:32Z</time>
      </trkpt>
      <trkpt lat="43.04757" lon="-1.903395">
        <ele>899.1</ele>
        <time>2018-09-29T10:14:36Z</time>
      </trkpt>
      <trkpt lat="43.04754666666667" lon="-1.903505">
        <ele>899.3</ele>
        <time>2018-09-29T10:14:42Z</time>
      </trkpt>
      <trkpt lat="43.0475" lon="-1.9036166666666667">
        <ele>899.4</ele>
        <time>2018-09-29T10:14:46Z</time>
      </trkpt>
      <trkpt lat="43.047465" lon="-1.9037183333333334">
        <ele>899.5</ele>
        <time>2018-09-29T10:14:50Z</time>
      </trkpt>
      <trkpt lat="43.047435" lon="-1.90383">
        <ele>899.7</ele>
        <time>2018-09-29T10:14:54Z</time>
      </trkpt>
      <trkpt lat="43.047415" lon="-1.90393">
        <ele>899.9</ele>
        <time>2018-09-29T10:15:01Z</time>
      </trkpt>
      <trkpt lat="43.04741666666666" lon="-1.904035">
        <ele>900.0</ele>
        <time>2018-09-29T10:15:05Z</time>
      </trkpt>
      <trkpt lat="43.04737166666666" lon="-1.9041549999999998">
        <ele>900.1</ele>
        <time>2018-09-29T10:15:09Z</time>
      </trkpt>
      <trkpt lat="43.047331666666665" lon="-1.90424">
        <ele>900.2</ele>
        <time>2018-09-29T10:15:13Z</time>
      </trkpt>
      <trkpt lat="43.047285" lon="-1.904325">
        <ele>900.3</ele>
        <time>2018-09-29T10:15:16Z</time>
      </trkpt>
      <trkpt lat="43.04724" lon="-1.90442">
        <ele>900.4</ele>
        <time>2018-09-29T10:15:20Z</time>
      </trkpt>
      <trkpt lat="43.047176666666665" lon="-1.90449">
        <ele>900.5</ele>
        <time>2018-09-29T10:15:23Z</time>
      </trkpt>
      <trkpt lat="43.04712" lon="-1.90459">
        <ele>900.6</ele>
        <time>2018-09-29T10:15:26Z</time>
      </trkpt>
      <trkpt lat="43.047041666666665" lon="-1.9046750000000001">
        <ele>900.6</ele>
        <time>2018-09-29T10:15:28Z</time>
      </trkpt>
      <trkpt lat="43.04697" lon="-1.9047066666666668">
        <ele>900.7</ele>
        <time>2018-09-29T10:15:30Z</time>
      </trkpt>
      <trkpt lat="43.046895" lon="-1.904735">
        <ele>900.8</ele>
        <time>2018-09-29T10:15:34Z</time>
      </trkpt>
      <trkpt lat="43.046825" lon="-1.9047816666666666">
        <ele>900.9</ele>
        <time>2018-09-29T10:15:38Z</time>
      </trkpt>
      <trkpt lat="43.04677" lon="-1.90486">
        <ele>900.9</ele>
        <time>2018-09-29T10:15:43Z</time>
      </trkpt>
      <trkpt lat="43.04671166666667" lon="-1.9049633333333333">
        <ele>901.0</ele>
        <time>2018-09-29T10:15:46Z</time>
      </trkpt>
      <trkpt lat="43.046665" lon="-1.9050850000000001">
        <ele>901.0</ele>
        <time>2018-09-29T10:15:49Z</time>
      </trkpt>
      <trkpt lat="43.046625" lon="-1.9051716666666665">
        <ele>901.1</ele>
        <time>2018-09-29T10:15:52Z</time>
      </trkpt>
      <trkpt lat="43.04658166666667" lon="-1.9052850000000001">
        <ele>901.1</ele>
        <time>2018-09-29T10:15:56Z</time>
      </trkpt>
      <trkpt lat="43.046565" lon="-1.9054083333333334">
        <ele>901.2</ele>
        <time>2018-09-29T10:16:00Z</time>
      </trkpt>
      <trkpt lat="43.04658166666667" lon="-1.9055216666666666">
        <ele>901.3</ele>
        <time>2018-09-29T10:16:03Z</time>
      </trkpt>
      <trkpt lat="43.046641666666666" lon="-1.9056516666666667">
        <ele>901.6</ele>
        <time>2018-09-29T10:16:06Z</time>
      </trkpt>
      <trkpt lat="43.04667" lon="-1.9057716666666666">
        <ele>901.7</ele>
        <time>2018-09-29T10:16:08Z</time>
      </trkpt>
      <trkpt lat="43.04667" lon="-1.9058883333333334">
        <ele>901.7</ele>
        <time>2018-09-29T10:16:10Z</time>
      </trkpt>
      <trkpt lat="43.046665" lon="-1.9059966666666668">
        <ele>901.7</ele>
        <time>2018-09-29T10:16:12Z</time>
      </trkpt>
      <trkpt lat="43.046655" lon="-1.9061383333333333">
        <ele>901.7</ele>
        <time>2018-09-29T10:16:15Z</time>
      </trkpt>
      <trkpt lat="43.04664" lon="-1.906285">
        <ele>901.8</ele>
        <time>2018-09-29T10:16:18Z</time>
      </trkpt>
      <trkpt lat="43.046615" lon="-1.90639">
        <ele>901.8</ele>
        <time>2018-09-29T10:16:21Z</time>
      </trkpt>
      <trkpt lat="43.04658833333333" lon="-1.9064816666666666">
        <ele>901.8</ele>
        <time>2018-09-29T10:16:23Z</time>
      </trkpt>
      <trkpt lat="43.0466" lon="-1.9065866666666667">
        <ele>901.9</ele>
        <time>2018-09-29T10:16:26Z</time>
      </trkpt>
      <trkpt lat="43.04658" lon="-1.90669">
        <ele>901.9</ele>
        <time>2018-09-29T10:16:29Z</time>
      </trkpt>
      <trkpt lat="43.046565" lon="-1.906815">
        <ele>901.9</ele>
        <time>2018-09-29T10:16:31Z</time>
      </trkpt>
      <trkpt lat="43.046515" lon="-1.9069850000000002">
        <ele>902.1</ele>
        <time>2018-09-29T10:16:33Z</time>
      </trkpt>
      <trkpt lat="43.046465" lon="-1.907155">
        <ele>902.2</ele>
        <time>2018-09-29T10:16:35Z</time>
      </trkpt>
      <trkpt lat="43.0464" lon="-1.9073016666666667">
        <ele>902.3</ele>
        <time>2018-09-29T10:16:37Z</time>
      </trkpt>
      <trkpt lat="43.046325" lon="-1.9074550000000001">
        <ele>902.3</ele>
        <time>2018-09-29T10:16:39Z</time>
      </trkpt>
      <trkpt lat="43.04625166666667" lon="-1.9075916666666668">
        <ele>902.4</ele>
        <time>2018-09-29T10:16:41Z</time>
      </trkpt>
      <trkpt lat="43.04623" lon="-1.90777">
        <ele>902.4</ele>
        <time>2018-09-29T10:16:43Z</time>
      </trkpt>
      <trkpt lat="43.04621" lon="-1.9079266666666665">
        <ele>902.4</ele>
        <time>2018-09-29T10:16:45Z</time>
      </trkpt>
      <trkpt lat="43.046215" lon="-1.9080499999999998">
        <ele>902.5</ele>
        <time>2018-09-29T10:16:48Z</time>
      </trkpt>
      <trkpt lat="43.04626" lon="-1.90814">
        <ele>902.5</ele>
        <time>2018-09-29T10:16:51Z</time>
      </trkpt>
      <trkpt lat="43.04632" lon="-1.90822">
        <ele>902.5</ele>
        <time>2018-09-29T10:16:55Z</time>
      </trkpt>
      <trkpt lat="43.04639" lon="-1.9082916666666667">
        <ele>902.5</ele>
        <time>2018-09-29T10:16:58Z</time>
      </trkpt>
      <trkpt lat="43.04641" lon="-1.9084683333333334">
        <ele>902.4</ele>
        <time>2018-09-29T10:17:01Z</time>
      </trkpt>
      <trkpt lat="43.04645166666667" lon="-1.90862">
        <ele>902.4</ele>
        <time>2018-09-29T10:17:03Z</time>
      </trkpt>
      <trkpt lat="43.046485" lon="-1.908765">
        <ele>902.4</ele>
        <time>2018-09-29T10:17:05Z</time>
      </trkpt>
      <trkpt lat="43.046501666666664" lon="-1.90891">
        <ele>902.3</ele>
        <time>2018-09-29T10:17:07Z</time>
      </trkpt>
      <trkpt lat="43.04653" lon="-1.9090500000000001">
        <ele>902.2</ele>
        <time>2018-09-29T10:17:09Z</time>
      </trkpt>
      <trkpt lat="43.046535" lon="-1.9091783333333332">
        <ele>902.2</ele>
        <time>2018-09-29T10:17:11Z</time>
      </trkpt>
      <trkpt lat="43.046555" lon="-1.9093">
        <ele>902.1</ele>
        <time>2018-09-29T10:17:13Z</time>
      </trkpt>
      <trkpt lat="43.046565" lon="-1.90943">
        <ele>901.9</ele>
        <time>2018-09-29T10:17:15Z</time>
      </trkpt>
      <trkpt lat="43.046571666666665" lon="-1.9095650000000002">
        <ele>901.7</ele>
        <time>2018-09-29T10:17:17Z</time>
      </trkpt>
      <trkpt lat="43.046565" lon="-1.909695">
        <ele>901.6</ele>
        <time>2018-09-29T10:17:19Z</time>
      </trkpt>
      <trkpt lat="43.046565" lon="-1.9098316666666668">
        <ele>901.5</ele>
        <time>2018-09-29T10:17:22Z</time>
      </trkpt>
      <trkpt lat="43.04656" lon="-1.909945">
        <ele>901.5</ele>
        <time>2018-09-29T10:17:24Z</time>
      </trkpt>
      <trkpt lat="43.04656" lon="-1.9100783333333333">
        <ele>901.1</ele>
        <time>2018-09-29T10:17:26Z</time>
      </trkpt>
      <trkpt lat="43.046565" lon="-1.91025">
        <ele>900.9</ele>
        <time>2018-09-29T10:17:28Z</time>
      </trkpt>
      <trkpt lat="43.04658666666667" lon="-1.91042">
        <ele>900.7</ele>
        <time>2018-09-29T10:17:30Z</time>
      </trkpt>
      <trkpt lat="43.04658" lon="-1.91059">
        <ele>900.5</ele>
        <time>2018-09-29T10:17:32Z</time>
      </trkpt>
      <trkpt lat="43.046573333333335" lon="-1.91069">
        <ele>900.4</ele>
        <time>2018-09-29T10:17:33Z</time>
      </trkpt>
      <trkpt lat="43.046585" lon="-1.910875">
        <ele>900.3</ele>
        <time>2018-09-29T10:17:35Z</time>
      </trkpt>
      <trkpt lat="43.046656666666664" lon="-1.9110366666666665">
        <ele>900.1</ele>
        <time>2018-09-29T10:17:37Z</time>
      </trkpt>
      <trkpt lat="43.04671" lon="-1.9111150000000001">
        <ele>900.1</ele>
        <time>2018-09-29T10:17:38Z</time>
      </trkpt>
      <trkpt lat="43.04676" lon="-1.91119">
        <ele>900.0</ele>
        <time>2018-09-29T10:17:39Z</time>
      </trkpt>
      <trkpt lat="43.046855" lon="-1.9113">
        <ele>899.8</ele>
        <time>2018-09-29T10:17:41Z</time>
      </trkpt>
      <trkpt lat="43.04693" lon="-1.9114133333333334">
        <ele>899.8</ele>
        <time>2018-09-29T10:17:43Z</time>
      </trkpt>
      <trkpt lat="43.04703666666666" lon="-1.9115166666666668">
        <ele>899.6</ele>
        <time>2018-09-29T10:17:45Z</time>
      </trkpt>
      <trkpt lat="43.047115" lon="-1.9116033333333333">
        <ele>899.5</ele>
        <time>2018-09-29T10:17:46Z</time>
      </trkpt>
      <trkpt lat="43.04719166666667" lon="-1.91166">
        <ele>899.4</ele>
        <time>2018-09-29T10:17:47Z</time>
      </trkpt>
      <trkpt lat="43.04729" lon="-1.9117083333333333">
        <ele>899.3</ele>
        <time>2018-09-29T10:17:48Z</time>
      </trkpt>
      <trkpt lat="43.04739" lon="-1.91175">
        <ele>899.1</ele>
        <time>2018-09-29T10:17:49Z</time>
      </trkpt>
      <trkpt lat="43.04747" lon="-1.9117950000000001">
        <ele>899.0</ele>
        <time>2018-09-29T10:17:50Z</time>
      </trkpt>
      <trkpt lat="43.04753" lon="-1.91187">
        <ele>898.8</ele>
        <time>2018-09-29T10:17:51Z</time>
      </trkpt>
      <trkpt lat="43.047565" lon="-1.91196">
        <ele>898.6</ele>
        <time>2018-09-29T10:17:52Z</time>
      </trkpt>
      <trkpt lat="43.04769" lon="-1.912035">
        <ele>898.2</ele>
        <time>2018-09-29T10:17:54Z</time>
      </trkpt>
      <trkpt lat="43.04779" lon="-1.912125">
        <ele>897.5</ele>
        <time>2018-09-29T10:17:56Z</time>
      </trkpt>
      <trkpt lat="43.047866666666664" lon="-1.9122166666666667">
        <ele>896.8</ele>
        <time>2018-09-29T10:17:58Z</time>
      </trkpt>
      <trkpt lat="43.04796" lon="-1.912265">
        <ele>896.1</ele>
        <time>2018-09-29T10:18:00Z</time>
      </trkpt>
      <trkpt lat="43.048035" lon="-1.912305">
        <ele>895.4</ele>
        <time>2018-09-29T10:18:02Z</time>
      </trkpt>
      <trkpt lat="43.048125" lon="-1.9123533333333333">
        <ele>894.9</ele>
        <time>2018-09-29T10:18:05Z</time>
      </trkpt>
      <trkpt lat="43.04821" lon="-1.912425">
        <ele>894.7</ele>
        <time>2018-09-29T10:18:08Z</time>
      </trkpt>
      <trkpt lat="43.048265" lon="-1.91252">
        <ele>894.5</ele>
        <time>2018-09-29T10:18:12Z</time>
      </trkpt>
      <trkpt lat="43.04831" lon="-1.91262">
        <ele>894.2</ele>
        <time>2018-09-29T10:18:15Z</time>
      </trkpt>
      <trkpt lat="43.04835" lon="-1.912745">
        <ele>893.9</ele>
        <time>2018-09-29T10:18:19Z</time>
      </trkpt>
      <trkpt lat="43.0484" lon="-1.912845">
        <ele>893.6</ele>
        <time>2018-09-29T10:18:22Z</time>
      </trkpt>
      <trkpt lat="43.048465" lon="-1.9129566666666666">
        <ele>893.3</ele>
        <time>2018-09-29T10:18:25Z</time>
      </trkpt>
      <trkpt lat="43.04851166666667" lon="-1.913035">
        <ele>893.1</ele>
        <time>2018-09-29T10:18:27Z</time>
      </trkpt>
      <trkpt lat="43.04859" lon="-1.9131266666666666">
        <ele>892.9</ele>
        <time>2018-09-29T10:18:30Z</time>
      </trkpt>
      <trkpt lat="43.04865" lon="-1.913215">
        <ele>892.7</ele>
        <time>2018-09-29T10:18:33Z</time>
      </trkpt>
      <trkpt lat="43.048705" lon="-1.9132799999999999">
        <ele>892.5</ele>
        <time>2018-09-29T10:18:36Z</time>
      </trkpt>
      <trkpt lat="43.048775" lon="-1.913375">
        <ele>892.3</ele>
        <time>2018-09-29T10:18:39Z</time>
      </trkpt>
      <trkpt lat="43.048815" lon="-1.9134600000000002">
        <ele>892.2</ele>
        <time>2018-09-29T10:18:41Z</time>
      </trkpt>
      <trkpt lat="43.04886" lon="-1.9135383333333333">
        <ele>892.1</ele>
        <time>2018-09-29T10:18:43Z</time>
      </trkpt>
      <trkpt lat="43.04889" lon="-1.91365">
        <ele>892.0</ele>
        <time>2018-09-29T10:18:45Z</time>
      </trkpt>
      <trkpt lat="43.0489" lon="-1.9138199999999999">
        <ele>891.9</ele>
        <time>2018-09-29T10:18:47Z</time>
      </trkpt>
      <trkpt lat="43.048921666666665" lon="-1.9139316666666666">
        <ele>891.8</ele>
        <time>2018-09-29T10:18:49Z</time>
      </trkpt>
      <trkpt lat="43.048965" lon="-1.9140316666666668">
        <ele>891.7</ele>
        <time>2018-09-29T10:18:51Z</time>
      </trkpt>
      <trkpt lat="43.04900666666666" lon="-1.914175">
        <ele>891.0</ele>
        <time>2018-09-29T10:18:54Z</time>
      </trkpt>
      <trkpt lat="43.04907" lon="-1.91425">
        <ele>890.5</ele>
        <time>2018-09-29T10:18:56Z</time>
      </trkpt>
      <trkpt lat="43.049135" lon="-1.9143216666666665">
        <ele>890.1</ele>
        <time>2018-09-29T10:18:58Z</time>
      </trkpt>
      <trkpt lat="43.04917" lon="-1.914425">
        <ele>889.7</ele>
        <time>2018-09-29T10:19:00Z</time>
      </trkpt>
      <trkpt lat="43.0492" lon="-1.914545">
        <ele>889.3</ele>
        <time>2018-09-29T10:19:02Z</time>
      </trkpt>
      <trkpt lat="43.04927" lon="-1.91464">
        <ele>889.3</ele>
        <time>2018-09-29T10:19:04Z</time>
      </trkpt>
      <trkpt lat="43.04931" lon="-1.91474">
        <ele>889.2</ele>
        <time>2018-09-29T10:19:06Z</time>
      </trkpt>
      <trkpt lat="43.049405" lon="-1.9147683333333334">
        <ele>889.1</ele>
        <time>2018-09-29T10:19:10Z</time>
      </trkpt>
      <trkpt lat="43.049495" lon="-1.9147516666666666">
        <ele>888.9</ele>
        <time>2018-09-29T10:19:14Z</time>
      </trkpt>
      <trkpt lat="43.04958" lon="-1.914725">
        <ele>888.8</ele>
        <time>2018-09-29T10:19:17Z</time>
      </trkpt>
      <trkpt lat="43.04967166666667" lon="-1.9146633333333334">
        <ele>888.2</ele>
        <time>2018-09-29T10:19:19Z</time>
      </trkpt>
      <trkpt lat="43.04978" lon="-1.914605">
        <ele>887.5</ele>
        <time>2018-09-29T10:19:21Z</time>
      </trkpt>
      <trkpt lat="43.049855" lon="-1.914545">
        <ele>887.5</ele>
        <time>2018-09-29T10:19:23Z</time>
      </trkpt>
      <trkpt lat="43.049895" lon="-1.91445">
        <ele>887.1</ele>
        <time>2018-09-29T10:19:29Z</time>
      </trkpt>
      <trkpt lat="43.049285" lon="-1.915605">
        <ele>870.3</ele>
        <time>2018-09-29T10:25:54Z</time>
      </trkpt>
      <trkpt lat="43.04928" lon="-1.9156650000000002">
        <ele>870.2</ele>
        <time>2018-09-29T10:26:01Z</time>
      </trkpt>
      <trkpt lat="43.049275" lon="-1.9157600000000001">
        <ele>870.0</ele>
        <time>2018-09-29T10:26:06Z</time>
      </trkpt>
      <trkpt lat="43.04927" lon="-1.9158650000000002">
        <ele>869.7</ele>
        <time>2018-09-29T10:26:12Z</time>
      </trkpt>
      <trkpt lat="43.049255" lon="-1.9159766666666667">
        <ele>869.6</ele>
        <time>2018-09-29T10:26:18Z</time>
      </trkpt>
      <trkpt lat="43.049236666666665" lon="-1.916085">
        <ele>869.4</ele>
        <time>2018-09-29T10:26:25Z</time>
      </trkpt>
      <trkpt lat="43.049225" lon="-1.91621">
        <ele>869.3</ele>
        <time>2018-09-29T10:26:29Z</time>
      </trkpt>
      <trkpt lat="43.04922166666667" lon="-1.91631">
        <ele>869.2</ele>
        <time>2018-09-29T10:26:34Z</time>
      </trkpt>
      <trkpt lat="43.04923" lon="-1.91641">
        <ele>869.2</ele>
        <time>2018-09-29T10:26:39Z</time>
      </trkpt>
      <trkpt lat="43.049216666666666" lon="-1.91652">
        <ele>869.2</ele>
        <time>2018-09-29T10:26:44Z</time>
      </trkpt>
      <trkpt lat="43.04921" lon="-1.9166333333333334">
        <ele>869.2</ele>
        <time>2018-09-29T10:26:48Z</time>
      </trkpt>
      <trkpt lat="43.049225" lon="-1.9167450000000001">
        <ele>869.3</ele>
        <time>2018-09-29T10:26:53Z</time>
      </trkpt>
      <trkpt lat="43.049275" lon="-1.916845">
        <ele>869.3</ele>
        <time>2018-09-29T10:26:58Z</time>
      </trkpt>
      <trkpt lat="43.04932" lon="-1.916935">
        <ele>869.3</ele>
        <time>2018-09-29T10:27:02Z</time>
      </trkpt>
      <trkpt lat="43.049365" lon="-1.917015">
        <ele>869.4</ele>
        <time>2018-09-29T10:27:06Z</time>
      </trkpt>
      <trkpt lat="43.04943" lon="-1.917095">
        <ele>869.4</ele>
        <time>2018-09-29T10:27:10Z</time>
      </trkpt>
      <trkpt lat="43.04948666666667" lon="-1.91715">
        <ele>869.5</ele>
        <time>2018-09-29T10:27:14Z</time>
      </trkpt>
      <trkpt lat="43.04957" lon="-1.917235">
        <ele>869.6</ele>
        <time>2018-09-29T10:27:18Z</time>
      </trkpt>
      <trkpt lat="43.04965" lon="-1.91729">
        <ele>869.6</ele>
        <time>2018-09-29T10:27:21Z</time>
      </trkpt>
      <trkpt lat="43.049725" lon="-1.91733">
        <ele>869.7</ele>
        <time>2018-09-29T10:27:25Z</time>
      </trkpt>
      <trkpt lat="43.04980666666667" lon="-1.9174">
        <ele>869.7</ele>
        <time>2018-09-29T10:27:28Z</time>
      </trkpt>
      <trkpt lat="43.04989" lon="-1.9174766666666667">
        <ele>869.8</ele>
        <time>2018-09-29T10:27:31Z</time>
      </trkpt>
      <trkpt lat="43.049945" lon="-1.9175483333333334">
        <ele>869.8</ele>
        <time>2018-09-29T10:27:33Z</time>
      </trkpt>
      <trkpt lat="43.05001" lon="-1.9176316666666666">
        <ele>869.9</ele>
        <time>2018-09-29T10:27:36Z</time>
      </trkpt>
      <trkpt lat="43.050075" lon="-1.9177116666666667">
        <ele>869.9</ele>
        <time>2018-09-29T10:27:40Z</time>
      </trkpt>
      <trkpt lat="43.05014" lon="-1.91779">
        <ele>870.0</ele>
        <time>2018-09-29T10:27:43Z</time>
      </trkpt>
      <trkpt lat="43.05019" lon="-1.917865">
        <ele>870.0</ele>
        <time>2018-09-29T10:27:45Z</time>
      </trkpt>
      <trkpt lat="43.05025" lon="-1.917955">
        <ele>870.0</ele>
        <time>2018-09-29T10:27:47Z</time>
      </trkpt>
      <trkpt lat="43.050325" lon="-1.918045">
        <ele>870.1</ele>
        <time>2018-09-29T10:27:49Z</time>
      </trkpt>
      <trkpt lat="43.050395" lon="-1.9181300000000001">
        <ele>870.2</ele>
        <time>2018-09-29T10:27:51Z</time>
      </trkpt>
      <trkpt lat="43.05048" lon="-1.918215">
        <ele>870.3</ele>
        <time>2018-09-29T10:27:53Z</time>
      </trkpt>
      <trkpt lat="43.050555" lon="-1.91829">
        <ele>870.4</ele>
        <time>2018-09-29T10:27:55Z</time>
      </trkpt>
      <trkpt lat="43.050626666666666" lon="-1.918385">
        <ele>870.4</ele>
        <time>2018-09-29T10:27:57Z</time>
      </trkpt>
      <trkpt lat="43.05071" lon="-1.9185316666666665">
        <ele>870.4</ele>
        <time>2018-09-29T10:27:59Z</time>
      </trkpt>
      <trkpt lat="43.05079166666667" lon="-1.918625">
        <ele>870.5</ele>
        <time>2018-09-29T10:28:01Z</time>
      </trkpt>
      <trkpt lat="43.05085" lon="-1.9186983333333334">
        <ele>870.5</ele>
        <time>2018-09-29T10:28:03Z</time>
      </trkpt>
      <trkpt lat="43.050925" lon="-1.9187966666666667">
        <ele>870.5</ele>
        <time>2018-09-29T10:28:06Z</time>
      </trkpt>
      <trkpt lat="43.050985" lon="-1.918895">
        <ele>870.5</ele>
        <time>2018-09-29T10:28:10Z</time>
      </trkpt>
      <trkpt lat="43.051046666666664" lon="-1.9189683333333334">
        <ele>870.5</ele>
        <time>2018-09-29T10:28:13Z</time>
      </trkpt>
      <trkpt lat="43.051111666666664" lon="-1.91908">
        <ele>870.6</ele>
        <time>2018-09-29T10:28:16Z</time>
      </trkpt>
      <trkpt lat="43.05115" lon="-1.9191850000000001">
        <ele>870.6</ele>
        <time>2018-09-29T10:28:18Z</time>
      </trkpt>
      <trkpt lat="43.051201666666664" lon="-1.9192716666666667">
        <ele>870.6</ele>
        <time>2018-09-29T10:28:20Z</time>
      </trkpt>
      <trkpt lat="43.051225" lon="-1.9193716666666667">
        <ele>870.6</ele>
        <time>2018-09-29T10:28:22Z</time>
      </trkpt>
      <trkpt lat="43.051255" lon="-1.9194650000000002">
        <ele>870.6</ele>
        <time>2018-09-29T10:28:24Z</time>
      </trkpt>
      <trkpt lat="43.051273333333334" lon="-1.9195866666666666">
        <ele>870.6</ele>
        <time>2018-09-29T10:28:27Z</time>
      </trkpt>
      <trkpt lat="43.051305" lon="-1.9196866666666668">
        <ele>870.7</ele>
        <time>2018-09-29T10:28:31Z</time>
      </trkpt>
      <trkpt lat="43.05135" lon="-1.9197950000000001">
        <ele>870.8</ele>
        <time>2018-09-29T10:28:36Z</time>
      </trkpt>
      <trkpt lat="43.05137666666667" lon="-1.91989">
        <ele>870.8</ele>
        <time>2018-09-29T10:28:39Z</time>
      </trkpt>
      <trkpt lat="43.05139166666667" lon="-1.9199883333333334">
        <ele>871.0</ele>
        <time>2018-09-29T10:28:44Z</time>
      </trkpt>
      <trkpt lat="43.051425" lon="-1.92009">
        <ele>871.3</ele>
        <time>2018-09-29T10:28:49Z</time>
      </trkpt>
      <trkpt lat="43.051465" lon="-1.920175">
        <ele>871.6</ele>
        <time>2018-09-29T10:28:54Z</time>
      </trkpt>
      <trkpt lat="43.051505" lon="-1.920265">
        <ele>872.0</ele>
        <time>2018-09-29T10:29:00Z</time>
      </trkpt>
      <trkpt lat="43.05154" lon="-1.92035">
        <ele>872.5</ele>
        <time>2018-09-29T10:29:07Z</time>
      </trkpt>
      <trkpt lat="43.05157166666667" lon="-1.92044">
        <ele>872.9</ele>
        <time>2018-09-29T10:29:13Z</time>
      </trkpt>
      <trkpt lat="43.05159" lon="-1.92055">
        <ele>873.4</ele>
        <time>2018-09-29T10:29:19Z</time>
      </trkpt>
      <trkpt lat="43.05163" lon="-1.920645">
        <ele>873.8</ele>
        <time>2018-09-29T10:29:25Z</time>
      </trkpt>
      <trkpt lat="43.05164" lon="-1.92075">
        <ele>874.4</ele>
        <time>2018-09-29T10:29:32Z</time>
      </trkpt>
      <trkpt lat="43.05162" lon="-1.9208433333333335">
        <ele>874.7</ele>
        <time>2018-09-29T10:29:36Z</time>
      </trkpt>
      <trkpt lat="43.0516" lon="-1.9209483333333335">
        <ele>875.0</ele>
        <time>2018-09-29T10:29:40Z</time>
      </trkpt>
      <trkpt lat="43.05163" lon="-1.921055">
        <ele>875.3</ele>
        <time>2018-09-29T10:29:44Z</time>
      </trkpt>
      <trkpt lat="43.051695" lon="-1.921145">
        <ele>875.7</ele>
        <time>2018-09-29T10:29:49Z</time>
      </trkpt>
      <trkpt lat="43.051745" lon="-1.9212333333333333">
        <ele>876.0</ele>
        <time>2018-09-29T10:29:52Z</time>
      </trkpt>
      <trkpt lat="43.0518" lon="-1.9213133333333334">
        <ele>876.1</ele>
        <time>2018-09-29T10:29:54Z</time>
      </trkpt>
      <trkpt lat="43.05187166666666" lon="-1.92143">
        <ele>876.4</ele>
        <time>2018-09-29T10:29:57Z</time>
      </trkpt>
      <trkpt lat="43.05195166666667" lon="-1.921535">
        <ele>877.7</ele>
        <time>2018-09-29T10:29:59Z</time>
      </trkpt>
      <trkpt lat="43.052025" lon="-1.9216633333333333">
        <ele>878.2</ele>
        <time>2018-09-29T10:30:01Z</time>
      </trkpt>
      <trkpt lat="43.05209" lon="-1.9217483333333334">
        <ele>878.3</ele>
        <time>2018-09-29T10:30:03Z</time>
      </trkpt>
      <trkpt lat="43.05216" lon="-1.9218199999999999">
        <ele>878.4</ele>
        <time>2018-09-29T10:30:05Z</time>
      </trkpt>
      <trkpt lat="43.052225" lon="-1.9219066666666667">
        <ele>878.4</ele>
        <time>2018-09-29T10:30:07Z</time>
      </trkpt>
      <trkpt lat="43.052295" lon="-1.9219650000000001">
        <ele>878.5</ele>
        <time>2018-09-29T10:30:09Z</time>
      </trkpt>
      <trkpt lat="43.05237" lon="-1.9220066666666666">
        <ele>878.6</ele>
        <time>2018-09-29T10:30:11Z</time>
      </trkpt>
      <trkpt lat="43.05248" lon="-1.922075">
        <ele>879.0</ele>
        <time>2018-09-29T10:30:13Z</time>
      </trkpt>
      <trkpt lat="43.052545" lon="-1.9221366666666668">
        <ele>879.0</ele>
        <time>2018-09-29T10:30:15Z</time>
      </trkpt>
      <trkpt lat="43.052625" lon="-1.922225">
        <ele>879.3</ele>
        <time>2018-09-29T10:30:17Z</time>
      </trkpt>
      <trkpt lat="43.052708333333335" lon="-1.922355">
        <ele>879.3</ele>
        <time>2018-09-29T10:30:19Z</time>
      </trkpt>
      <trkpt lat="43.05276" lon="-1.9224716666666666">
        <ele>879.7</ele>
        <time>2018-09-29T10:30:21Z</time>
      </trkpt>
      <trkpt lat="43.052825" lon="-1.922605">
        <ele>879.9</ele>
        <time>2018-09-29T10:30:23Z</time>
      </trkpt>
      <trkpt lat="43.052905" lon="-1.922665">
        <ele>879.9</ele>
        <time>2018-09-29T10:30:25Z</time>
      </trkpt>
      <trkpt lat="43.052976666666666" lon="-1.9227216666666667">
        <ele>880.0</ele>
        <time>2018-09-29T10:30:27Z</time>
      </trkpt>
      <trkpt lat="43.053055" lon="-1.9228100000000001">
        <ele>880.0</ele>
        <time>2018-09-29T10:30:30Z</time>
      </trkpt>
      <trkpt lat="43.05314" lon="-1.9229016666666667">
        <ele>880.1</ele>
        <time>2018-09-29T10:30:33Z</time>
      </trkpt>
      <trkpt lat="43.0532" lon="-1.9229933333333333">
        <ele>880.1</ele>
        <time>2018-09-29T10:30:36Z</time>
      </trkpt>
      <trkpt lat="43.05325" lon="-1.9230649999999998">
        <ele>880.2</ele>
        <time>2018-09-29T10:30:39Z</time>
      </trkpt>
      <trkpt lat="43.053305" lon="-1.92317">
        <ele>880.2</ele>
        <time>2018-09-29T10:30:43Z</time>
      </trkpt>
      <trkpt lat="43.053355" lon="-1.923255">
        <ele>880.3</ele>
        <time>2018-09-29T10:30:47Z</time>
      </trkpt>
      <trkpt lat="43.05341" lon="-1.9233449999999999">
        <ele>880.4</ele>
        <time>2018-09-29T10:30:52Z</time>
      </trkpt>
      <trkpt lat="43.053475" lon="-1.923435">
        <ele>880.6</ele>
        <time>2018-09-29T10:30:57Z</time>
      </trkpt>
      <trkpt lat="43.05354166666667" lon="-1.92349">
        <ele>880.7</ele>
        <time>2018-09-29T10:31:02Z</time>
      </trkpt>
      <trkpt lat="43.053605" lon="-1.9235600000000002">
        <ele>880.9</ele>
        <time>2018-09-29T10:31:07Z</time>
      </trkpt>
      <trkpt lat="43.05363166666667" lon="-1.9236550000000001">
        <ele>881.2</ele>
        <time>2018-09-29T10:31:12Z</time>
      </trkpt>
      <trkpt lat="43.05368" lon="-1.92374">
        <ele>881.5</ele>
        <time>2018-09-29T10:31:18Z</time>
      </trkpt>
      <trkpt lat="43.05375" lon="-1.9238">
        <ele>881.9</ele>
        <time>2018-09-29T10:31:23Z</time>
      </trkpt>
      <trkpt lat="43.05383166666667" lon="-1.9238483333333334">
        <ele>882.2</ele>
        <time>2018-09-29T10:31:27Z</time>
      </trkpt>
      <trkpt lat="43.05389666666667" lon="-1.9239016666666666">
        <ele>882.4</ele>
        <time>2018-09-29T10:31:30Z</time>
      </trkpt>
      <trkpt lat="43.05396" lon="-1.9239600000000001">
        <ele>882.8</ele>
        <time>2018-09-29T10:31:35Z</time>
      </trkpt>
      <trkpt lat="43.05404166666667" lon="-1.9239966666666666">
        <ele>883.1</ele>
        <time>2018-09-29T10:31:39Z</time>
      </trkpt>
      <trkpt lat="43.05413" lon="-1.9240300000000001">
        <ele>883.4</ele>
        <time>2018-09-29T10:31:43Z</time>
      </trkpt>
      <trkpt lat="43.05422166666666" lon="-1.9240499999999998">
        <ele>883.7</ele>
        <time>2018-09-29T10:31:47Z</time>
      </trkpt>
      <trkpt lat="43.054305" lon="-1.9240833333333334">
        <ele>884.0</ele>
        <time>2018-09-29T10:31:51Z</time>
      </trkpt>
      <trkpt lat="43.054375" lon="-1.924125">
        <ele>884.2</ele>
        <time>2018-09-29T10:31:54Z</time>
      </trkpt>
      <trkpt lat="43.05446" lon="-1.9241566666666667">
        <ele>884.4</ele>
        <time>2018-09-29T10:31:56Z</time>
      </trkpt>
      <trkpt lat="43.05454" lon="-1.9242050000000002">
        <ele>884.5</ele>
        <time>2018-09-29T10:31:58Z</time>
      </trkpt>
      <trkpt lat="43.054605" lon="-1.924245">
        <ele>884.7</ele>
        <time>2018-09-29T10:32:01Z</time>
      </trkpt>
      <trkpt lat="43.054695" lon="-1.9242583333333334">
        <ele>885.0</ele>
        <time>2018-09-29T10:32:05Z</time>
      </trkpt>
      <trkpt lat="43.05477" lon="-1.924275">
        <ele>885.1</ele>
        <time>2018-09-29T10:32:08Z</time>
      </trkpt>
      <trkpt lat="43.05486" lon="-1.9242916666666667">
        <ele>885.4</ele>
        <time>2018-09-29T10:32:12Z</time>
      </trkpt>
      <trkpt lat="43.05493" lon="-1.92432">
        <ele>885.6</ele>
        <time>2018-09-29T10:32:15Z</time>
      </trkpt>
      <trkpt lat="43.054991666666666" lon="-1.9244050000000001">
        <ele>885.8</ele>
        <time>2018-09-29T10:32:19Z</time>
      </trkpt>
      <trkpt lat="43.055065" lon="-1.9244416666666666">
        <ele>886.0</ele>
        <time>2018-09-29T10:32:23Z</time>
      </trkpt>
      <trkpt lat="43.055141666666664" lon="-1.92448">
        <ele>886.3</ele>
        <time>2018-09-29T10:32:28Z</time>
      </trkpt>
      <trkpt lat="43.05521" lon="-1.9245316666666668">
        <ele>886.6</ele>
        <time>2018-09-29T10:32:33Z</time>
      </trkpt>
      <trkpt lat="43.05529" lon="-1.9245800000000002">
        <ele>886.9</ele>
        <time>2018-09-29T10:32:37Z</time>
      </trkpt>
      <trkpt lat="43.05537" lon="-1.9245983333333334">
        <ele>887.1</ele>
        <time>2018-09-29T10:32:41Z</time>
      </trkpt>
      <trkpt lat="43.05545" lon="-1.9246066666666666">
        <ele>887.3</ele>
        <time>2018-09-29T10:32:45Z</time>
      </trkpt>
      <trkpt lat="43.05553" lon="-1.9246216666666667">
        <ele>887.7</ele>
        <time>2018-09-29T10:32:51Z</time>
      </trkpt>
      <trkpt lat="43.055615" lon="-1.9246566666666667">
        <ele>888.0</ele>
        <time>2018-09-29T10:32:56Z</time>
      </trkpt>
      <trkpt lat="43.05569666666667" lon="-1.9246750000000001">
        <ele>888.3</ele>
        <time>2018-09-29T10:33:01Z</time>
      </trkpt>
      <trkpt lat="43.05575666666667" lon="-1.924735">
        <ele>888.6</ele>
        <time>2018-09-29T10:33:06Z</time>
      </trkpt>
      <trkpt lat="43.05581" lon="-1.92482">
        <ele>889.1</ele>
        <time>2018-09-29T10:33:13Z</time>
      </trkpt>
      <trkpt lat="43.05587" lon="-1.9248816666666666">
        <ele>889.5</ele>
        <time>2018-09-29T10:33:19Z</time>
      </trkpt>
      <trkpt lat="43.055931666666666" lon="-1.9249399999999999">
        <ele>889.9</ele>
        <time>2018-09-29T10:33:24Z</time>
      </trkpt>
      <trkpt lat="43.05598" lon="-1.9250099999999999">
        <ele>890.3</ele>
        <time>2018-09-29T10:33:31Z</time>
      </trkpt>
      <trkpt lat="43.05603" lon="-1.925085">
        <ele>891.1</ele>
        <time>2018-09-29T10:33:54Z</time>
      </trkpt>
      <trkpt lat="43.056081666666664" lon="-1.9251366666666667">
        <ele>892.7</ele>
        <time>2018-09-29T10:34:32Z</time>
      </trkpt>
      <trkpt lat="43.056135" lon="-1.9251616666666667">
        <ele>893.5</ele>
        <time>2018-09-29T10:34:39Z</time>
      </trkpt>
      <trkpt lat="43.056205" lon="-1.9252066666666665">
        <ele>894.2</ele>
        <time>2018-09-29T10:34:46Z</time>
      </trkpt>
      <trkpt lat="43.05628" lon="-1.9252416666666665">
        <ele>894.9</ele>
        <time>2018-09-29T10:34:53Z</time>
      </trkpt>
      <trkpt lat="43.056335" lon="-1.9252850000000001">
        <ele>895.6</ele>
        <time>2018-09-29T10:35:00Z</time>
      </trkpt>
      <trkpt lat="43.05638" lon="-1.9253383333333334">
        <ele>896.3</ele>
        <time>2018-09-29T10:35:07Z</time>
      </trkpt>
      <trkpt lat="43.05644" lon="-1.92538">
        <ele>896.9</ele>
        <time>2018-09-29T10:35:14Z</time>
      </trkpt>
      <trkpt lat="43.056493333333336" lon="-1.9254016666666667">
        <ele>897.5</ele>
        <time>2018-09-29T10:35:21Z</time>
      </trkpt>
      <trkpt lat="43.05653" lon="-1.92545">
        <ele>898.1</ele>
        <time>2018-09-29T10:35:28Z</time>
      </trkpt>
      <trkpt lat="43.05659" lon="-1.9254966666666666">
        <ele>898.7</ele>
        <time>2018-09-29T10:35:35Z</time>
      </trkpt>
      <trkpt lat="43.056643333333334" lon="-1.925495">
        <ele>899.7</ele>
        <time>2018-09-29T10:35:49Z</time>
      </trkpt>
      <trkpt lat="43.056645" lon="-1.92544">
        <ele>900.0</ele>
        <time>2018-09-29T10:35:56Z</time>
      </trkpt>
      <trkpt lat="43.05663" lon="-1.9253366666666667">
        <ele>900.6</ele>
        <time>2018-09-29T10:36:02Z</time>
      </trkpt>
      <trkpt lat="43.056625" lon="-1.9252433333333334">
        <ele>901.3</ele>
        <time>2018-09-29T10:36:09Z</time>
      </trkpt>
      <trkpt lat="43.05661666666666" lon="-1.9251533333333333">
        <ele>902.0</ele>
        <time>2018-09-29T10:36:16Z</time>
      </trkpt>
      <trkpt lat="43.056605" lon="-1.92503">
        <ele>902.7</ele>
        <time>2018-09-29T10:36:23Z</time>
      </trkpt>
      <trkpt lat="43.056635" lon="-1.924935">
        <ele>903.4</ele>
        <time>2018-09-29T10:36:29Z</time>
      </trkpt>
      <trkpt lat="43.05665166666667" lon="-1.92483">
        <ele>904.0</ele>
        <time>2018-09-29T10:36:34Z</time>
      </trkpt>
      <trkpt lat="43.05667" lon="-1.9247166666666666">
        <ele>904.7</ele>
        <time>2018-09-29T10:36:39Z</time>
      </trkpt>
      <trkpt lat="43.056705" lon="-1.9246316666666665">
        <ele>905.5</ele>
        <time>2018-09-29T10:36:45Z</time>
      </trkpt>
      <trkpt lat="43.056733333333334" lon="-1.924535">
        <ele>906.7</ele>
        <time>2018-09-29T10:36:50Z</time>
      </trkpt>
      <trkpt lat="43.05678666666667" lon="-1.9244583333333334">
        <ele>907.6</ele>
        <time>2018-09-29T10:36:54Z</time>
      </trkpt>
      <trkpt lat="43.05683" lon="-1.9243999999999999">
        <ele>909.4</ele>
        <time>2018-09-29T10:37:01Z</time>
      </trkpt>
      <trkpt lat="43.056886666666664" lon="-1.9243533333333334">
        <ele>911.5</ele>
        <time>2018-09-29T10:37:08Z</time>
      </trkpt>
      <trkpt lat="43.05695" lon="-1.924305">
        <ele>913.8</ele>
        <time>2018-09-29T10:37:15Z</time>
      </trkpt>
      <trkpt lat="43.057028333333335" lon="-1.92428">
        <ele>915.4</ele>
        <time>2018-09-29T10:37:20Z</time>
      </trkpt>
      <trkpt lat="43.057095" lon="-1.92422">
        <ele>916.9</ele>
        <time>2018-09-29T10:37:25Z</time>
      </trkpt>
      <trkpt lat="43.057165" lon="-1.9241616666666665">
        <ele>918.9</ele>
        <time>2018-09-29T10:37:32Z</time>
      </trkpt>
      <trkpt lat="43.057225" lon="-1.9240966666666668">
        <ele>920.4</ele>
        <time>2018-09-29T10:37:37Z</time>
      </trkpt>
      <trkpt lat="43.057305" lon="-1.92404">
        <ele>921.9</ele>
        <time>2018-09-29T10:37:42Z</time>
      </trkpt>
      <trkpt lat="43.057375" lon="-1.9239916666666668">
        <ele>923.6</ele>
        <time>2018-09-29T10:37:48Z</time>
      </trkpt>
      <trkpt lat="43.05744" lon="-1.924005">
        <ele>925.6</ele>
        <time>2018-09-29T10:37:55Z</time>
      </trkpt>
      <trkpt lat="43.057485" lon="-1.9240916666666668">
        <ele>927.2</ele>
        <time>2018-09-29T10:38:01Z</time>
      </trkpt>
      <trkpt lat="43.057525" lon="-1.92418">
        <ele>928.8</ele>
        <time>2018-09-29T10:38:07Z</time>
      </trkpt>
      <trkpt lat="43.057575" lon="-1.9242650000000001">
        <ele>930.1</ele>
        <time>2018-09-29T10:38:12Z</time>
      </trkpt>
      <trkpt lat="43.05761" lon="-1.9243533333333334">
        <ele>931.4</ele>
        <time>2018-09-29T10:38:17Z</time>
      </trkpt>
      <trkpt lat="43.057631666666666" lon="-1.92445">
        <ele>932.4</ele>
        <time>2018-09-29T10:38:21Z</time>
      </trkpt>
      <trkpt lat="43.057665" lon="-1.924585">
        <ele>933.6</ele>
        <time>2018-09-29T10:38:26Z</time>
      </trkpt>
      <trkpt lat="43.057675" lon="-1.9247216666666667">
        <ele>934.1</ele>
        <time>2018-09-29T10:38:28Z</time>
      </trkpt>
      <trkpt lat="43.05769" lon="-1.92482">
        <ele>934.8</ele>
        <time>2018-09-29T10:38:31Z</time>
      </trkpt>
      <trkpt lat="43.05771" lon="-1.92492">
        <ele>935.5</ele>
        <time>2018-09-29T10:38:34Z</time>
      </trkpt>
      <trkpt lat="43.057725" lon="-1.92504">
        <ele>936.1</ele>
        <time>2018-09-29T10:38:37Z</time>
      </trkpt>
      <trkpt lat="43.057745" lon="-1.9251566666666666">
        <ele>936.8</ele>
        <time>2018-09-29T10:38:40Z</time>
      </trkpt>
      <trkpt lat="43.05778" lon="-1.92526">
        <ele>937.4</ele>
        <time>2018-09-29T10:38:43Z</time>
      </trkpt>
      <trkpt lat="43.057825" lon="-1.925395">
        <ele>938.0</ele>
        <time>2018-09-29T10:38:46Z</time>
      </trkpt>
      <trkpt lat="43.057856666666666" lon="-1.9254850000000001">
        <ele>938.4</ele>
        <time>2018-09-29T10:38:48Z</time>
      </trkpt>
      <trkpt lat="43.057895" lon="-1.9255916666666666">
        <ele>938.7</ele>
        <time>2018-09-29T10:38:50Z</time>
      </trkpt>
      <trkpt lat="43.05793833333333" lon="-1.9256983333333333">
        <ele>939.1</ele>
        <time>2018-09-29T10:38:52Z</time>
      </trkpt>
      <trkpt lat="43.05799" lon="-1.9258600000000001">
        <ele>939.5</ele>
        <time>2018-09-29T10:38:54Z</time>
      </trkpt>
      <trkpt lat="43.05804" lon="-1.9259716666666669">
        <ele>940.0</ele>
        <time>2018-09-29T10:38:57Z</time>
      </trkpt>
      <trkpt lat="43.058075" lon="-1.926075">
        <ele>940.7</ele>
        <time>2018-09-29T10:39:01Z</time>
      </trkpt>
      <trkpt lat="43.058105" lon="-1.9261816666666667">
        <ele>941.9</ele>
        <time>2018-09-29T10:39:07Z</time>
      </trkpt>
      <trkpt lat="43.058155" lon="-1.9262700000000001">
        <ele>943.1</ele>
        <time>2018-09-29T10:39:14Z</time>
      </trkpt>
      <trkpt lat="43.05821666666667" lon="-1.92636">
        <ele>944.1</ele>
        <time>2018-09-29T10:39:20Z</time>
      </trkpt>
      <trkpt lat="43.05825" lon="-1.9264616666666665">
        <ele>944.5</ele>
        <time>2018-09-29T10:39:23Z</time>
      </trkpt>
      <trkpt lat="43.05828" lon="-1.9265816666666669">
        <ele>945.1</ele>
        <time>2018-09-29T10:39:27Z</time>
      </trkpt>
      <trkpt lat="43.05831666666667" lon="-1.9266733333333335">
        <ele>945.8</ele>
        <time>2018-09-29T10:39:32Z</time>
      </trkpt>
      <trkpt lat="43.058315" lon="-1.92679">
        <ele>946.5</ele>
        <time>2018-09-29T10:39:37Z</time>
      </trkpt>
      <trkpt lat="43.058315" lon="-1.9268800000000001">
        <ele>947.4</ele>
        <time>2018-09-29T10:39:44Z</time>
      </trkpt>
      <trkpt lat="43.05831833333333" lon="-1.92698">
        <ele>948.2</ele>
        <time>2018-09-29T10:39:51Z</time>
      </trkpt>
      <trkpt lat="43.05834" lon="-1.927085">
        <ele>949.0</ele>
        <time>2018-09-29T10:39:58Z</time>
      </trkpt>
      <trkpt lat="43.058365" lon="-1.9271850000000001">
        <ele>949.7</ele>
        <time>2018-09-29T10:40:04Z</time>
      </trkpt>
      <trkpt lat="43.058393333333335" lon="-1.927265">
        <ele>950.5</ele>
        <time>2018-09-29T10:40:11Z</time>
      </trkpt>
      <trkpt lat="43.058455" lon="-1.927345">
        <ele>951.2</ele>
        <time>2018-09-29T10:40:17Z</time>
      </trkpt>
      <trkpt lat="43.058455" lon="-1.9274083333333334">
        <ele>952.1</ele>
        <time>2018-09-29T10:40:24Z</time>
      </trkpt>
      <trkpt lat="43.058455" lon="-1.9275033333333333">
        <ele>952.9</ele>
        <time>2018-09-29T10:40:31Z</time>
      </trkpt>
      <trkpt lat="43.058475" lon="-1.927605">
        <ele>953.8</ele>
        <time>2018-09-29T10:40:38Z</time>
      </trkpt>
      <trkpt lat="43.05848" lon="-1.9276900000000001">
        <ele>954.8</ele>
        <time>2018-09-29T10:40:45Z</time>
      </trkpt>
      <trkpt lat="43.05849" lon="-1.9277700000000002">
        <ele>955.7</ele>
        <time>2018-09-29T10:40:52Z</time>
      </trkpt>
      <trkpt lat="43.058515" lon="-1.92787">
        <ele>956.6</ele>
        <time>2018-09-29T10:40:58Z</time>
      </trkpt>
      <trkpt lat="43.05854166666666" lon="-1.9279783333333333">
        <ele>957.5</ele>
        <time>2018-09-29T10:41:05Z</time>
      </trkpt>
      <trkpt lat="43.058565" lon="-1.92809">
        <ele>958.4</ele>
        <time>2018-09-29T10:41:12Z</time>
      </trkpt>
      <trkpt lat="43.058595" lon="-1.928165">
        <ele>959.3</ele>
        <time>2018-09-29T10:41:19Z</time>
      </trkpt>
      <trkpt lat="43.058625" lon="-1.9282400000000002">
        <ele>960.1</ele>
        <time>2018-09-29T10:41:26Z</time>
      </trkpt>
      <trkpt lat="43.058655" lon="-1.928325">
        <ele>961.0</ele>
        <time>2018-09-29T10:41:33Z</time>
      </trkpt>
      <trkpt lat="43.058675" lon="-1.928435">
        <ele>961.7</ele>
        <time>2018-09-29T10:41:39Z</time>
      </trkpt>
      <trkpt lat="43.05868" lon="-1.928535">
        <ele>962.4</ele>
        <time>2018-09-29T10:41:45Z</time>
      </trkpt>
      <trkpt lat="43.058685" lon="-1.9286433333333335">
        <ele>963.2</ele>
        <time>2018-09-29T10:41:52Z</time>
      </trkpt>
      <trkpt lat="43.058701666666664" lon="-1.9287433333333333">
        <ele>964.0</ele>
        <time>2018-09-29T10:41:59Z</time>
      </trkpt>
      <trkpt lat="43.05872" lon="-1.9288416666666666">
        <ele>964.9</ele>
        <time>2018-09-29T10:42:06Z</time>
      </trkpt>
      <trkpt lat="43.058755" lon="-1.9289366666666665">
        <ele>965.7</ele>
        <time>2018-09-29T10:42:13Z</time>
      </trkpt>
      <trkpt lat="43.05876666666666" lon="-1.9290316666666667">
        <ele>966.5</ele>
        <time>2018-09-29T10:42:20Z</time>
      </trkpt>
      <trkpt lat="43.058805" lon="-1.92913">
        <ele>967.3</ele>
        <time>2018-09-29T10:42:27Z</time>
      </trkpt>
      <trkpt lat="43.058836666666664" lon="-1.929215">
        <ele>967.8</ele>
        <time>2018-09-29T10:42:32Z</time>
      </trkpt>
      <trkpt lat="43.058861666666665" lon="-1.92931">
        <ele>968.5</ele>
        <time>2018-09-29T10:42:38Z</time>
      </trkpt>
      <trkpt lat="43.0589" lon="-1.9294066666666667">
        <ele>969.1</ele>
        <time>2018-09-29T10:42:44Z</time>
      </trkpt>
      <trkpt lat="43.05894" lon="-1.929495">
        <ele>969.7</ele>
        <time>2018-09-29T10:42:49Z</time>
      </trkpt>
      <trkpt lat="43.058955" lon="-1.9295366666666667">
        <ele>970.0</ele>
        <time>2018-09-29T10:42:56Z</time>
      </trkpt>
      <trkpt lat="43.059041666666666" lon="-1.92961">
        <ele>970.8</ele>
        <time>2018-09-29T10:43:06Z</time>
      </trkpt>
      <trkpt lat="43.0591" lon="-1.92967">
        <ele>971.0</ele>
        <time>2018-09-29T10:43:08Z</time>
      </trkpt>
      <trkpt lat="43.05916" lon="-1.929755">
        <ele>971.2</ele>
        <time>2018-09-29T10:43:10Z</time>
      </trkpt>
      <trkpt lat="43.05921" lon="-1.9298950000000001">
        <ele>972.2</ele>
        <time>2018-09-29T10:43:12Z</time>
      </trkpt>
      <trkpt lat="43.059255" lon="-1.929975">
        <ele>973.1</ele>
        <time>2018-09-29T10:43:14Z</time>
      </trkpt>
      <trkpt lat="43.059325" lon="-1.93004">
        <ele>973.8</ele>
        <time>2018-09-29T10:43:16Z</time>
      </trkpt>
      <trkpt lat="43.05943" lon="-1.930075">
        <ele>974.4</ele>
        <time>2018-09-29T10:43:19Z</time>
      </trkpt>
      <trkpt lat="43.05951666666667" lon="-1.930105">
        <ele>974.6</ele>
        <time>2018-09-29T10:43:23Z</time>
      </trkpt>
      <trkpt lat="43.05961666666666" lon="-1.93016">
        <ele>974.7</ele>
        <time>2018-09-29T10:43:26Z</time>
      </trkpt>
      <trkpt lat="43.059715" lon="-1.9302350000000001">
        <ele>975.2</ele>
        <time>2018-09-29T10:43:29Z</time>
      </trkpt>
      <trkpt lat="43.05978" lon="-1.93031">
        <ele>975.3</ele>
        <time>2018-09-29T10:43:31Z</time>
      </trkpt>
      <trkpt lat="43.05983666666667" lon="-1.93039">
        <ele>975.3</ele>
        <time>2018-09-29T10:43:33Z</time>
      </trkpt>
      <trkpt lat="43.059905" lon="-1.9304616666666665">
        <ele>975.4</ele>
        <time>2018-09-29T10:43:35Z</time>
      </trkpt>
      <trkpt lat="43.05998666666667" lon="-1.9304966666666665">
        <ele>975.5</ele>
        <time>2018-09-29T10:43:37Z</time>
      </trkpt>
      <trkpt lat="43.06007666666667" lon="-1.930555">
        <ele>975.9</ele>
        <time>2018-09-29T10:43:39Z</time>
      </trkpt>
      <trkpt lat="43.060145" lon="-1.9306383333333332">
        <ele>975.9</ele>
        <time>2018-09-29T10:43:41Z</time>
      </trkpt>
      <trkpt lat="43.060201666666664" lon="-1.9307216666666667">
        <ele>976.0</ele>
        <time>2018-09-29T10:43:43Z</time>
      </trkpt>
      <trkpt lat="43.060255" lon="-1.9308133333333333">
        <ele>976.2</ele>
        <time>2018-09-29T10:43:47Z</time>
      </trkpt>
      <trkpt lat="43.060341666666666" lon="-1.9308200000000002">
        <ele>976.4</ele>
        <time>2018-09-29T10:43:52Z</time>
      </trkpt>
      <trkpt lat="43.06045666666667" lon="-1.9308450000000001">
        <ele>977.1</ele>
        <time>2018-09-29T10:43:54Z</time>
      </trkpt>
      <trkpt lat="43.06053" lon="-1.93087">
        <ele>977.3</ele>
        <time>2018-09-29T10:43:55Z</time>
      </trkpt>
      <trkpt lat="43.060651666666665" lon="-1.9309016666666667">
        <ele>977.7</ele>
        <time>2018-09-29T10:43:57Z</time>
      </trkpt>
      <trkpt lat="43.060765" lon="-1.93095">
        <ele>977.9</ele>
        <time>2018-09-29T10:43:59Z</time>
      </trkpt>
      <trkpt lat="43.06086" lon="-1.9309833333333333">
        <ele>978.0</ele>
        <time>2018-09-29T10:44:01Z</time>
      </trkpt>
      <trkpt lat="43.06096" lon="-1.9310766666666668">
        <ele>978.0</ele>
        <time>2018-09-29T10:44:03Z</time>
      </trkpt>
      <trkpt lat="43.06104666666667" lon="-1.9311500000000001">
        <ele>978.0</ele>
        <time>2018-09-29T10:44:05Z</time>
      </trkpt>
      <trkpt lat="43.06113" lon="-1.931205">
        <ele>978.0</ele>
        <time>2018-09-29T10:44:07Z</time>
      </trkpt>
      <trkpt lat="43.061235" lon="-1.9312483333333332">
        <ele>977.9</ele>
        <time>2018-09-29T10:44:09Z</time>
      </trkpt>
      <trkpt lat="43.06134" lon="-1.931295">
        <ele>977.9</ele>
        <time>2018-09-29T10:44:11Z</time>
      </trkpt>
      <trkpt lat="43.061416666666666" lon="-1.9313466666666668">
        <ele>977.9</ele>
        <time>2018-09-29T10:44:13Z</time>
      </trkpt>
      <trkpt lat="43.06149666666666" lon="-1.93139">
        <ele>977.9</ele>
        <time>2018-09-29T10:44:15Z</time>
      </trkpt>
      <trkpt lat="43.06158" lon="-1.9314316666666667">
        <ele>977.8</ele>
        <time>2018-09-29T10:44:18Z</time>
      </trkpt>
      <trkpt lat="43.061645" lon="-1.93136">
        <ele>977.8</ele>
        <time>2018-09-29T10:44:24Z</time>
      </trkpt>
      <trkpt lat="43.061705" lon="-1.9313">
        <ele>977.6</ele>
        <time>2018-09-29T10:44:27Z</time>
      </trkpt>
      <trkpt lat="43.06180666666667" lon="-1.9312716666666667">
        <ele>977.5</ele>
        <time>2018-09-29T10:44:30Z</time>
      </trkpt>
      <trkpt lat="43.061883333333334" lon="-1.931265">
        <ele>977.3</ele>
        <time>2018-09-29T10:44:32Z</time>
      </trkpt>
      <trkpt lat="43.06198" lon="-1.9312733333333334">
        <ele>977.1</ele>
        <time>2018-09-29T10:44:34Z</time>
      </trkpt>
      <trkpt lat="43.062065" lon="-1.9313066666666665">
        <ele>977.0</ele>
        <time>2018-09-29T10:44:36Z</time>
      </trkpt>
      <trkpt lat="43.062178333333335" lon="-1.9313500000000001">
        <ele>976.0</ele>
        <time>2018-09-29T10:44:38Z</time>
      </trkpt>
      <trkpt lat="43.06229" lon="-1.9314550000000001">
        <ele>975.8</ele>
        <time>2018-09-29T10:44:40Z</time>
      </trkpt>
      <trkpt lat="43.06239" lon="-1.931535">
        <ele>975.5</ele>
        <time>2018-09-29T10:44:42Z</time>
      </trkpt>
      <trkpt lat="43.06246" lon="-1.931575">
        <ele>975.2</ele>
        <time>2018-09-29T10:44:44Z</time>
      </trkpt>
      <trkpt lat="43.06253" lon="-1.9316216666666666">
        <ele>974.6</ele>
        <time>2018-09-29T10:44:47Z</time>
      </trkpt>
      <trkpt lat="43.062625" lon="-1.93164">
        <ele>974.0</ele>
        <time>2018-09-29T10:44:50Z</time>
      </trkpt>
      <trkpt lat="43.062695" lon="-1.93175">
        <ele>972.9</ele>
        <time>2018-09-29T10:44:53Z</time>
      </trkpt>
      <trkpt lat="43.062725" lon="-1.93184">
        <ele>972.1</ele>
        <time>2018-09-29T10:44:55Z</time>
      </trkpt>
      <trkpt lat="43.06274666666667" lon="-1.9319616666666666">
        <ele>970.3</ele>
        <time>2018-09-29T10:44:59Z</time>
      </trkpt>
      <trkpt lat="43.06277" lon="-1.932075">
        <ele>968.4</ele>
        <time>2018-09-29T10:45:03Z</time>
      </trkpt>
      <trkpt lat="43.06285" lon="-1.93203">
        <ele>964.9</ele>
        <time>2018-09-29T10:45:10Z</time>
      </trkpt>
      <trkpt lat="43.06292" lon="-1.931945">
        <ele>955.3</ele>
        <time>2018-09-29T10:45:12Z</time>
      </trkpt>
      <trkpt lat="43.062975" lon="-1.931855">
        <ele>951.5</ele>
        <time>2018-09-29T10:45:13Z</time>
      </trkpt>
      <trkpt lat="43.063015" lon="-1.9317600000000001">
        <ele>948.2</ele>
        <time>2018-09-29T10:45:14Z</time>
      </trkpt>
      <trkpt lat="43.06308" lon="-1.93163">
        <ele>943.2</ele>
        <time>2018-09-29T10:45:16Z</time>
      </trkpt>
      <trkpt lat="43.063145" lon="-1.9315366666666667">
        <ele>939.6</ele>
        <time>2018-09-29T10:45:18Z</time>
      </trkpt>
      <trkpt lat="43.06322" lon="-1.931445">
        <ele>937.0</ele>
        <time>2018-09-29T10:45:20Z</time>
      </trkpt>
      <trkpt lat="43.06329" lon="-1.931325">
        <ele>935.2</ele>
        <time>2018-09-29T10:45:22Z</time>
      </trkpt>
      <trkpt lat="43.06335" lon="-1.93124">
        <ele>935.0</ele>
        <time>2018-09-29T10:45:24Z</time>
      </trkpt>
      <trkpt lat="43.063431666666666" lon="-1.9311683333333334">
        <ele>933.2</ele>
        <time>2018-09-29T10:45:26Z</time>
      </trkpt>
      <trkpt lat="43.063515" lon="-1.9310816666666666">
        <ele>931.6</ele>
        <time>2018-09-29T10:45:28Z</time>
      </trkpt>
      <trkpt lat="43.06357" lon="-1.9309766666666666">
        <ele>930.6</ele>
        <time>2018-09-29T10:45:30Z</time>
      </trkpt>
      <trkpt lat="43.063626666666664" lon="-1.9308916666666667">
        <ele>930.4</ele>
        <time>2018-09-29T10:45:32Z</time>
      </trkpt>
      <trkpt lat="43.063705" lon="-1.9309083333333334">
        <ele>930.2</ele>
        <time>2018-09-29T10:45:34Z</time>
      </trkpt>
      <trkpt lat="43.06378" lon="-1.930975">
        <ele>927.4</ele>
        <time>2018-09-29T10:45:36Z</time>
      </trkpt>
      <trkpt lat="43.06387" lon="-1.931045">
        <ele>924.8</ele>
        <time>2018-09-29T10:45:38Z</time>
      </trkpt>
      <trkpt lat="43.06393" lon="-1.931145">
        <ele>922.4</ele>
        <time>2018-09-29T10:45:40Z</time>
      </trkpt>
      <trkpt lat="43.06399666666667" lon="-1.9312433333333332">
        <ele>919.8</ele>
        <time>2018-09-29T10:45:42Z</time>
      </trkpt>
      <trkpt lat="43.06409166666667" lon="-1.93136">
        <ele>917.3</ele>
        <time>2018-09-29T10:45:44Z</time>
      </trkpt>
      <trkpt lat="43.06419" lon="-1.9314483333333334">
        <ele>915.2</ele>
        <time>2018-09-29T10:45:46Z</time>
      </trkpt>
      <trkpt lat="43.0643" lon="-1.9315166666666665">
        <ele>912.9</ele>
        <time>2018-09-29T10:45:48Z</time>
      </trkpt>
      <trkpt lat="43.06444" lon="-1.93159">
        <ele>910.2</ele>
        <time>2018-09-29T10:45:50Z</time>
      </trkpt>
      <trkpt lat="43.064565" lon="-1.931635">
        <ele>907.7</ele>
        <time>2018-09-29T10:45:52Z</time>
      </trkpt>
      <trkpt lat="43.064655" lon="-1.9316833333333334">
        <ele>906.5</ele>
        <time>2018-09-29T10:45:54Z</time>
      </trkpt>
      <trkpt lat="43.06474" lon="-1.93174">
        <ele>906.1</ele>
        <time>2018-09-29T10:45:57Z</time>
      </trkpt>
      <trkpt lat="43.06480166666667" lon="-1.9317966666666666">
        <ele>905.6</ele>
        <time>2018-09-29T10:45:59Z</time>
      </trkpt>
      <trkpt lat="43.064865" lon="-1.93185">
        <ele>905.1</ele>
        <time>2018-09-29T10:46:01Z</time>
      </trkpt>
      <trkpt lat="43.06494" lon="-1.931905">
        <ele>900.2</ele>
        <time>2018-09-29T10:46:03Z</time>
      </trkpt>
      <trkpt lat="43.06503" lon="-1.9319633333333335">
        <ele>898.2</ele>
        <time>2018-09-29T10:46:05Z</time>
      </trkpt>
      <trkpt lat="43.06513" lon="-1.932005">
        <ele>897.6</ele>
        <time>2018-09-29T10:46:08Z</time>
      </trkpt>
      <trkpt lat="43.065205" lon="-1.9320400000000002">
        <ele>897.1</ele>
        <time>2018-09-29T10:46:10Z</time>
      </trkpt>
      <trkpt lat="43.06528" lon="-1.932085">
        <ele>896.6</ele>
        <time>2018-09-29T10:46:12Z</time>
      </trkpt>
      <trkpt lat="43.065365" lon="-1.93213">
        <ele>895.8</ele>
        <time>2018-09-29T10:46:15Z</time>
      </trkpt>
      <trkpt lat="43.06544" lon="-1.9321666666666668">
        <ele>895.1</ele>
        <time>2018-09-29T10:46:17Z</time>
      </trkpt>
      <trkpt lat="43.06552" lon="-1.932195">
        <ele>894.4</ele>
        <time>2018-09-29T10:46:19Z</time>
      </trkpt>
      <trkpt lat="43.065625" lon="-1.9322149999999998">
        <ele>890.1</ele>
        <time>2018-09-29T10:46:21Z</time>
      </trkpt>
      <trkpt lat="43.065735" lon="-1.9322566666666667">
        <ele>884.0</ele>
        <time>2018-09-29T10:46:23Z</time>
      </trkpt>
      <trkpt lat="43.06587" lon="-1.9323350000000001">
        <ele>879.5</ele>
        <time>2018-09-29T10:46:25Z</time>
      </trkpt>
      <trkpt lat="43.06594" lon="-1.9323649999999999">
        <ele>877.6</ele>
        <time>2018-09-29T10:46:26Z</time>
      </trkpt>
      <trkpt lat="43.066025" lon="-1.932395">
        <ele>877.2</ele>
        <time>2018-09-29T10:46:28Z</time>
      </trkpt>
      <trkpt lat="43.06608" lon="-1.932465">
        <ele>876.1</ele>
        <time>2018-09-29T10:46:33Z</time>
      </trkpt>
      <trkpt lat="43.066156666666664" lon="-1.9325">
        <ele>875.3</ele>
        <time>2018-09-29T10:46:36Z</time>
      </trkpt>
      <trkpt lat="43.06625" lon="-1.932545">
        <ele>871.1</ele>
        <time>2018-09-29T10:46:39Z</time>
      </trkpt>
      <trkpt lat="43.066335" lon="-1.932555">
        <ele>870.4</ele>
        <time>2018-09-29T10:46:41Z</time>
      </trkpt>
      <trkpt lat="43.06641" lon="-1.9325866666666667">
        <ele>869.5</ele>
        <time>2018-09-29T10:46:44Z</time>
      </trkpt>
      <trkpt lat="43.06648" lon="-1.9325616666666665">
        <ele>868.8</ele>
        <time>2018-09-29T10:46:46Z</time>
      </trkpt>
      <trkpt lat="43.066585" lon="-1.9325350000000001">
        <ele>867.7</ele>
        <time>2018-09-29T10:46:49Z</time>
      </trkpt>
      <trkpt lat="43.0667" lon="-1.93256">
        <ele>861.2</ele>
        <time>2018-09-29T10:46:51Z</time>
      </trkpt>
      <trkpt lat="43.066811666666666" lon="-1.9326">
        <ele>856.5</ele>
        <time>2018-09-29T10:46:53Z</time>
      </trkpt>
      <trkpt lat="43.066935" lon="-1.9326083333333333">
        <ele>853.2</ele>
        <time>2018-09-29T10:46:55Z</time>
      </trkpt>
      <trkpt lat="43.067045" lon="-1.9326066666666666">
        <ele>851.8</ele>
        <time>2018-09-29T10:46:57Z</time>
      </trkpt>
      <trkpt lat="43.067115" lon="-1.9325700000000001">
        <ele>851.5</ele>
        <time>2018-09-29T10:46:59Z</time>
      </trkpt>
      <trkpt lat="43.067205" lon="-1.93258">
        <ele>848.7</ele>
        <time>2018-09-29T10:47:01Z</time>
      </trkpt>
      <trkpt lat="43.067325" lon="-1.9326316666666667">
        <ele>846.2</ele>
        <time>2018-09-29T10:47:03Z</time>
      </trkpt>
      <trkpt lat="43.067405" lon="-1.9326500000000002">
        <ele>845.1</ele>
        <time>2018-09-29T10:47:04Z</time>
      </trkpt>
      <trkpt lat="43.06753166666667" lon="-1.9326699999999999">
        <ele>843.0</ele>
        <time>2018-09-29T10:47:06Z</time>
      </trkpt>
      <trkpt lat="43.06762" lon="-1.932665">
        <ele>841.0</ele>
        <time>2018-09-29T10:47:08Z</time>
      </trkpt>
      <trkpt lat="43.067708333333336" lon="-1.9326699999999999">
        <ele>840.8</ele>
        <time>2018-09-29T10:47:10Z</time>
      </trkpt>
      <trkpt lat="43.067793333333334" lon="-1.9326699999999999">
        <ele>838.6</ele>
        <time>2018-09-29T10:47:12Z</time>
      </trkpt>
      <trkpt lat="43.06787" lon="-1.93263">
        <ele>837.5</ele>
        <time>2018-09-29T10:47:14Z</time>
      </trkpt>
      <trkpt lat="43.06796" lon="-1.9325899999999998">
        <ele>837.0</ele>
        <time>2018-09-29T10:47:18Z</time>
      </trkpt>
      <trkpt lat="43.068035" lon="-1.932575">
        <ele>836.6</ele>
        <time>2018-09-29T10:47:21Z</time>
      </trkpt>
      <trkpt lat="43.068115" lon="-1.9325700000000001">
        <ele>836.0</ele>
        <time>2018-09-29T10:47:25Z</time>
      </trkpt>
      <trkpt lat="43.068205" lon="-1.9325883333333334">
        <ele>835.4</ele>
        <time>2018-09-29T10:47:29Z</time>
      </trkpt>
      <trkpt lat="43.06826" lon="-1.932575">
        <ele>834.5</ele>
        <time>2018-09-29T10:47:36Z</time>
      </trkpt>
      <trkpt lat="43.068285" lon="-1.9325916666666667">
        <ele>833.6</ele>
        <time>2018-09-29T10:47:43Z</time>
      </trkpt>
      <trkpt lat="43.068365" lon="-1.9325116666666666">
        <ele>831.4</ele>
        <time>2018-09-29T10:48:00Z</time>
      </trkpt>
      <trkpt lat="43.068415" lon="-1.93244">
        <ele>830.6</ele>
        <time>2018-09-29T10:48:05Z</time>
      </trkpt>
      <trkpt lat="43.06848" lon="-1.9323866666666665">
        <ele>829.8</ele>
        <time>2018-09-29T10:48:10Z</time>
      </trkpt>
      <trkpt lat="43.068565" lon="-1.9323700000000001">
        <ele>828.9</ele>
        <time>2018-09-29T10:48:16Z</time>
      </trkpt>
      <trkpt lat="43.068635" lon="-1.93235">
        <ele>828.5</ele>
        <time>2018-09-29T10:48:19Z</time>
      </trkpt>
      <trkpt lat="43.068706666666664" lon="-1.93229">
        <ele>828.0</ele>
        <time>2018-09-29T10:48:24Z</time>
      </trkpt>
      <trkpt lat="43.068775" lon="-1.9322316666666666">
        <ele>827.6</ele>
        <time>2018-09-29T10:48:29Z</time>
      </trkpt>
      <trkpt lat="43.06882" lon="-1.9321533333333334">
        <ele>827.3</ele>
        <time>2018-09-29T10:48:34Z</time>
      </trkpt>
      <trkpt lat="43.06888166666667" lon="-1.932095">
        <ele>827.0</ele>
        <time>2018-09-29T10:48:39Z</time>
      </trkpt>
      <trkpt lat="43.06896" lon="-1.9320666666666666">
        <ele>826.7</ele>
        <time>2018-09-29T10:48:46Z</time>
      </trkpt>
      <trkpt lat="43.06903" lon="-1.9320400000000002">
        <ele>826.6</ele>
        <time>2018-09-29T10:48:50Z</time>
      </trkpt>
      <trkpt lat="43.069105" lon="-1.9319950000000001">
        <ele>826.5</ele>
        <time>2018-09-29T10:48:55Z</time>
      </trkpt>
      <trkpt lat="43.069185" lon="-1.9319783333333334">
        <ele>826.4</ele>
        <time>2018-09-29T10:48:59Z</time>
      </trkpt>
      <trkpt lat="43.069271666666666" lon="-1.9319600000000001">
        <ele>826.3</ele>
        <time>2018-09-29T10:49:02Z</time>
      </trkpt>
      <trkpt lat="43.06935" lon="-1.93193">
        <ele>826.2</ele>
        <time>2018-09-29T10:49:05Z</time>
      </trkpt>
      <trkpt lat="43.06943" lon="-1.93191">
        <ele>826.0</ele>
        <time>2018-09-29T10:49:09Z</time>
      </trkpt>
      <trkpt lat="43.069505" lon="-1.93193">
        <ele>825.8</ele>
        <time>2018-09-29T10:49:14Z</time>
      </trkpt>
      <trkpt lat="43.06958" lon="-1.93193">
        <ele>825.7</ele>
        <time>2018-09-29T10:49:18Z</time>
      </trkpt>
      <trkpt lat="43.06966" lon="-1.9318833333333334">
        <ele>825.5</ele>
        <time>2018-09-29T10:49:23Z</time>
      </trkpt>
      <trkpt lat="43.069745" lon="-1.93187">
        <ele>825.4</ele>
        <time>2018-09-29T10:49:30Z</time>
      </trkpt>
      <trkpt lat="43.069828333333334" lon="-1.931855">
        <ele>825.3</ele>
        <time>2018-09-29T10:49:35Z</time>
      </trkpt>
      <trkpt lat="43.069915" lon="-1.931855">
        <ele>825.3</ele>
        <time>2018-09-29T10:49:40Z</time>
      </trkpt>
      <trkpt lat="43.069995" lon="-1.93183">
        <ele>825.4</ele>
        <time>2018-09-29T10:49:45Z</time>
      </trkpt>
      <trkpt lat="43.07007" lon="-1.93186">
        <ele>825.4</ele>
        <time>2018-09-29T10:49:50Z</time>
      </trkpt>
      <trkpt lat="43.070155" lon="-1.93187">
        <ele>825.5</ele>
        <time>2018-09-29T10:49:54Z</time>
      </trkpt>
      <trkpt lat="43.07022666666667" lon="-1.9318866666666668">
        <ele>825.6</ele>
        <time>2018-09-29T10:49:57Z</time>
      </trkpt>
      <trkpt lat="43.07032" lon="-1.9319250000000001">
        <ele>825.6</ele>
        <time>2018-09-29T10:50:00Z</time>
      </trkpt>
      <trkpt lat="43.070395" lon="-1.93195">
        <ele>825.8</ele>
        <time>2018-09-29T10:50:04Z</time>
      </trkpt>
      <trkpt lat="43.07045166666666" lon="-1.93193">
        <ele>826.1</ele>
        <time>2018-09-29T10:50:11Z</time>
      </trkpt>
      <trkpt lat="43.070505" lon="-1.931845">
        <ele>826.2</ele>
        <time>2018-09-29T10:50:15Z</time>
      </trkpt>
      <trkpt lat="43.07055" lon="-1.9317416666666667">
        <ele>826.3</ele>
        <time>2018-09-29T10:50:18Z</time>
      </trkpt>
      <trkpt lat="43.070615" lon="-1.9316466666666667">
        <ele>826.4</ele>
        <time>2018-09-29T10:50:21Z</time>
      </trkpt>
      <trkpt lat="43.07069" lon="-1.93156">
        <ele>826.7</ele>
        <time>2018-09-29T10:50:23Z</time>
      </trkpt>
      <trkpt lat="43.070748333333334" lon="-1.9314483333333334">
        <ele>826.8</ele>
        <time>2018-09-29T10:50:25Z</time>
      </trkpt>
      <trkpt lat="43.070811666666664" lon="-1.9313383333333332">
        <ele>826.8</ele>
        <time>2018-09-29T10:50:27Z</time>
      </trkpt>
      <trkpt lat="43.07087" lon="-1.931235">
        <ele>826.8</ele>
        <time>2018-09-29T10:50:29Z</time>
      </trkpt>
      <trkpt lat="43.07094" lon="-1.931105">
        <ele>826.8</ele>
        <time>2018-09-29T10:50:31Z</time>
      </trkpt>
      <trkpt lat="43.070991666666664" lon="-1.9309866666666666">
        <ele>826.7</ele>
        <time>2018-09-29T10:50:33Z</time>
      </trkpt>
      <trkpt lat="43.07105" lon="-1.93087">
        <ele>826.6</ele>
        <time>2018-09-29T10:50:35Z</time>
      </trkpt>
      <trkpt lat="43.071086666666666" lon="-1.9307750000000001">
        <ele>826.5</ele>
        <time>2018-09-29T10:50:37Z</time>
      </trkpt>
      <trkpt lat="43.07112166666667" lon="-1.93067">
        <ele>826.4</ele>
        <time>2018-09-29T10:50:39Z</time>
      </trkpt>
      <trkpt lat="43.071151666666665" lon="-1.9305400000000001">
        <ele>826.4</ele>
        <time>2018-09-29T10:50:42Z</time>
      </trkpt>
      <trkpt lat="43.071205" lon="-1.9304450000000002">
        <ele>826.4</ele>
        <time>2018-09-29T10:50:45Z</time>
      </trkpt>
      <trkpt lat="43.07125" lon="-1.9303483333333333">
        <ele>826.4</ele>
        <time>2018-09-29T10:50:48Z</time>
      </trkpt>
      <trkpt lat="43.07128" lon="-1.9302583333333332">
        <ele>826.3</ele>
        <time>2018-09-29T10:50:52Z</time>
      </trkpt>
      <trkpt lat="43.07132166666667" lon="-1.9301499999999998">
        <ele>826.2</ele>
        <time>2018-09-29T10:50:57Z</time>
      </trkpt>
      <trkpt lat="43.07137" lon="-1.930045">
        <ele>826.1</ele>
        <time>2018-09-29T10:51:01Z</time>
      </trkpt>
      <trkpt lat="43.07142" lon="-1.92996">
        <ele>826.0</ele>
        <time>2018-09-29T10:51:06Z</time>
      </trkpt>
      <trkpt lat="43.071466666666666" lon="-1.92987">
        <ele>826.0</ele>
        <time>2018-09-29T10:51:10Z</time>
      </trkpt>
      <trkpt lat="43.071495" lon="-1.92976">
        <ele>825.9</ele>
        <time>2018-09-29T10:51:14Z</time>
      </trkpt>
      <trkpt lat="43.07153" lon="-1.9296600000000002">
        <ele>825.9</ele>
        <time>2018-09-29T10:51:20Z</time>
      </trkpt>
      <trkpt lat="43.071545" lon="-1.929565">
        <ele>825.9</ele>
        <time>2018-09-29T10:51:23Z</time>
      </trkpt>
      <trkpt lat="43.07159" lon="-1.9294533333333335">
        <ele>825.9</ele>
        <time>2018-09-29T10:51:27Z</time>
      </trkpt>
      <trkpt lat="43.07163" lon="-1.92936">
        <ele>825.9</ele>
        <time>2018-09-29T10:51:31Z</time>
      </trkpt>
      <trkpt lat="43.07168" lon="-1.9292783333333334">
        <ele>825.9</ele>
        <time>2018-09-29T10:51:34Z</time>
      </trkpt>
      <trkpt lat="43.07171" lon="-1.9291866666666666">
        <ele>825.9</ele>
        <time>2018-09-29T10:51:37Z</time>
      </trkpt>
      <trkpt lat="43.07176" lon="-1.92909">
        <ele>825.9</ele>
        <time>2018-09-29T10:51:41Z</time>
      </trkpt>
      <trkpt lat="43.071795" lon="-1.928995">
        <ele>825.9</ele>
        <time>2018-09-29T10:51:46Z</time>
      </trkpt>
      <trkpt lat="43.07184" lon="-1.9289033333333334">
        <ele>825.9</ele>
        <time>2018-09-29T10:51:50Z</time>
      </trkpt>
      <trkpt lat="43.07188" lon="-1.9288150000000002">
        <ele>826.0</ele>
        <time>2018-09-29T10:51:53Z</time>
      </trkpt>
      <trkpt lat="43.07191666666667" lon="-1.9287100000000001">
        <ele>826.0</ele>
        <time>2018-09-29T10:51:58Z</time>
      </trkpt>
      <trkpt lat="43.071965" lon="-1.9286016666666668">
        <ele>826.0</ele>
        <time>2018-09-29T10:52:02Z</time>
      </trkpt>
      <trkpt lat="43.072015" lon="-1.928525">
        <ele>826.0</ele>
        <time>2018-09-29T10:52:07Z</time>
      </trkpt>
      <trkpt lat="43.072065" lon="-1.92842">
        <ele>826.0</ele>
        <time>2018-09-29T10:52:12Z</time>
      </trkpt>
      <trkpt lat="43.072135" lon="-1.928345">
        <ele>826.0</ele>
        <time>2018-09-29T10:52:16Z</time>
      </trkpt>
      <trkpt lat="43.072215" lon="-1.928275">
        <ele>826.0</ele>
        <time>2018-09-29T10:52:20Z</time>
      </trkpt>
      <trkpt lat="43.07228" lon="-1.9282249999999999">
        <ele>826.0</ele>
        <time>2018-09-29T10:52:24Z</time>
      </trkpt>
      <trkpt lat="43.072338333333335" lon="-1.92814">
        <ele>826.0</ele>
        <time>2018-09-29T10:52:28Z</time>
      </trkpt>
      <trkpt lat="43.072406666666666" lon="-1.9280599999999999">
        <ele>826.0</ele>
        <time>2018-09-29T10:52:33Z</time>
      </trkpt>
      <trkpt lat="43.07246" lon="-1.9279866666666667">
        <ele>826.1</ele>
        <time>2018-09-29T10:52:36Z</time>
      </trkpt>
      <trkpt lat="43.07248833333333" lon="-1.927875">
        <ele>826.1</ele>
        <time>2018-09-29T10:52:40Z</time>
      </trkpt>
      <trkpt lat="43.07253" lon="-1.9277700000000002">
        <ele>826.1</ele>
        <time>2018-09-29T10:52:43Z</time>
      </trkpt>
      <trkpt lat="43.072563333333335" lon="-1.927675">
        <ele>826.2</ele>
        <time>2018-09-29T10:52:46Z</time>
      </trkpt>
      <trkpt lat="43.072625" lon="-1.9276">
        <ele>826.2</ele>
        <time>2018-09-29T10:52:50Z</time>
      </trkpt>
      <trkpt lat="43.072696666666666" lon="-1.927545">
        <ele>826.2</ele>
        <time>2018-09-29T10:52:55Z</time>
      </trkpt>
      <trkpt lat="43.072775" lon="-1.9274666666666667">
        <ele>826.3</ele>
        <time>2018-09-29T10:52:59Z</time>
      </trkpt>
      <trkpt lat="43.07286" lon="-1.9274499999999999">
        <ele>826.3</ele>
        <time>2018-09-29T10:53:03Z</time>
      </trkpt>
      <trkpt lat="43.072955" lon="-1.9274550000000001">
        <ele>826.3</ele>
        <time>2018-09-29T10:53:06Z</time>
      </trkpt>
      <trkpt lat="43.07306666666667" lon="-1.92744">
        <ele>826.3</ele>
        <time>2018-09-29T10:53:09Z</time>
      </trkpt>
      <trkpt lat="43.07321666666667" lon="-1.9274200000000001">
        <ele>826.3</ele>
        <time>2018-09-29T10:53:11Z</time>
      </trkpt>
      <trkpt lat="43.0733" lon="-1.927385">
        <ele>826.2</ele>
        <time>2018-09-29T10:53:12Z</time>
      </trkpt>
      <trkpt lat="43.07338" lon="-1.92733">
        <ele>826.2</ele>
        <time>2018-09-29T10:53:13Z</time>
      </trkpt>
      <trkpt lat="43.073475" lon="-1.9272983333333333">
        <ele>826.2</ele>
        <time>2018-09-29T10:53:15Z</time>
      </trkpt>
      <trkpt lat="43.07357" lon="-1.92727">
        <ele>826.2</ele>
        <time>2018-09-29T10:53:18Z</time>
      </trkpt>
      <trkpt lat="43.073625" lon="-1.9272016666666667">
        <ele>826.1</ele>
        <time>2018-09-29T10:53:21Z</time>
      </trkpt>
      <trkpt lat="43.07365" lon="-1.9270800000000001">
        <ele>826.1</ele>
        <time>2018-09-29T10:53:22Z</time>
      </trkpt>
      <trkpt lat="43.07369" lon="-1.926925">
        <ele>826.0</ele>
        <time>2018-09-29T10:53:24Z</time>
      </trkpt>
      <trkpt lat="43.07373" lon="-1.92676">
        <ele>826.0</ele>
        <time>2018-09-29T10:53:26Z</time>
      </trkpt>
      <trkpt lat="43.07377" lon="-1.926655">
        <ele>826.0</ele>
        <time>2018-09-29T10:53:28Z</time>
      </trkpt>
      <trkpt lat="43.073845" lon="-1.9266033333333334">
        <ele>825.9</ele>
        <time>2018-09-29T10:53:32Z</time>
      </trkpt>
      <trkpt lat="43.07392" lon="-1.92665">
        <ele>825.9</ele>
        <time>2018-09-29T10:53:35Z</time>
      </trkpt>
      <trkpt lat="43.073991666666664" lon="-1.92664">
        <ele>825.9</ele>
        <time>2018-09-29T10:53:36Z</time>
      </trkpt>
      <trkpt lat="43.074146666666664" lon="-1.92666">
        <ele>825.8</ele>
        <time>2018-09-29T10:53:38Z</time>
      </trkpt>
      <trkpt lat="43.074275" lon="-1.9266633333333334">
        <ele>825.8</ele>
        <time>2018-09-29T10:53:40Z</time>
      </trkpt>
      <trkpt lat="43.074365" lon="-1.926625">
        <ele>825.7</ele>
        <time>2018-09-29T10:53:42Z</time>
      </trkpt>
      <trkpt lat="43.074455" lon="-1.926565">
        <ele>825.7</ele>
        <time>2018-09-29T10:53:45Z</time>
      </trkpt>
      <trkpt lat="43.074511666666666" lon="-1.9265033333333332">
        <ele>825.7</ele>
        <time>2018-09-29T10:53:47Z</time>
      </trkpt>
      <trkpt lat="43.074585" lon="-1.9264350000000001">
        <ele>825.7</ele>
        <time>2018-09-29T10:53:50Z</time>
      </trkpt>
      <trkpt lat="43.07466" lon="-1.9264100000000002">
        <ele>825.6</ele>
        <time>2018-09-29T10:53:54Z</time>
      </trkpt>
      <trkpt lat="43.074753333333334" lon="-1.9264000000000001">
        <ele>825.6</ele>
        <time>2018-09-29T10:53:59Z</time>
      </trkpt>
      <trkpt lat="43.074815" lon="-1.92634">
        <ele>825.5</ele>
        <time>2018-09-29T10:54:02Z</time>
      </trkpt>
      <trkpt lat="43.07491" lon="-1.9263">
        <ele>825.5</ele>
        <time>2018-09-29T10:54:05Z</time>
      </trkpt>
      <trkpt lat="43.07501" lon="-1.926305">
        <ele>825.0</ele>
        <time>2018-09-29T10:54:08Z</time>
      </trkpt>
      <trkpt lat="43.07509" lon="-1.9263">
        <ele>824.6</ele>
        <time>2018-09-29T10:54:09Z</time>
      </trkpt>
      <trkpt lat="43.075185" lon="-1.9263">
        <ele>824.1</ele>
        <time>2018-09-29T10:54:10Z</time>
      </trkpt>
      <trkpt lat="43.075285" lon="-1.926295">
        <ele>823.3</ele>
        <time>2018-09-29T10:54:11Z</time>
      </trkpt>
      <trkpt lat="43.075395" lon="-1.926275">
        <ele>823.1</ele>
        <time>2018-09-29T10:54:13Z</time>
      </trkpt>
      <trkpt lat="43.075475" lon="-1.926205">
        <ele>822.7</ele>
        <time>2018-09-29T10:54:15Z</time>
      </trkpt>
      <trkpt lat="43.075555" lon="-1.9261916666666665">
        <ele>818.3</ele>
        <time>2018-09-29T10:54:17Z</time>
      </trkpt>
      <trkpt lat="43.075625" lon="-1.9262533333333334">
        <ele>816.2</ele>
        <time>2018-09-29T10:54:18Z</time>
      </trkpt>
      <trkpt lat="43.075705" lon="-1.9262416666666666">
        <ele>815.4</ele>
        <time>2018-09-29T10:54:21Z</time>
      </trkpt>
      <trkpt lat="43.075795" lon="-1.92626">
        <ele>814.3</ele>
        <time>2018-09-29T10:54:24Z</time>
      </trkpt>
      <trkpt lat="43.07590166666667" lon="-1.9263">
        <ele>812.9</ele>
        <time>2018-09-29T10:54:27Z</time>
      </trkpt>
      <trkpt lat="43.07599" lon="-1.92633">
        <ele>811.9</ele>
        <time>2018-09-29T10:54:29Z</time>
      </trkpt>
      <trkpt lat="43.07608166666667" lon="-1.9263916666666667">
        <ele>810.3</ele>
        <time>2018-09-29T10:54:32Z</time>
      </trkpt>
      <trkpt lat="43.07616" lon="-1.9264299999999999">
        <ele>809.3</ele>
        <time>2018-09-29T10:54:34Z</time>
      </trkpt>
      <trkpt lat="43.076256666666666" lon="-1.926525">
        <ele>804.0</ele>
        <time>2018-09-29T10:54:36Z</time>
      </trkpt>
      <trkpt lat="43.076345" lon="-1.9265966666666667">
        <ele>803.2</ele>
        <time>2018-09-29T10:54:38Z</time>
      </trkpt>
      <trkpt lat="43.076415" lon="-1.9266633333333334">
        <ele>802.0</ele>
        <time>2018-09-29T10:54:41Z</time>
      </trkpt>
      <trkpt lat="43.076495" lon="-1.9266766666666668">
        <ele>801.2</ele>
        <time>2018-09-29T10:54:43Z</time>
      </trkpt>
      <trkpt lat="43.07659666666667" lon="-1.926715">
        <ele>800.0</ele>
        <time>2018-09-29T10:54:46Z</time>
      </trkpt>
      <trkpt lat="43.076685" lon="-1.926735">
        <ele>798.9</ele>
        <time>2018-09-29T10:54:49Z</time>
      </trkpt>
      <trkpt lat="43.076775" lon="-1.926755">
        <ele>797.8</ele>
        <time>2018-09-29T10:54:52Z</time>
      </trkpt>
      <trkpt lat="43.076875" lon="-1.9267766666666666">
        <ele>796.6</ele>
        <time>2018-09-29T10:54:55Z</time>
      </trkpt>
      <trkpt lat="43.07697" lon="-1.9268399999999999">
        <ele>795.6</ele>
        <time>2018-09-29T10:54:58Z</time>
      </trkpt>
      <trkpt lat="43.077045" lon="-1.926895">
        <ele>794.5</ele>
        <time>2018-09-29T10:55:01Z</time>
      </trkpt>
      <trkpt lat="43.07716" lon="-1.92689">
        <ele>793.6</ele>
        <time>2018-09-29T10:55:04Z</time>
      </trkpt>
      <trkpt lat="43.07726666666667" lon="-1.9268399999999999">
        <ele>790.0</ele>
        <time>2018-09-29T10:55:06Z</time>
      </trkpt>
      <trkpt lat="43.07735" lon="-1.9267400000000001">
        <ele>787.2</ele>
        <time>2018-09-29T10:55:08Z</time>
      </trkpt>
      <trkpt lat="43.077416666666664" lon="-1.926655">
        <ele>784.8</ele>
        <time>2018-09-29T10:55:10Z</time>
      </trkpt>
      <trkpt lat="43.077488333333335" lon="-1.9265883333333333">
        <ele>784.4</ele>
        <time>2018-09-29T10:55:12Z</time>
      </trkpt>
      <trkpt lat="43.07757" lon="-1.9265233333333334">
        <ele>782.4</ele>
        <time>2018-09-29T10:55:14Z</time>
      </trkpt>
      <trkpt lat="43.077643333333334" lon="-1.9264899999999998">
        <ele>782.1</ele>
        <time>2018-09-29T10:55:16Z</time>
      </trkpt>
      <trkpt lat="43.077751666666664" lon="-1.9264266666666665">
        <ele>781.7</ele>
        <time>2018-09-29T10:55:18Z</time>
      </trkpt>
      <trkpt lat="43.07782" lon="-1.92638">
        <ele>779.9</ele>
        <time>2018-09-29T10:55:19Z</time>
      </trkpt>
      <trkpt lat="43.077936666666666" lon="-1.92626">
        <ele>777.0</ele>
        <time>2018-09-29T10:55:21Z</time>
      </trkpt>
      <trkpt lat="43.07801666666667" lon="-1.9261416666666666">
        <ele>775.6</ele>
        <time>2018-09-29T10:55:23Z</time>
      </trkpt>
      <trkpt lat="43.07808" lon="-1.9260666666666668">
        <ele>775.3</ele>
        <time>2018-09-29T10:55:25Z</time>
      </trkpt>
      <trkpt lat="43.078155" lon="-1.9259833333333334">
        <ele>774.8</ele>
        <time>2018-09-29T10:55:28Z</time>
      </trkpt>
      <trkpt lat="43.078205" lon="-1.9258783333333334">
        <ele>773.9</ele>
        <time>2018-09-29T10:55:32Z</time>
      </trkpt>
      <trkpt lat="43.07824166666666" lon="-1.9257766666666667">
        <ele>772.9</ele>
        <time>2018-09-29T10:55:35Z</time>
      </trkpt>
      <trkpt lat="43.078285" lon="-1.9256816666666667">
        <ele>770.8</ele>
        <time>2018-09-29T10:55:40Z</time>
      </trkpt>
      <trkpt lat="43.07836" lon="-1.9256250000000001">
        <ele>769.4</ele>
        <time>2018-09-29T10:55:43Z</time>
      </trkpt>
      <trkpt lat="43.078435" lon="-1.92557">
        <ele>768.0</ele>
        <time>2018-09-29T10:55:46Z</time>
      </trkpt>
      <trkpt lat="43.078505" lon="-1.9255166666666668">
        <ele>766.1</ele>
        <time>2018-09-29T10:55:50Z</time>
      </trkpt>
      <trkpt lat="43.078585" lon="-1.92544">
        <ele>764.2</ele>
        <time>2018-09-29T10:55:54Z</time>
      </trkpt>
      <trkpt lat="43.07865666666667" lon="-1.92538">
        <ele>762.8</ele>
        <time>2018-09-29T10:55:57Z</time>
      </trkpt>
      <trkpt lat="43.078725" lon="-1.9253266666666666">
        <ele>761.4</ele>
        <time>2018-09-29T10:56:00Z</time>
      </trkpt>
      <trkpt lat="43.07881166666667" lon="-1.925265">
        <ele>760.0</ele>
        <time>2018-09-29T10:56:03Z</time>
      </trkpt>
      <trkpt lat="43.078905" lon="-1.92523">
        <ele>758.7</ele>
        <time>2018-09-29T10:56:06Z</time>
      </trkpt>
      <trkpt lat="43.07898" lon="-1.925205">
        <ele>757.3</ele>
        <time>2018-09-29T10:56:09Z</time>
      </trkpt>
      <trkpt lat="43.07904" lon="-1.925145">
        <ele>756.0</ele>
        <time>2018-09-29T10:56:12Z</time>
      </trkpt>
      <trkpt lat="43.079096666666665" lon="-1.925085">
        <ele>754.8</ele>
        <time>2018-09-29T10:56:15Z</time>
      </trkpt>
      <trkpt lat="43.07917166666667" lon="-1.925025">
        <ele>753.1</ele>
        <time>2018-09-29T10:56:19Z</time>
      </trkpt>
      <trkpt lat="43.07924" lon="-1.92499">
        <ele>751.4</ele>
        <time>2018-09-29T10:56:23Z</time>
      </trkpt>
      <trkpt lat="43.07932666666667" lon="-1.924995">
        <ele>749.7</ele>
        <time>2018-09-29T10:56:27Z</time>
      </trkpt>
      <trkpt lat="43.079395" lon="-1.9250516666666666">
        <ele>748.9</ele>
        <time>2018-09-29T10:56:29Z</time>
      </trkpt>
      <trkpt lat="43.079485" lon="-1.925145">
        <ele>747.6</ele>
        <time>2018-09-29T10:56:32Z</time>
      </trkpt>
      <trkpt lat="43.079565" lon="-1.92523">
        <ele>742.8</ele>
        <time>2018-09-29T10:56:35Z</time>
      </trkpt>
      <trkpt lat="43.079625" lon="-1.925305">
        <ele>736.9</ele>
        <time>2018-09-29T10:56:37Z</time>
      </trkpt>
      <trkpt lat="43.07968666666667" lon="-1.9253916666666666">
        <ele>732.9</ele>
        <time>2018-09-29T10:56:39Z</time>
      </trkpt>
      <trkpt lat="43.07974" lon="-1.9254799999999999">
        <ele>730.2</ele>
        <time>2018-09-29T10:56:41Z</time>
      </trkpt>
      <trkpt lat="43.079785" lon="-1.925575">
        <ele>730.0</ele>
        <time>2018-09-29T10:56:43Z</time>
      </trkpt>
      <trkpt lat="43.07982" lon="-1.9256799999999998">
        <ele>729.7</ele>
        <time>2018-09-29T10:56:46Z</time>
      </trkpt>
      <trkpt lat="43.079906666666666" lon="-1.92576">
        <ele>729.2</ele>
        <time>2018-09-29T10:56:51Z</time>
      </trkpt>
      <trkpt lat="43.08000166666667" lon="-1.9257900000000001">
        <ele>728.8</ele>
        <time>2018-09-29T10:56:55Z</time>
      </trkpt>
      <trkpt lat="43.08009" lon="-1.92581">
        <ele>727.5</ele>
        <time>2018-09-29T10:56:57Z</time>
      </trkpt>
      <trkpt lat="43.080195" lon="-1.925845">
        <ele>725.8</ele>
        <time>2018-09-29T10:56:59Z</time>
      </trkpt>
      <trkpt lat="43.080295" lon="-1.9259">
        <ele>724.5</ele>
        <time>2018-09-29T10:57:01Z</time>
      </trkpt>
      <trkpt lat="43.08040666666667" lon="-1.92591">
        <ele>723.5</ele>
        <time>2018-09-29T10:57:04Z</time>
      </trkpt>
      <trkpt lat="43.080511666666666" lon="-1.925935">
        <ele>722.7</ele>
        <time>2018-09-29T10:57:05Z</time>
      </trkpt>
      <trkpt lat="43.080598333333334" lon="-1.92595">
        <ele>721.9</ele>
        <time>2018-09-29T10:57:07Z</time>
      </trkpt>
      <trkpt lat="43.080695" lon="-1.925945">
        <ele>721.4</ele>
        <time>2018-09-29T10:57:11Z</time>
      </trkpt>
      <trkpt lat="43.08077" lon="-1.92593">
        <ele>721.3</ele>
        <time>2018-09-29T10:57:13Z</time>
      </trkpt>
      <trkpt lat="43.080855" lon="-1.9258950000000001">
        <ele>721.0</ele>
        <time>2018-09-29T10:57:17Z</time>
      </trkpt>
      <trkpt lat="43.080935" lon="-1.92581">
        <ele>720.7</ele>
        <time>2018-09-29T10:57:20Z</time>
      </trkpt>
      <trkpt lat="43.08095" lon="-1.9256966666666666">
        <ele>720.3</ele>
        <time>2018-09-29T10:57:23Z</time>
      </trkpt>
      <trkpt lat="43.0809" lon="-1.9256183333333334">
        <ele>719.7</ele>
        <time>2018-09-29T10:57:25Z</time>
      </trkpt>
      <trkpt lat="43.08083666666667" lon="-1.92553">
        <ele>716.1</ele>
        <time>2018-09-29T10:57:27Z</time>
      </trkpt>
      <trkpt lat="43.080805" lon="-1.9254383333333334">
        <ele>715.5</ele>
        <time>2018-09-29T10:57:29Z</time>
      </trkpt>
      <trkpt lat="43.080775" lon="-1.9253316666666667">
        <ele>713.3</ele>
        <time>2018-09-29T10:57:35Z</time>
      </trkpt>
      <trkpt lat="43.08075" lon="-1.92522">
        <ele>712.0</ele>
        <time>2018-09-29T10:57:38Z</time>
      </trkpt>
      <trkpt lat="43.080735" lon="-1.92511">
        <ele>710.1</ele>
        <time>2018-09-29T10:57:42Z</time>
      </trkpt>
      <trkpt lat="43.080715" lon="-1.9250150000000001">
        <ele>707.7</ele>
        <time>2018-09-29T10:57:47Z</time>
      </trkpt>
      <trkpt lat="43.0807" lon="-1.9249033333333334">
        <ele>705.1</ele>
        <time>2018-09-29T10:57:52Z</time>
      </trkpt>
      <trkpt lat="43.08065" lon="-1.92484">
        <ele>702.0</ele>
        <time>2018-09-29T10:57:59Z</time>
      </trkpt>
      <trkpt lat="43.080625" lon="-1.924775">
        <ele>698.4</ele>
        <time>2018-09-29T10:58:06Z</time>
      </trkpt>
      <trkpt lat="43.08069" lon="-1.9247066666666668">
        <ele>695.5</ele>
        <time>2018-09-29T10:58:12Z</time>
      </trkpt>
      <trkpt lat="43.08076" lon="-1.924665">
        <ele>692.8</ele>
        <time>2018-09-29T10:58:18Z</time>
      </trkpt>
      <trkpt lat="43.080841666666664" lon="-1.9246400000000001">
        <ele>690.5</ele>
        <time>2018-09-29T10:58:23Z</time>
      </trkpt>
      <trkpt lat="43.08095" lon="-1.9246183333333333">
        <ele>682.3</ele>
        <time>2018-09-29T10:58:26Z</time>
      </trkpt>
      <trkpt lat="43.081046666666666" lon="-1.9246116666666668">
        <ele>677.1</ele>
        <time>2018-09-29T10:58:28Z</time>
      </trkpt>
      <trkpt lat="43.081145" lon="-1.924625">
        <ele>676.5</ele>
        <time>2018-09-29T10:58:31Z</time>
      </trkpt>
      <trkpt lat="43.081215" lon="-1.9246616666666667">
        <ele>675.9</ele>
        <time>2018-09-29T10:58:34Z</time>
      </trkpt>
      <trkpt lat="43.0813" lon="-1.9247116666666666">
        <ele>675.3</ele>
        <time>2018-09-29T10:58:37Z</time>
      </trkpt>
      <trkpt lat="43.081385" lon="-1.924765">
        <ele>674.4</ele>
        <time>2018-09-29T10:58:41Z</time>
      </trkpt>
      <trkpt lat="43.081365" lon="-1.9246333333333334">
        <ele>673.0</ele>
        <time>2018-09-29T10:58:48Z</time>
      </trkpt>
      <trkpt lat="43.08131" lon="-1.9245316666666668">
        <ele>669.2</ele>
        <time>2018-09-29T10:58:50Z</time>
      </trkpt>
      <trkpt lat="43.081255" lon="-1.9244283333333332">
        <ele>666.7</ele>
        <time>2018-09-29T10:58:52Z</time>
      </trkpt>
      <trkpt lat="43.08118" lon="-1.9243466666666666">
        <ele>664.9</ele>
        <time>2018-09-29T10:58:54Z</time>
      </trkpt>
      <trkpt lat="43.081085" lon="-1.9243383333333333">
        <ele>663.6</ele>
        <time>2018-09-29T10:58:56Z</time>
      </trkpt>
      <trkpt lat="43.08099" lon="-1.9243066666666666">
        <ele>662.4</ele>
        <time>2018-09-29T10:58:58Z</time>
      </trkpt>
      <trkpt lat="43.08089" lon="-1.9242516666666667">
        <ele>661.4</ele>
        <time>2018-09-29T10:59:00Z</time>
      </trkpt>
      <trkpt lat="43.080785" lon="-1.924155">
        <ele>660.5</ele>
        <time>2018-09-29T10:59:02Z</time>
      </trkpt>
      <trkpt lat="43.080695" lon="-1.9240916666666668">
        <ele>659.8</ele>
        <time>2018-09-29T10:59:04Z</time>
      </trkpt>
      <trkpt lat="43.080615" lon="-1.9240366666666666">
        <ele>659.7</ele>
        <time>2018-09-29T10:59:07Z</time>
      </trkpt>
      <trkpt lat="43.080545" lon="-1.9239983333333335">
        <ele>659.5</ele>
        <time>2018-09-29T10:59:11Z</time>
      </trkpt>
      <trkpt lat="43.080475" lon="-1.923945">
        <ele>659.2</ele>
        <time>2018-09-29T10:59:14Z</time>
      </trkpt>
      <trkpt lat="43.080395" lon="-1.92386">
        <ele>659.0</ele>
        <time>2018-09-29T10:59:17Z</time>
      </trkpt>
      <trkpt lat="43.08034" lon="-1.923785">
        <ele>658.7</ele>
        <time>2018-09-29T10:59:20Z</time>
      </trkpt>
      <trkpt lat="43.080275" lon="-1.923705">
        <ele>658.3</ele>
        <time>2018-09-29T10:59:23Z</time>
      </trkpt>
      <trkpt lat="43.080215" lon="-1.9236316666666666">
        <ele>658.1</ele>
        <time>2018-09-29T10:59:25Z</time>
      </trkpt>
      <trkpt lat="43.08014" lon="-1.92352">
        <ele>655.8</ele>
        <time>2018-09-29T10:59:28Z</time>
      </trkpt>
      <trkpt lat="43.080075" lon="-1.9234066666666667">
        <ele>654.3</ele>
        <time>2018-09-29T10:59:30Z</time>
      </trkpt>
      <trkpt lat="43.08002" lon="-1.9232783333333334">
        <ele>653.0</ele>
        <time>2018-09-29T10:59:32Z</time>
      </trkpt>
      <trkpt lat="43.07996" lon="-1.9231250000000002">
        <ele>651.9</ele>
        <time>2018-09-29T10:59:34Z</time>
      </trkpt>
      <trkpt lat="43.079895" lon="-1.92296">
        <ele>650.9</ele>
        <time>2018-09-29T10:59:36Z</time>
      </trkpt>
      <trkpt lat="43.079831666666664" lon="-1.9228266666666667">
        <ele>649.8</ele>
        <time>2018-09-29T10:59:38Z</time>
      </trkpt>
      <trkpt lat="43.07976333333333" lon="-1.9227266666666667">
        <ele>648.9</ele>
        <time>2018-09-29T10:59:40Z</time>
      </trkpt>
      <trkpt lat="43.07969" lon="-1.9226416666666668">
        <ele>648.0</ele>
        <time>2018-09-29T10:59:42Z</time>
      </trkpt>
      <trkpt lat="43.07962" lon="-1.9225683333333334">
        <ele>647.0</ele>
        <time>2018-09-29T10:59:44Z</time>
      </trkpt>
      <trkpt lat="43.079526666666666" lon="-1.9225116666666668">
        <ele>646.1</ele>
        <time>2018-09-29T10:59:46Z</time>
      </trkpt>
      <trkpt lat="43.079435" lon="-1.9225016666666668">
        <ele>645.7</ele>
        <time>2018-09-29T10:59:48Z</time>
      </trkpt>
      <trkpt lat="43.079415" lon="-1.9224716666666666">
        <ele>645.3</ele>
        <time>2018-09-29T10:59:55Z</time>
      </trkpt>
      <trkpt lat="43.07949" lon="-1.92241">
        <ele>645.0</ele>
        <time>2018-09-29T10:59:59Z</time>
      </trkpt>
      <trkpt lat="43.079565" lon="-1.922385">
        <ele>644.6</ele>
        <time>2018-09-29T11:00:03Z</time>
      </trkpt>
      <trkpt lat="43.079655" lon="-1.9223766666666666">
        <ele>644.3</ele>
        <time>2018-09-29T11:00:06Z</time>
      </trkpt>
      <trkpt lat="43.07976166666667" lon="-1.9223816666666667">
        <ele>643.9</ele>
        <time>2018-09-29T11:00:09Z</time>
      </trkpt>
      <trkpt lat="43.07985" lon="-1.9224166666666667">
        <ele>643.5</ele>
        <time>2018-09-29T11:00:12Z</time>
      </trkpt>
      <trkpt lat="43.079935" lon="-1.9224516666666667">
        <ele>643.1</ele>
        <time>2018-09-29T11:00:15Z</time>
      </trkpt>
      <trkpt lat="43.080015" lon="-1.922485">
        <ele>642.7</ele>
        <time>2018-09-29T11:00:18Z</time>
      </trkpt>
      <trkpt lat="43.080133333333336" lon="-1.92252">
        <ele>639.8</ele>
        <time>2018-09-29T11:00:21Z</time>
      </trkpt>
      <trkpt lat="43.08023166666667" lon="-1.9225666666666665">
        <ele>637.9</ele>
        <time>2018-09-29T11:00:23Z</time>
      </trkpt>
      <trkpt lat="43.08032" lon="-1.922605">
        <ele>636.5</ele>
        <time>2018-09-29T11:00:25Z</time>
      </trkpt>
      <trkpt lat="43.08040666666667" lon="-1.922655">
        <ele>635.6</ele>
        <time>2018-09-29T11:00:27Z</time>
      </trkpt>
      <trkpt lat="43.0805" lon="-1.9227">
        <ele>634.8</ele>
        <time>2018-09-29T11:00:29Z</time>
      </trkpt>
      <trkpt lat="43.080585" lon="-1.922765">
        <ele>634.1</ele>
        <time>2018-09-29T11:00:31Z</time>
      </trkpt>
      <trkpt lat="43.080668333333335" lon="-1.922885">
        <ele>633.1</ele>
        <time>2018-09-29T11:00:33Z</time>
      </trkpt>
      <trkpt lat="43.080745" lon="-1.92299">
        <ele>631.9</ele>
        <time>2018-09-29T11:00:35Z</time>
      </trkpt>
      <trkpt lat="43.080805" lon="-1.9230916666666666">
        <ele>631.0</ele>
        <time>2018-09-29T11:00:37Z</time>
      </trkpt>
      <trkpt lat="43.080865" lon="-1.923165">
        <ele>630.9</ele>
        <time>2018-09-29T11:00:39Z</time>
      </trkpt>
      <trkpt lat="43.08094" lon="-1.92326">
        <ele>629.5</ele>
        <time>2018-09-29T11:00:42Z</time>
      </trkpt>
      <trkpt lat="43.080995" lon="-1.92337">
        <ele>629.4</ele>
        <time>2018-09-29T11:00:44Z</time>
      </trkpt>
      <trkpt lat="43.081046666666666" lon="-1.9234466666666665">
        <ele>628.1</ele>
        <time>2018-09-29T11:00:46Z</time>
      </trkpt>
      <trkpt lat="43.08113" lon="-1.9234583333333333">
        <ele>627.1</ele>
        <time>2018-09-29T11:00:48Z</time>
      </trkpt>
      <trkpt lat="43.08121666666667" lon="-1.9234466666666665">
        <ele>626.4</ele>
        <time>2018-09-29T11:00:50Z</time>
      </trkpt>
      <trkpt lat="43.081315" lon="-1.923405">
        <ele>625.8</ele>
        <time>2018-09-29T11:00:52Z</time>
      </trkpt>
      <trkpt lat="43.08142" lon="-1.9233850000000001">
        <ele>625.2</ele>
        <time>2018-09-29T11:00:55Z</time>
      </trkpt>
      <trkpt lat="43.081496666666666" lon="-1.9233850000000001">
        <ele>625.2</ele>
        <time>2018-09-29T11:00:56Z</time>
      </trkpt>
      <trkpt lat="43.08159" lon="-1.9234">
        <ele>624.3</ele>
        <time>2018-09-29T11:00:58Z</time>
      </trkpt>
      <trkpt lat="43.081665" lon="-1.9234">
        <ele>623.3</ele>
        <time>2018-09-29T11:01:00Z</time>
      </trkpt>
      <trkpt lat="43.08179" lon="-1.9234200000000001">
        <ele>622.2</ele>
        <time>2018-09-29T11:01:02Z</time>
      </trkpt>
      <trkpt lat="43.081875" lon="-1.9234399999999998">
        <ele>621.9</ele>
        <time>2018-09-29T11:01:04Z</time>
      </trkpt>
      <trkpt lat="43.08189" lon="-1.9234399999999998">
        <ele>621.6</ele>
        <time>2018-09-29T11:01:11Z</time>
      </trkpt>
      <trkpt lat="43.081845" lon="-1.9233533333333335">
        <ele>619.8</ele>
        <time>2018-09-29T11:01:19Z</time>
      </trkpt>
      <trkpt lat="43.081795" lon="-1.9232633333333333">
        <ele>619.2</ele>
        <time>2018-09-29T11:01:21Z</time>
      </trkpt>
      <trkpt lat="43.08174" lon="-1.9231850000000001">
        <ele>615.5</ele>
        <time>2018-09-29T11:01:23Z</time>
      </trkpt>
      <trkpt lat="43.08168" lon="-1.92312">
        <ele>615.0</ele>
        <time>2018-09-29T11:01:25Z</time>
      </trkpt>
      <trkpt lat="43.081605" lon="-1.9230833333333333">
        <ele>609.7</ele>
        <time>2018-09-29T11:01:27Z</time>
      </trkpt>
      <trkpt lat="43.081511666666664" lon="-1.923055">
        <ele>605.7</ele>
        <time>2018-09-29T11:01:29Z</time>
      </trkpt>
      <trkpt lat="43.08141" lon="-1.923035">
        <ele>602.8</ele>
        <time>2018-09-29T11:01:31Z</time>
      </trkpt>
      <trkpt lat="43.08127666666667" lon="-1.9229500000000002">
        <ele>600.6</ele>
        <time>2018-09-29T11:01:33Z</time>
      </trkpt>
      <trkpt lat="43.08117" lon="-1.9228450000000001">
        <ele>599.0</ele>
        <time>2018-09-29T11:01:35Z</time>
      </trkpt>
      <trkpt lat="43.081125" lon="-1.9227433333333335">
        <ele>597.6</ele>
        <time>2018-09-29T11:01:37Z</time>
      </trkpt>
      <trkpt lat="43.08105666666667" lon="-1.922655">
        <ele>596.5</ele>
        <time>2018-09-29T11:01:39Z</time>
      </trkpt>
      <trkpt lat="43.081" lon="-1.92259">
        <ele>596.4</ele>
        <time>2018-09-29T11:01:41Z</time>
      </trkpt>
      <trkpt lat="43.080915" lon="-1.92252">
        <ele>596.2</ele>
        <time>2018-09-29T11:01:44Z</time>
      </trkpt>
      <trkpt lat="43.08083666666667" lon="-1.9224266666666665">
        <ele>596.1</ele>
        <time>2018-09-29T11:01:47Z</time>
      </trkpt>
      <trkpt lat="43.080765" lon="-1.9223400000000002">
        <ele>594.9</ele>
        <time>2018-09-29T11:01:49Z</time>
      </trkpt>
      <trkpt lat="43.08069" lon="-1.92224">
        <ele>594.2</ele>
        <time>2018-09-29T11:01:51Z</time>
      </trkpt>
      <trkpt lat="43.080615" lon="-1.922135">
        <ele>593.6</ele>
        <time>2018-09-29T11:01:53Z</time>
      </trkpt>
      <trkpt lat="43.080535" lon="-1.9220166666666665">
        <ele>593.0</ele>
        <time>2018-09-29T11:01:55Z</time>
      </trkpt>
      <trkpt lat="43.080485" lon="-1.921945">
        <ele>592.7</ele>
        <time>2018-09-29T11:01:56Z</time>
      </trkpt>
      <trkpt lat="43.080435" lon="-1.921875">
        <ele>592.5</ele>
        <time>2018-09-29T11:01:57Z</time>
      </trkpt>
      <trkpt lat="43.080355" lon="-1.9217483333333334">
        <ele>592.0</ele>
        <time>2018-09-29T11:01:59Z</time>
      </trkpt>
      <trkpt lat="43.080265" lon="-1.921635">
        <ele>591.5</ele>
        <time>2018-09-29T11:02:01Z</time>
      </trkpt>
      <trkpt lat="43.08017" lon="-1.921545">
        <ele>591.0</ele>
        <time>2018-09-29T11:02:03Z</time>
      </trkpt>
      <trkpt lat="43.08011" lon="-1.9214866666666666">
        <ele>590.9</ele>
        <time>2018-09-29T11:02:05Z</time>
      </trkpt>
      <trkpt lat="43.080016666666666" lon="-1.9214">
        <ele>590.5</ele>
        <time>2018-09-29T11:02:08Z</time>
      </trkpt>
      <trkpt lat="43.07993" lon="-1.9213133333333334">
        <ele>590.4</ele>
        <time>2018-09-29T11:02:11Z</time>
      </trkpt>
      <trkpt lat="43.079838333333335" lon="-1.921275">
        <ele>589.8</ele>
        <time>2018-09-29T11:02:14Z</time>
      </trkpt>
      <trkpt lat="43.079755" lon="-1.9212500000000001">
        <ele>589.0</ele>
        <time>2018-09-29T11:02:17Z</time>
      </trkpt>
      <trkpt lat="43.07966166666667" lon="-1.92123">
        <ele>588.4</ele>
        <time>2018-09-29T11:02:18Z</time>
      </trkpt>
      <trkpt lat="43.07955" lon="-1.9212016666666667">
        <ele>587.8</ele>
        <time>2018-09-29T11:02:20Z</time>
      </trkpt>
      <trkpt lat="43.079445" lon="-1.92119">
        <ele>587.1</ele>
        <time>2018-09-29T11:02:22Z</time>
      </trkpt>
      <trkpt lat="43.079345" lon="-1.92117">
        <ele>586.3</ele>
        <time>2018-09-29T11:02:24Z</time>
      </trkpt>
      <trkpt lat="43.07925" lon="-1.9211716666666665">
        <ele>585.4</ele>
        <time>2018-09-29T11:02:26Z</time>
      </trkpt>
      <trkpt lat="43.07914666666667" lon="-1.92117">
        <ele>584.6</ele>
        <time>2018-09-29T11:02:28Z</time>
      </trkpt>
      <trkpt lat="43.079056666666666" lon="-1.92118">
        <ele>584.1</ele>
        <time>2018-09-29T11:02:30Z</time>
      </trkpt>
      <trkpt lat="43.078955" lon="-1.921185">
        <ele>584.0</ele>
        <time>2018-09-29T11:02:33Z</time>
      </trkpt>
      <trkpt lat="43.07886" lon="-1.92119">
        <ele>583.8</ele>
        <time>2018-09-29T11:02:36Z</time>
      </trkpt>
      <trkpt lat="43.078765" lon="-1.921185">
        <ele>583.4</ele>
        <time>2018-09-29T11:02:40Z</time>
      </trkpt>
      <trkpt lat="43.07871" lon="-1.921095">
        <ele>583.0</ele>
        <time>2018-09-29T11:02:44Z</time>
      </trkpt>
      <trkpt lat="43.078725" lon="-1.9209733333333334">
        <ele>582.6</ele>
        <time>2018-09-29T11:02:48Z</time>
      </trkpt>
      <trkpt lat="43.07874666666667" lon="-1.9208366666666667">
        <ele>582.3</ele>
        <time>2018-09-29T11:02:51Z</time>
      </trkpt>
      <trkpt lat="43.078775" lon="-1.920715">
        <ele>582.0</ele>
        <time>2018-09-29T11:02:54Z</time>
      </trkpt>
      <trkpt lat="43.07872" lon="-1.92061">
        <ele>581.7</ele>
        <time>2018-09-29T11:02:57Z</time>
      </trkpt>
      <trkpt lat="43.07866" lon="-1.9204966666666667">
        <ele>579.6</ele>
        <time>2018-09-29T11:02:59Z</time>
      </trkpt>
      <trkpt lat="43.07862" lon="-1.9203350000000001">
        <ele>578.2</ele>
        <time>2018-09-29T11:03:01Z</time>
      </trkpt>
      <trkpt lat="43.078585" lon="-1.920175">
        <ele>577.2</ele>
        <time>2018-09-29T11:03:03Z</time>
      </trkpt>
      <trkpt lat="43.078525" lon="-1.92002">
        <ele>576.4</ele>
        <time>2018-09-29T11:03:05Z</time>
      </trkpt>
      <trkpt lat="43.078435" lon="-1.91989">
        <ele>575.9</ele>
        <time>2018-09-29T11:03:07Z</time>
      </trkpt>
      <trkpt lat="43.078318333333335" lon="-1.9197883333333334">
        <ele>575.3</ele>
        <time>2018-09-29T11:03:09Z</time>
      </trkpt>
      <trkpt lat="43.078215" lon="-1.919715">
        <ele>574.7</ele>
        <time>2018-09-29T11:03:11Z</time>
      </trkpt>
      <trkpt lat="43.078115" lon="-1.91964">
        <ele>574.2</ele>
        <time>2018-09-29T11:03:13Z</time>
      </trkpt>
      <trkpt lat="43.078005" lon="-1.9195799999999998">
        <ele>573.7</ele>
        <time>2018-09-29T11:03:15Z</time>
      </trkpt>
      <trkpt lat="43.077915" lon="-1.9195250000000001">
        <ele>573.2</ele>
        <time>2018-09-29T11:03:17Z</time>
      </trkpt>
      <trkpt lat="43.07783" lon="-1.9194616666666668">
        <ele>572.5</ele>
        <time>2018-09-29T11:03:19Z</time>
      </trkpt>
      <trkpt lat="43.07774666666667" lon="-1.9194133333333334">
        <ele>571.9</ele>
        <time>2018-09-29T11:03:21Z</time>
      </trkpt>
      <trkpt lat="43.07763666666666" lon="-1.919375">
        <ele>571.5</ele>
        <time>2018-09-29T11:03:24Z</time>
      </trkpt>
      <trkpt lat="43.077555" lon="-1.91937">
        <ele>571.1</ele>
        <time>2018-09-29T11:03:26Z</time>
      </trkpt>
      <trkpt lat="43.077455" lon="-1.9193799999999999">
        <ele>570.3</ele>
        <time>2018-09-29T11:03:28Z</time>
      </trkpt>
      <trkpt lat="43.07734" lon="-1.9194066666666667">
        <ele>569.5</ele>
        <time>2018-09-29T11:03:30Z</time>
      </trkpt>
      <trkpt lat="43.077215" lon="-1.91946">
        <ele>568.7</ele>
        <time>2018-09-29T11:03:32Z</time>
      </trkpt>
      <trkpt lat="43.077095" lon="-1.91951">
        <ele>567.7</ele>
        <time>2018-09-29T11:03:34Z</time>
      </trkpt>
      <trkpt lat="43.07698" lon="-1.919555">
        <ele>566.6</ele>
        <time>2018-09-29T11:03:36Z</time>
      </trkpt>
      <trkpt lat="43.076883333333335" lon="-1.9195799999999998">
        <ele>565.3</ele>
        <time>2018-09-29T11:03:38Z</time>
      </trkpt>
      <trkpt lat="43.07681" lon="-1.919605">
        <ele>565.2</ele>
        <time>2018-09-29T11:03:40Z</time>
      </trkpt>
      <trkpt lat="43.07674" lon="-1.919625">
        <ele>564.0</ele>
        <time>2018-09-29T11:03:42Z</time>
      </trkpt>
      <trkpt lat="43.07666666666667" lon="-1.919615">
        <ele>561.8</ele>
        <time>2018-09-29T11:03:44Z</time>
      </trkpt>
      <trkpt lat="43.076565" lon="-1.919605">
        <ele>559.9</ele>
        <time>2018-09-29T11:03:46Z</time>
      </trkpt>
      <trkpt lat="43.076475" lon="-1.9195983333333333">
        <ele>558.1</ele>
        <time>2018-09-29T11:03:48Z</time>
      </trkpt>
      <trkpt lat="43.076375" lon="-1.919575">
        <ele>556.6</ele>
        <time>2018-09-29T11:03:50Z</time>
      </trkpt>
      <trkpt lat="43.07626666666667" lon="-1.91955">
        <ele>555.5</ele>
        <time>2018-09-29T11:03:52Z</time>
      </trkpt>
      <trkpt lat="43.07615" lon="-1.9195600000000002">
        <ele>554.3</ele>
        <time>2018-09-29T11:03:54Z</time>
      </trkpt>
      <trkpt lat="43.076035" lon="-1.919565">
        <ele>553.2</ele>
        <time>2018-09-29T11:03:56Z</time>
      </trkpt>
      <trkpt lat="43.07591" lon="-1.919535">
        <ele>552.1</ele>
        <time>2018-09-29T11:03:58Z</time>
      </trkpt>
      <trkpt lat="43.075835" lon="-1.9194933333333335">
        <ele>551.5</ele>
        <time>2018-09-29T11:03:59Z</time>
      </trkpt>
      <trkpt lat="43.075755" lon="-1.9193500000000001">
        <ele>550.2</ele>
        <time>2018-09-29T11:04:01Z</time>
      </trkpt>
      <trkpt lat="43.07572666666667" lon="-1.9192049999999998">
        <ele>549.1</ele>
        <time>2018-09-29T11:04:03Z</time>
      </trkpt>
      <trkpt lat="43.0757" lon="-1.919085">
        <ele>548.2</ele>
        <time>2018-09-29T11:04:06Z</time>
      </trkpt>
      <trkpt lat="43.07579" lon="-1.9189683333333334">
        <ele>543.2</ele>
        <time>2018-09-29T11:05:33Z</time>
      </trkpt>
      <trkpt lat="43.07588" lon="-1.91892">
        <ele>542.6</ele>
        <time>2018-09-29T11:05:36Z</time>
      </trkpt>
      <trkpt lat="43.07597666666667" lon="-1.9188666666666667">
        <ele>542.0</ele>
        <time>2018-09-29T11:05:39Z</time>
      </trkpt>
      <trkpt lat="43.076051666666665" lon="-1.918825">
        <ele>538.7</ele>
        <time>2018-09-29T11:05:41Z</time>
      </trkpt>
      <trkpt lat="43.076121666666666" lon="-1.91873">
        <ele>536.5</ele>
        <time>2018-09-29T11:05:43Z</time>
      </trkpt>
      <trkpt lat="43.076185" lon="-1.91865">
        <ele>535.6</ele>
        <time>2018-09-29T11:05:45Z</time>
      </trkpt>
      <trkpt lat="43.07625" lon="-1.9185566666666667">
        <ele>534.3</ele>
        <time>2018-09-29T11:05:47Z</time>
      </trkpt>
      <trkpt lat="43.076315" lon="-1.91845">
        <ele>533.4</ele>
        <time>2018-09-29T11:05:49Z</time>
      </trkpt>
      <trkpt lat="43.076385" lon="-1.9183416666666666">
        <ele>532.8</ele>
        <time>2018-09-29T11:05:51Z</time>
      </trkpt>
      <trkpt lat="43.076475" lon="-1.9182483333333333">
        <ele>532.3</ele>
        <time>2018-09-29T11:05:53Z</time>
      </trkpt>
      <trkpt lat="43.076555" lon="-1.9181716666666666">
        <ele>531.9</ele>
        <time>2018-09-29T11:05:55Z</time>
      </trkpt>
      <trkpt lat="43.076635" lon="-1.91812">
        <ele>531.6</ele>
        <time>2018-09-29T11:05:57Z</time>
      </trkpt>
      <trkpt lat="43.076721666666664" lon="-1.918055">
        <ele>531.3</ele>
        <time>2018-09-29T11:05:59Z</time>
      </trkpt>
      <trkpt lat="43.076791666666665" lon="-1.9179916666666668">
        <ele>531.1</ele>
        <time>2018-09-29T11:06:01Z</time>
      </trkpt>
      <trkpt lat="43.07687" lon="-1.91791">
        <ele>531.0</ele>
        <time>2018-09-29T11:06:03Z</time>
      </trkpt>
      <trkpt lat="43.076951666666666" lon="-1.91783">
        <ele>530.9</ele>
        <time>2018-09-29T11:06:05Z</time>
      </trkpt>
      <trkpt lat="43.07703166666667" lon="-1.917745">
        <ele>530.7</ele>
        <time>2018-09-29T11:06:07Z</time>
      </trkpt>
      <trkpt lat="43.077101666666664" lon="-1.917665">
        <ele>530.6</ele>
        <time>2018-09-29T11:06:09Z</time>
      </trkpt>
      <trkpt lat="43.07716166666667" lon="-1.9175716666666667">
        <ele>530.5</ele>
        <time>2018-09-29T11:06:11Z</time>
      </trkpt>
      <trkpt lat="43.0772" lon="-1.9174516666666666">
        <ele>530.4</ele>
        <time>2018-09-29T11:06:13Z</time>
      </trkpt>
      <trkpt lat="43.077235" lon="-1.91731">
        <ele>530.3</ele>
        <time>2018-09-29T11:06:15Z</time>
      </trkpt>
      <trkpt lat="43.07726" lon="-1.9171683333333331">
        <ele>530.2</ele>
        <time>2018-09-29T11:06:17Z</time>
      </trkpt>
      <trkpt lat="43.077315" lon="-1.91702">
        <ele>530.0</ele>
        <time>2018-09-29T11:06:19Z</time>
      </trkpt>
      <trkpt lat="43.077376666666666" lon="-1.9168933333333333">
        <ele>529.9</ele>
        <time>2018-09-29T11:06:21Z</time>
      </trkpt>
      <trkpt lat="43.07743" lon="-1.9168083333333334">
        <ele>529.9</ele>
        <time>2018-09-29T11:06:23Z</time>
      </trkpt>
      <trkpt lat="43.077475" lon="-1.9167166666666666">
        <ele>529.8</ele>
        <time>2018-09-29T11:06:25Z</time>
      </trkpt>
      <trkpt lat="43.07753666666667" lon="-1.916615">
        <ele>529.8</ele>
        <time>2018-09-29T11:06:27Z</time>
      </trkpt>
      <trkpt lat="43.07759" lon="-1.9165299999999998">
        <ele>529.7</ele>
        <time>2018-09-29T11:06:29Z</time>
      </trkpt>
      <trkpt lat="43.07763166666667" lon="-1.916425">
        <ele>529.7</ele>
        <time>2018-09-29T11:06:31Z</time>
      </trkpt>
      <trkpt lat="43.07768" lon="-1.916305">
        <ele>529.7</ele>
        <time>2018-09-29T11:06:33Z</time>
      </trkpt>
      <trkpt lat="43.077745" lon="-1.91622">
        <ele>529.7</ele>
        <time>2018-09-29T11:06:35Z</time>
      </trkpt>
      <trkpt lat="43.07784" lon="-1.9160883333333332">
        <ele>529.6</ele>
        <time>2018-09-29T11:06:37Z</time>
      </trkpt>
      <trkpt lat="43.07792" lon="-1.9160083333333335">
        <ele>529.5</ele>
        <time>2018-09-29T11:06:39Z</time>
      </trkpt>
      <trkpt lat="43.077995" lon="-1.91595">
        <ele>529.5</ele>
        <time>2018-09-29T11:06:41Z</time>
      </trkpt>
      <trkpt lat="43.07807" lon="-1.915875">
        <ele>529.4</ele>
        <time>2018-09-29T11:06:43Z</time>
      </trkpt>
      <trkpt lat="43.07815" lon="-1.915785">
        <ele>529.4</ele>
        <time>2018-09-29T11:06:45Z</time>
      </trkpt>
      <trkpt lat="43.07823666666667" lon="-1.9157199999999999">
        <ele>529.3</ele>
        <time>2018-09-29T11:06:47Z</time>
      </trkpt>
      <trkpt lat="43.078316666666666" lon="-1.915675">
        <ele>529.3</ele>
        <time>2018-09-29T11:06:49Z</time>
      </trkpt>
      <trkpt lat="43.078336666666665" lon="-1.9155533333333334">
        <ele>529.2</ele>
        <time>2018-09-29T11:06:51Z</time>
      </trkpt>
      <trkpt lat="43.07831" lon="-1.915445">
        <ele>529.2</ele>
        <time>2018-09-29T11:06:53Z</time>
      </trkpt>
      <trkpt lat="43.078356666666664" lon="-1.91534">
        <ele>529.2</ele>
        <time>2018-09-29T11:06:56Z</time>
      </trkpt>
      <trkpt lat="43.078445" lon="-1.91536">
        <ele>529.2</ele>
        <time>2018-09-29T11:06:58Z</time>
      </trkpt>
      <trkpt lat="43.078535" lon="-1.9153666666666667">
        <ele>529.1</ele>
        <time>2018-09-29T11:07:00Z</time>
      </trkpt>
      <trkpt lat="43.078625" lon="-1.91538">
        <ele>529.1</ele>
        <time>2018-09-29T11:07:02Z</time>
      </trkpt>
      <trkpt lat="43.07868" lon="-1.9152933333333333">
        <ele>529.1</ele>
        <time>2018-09-29T11:07:05Z</time>
      </trkpt>
      <trkpt lat="43.07865" lon="-1.9151966666666667">
        <ele>529.2</ele>
        <time>2018-09-29T11:07:07Z</time>
      </trkpt>
      <trkpt lat="43.078625" lon="-1.915035">
        <ele>529.2</ele>
        <time>2018-09-29T11:07:09Z</time>
      </trkpt>
      <trkpt lat="43.07859" lon="-1.9149166666666666">
        <ele>529.2</ele>
        <time>2018-09-29T11:07:11Z</time>
      </trkpt>
      <trkpt lat="43.078575" lon="-1.9148016666666667">
        <ele>529.2</ele>
        <time>2018-09-29T11:07:13Z</time>
      </trkpt>
      <trkpt lat="43.07857" lon="-1.9146666666666667">
        <ele>529.2</ele>
        <time>2018-09-29T11:07:15Z</time>
      </trkpt>
      <trkpt lat="43.07858" lon="-1.914545">
        <ele>529.2</ele>
        <time>2018-09-29T11:07:17Z</time>
      </trkpt>
    </trkseg>
  </trk>
</gpx>
